<?xml version="1.0" encoding="UTF-8" standalone="no" ?>
<gpx xmlns="http://www.topografix.com/GPX/1/1" xmlns:xsi="http://www.w3.org/2001/XMLSchema-instance" xsi:schemaLocation="http://www.topografix.com/GPX/1/1 http://www.topografix.com/GPX/1/1/gpx.xsd" version="1.1" creator="VisuGPX - https://www.visugpx.com">
  <metadata>
    <name>1706071000ROBJeunes</name>
    <desc><![CDATA[Excellente sortie et temps superbe Bonne forme de tous]]></desc>
  </metadata>
  <trk>
    <name><![CDATA[1706071000ROBJeunes]]></name>
    <cmt><![CDATA[Deconnection et arret apres chute. Aboutage]]></cmt>
    <trkseg>
      <trkpt lat="43.41583" lon="6.07035">
        <ele>207</ele>
        <time>2017-06-07T12:04:36Z</time>
      </trkpt>
      <trkpt lat="43.41583" lon="6.07035">
        <ele>207.11999511719</ele>
        <time>2017-06-07T12:04:39Z</time>
      </trkpt>
      <trkpt lat="43.41583" lon="6.07035">
        <ele>207.19999694824</ele>
        <time>2017-06-07T12:04:41Z</time>
      </trkpt>
      <trkpt lat="43.41583" lon="6.07035">
        <ele>207.19999694824</ele>
        <time>2017-06-07T12:04:42Z</time>
      </trkpt>
      <trkpt lat="43.41583" lon="6.07035">
        <ele>207.25</ele>
        <time>2017-06-07T12:04:43Z</time>
      </trkpt>
      <trkpt lat="43.41583" lon="6.07035">
        <ele>207.39999389648</ele>
        <time>2017-06-07T12:04:46Z</time>
      </trkpt>
      <trkpt lat="43.41583" lon="6.07035">
        <ele>207.60000610352</ele>
        <time>2017-06-07T12:04:48Z</time>
      </trkpt>
      <trkpt lat="43.41583" lon="6.07034">
        <ele>207.73333740234</ele>
        <time>2017-06-07T12:04:55Z</time>
      </trkpt>
      <trkpt lat="43.41583" lon="6.07034">
        <ele>207.75555419922</ele>
        <time>2017-06-07T12:04:56Z</time>
      </trkpt>
      <trkpt lat="43.41583" lon="6.07034">
        <ele>207.80000305176</ele>
        <time>2017-06-07T12:05:00Z</time>
      </trkpt>
      <trkpt lat="43.41583" lon="6.07034">
        <ele>207.60000610352</ele>
        <time>2017-06-07T12:05:01Z</time>
      </trkpt>
      <trkpt lat="43.41583" lon="6.07034">
        <ele>207.60000610352</ele>
        <time>2017-06-07T12:05:03Z</time>
      </trkpt>
      <trkpt lat="43.41583" lon="6.07034">
        <ele>207.56666564941</ele>
        <time>2017-06-07T12:05:04Z</time>
      </trkpt>
      <trkpt lat="43.41583" lon="6.07034">
        <ele>207.5333404541</ele>
        <time>2017-06-07T12:05:05Z</time>
      </trkpt>
      <trkpt lat="43.41582" lon="6.07035">
        <ele>207.43333435059</ele>
        <time>2017-06-07T12:05:08Z</time>
      </trkpt>
      <trkpt lat="43.41582" lon="6.07035">
        <ele>207.39999389648</ele>
        <time>2017-06-07T12:05:10Z</time>
      </trkpt>
      <trkpt lat="43.41582" lon="6.07035">
        <ele>207.19999694824</ele>
        <time>2017-06-07T12:05:11Z</time>
      </trkpt>
      <trkpt lat="43.41582" lon="6.07035">
        <ele>207.19999694824</ele>
        <time>2017-06-07T12:05:12Z</time>
      </trkpt>
      <trkpt lat="43.41582" lon="6.07035">
        <ele>207</ele>
        <time>2017-06-07T12:05:13Z</time>
      </trkpt>
      <trkpt lat="43.41582" lon="6.07036">
        <ele>207</ele>
        <time>2017-06-07T12:05:14Z</time>
      </trkpt>
      <trkpt lat="43.41582" lon="6.07036">
        <ele>206.89999389648</ele>
        <time>2017-06-07T12:05:15Z</time>
      </trkpt>
      <trkpt lat="43.41582" lon="6.07037">
        <ele>206.80000305176</ele>
        <time>2017-06-07T12:05:17Z</time>
      </trkpt>
      <trkpt lat="43.41583" lon="6.07037">
        <ele>206.70001220703</ele>
        <time>2017-06-07T12:05:18Z</time>
      </trkpt>
      <trkpt lat="43.41583" lon="6.07038">
        <ele>206.60000610352</ele>
        <time>2017-06-07T12:05:19Z</time>
      </trkpt>
      <trkpt lat="43.41583" lon="6.07038">
        <ele>206.60000610352</ele>
        <time>2017-06-07T12:05:20Z</time>
      </trkpt>
      <trkpt lat="43.41583" lon="6.07038">
        <ele>206.60000610352</ele>
        <time>2017-06-07T12:05:22Z</time>
      </trkpt>
      <trkpt lat="43.41583" lon="6.07038">
        <ele>206.60000610352</ele>
        <time>2017-06-07T12:05:23Z</time>
      </trkpt>
      <trkpt lat="43.41583" lon="6.07038">
        <ele>206.60000610352</ele>
        <time>2017-06-07T12:05:26Z</time>
      </trkpt>
      <trkpt lat="43.41583" lon="6.07038">
        <ele>206.60000610352</ele>
        <time>2017-06-07T12:05:28Z</time>
      </trkpt>
      <trkpt lat="43.41583" lon="6.07038">
        <ele>206.80000305176</ele>
        <time>2017-06-07T12:05:30Z</time>
      </trkpt>
      <trkpt lat="43.41583" lon="6.07038">
        <ele>206.80000305176</ele>
        <time>2017-06-07T12:05:31Z</time>
      </trkpt>
      <trkpt lat="43.41583" lon="6.07039">
        <ele>206.86666870117</ele>
        <time>2017-06-07T12:05:33Z</time>
      </trkpt>
      <trkpt lat="43.41583" lon="6.07039">
        <ele>206.89999389648</ele>
        <time>2017-06-07T12:05:34Z</time>
      </trkpt>
      <trkpt lat="43.41583" lon="6.07039">
        <ele>206.96667480469</ele>
        <time>2017-06-07T12:05:36Z</time>
      </trkpt>
      <trkpt lat="43.41583" lon="6.07039">
        <ele>207</ele>
        <time>2017-06-07T12:05:38Z</time>
      </trkpt>
      <trkpt lat="43.41583" lon="6.07039">
        <ele>207</ele>
        <time>2017-06-07T12:05:41Z</time>
      </trkpt>
      <trkpt lat="43.41583" lon="6.07039">
        <ele>207.10000610352</ele>
        <time>2017-06-07T12:05:43Z</time>
      </trkpt>
      <trkpt lat="43.41583" lon="6.07039">
        <ele>207.19999694824</ele>
        <time>2017-06-07T12:05:46Z</time>
      </trkpt>
      <trkpt lat="43.41583" lon="6.07039">
        <ele>206.80000305176</ele>
        <time>2017-06-07T12:05:49Z</time>
      </trkpt>
      <trkpt lat="43.41583" lon="6.07039">
        <ele>206.60000610352</ele>
        <time>2017-06-07T12:05:54Z</time>
      </trkpt>
      <trkpt lat="43.41583" lon="6.07038">
        <ele>207.01333618164</ele>
        <time>2017-06-07T12:05:59Z</time>
      </trkpt>
      <trkpt lat="43.41584" lon="6.07038">
        <ele>207.03999328613</ele>
        <time>2017-06-07T12:06:01Z</time>
      </trkpt>
      <trkpt lat="43.41584" lon="6.07038">
        <ele>207.06666564941</ele>
        <time>2017-06-07T12:06:03Z</time>
      </trkpt>
      <trkpt lat="43.41584" lon="6.07037">
        <ele>207.08000183106</ele>
        <time>2017-06-07T12:06:04Z</time>
      </trkpt>
      <trkpt lat="43.41584" lon="6.07037">
        <ele>207.09333801269</ele>
        <time>2017-06-07T12:06:05Z</time>
      </trkpt>
      <trkpt lat="43.41583" lon="6.07037">
        <ele>207.10665893555</ele>
        <time>2017-06-07T12:06:06Z</time>
      </trkpt>
      <trkpt lat="43.41583" lon="6.07036">
        <ele>207.11999511719</ele>
        <time>2017-06-07T12:06:07Z</time>
      </trkpt>
      <trkpt lat="43.41583" lon="6.07035">
        <ele>207.13333129883</ele>
        <time>2017-06-07T12:06:08Z</time>
      </trkpt>
      <trkpt lat="43.41582" lon="6.07034">
        <ele>207.14666748047</ele>
        <time>2017-06-07T12:06:09Z</time>
      </trkpt>
      <trkpt lat="43.41582" lon="6.07032">
        <ele>207.16000366211</ele>
        <time>2017-06-07T12:06:10Z</time>
      </trkpt>
      <trkpt lat="43.41582" lon="6.07029">
        <ele>207.17332458496</ele>
        <time>2017-06-07T12:06:11Z</time>
      </trkpt>
      <trkpt lat="43.41582" lon="6.07027">
        <ele>207.1866607666</ele>
        <time>2017-06-07T12:06:12Z</time>
      </trkpt>
      <trkpt lat="43.41582" lon="6.07024">
        <ele>207.19999694824</ele>
        <time>2017-06-07T12:06:13Z</time>
      </trkpt>
      <trkpt lat="43.41581" lon="6.07021">
        <ele>207.19999694824</ele>
        <time>2017-06-07T12:06:14Z</time>
      </trkpt>
      <trkpt lat="43.41581" lon="6.07018">
        <ele>207.19999694824</ele>
        <time>2017-06-07T12:06:15Z</time>
      </trkpt>
      <trkpt lat="43.41581" lon="6.07015">
        <ele>207</ele>
        <time>2017-06-07T12:06:16Z</time>
      </trkpt>
      <trkpt lat="43.4158" lon="6.07008">
        <ele>206.89999389648</ele>
        <time>2017-06-07T12:06:18Z</time>
      </trkpt>
      <trkpt lat="43.4158" lon="6.07005">
        <ele>206.80000305176</ele>
        <time>2017-06-07T12:06:19Z</time>
      </trkpt>
      <trkpt lat="43.41579" lon="6.06998">
        <ele>206.60000610352</ele>
        <time>2017-06-07T12:06:21Z</time>
      </trkpt>
      <trkpt lat="43.41578" lon="6.0699">
        <ele>206.39999389648</ele>
        <time>2017-06-07T12:06:24Z</time>
      </trkpt>
      <trkpt lat="43.41578" lon="6.06987">
        <ele>206.60000610352</ele>
        <time>2017-06-07T12:06:25Z</time>
      </trkpt>
      <trkpt lat="43.41577" lon="6.06984">
        <ele>206.80000305176</ele>
        <time>2017-06-07T12:06:26Z</time>
      </trkpt>
      <trkpt lat="43.41577" lon="6.06981">
        <ele>206.80000305176</ele>
        <time>2017-06-07T12:06:27Z</time>
      </trkpt>
      <trkpt lat="43.41577" lon="6.06979">
        <ele>206.86666870117</ele>
        <time>2017-06-07T12:06:28Z</time>
      </trkpt>
      <trkpt lat="43.41576" lon="6.06976">
        <ele>207</ele>
        <time>2017-06-07T12:06:30Z</time>
      </trkpt>
      <trkpt lat="43.41575" lon="6.06974">
        <ele>207.06666564941</ele>
        <time>2017-06-07T12:06:31Z</time>
      </trkpt>
      <trkpt lat="43.41574" lon="6.06974">
        <ele>207.13333129883</ele>
        <time>2017-06-07T12:06:32Z</time>
      </trkpt>
      <trkpt lat="43.41573" lon="6.06973">
        <ele>207.19999694824</ele>
        <time>2017-06-07T12:06:33Z</time>
      </trkpt>
      <trkpt lat="43.41572" lon="6.06973">
        <ele>207.26666259766</ele>
        <time>2017-06-07T12:06:34Z</time>
      </trkpt>
      <trkpt lat="43.41568" lon="6.06972">
        <ele>207.39999389648</ele>
        <time>2017-06-07T12:06:36Z</time>
      </trkpt>
      <trkpt lat="43.41566" lon="6.06972">
        <ele>207.39999389648</ele>
        <time>2017-06-07T12:06:37Z</time>
      </trkpt>
      <trkpt lat="43.41563" lon="6.06972">
        <ele>207.39999389648</ele>
        <time>2017-06-07T12:06:38Z</time>
      </trkpt>
      <trkpt lat="43.41561" lon="6.06973">
        <ele>207.39999389648</ele>
        <time>2017-06-07T12:06:39Z</time>
      </trkpt>
      <trkpt lat="43.41558" lon="6.06973">
        <ele>207.39999389648</ele>
        <time>2017-06-07T12:06:40Z</time>
      </trkpt>
      <trkpt lat="43.41555" lon="6.06974">
        <ele>207.19999694824</ele>
        <time>2017-06-07T12:06:41Z</time>
      </trkpt>
      <trkpt lat="43.4155" lon="6.06974">
        <ele>207</ele>
        <time>2017-06-07T12:06:43Z</time>
      </trkpt>
      <trkpt lat="43.41547" lon="6.06973">
        <ele>206.80000305176</ele>
        <time>2017-06-07T12:06:45Z</time>
      </trkpt>
      <trkpt lat="43.41545" lon="6.06972">
        <ele>206.80000305176</ele>
        <time>2017-06-07T12:06:46Z</time>
      </trkpt>
      <trkpt lat="43.41544" lon="6.06971">
        <ele>206.60000610352</ele>
        <time>2017-06-07T12:06:47Z</time>
      </trkpt>
      <trkpt lat="43.41542" lon="6.0697">
        <ele>206.60000610352</ele>
        <time>2017-06-07T12:06:48Z</time>
      </trkpt>
      <trkpt lat="43.4154" lon="6.0697">
        <ele>206.55999755859</ele>
        <time>2017-06-07T12:06:49Z</time>
      </trkpt>
      <trkpt lat="43.41531" lon="6.06971">
        <ele>206.44000244141</ele>
        <time>2017-06-07T12:06:52Z</time>
      </trkpt>
      <trkpt lat="43.41528" lon="6.06971">
        <ele>206.39999389648</ele>
        <time>2017-06-07T12:06:53Z</time>
      </trkpt>
      <trkpt lat="43.41525" lon="6.06971">
        <ele>206.39999389648</ele>
        <time>2017-06-07T12:06:54Z</time>
      </trkpt>
      <trkpt lat="43.41521" lon="6.06971">
        <ele>206.29998779297</ele>
        <time>2017-06-07T12:06:55Z</time>
      </trkpt>
      <trkpt lat="43.41515" lon="6.0697">
        <ele>206.19999694824</ele>
        <time>2017-06-07T12:06:57Z</time>
      </trkpt>
      <trkpt lat="43.41513" lon="6.06969">
        <ele>206.14999389648</ele>
        <time>2017-06-07T12:06:58Z</time>
      </trkpt>
      <trkpt lat="43.41511" lon="6.06968">
        <ele>206.10000610352</ele>
        <time>2017-06-07T12:06:59Z</time>
      </trkpt>
      <trkpt lat="43.41508" lon="6.06967">
        <ele>206.05000305176</ele>
        <time>2017-06-07T12:07:00Z</time>
      </trkpt>
      <trkpt lat="43.41506" lon="6.06965">
        <ele>206</ele>
        <time>2017-06-07T12:07:01Z</time>
      </trkpt>
      <trkpt lat="43.41502" lon="6.06962">
        <ele>205.89999389648</ele>
        <time>2017-06-07T12:07:03Z</time>
      </trkpt>
      <trkpt lat="43.41499" lon="6.0696">
        <ele>205.80000305176</ele>
        <time>2017-06-07T12:07:04Z</time>
      </trkpt>
      <trkpt lat="43.41493" lon="6.06952">
        <ele>206</ele>
        <time>2017-06-07T12:07:07Z</time>
      </trkpt>
      <trkpt lat="43.41491" lon="6.06948">
        <ele>206</ele>
        <time>2017-06-07T12:07:08Z</time>
      </trkpt>
      <trkpt lat="43.41489" lon="6.06944">
        <ele>206</ele>
        <time>2017-06-07T12:07:09Z</time>
      </trkpt>
      <trkpt lat="43.41488" lon="6.0694">
        <ele>206</ele>
        <time>2017-06-07T12:07:10Z</time>
      </trkpt>
      <trkpt lat="43.41487" lon="6.06935">
        <ele>206</ele>
        <time>2017-06-07T12:07:11Z</time>
      </trkpt>
      <trkpt lat="43.41486" lon="6.0693">
        <ele>205.80000305176</ele>
        <time>2017-06-07T12:07:12Z</time>
      </trkpt>
      <trkpt lat="43.41487" lon="6.06925">
        <ele>205.80000305176</ele>
        <time>2017-06-07T12:07:13Z</time>
      </trkpt>
      <trkpt lat="43.41488" lon="6.0692">
        <ele>205.60000610352</ele>
        <time>2017-06-07T12:07:14Z</time>
      </trkpt>
      <trkpt lat="43.41488" lon="6.06915">
        <ele>205.60000610352</ele>
        <time>2017-06-07T12:07:15Z</time>
      </trkpt>
      <trkpt lat="43.41488" lon="6.0691">
        <ele>205.39999389648</ele>
        <time>2017-06-07T12:07:16Z</time>
      </trkpt>
      <trkpt lat="43.41486" lon="6.06906">
        <ele>205.39999389648</ele>
        <time>2017-06-07T12:07:17Z</time>
      </trkpt>
      <trkpt lat="43.41484" lon="6.06904">
        <ele>205.60000610352</ele>
        <time>2017-06-07T12:07:18Z</time>
      </trkpt>
      <trkpt lat="43.41483" lon="6.06903">
        <ele>205.60000610352</ele>
        <time>2017-06-07T12:07:19Z</time>
      </trkpt>
      <trkpt lat="43.41482" lon="6.069">
        <ele>205.80000305176</ele>
        <time>2017-06-07T12:07:21Z</time>
      </trkpt>
      <trkpt lat="43.41481" lon="6.06899">
        <ele>206</ele>
        <time>2017-06-07T12:07:22Z</time>
      </trkpt>
      <trkpt lat="43.41481" lon="6.06898">
        <ele>206</ele>
        <time>2017-06-07T12:07:23Z</time>
      </trkpt>
      <trkpt lat="43.41481" lon="6.06898">
        <ele>206</ele>
        <time>2017-06-07T12:07:24Z</time>
      </trkpt>
      <trkpt lat="43.41481" lon="6.06898">
        <ele>205.80000305176</ele>
        <time>2017-06-07T12:07:25Z</time>
      </trkpt>
      <trkpt lat="43.4148" lon="6.06898">
        <ele>205.80000305176</ele>
        <time>2017-06-07T12:07:26Z</time>
      </trkpt>
      <trkpt lat="43.41479" lon="6.06897">
        <ele>206</ele>
        <time>2017-06-07T12:07:29Z</time>
      </trkpt>
      <trkpt lat="43.41479" lon="6.06897">
        <ele>206</ele>
        <time>2017-06-07T12:07:30Z</time>
      </trkpt>
      <trkpt lat="43.41479" lon="6.06896">
        <ele>206.19999694824</ele>
        <time>2017-06-07T12:07:31Z</time>
      </trkpt>
      <trkpt lat="43.41479" lon="6.06896">
        <ele>206.19999694824</ele>
        <time>2017-06-07T12:07:32Z</time>
      </trkpt>
      <trkpt lat="43.41479" lon="6.06896">
        <ele>206.26666259766</ele>
        <time>2017-06-07T12:07:33Z</time>
      </trkpt>
      <trkpt lat="43.41478" lon="6.06893">
        <ele>206.39999389648</ele>
        <time>2017-06-07T12:07:35Z</time>
      </trkpt>
      <trkpt lat="43.41478" lon="6.06891">
        <ele>206.39999389648</ele>
        <time>2017-06-07T12:07:36Z</time>
      </trkpt>
      <trkpt lat="43.41479" lon="6.06888">
        <ele>206.39999389648</ele>
        <time>2017-06-07T12:07:37Z</time>
      </trkpt>
      <trkpt lat="43.41479" lon="6.06884">
        <ele>206.39999389648</ele>
        <time>2017-06-07T12:07:38Z</time>
      </trkpt>
      <trkpt lat="43.41479" lon="6.06879">
        <ele>206.39999389648</ele>
        <time>2017-06-07T12:07:39Z</time>
      </trkpt>
      <trkpt lat="43.4148" lon="6.06875">
        <ele>206.19999694824</ele>
        <time>2017-06-07T12:07:40Z</time>
      </trkpt>
      <trkpt lat="43.41479" lon="6.0687">
        <ele>206.19999694824</ele>
        <time>2017-06-07T12:07:41Z</time>
      </trkpt>
      <trkpt lat="43.41479" lon="6.06866">
        <ele>206.19999694824</ele>
        <time>2017-06-07T12:07:42Z</time>
      </trkpt>
      <trkpt lat="43.41478" lon="6.06857">
        <ele>206.19999694824</ele>
        <time>2017-06-07T12:07:44Z</time>
      </trkpt>
      <trkpt lat="43.41478" lon="6.06853">
        <ele>206.19999694824</ele>
        <time>2017-06-07T12:07:45Z</time>
      </trkpt>
      <trkpt lat="43.4148" lon="6.06839">
        <ele>206.39999389648</ele>
        <time>2017-06-07T12:07:48Z</time>
      </trkpt>
      <trkpt lat="43.41481" lon="6.06834">
        <ele>206.39999389648</ele>
        <time>2017-06-07T12:07:49Z</time>
      </trkpt>
      <trkpt lat="43.41482" lon="6.06829">
        <ele>206.39999389648</ele>
        <time>2017-06-07T12:07:50Z</time>
      </trkpt>
      <trkpt lat="43.41489" lon="6.06811">
        <ele>206.19999694824</ele>
        <time>2017-06-07T12:07:54Z</time>
      </trkpt>
      <trkpt lat="43.41492" lon="6.06801">
        <ele>206.19999694824</ele>
        <time>2017-06-07T12:07:56Z</time>
      </trkpt>
      <trkpt lat="43.41497" lon="6.06776">
        <ele>206.39999389648</ele>
        <time>2017-06-07T12:08:01Z</time>
      </trkpt>
      <trkpt lat="43.41498" lon="6.06771">
        <ele>206.60000610352</ele>
        <time>2017-06-07T12:08:02Z</time>
      </trkpt>
      <trkpt lat="43.41499" lon="6.06766">
        <ele>206.60000610352</ele>
        <time>2017-06-07T12:08:03Z</time>
      </trkpt>
      <trkpt lat="43.415" lon="6.06755">
        <ele>207</ele>
        <time>2017-06-07T12:08:05Z</time>
      </trkpt>
      <trkpt lat="43.41502" lon="6.06746">
        <ele>207.39999389648</ele>
        <time>2017-06-07T12:08:07Z</time>
      </trkpt>
      <trkpt lat="43.41502" lon="6.06741">
        <ele>207.39999389648</ele>
        <time>2017-06-07T12:08:08Z</time>
      </trkpt>
      <trkpt lat="43.41502" lon="6.06726">
        <ele>208</ele>
        <time>2017-06-07T12:08:11Z</time>
      </trkpt>
      <trkpt lat="43.41503" lon="6.06692">
        <ele>208.89999389648</ele>
        <time>2017-06-07T12:08:18Z</time>
      </trkpt>
      <trkpt lat="43.41503" lon="6.06683">
        <ele>209</ele>
        <time>2017-06-07T12:08:20Z</time>
      </trkpt>
      <trkpt lat="43.41504" lon="6.06669">
        <ele>209.19999694824</ele>
        <time>2017-06-07T12:08:23Z</time>
      </trkpt>
      <trkpt lat="43.41505" lon="6.06664">
        <ele>209.19999694824</ele>
        <time>2017-06-07T12:08:24Z</time>
      </trkpt>
      <trkpt lat="43.41507" lon="6.06656">
        <ele>209.19999694824</ele>
        <time>2017-06-07T12:08:26Z</time>
      </trkpt>
      <trkpt lat="43.41508" lon="6.06652">
        <ele>209.19999694824</ele>
        <time>2017-06-07T12:08:27Z</time>
      </trkpt>
      <trkpt lat="43.41509" lon="6.06643">
        <ele>209.19999694824</ele>
        <time>2017-06-07T12:08:29Z</time>
      </trkpt>
      <trkpt lat="43.4151" lon="6.06639">
        <ele>209.19999694824</ele>
        <time>2017-06-07T12:08:30Z</time>
      </trkpt>
      <trkpt lat="43.41512" lon="6.06629">
        <ele>209.19999694824</ele>
        <time>2017-06-07T12:08:32Z</time>
      </trkpt>
      <trkpt lat="43.41514" lon="6.06616">
        <ele>209</ele>
        <time>2017-06-07T12:08:35Z</time>
      </trkpt>
      <trkpt lat="43.41516" lon="6.06601">
        <ele>209</ele>
        <time>2017-06-07T12:08:38Z</time>
      </trkpt>
      <trkpt lat="43.41518" lon="6.06591">
        <ele>209</ele>
        <time>2017-06-07T12:08:40Z</time>
      </trkpt>
      <trkpt lat="43.41521" lon="6.06562">
        <ele>209.60000610352</ele>
        <time>2017-06-07T12:08:46Z</time>
      </trkpt>
      <trkpt lat="43.41524" lon="6.06546">
        <ele>209.60000610352</ele>
        <time>2017-06-07T12:08:49Z</time>
      </trkpt>
      <trkpt lat="43.41526" lon="6.06536">
        <ele>209.60000610352</ele>
        <time>2017-06-07T12:08:51Z</time>
      </trkpt>
      <trkpt lat="43.41527" lon="6.06531">
        <ele>209.39999389648</ele>
        <time>2017-06-07T12:08:52Z</time>
      </trkpt>
      <trkpt lat="43.4153" lon="6.06517">
        <ele>209.60000610352</ele>
        <time>2017-06-07T12:08:55Z</time>
      </trkpt>
      <trkpt lat="43.41531" lon="6.06512">
        <ele>209.625</ele>
        <time>2017-06-07T12:08:56Z</time>
      </trkpt>
      <trkpt lat="43.41533" lon="6.06508">
        <ele>209.65000915527</ele>
        <time>2017-06-07T12:08:57Z</time>
      </trkpt>
      <trkpt lat="43.41535" lon="6.06504">
        <ele>209.67500305176</ele>
        <time>2017-06-07T12:08:58Z</time>
      </trkpt>
      <trkpt lat="43.41543" lon="6.06489">
        <ele>209.77500915527</ele>
        <time>2017-06-07T12:09:02Z</time>
      </trkpt>
      <trkpt lat="43.41545" lon="6.06486">
        <ele>209.80000305176</ele>
        <time>2017-06-07T12:09:03Z</time>
      </trkpt>
      <trkpt lat="43.41547" lon="6.06482">
        <ele>209.80000305176</ele>
        <time>2017-06-07T12:09:04Z</time>
      </trkpt>
      <trkpt lat="43.4155" lon="6.06474">
        <ele>210.19999694824</ele>
        <time>2017-06-07T12:09:06Z</time>
      </trkpt>
      <trkpt lat="43.41551" lon="6.06469">
        <ele>210.39999389648</ele>
        <time>2017-06-07T12:09:07Z</time>
      </trkpt>
      <trkpt lat="43.4155" lon="6.06464">
        <ele>210.39999389648</ele>
        <time>2017-06-07T12:09:08Z</time>
      </trkpt>
      <trkpt lat="43.4155" lon="6.06459">
        <ele>210.4666595459</ele>
        <time>2017-06-07T12:09:09Z</time>
      </trkpt>
      <trkpt lat="43.41549" lon="6.06454">
        <ele>210.53332519531</ele>
        <time>2017-06-07T12:09:10Z</time>
      </trkpt>
      <trkpt lat="43.41549" lon="6.06449">
        <ele>210.60000610352</ele>
        <time>2017-06-07T12:09:11Z</time>
      </trkpt>
      <trkpt lat="43.41549" lon="6.06444">
        <ele>210.66667175293</ele>
        <time>2017-06-07T12:09:12Z</time>
      </trkpt>
      <trkpt lat="43.4155" lon="6.06435">
        <ele>210.80000305176</ele>
        <time>2017-06-07T12:09:14Z</time>
      </trkpt>
      <trkpt lat="43.41551" lon="6.06431">
        <ele>210.80000305176</ele>
        <time>2017-06-07T12:09:15Z</time>
      </trkpt>
      <trkpt lat="43.41552" lon="6.06427">
        <ele>211.05000305176</ele>
        <time>2017-06-07T12:09:16Z</time>
      </trkpt>
      <trkpt lat="43.41553" lon="6.06419">
        <ele>211.55000305176</ele>
        <time>2017-06-07T12:09:18Z</time>
      </trkpt>
      <trkpt lat="43.41555" lon="6.06407">
        <ele>212.04615783691</ele>
        <time>2017-06-07T12:09:21Z</time>
      </trkpt>
      <trkpt lat="43.41558" lon="6.06393">
        <ele>213.03077697754</ele>
        <time>2017-06-07T12:09:25Z</time>
      </trkpt>
      <trkpt lat="43.4156" lon="6.06381">
        <ele>213.76922607422</ele>
        <time>2017-06-07T12:09:28Z</time>
      </trkpt>
      <trkpt lat="43.41562" lon="6.0637">
        <ele>214.50769042969</ele>
        <time>2017-06-07T12:09:31Z</time>
      </trkpt>
      <trkpt lat="43.41563" lon="6.06367">
        <ele>214.75384521484</ele>
        <time>2017-06-07T12:09:32Z</time>
      </trkpt>
      <trkpt lat="43.41565" lon="6.0636">
        <ele>215</ele>
        <time>2017-06-07T12:09:34Z</time>
      </trkpt>
      <trkpt lat="43.41567" lon="6.0635">
        <ele>215.39999389648</ele>
        <time>2017-06-07T12:09:37Z</time>
      </trkpt>
      <trkpt lat="43.41568" lon="6.06347">
        <ele>215.39999389648</ele>
        <time>2017-06-07T12:09:38Z</time>
      </trkpt>
      <trkpt lat="43.41571" lon="6.06341">
        <ele>215.60000610352</ele>
        <time>2017-06-07T12:09:40Z</time>
      </trkpt>
      <trkpt lat="43.41578" lon="6.06331">
        <ele>216.20001220703</ele>
        <time>2017-06-07T12:09:44Z</time>
      </trkpt>
      <trkpt lat="43.41582" lon="6.06326">
        <ele>216.60000610352</ele>
        <time>2017-06-07T12:09:46Z</time>
      </trkpt>
      <trkpt lat="43.41584" lon="6.06324">
        <ele>216.60000610352</ele>
        <time>2017-06-07T12:09:47Z</time>
      </trkpt>
      <trkpt lat="43.41588" lon="6.06315">
        <ele>217.19999694824</ele>
        <time>2017-06-07T12:09:50Z</time>
      </trkpt>
      <trkpt lat="43.41589" lon="6.06308">
        <ele>217.39999389648</ele>
        <time>2017-06-07T12:09:52Z</time>
      </trkpt>
      <trkpt lat="43.4159" lon="6.06305">
        <ele>217.60000610352</ele>
        <time>2017-06-07T12:09:53Z</time>
      </trkpt>
      <trkpt lat="43.4159" lon="6.06298">
        <ele>217.70001220703</ele>
        <time>2017-06-07T12:09:55Z</time>
      </trkpt>
      <trkpt lat="43.41589" lon="6.06291">
        <ele>217.80000305176</ele>
        <time>2017-06-07T12:09:57Z</time>
      </trkpt>
      <trkpt lat="43.41588" lon="6.06275">
        <ele>218.5</ele>
        <time>2017-06-07T12:10:02Z</time>
      </trkpt>
      <trkpt lat="43.41589" lon="6.06272">
        <ele>218.66667175293</ele>
        <time>2017-06-07T12:10:03Z</time>
      </trkpt>
      <trkpt lat="43.4159" lon="6.06269">
        <ele>218.83332824707</ele>
        <time>2017-06-07T12:10:04Z</time>
      </trkpt>
      <trkpt lat="43.41593" lon="6.06265">
        <ele>219</ele>
        <time>2017-06-07T12:10:06Z</time>
      </trkpt>
      <trkpt lat="43.41595" lon="6.06263">
        <ele>219.19999694824</ele>
        <time>2017-06-07T12:10:07Z</time>
      </trkpt>
      <trkpt lat="43.41597" lon="6.0626">
        <ele>219.60000610352</ele>
        <time>2017-06-07T12:10:09Z</time>
      </trkpt>
      <trkpt lat="43.41599" lon="6.06258">
        <ele>219.80000305176</ele>
        <time>2017-06-07T12:10:10Z</time>
      </trkpt>
      <trkpt lat="43.41602" lon="6.06257">
        <ele>220</ele>
        <time>2017-06-07T12:10:12Z</time>
      </trkpt>
      <trkpt lat="43.41603" lon="6.06257">
        <ele>220</ele>
        <time>2017-06-07T12:10:13Z</time>
      </trkpt>
      <trkpt lat="43.41603" lon="6.06257">
        <ele>220.05000305176</ele>
        <time>2017-06-07T12:10:14Z</time>
      </trkpt>
      <trkpt lat="43.41603" lon="6.06257">
        <ele>220.10000610352</ele>
        <time>2017-06-07T12:10:15Z</time>
      </trkpt>
      <trkpt lat="43.41603" lon="6.06257">
        <ele>220.19999694824</ele>
        <time>2017-06-07T12:10:17Z</time>
      </trkpt>
      <trkpt lat="43.41603" lon="6.06257">
        <ele>220.19999694824</ele>
        <time>2017-06-07T12:10:18Z</time>
      </trkpt>
      <trkpt lat="43.41604" lon="6.06256">
        <ele>220.19999694824</ele>
        <time>2017-06-07T12:10:19Z</time>
      </trkpt>
      <trkpt lat="43.41604" lon="6.06255">
        <ele>220.19999694824</ele>
        <time>2017-06-07T12:10:20Z</time>
      </trkpt>
      <trkpt lat="43.41604" lon="6.06254">
        <ele>220</ele>
        <time>2017-06-07T12:10:21Z</time>
      </trkpt>
      <trkpt lat="43.41604" lon="6.06254">
        <ele>219.60000610352</ele>
        <time>2017-06-07T12:10:22Z</time>
      </trkpt>
      <trkpt lat="43.41604" lon="6.06253">
        <ele>219.60000610352</ele>
        <time>2017-06-07T12:10:23Z</time>
      </trkpt>
      <trkpt lat="43.41605" lon="6.06251">
        <ele>219.60000610352</ele>
        <time>2017-06-07T12:10:24Z</time>
      </trkpt>
      <trkpt lat="43.41605" lon="6.06248">
        <ele>219.80000305176</ele>
        <time>2017-06-07T12:10:25Z</time>
      </trkpt>
      <trkpt lat="43.41605" lon="6.06246">
        <ele>219.80000305176</ele>
        <time>2017-06-07T12:10:26Z</time>
      </trkpt>
      <trkpt lat="43.41605" lon="6.06243">
        <ele>220</ele>
        <time>2017-06-07T12:10:27Z</time>
      </trkpt>
      <trkpt lat="43.41606" lon="6.0624">
        <ele>220</ele>
        <time>2017-06-07T12:10:28Z</time>
      </trkpt>
      <trkpt lat="43.41607" lon="6.06237">
        <ele>220.03999328613</ele>
        <time>2017-06-07T12:10:29Z</time>
      </trkpt>
      <trkpt lat="43.41608" lon="6.06234">
        <ele>220.08000183106</ele>
        <time>2017-06-07T12:10:30Z</time>
      </trkpt>
      <trkpt lat="43.41609" lon="6.06231">
        <ele>220.11999511719</ele>
        <time>2017-06-07T12:10:31Z</time>
      </trkpt>
      <trkpt lat="43.4161" lon="6.06228">
        <ele>220.16000366211</ele>
        <time>2017-06-07T12:10:32Z</time>
      </trkpt>
      <trkpt lat="43.4161" lon="6.06219">
        <ele>220.29998779297</ele>
        <time>2017-06-07T12:10:35Z</time>
      </trkpt>
      <trkpt lat="43.41611" lon="6.06211">
        <ele>220.44999694824</ele>
        <time>2017-06-07T12:10:38Z</time>
      </trkpt>
      <trkpt lat="43.41613" lon="6.06209">
        <ele>220.5</ele>
        <time>2017-06-07T12:10:39Z</time>
      </trkpt>
      <trkpt lat="43.41615" lon="6.06208">
        <ele>220.55000305176</ele>
        <time>2017-06-07T12:10:40Z</time>
      </trkpt>
      <trkpt lat="43.41616" lon="6.06209">
        <ele>220.60000610352</ele>
        <time>2017-06-07T12:10:41Z</time>
      </trkpt>
      <trkpt lat="43.4162" lon="6.06214">
        <ele>220.80000305176</ele>
        <time>2017-06-07T12:10:43Z</time>
      </trkpt>
      <trkpt lat="43.41622" lon="6.06217">
        <ele>220.80000305176</ele>
        <time>2017-06-07T12:10:44Z</time>
      </trkpt>
      <trkpt lat="43.41623" lon="6.0622">
        <ele>220.83999633789</ele>
        <time>2017-06-07T12:10:45Z</time>
      </trkpt>
      <trkpt lat="43.41628" lon="6.06226">
        <ele>220.91999816894</ele>
        <time>2017-06-07T12:10:47Z</time>
      </trkpt>
      <trkpt lat="43.41629" lon="6.06229">
        <ele>220.96000671387</ele>
        <time>2017-06-07T12:10:48Z</time>
      </trkpt>
      <trkpt lat="43.41632" lon="6.06232">
        <ele>221</ele>
        <time>2017-06-07T12:10:49Z</time>
      </trkpt>
      <trkpt lat="43.41637" lon="6.06236">
        <ele>221.12727355957</ele>
        <time>2017-06-07T12:10:51Z</time>
      </trkpt>
      <trkpt lat="43.41639" lon="6.06237">
        <ele>221.25454711914</ele>
        <time>2017-06-07T12:10:52Z</time>
      </trkpt>
      <trkpt lat="43.41642" lon="6.06238">
        <ele>221.38182067871</ele>
        <time>2017-06-07T12:10:53Z</time>
      </trkpt>
      <trkpt lat="43.4165" lon="6.06242">
        <ele>221.76362609863</ele>
        <time>2017-06-07T12:10:56Z</time>
      </trkpt>
      <trkpt lat="43.41655" lon="6.06245">
        <ele>222.01817321777</ele>
        <time>2017-06-07T12:10:58Z</time>
      </trkpt>
      <trkpt lat="43.41658" lon="6.06245">
        <ele>222.14544677734</ele>
        <time>2017-06-07T12:10:59Z</time>
      </trkpt>
      <trkpt lat="43.41661" lon="6.06246">
        <ele>222.27272033691</ele>
        <time>2017-06-07T12:11:00Z</time>
      </trkpt>
      <trkpt lat="43.41667" lon="6.06248">
        <ele>222.39999389648</ele>
        <time>2017-06-07T12:11:02Z</time>
      </trkpt>
      <trkpt lat="43.41676" lon="6.0625">
        <ele>222.60000610352</ele>
        <time>2017-06-07T12:11:05Z</time>
      </trkpt>
      <trkpt lat="43.41679" lon="6.0625">
        <ele>222.60000610352</ele>
        <time>2017-06-07T12:11:06Z</time>
      </trkpt>
      <trkpt lat="43.41682" lon="6.0625">
        <ele>222.39999389648</ele>
        <time>2017-06-07T12:11:07Z</time>
      </trkpt>
      <trkpt lat="43.41685" lon="6.0625">
        <ele>222.39999389648</ele>
        <time>2017-06-07T12:11:08Z</time>
      </trkpt>
      <trkpt lat="43.4169" lon="6.06251">
        <ele>222</ele>
        <time>2017-06-07T12:11:10Z</time>
      </trkpt>
      <trkpt lat="43.41693" lon="6.06251">
        <ele>222</ele>
        <time>2017-06-07T12:11:11Z</time>
      </trkpt>
      <trkpt lat="43.41705" lon="6.06251">
        <ele>222</ele>
        <time>2017-06-07T12:11:15Z</time>
      </trkpt>
      <trkpt lat="43.4171" lon="6.06251">
        <ele>222.19999694824</ele>
        <time>2017-06-07T12:11:17Z</time>
      </trkpt>
      <trkpt lat="43.41715" lon="6.06251">
        <ele>222.60000610352</ele>
        <time>2017-06-07T12:11:19Z</time>
      </trkpt>
      <trkpt lat="43.41718" lon="6.06251">
        <ele>222.60000610352</ele>
        <time>2017-06-07T12:11:20Z</time>
      </trkpt>
      <trkpt lat="43.4172" lon="6.06251">
        <ele>222.65000915527</ele>
        <time>2017-06-07T12:11:21Z</time>
      </trkpt>
      <trkpt lat="43.41723" lon="6.06251">
        <ele>222.70001220703</ele>
        <time>2017-06-07T12:11:22Z</time>
      </trkpt>
      <trkpt lat="43.41733" lon="6.06251">
        <ele>223</ele>
        <time>2017-06-07T12:11:26Z</time>
      </trkpt>
      <trkpt lat="43.41736" lon="6.06251">
        <ele>223.19999694824</ele>
        <time>2017-06-07T12:11:27Z</time>
      </trkpt>
      <trkpt lat="43.41741" lon="6.06252">
        <ele>223.39999389648</ele>
        <time>2017-06-07T12:11:29Z</time>
      </trkpt>
      <trkpt lat="43.41748" lon="6.06254">
        <ele>223.80000305176</ele>
        <time>2017-06-07T12:11:32Z</time>
      </trkpt>
      <trkpt lat="43.41755" lon="6.06256">
        <ele>224.13333129883</ele>
        <time>2017-06-07T12:11:35Z</time>
      </trkpt>
      <trkpt lat="43.41758" lon="6.06257">
        <ele>224.26666259766</ele>
        <time>2017-06-07T12:11:36Z</time>
      </trkpt>
      <trkpt lat="43.4176" lon="6.06257">
        <ele>224.39999389648</ele>
        <time>2017-06-07T12:11:37Z</time>
      </trkpt>
      <trkpt lat="43.41764" lon="6.06259">
        <ele>224.60000610352</ele>
        <time>2017-06-07T12:11:39Z</time>
      </trkpt>
      <trkpt lat="43.41774" lon="6.06264">
        <ele>225.19999694824</ele>
        <time>2017-06-07T12:11:43Z</time>
      </trkpt>
      <trkpt lat="43.41779" lon="6.06267">
        <ele>225.60000610352</ele>
        <time>2017-06-07T12:11:45Z</time>
      </trkpt>
      <trkpt lat="43.41781" lon="6.06268">
        <ele>225.80000305176</ele>
        <time>2017-06-07T12:11:46Z</time>
      </trkpt>
      <trkpt lat="43.41785" lon="6.06272">
        <ele>225.94999694824</ele>
        <time>2017-06-07T12:11:48Z</time>
      </trkpt>
      <trkpt lat="43.41795" lon="6.0628">
        <ele>226.39999389648</ele>
        <time>2017-06-07T12:11:52Z</time>
      </trkpt>
      <trkpt lat="43.41799" lon="6.06284">
        <ele>226.79998779297</ele>
        <time>2017-06-07T12:11:54Z</time>
      </trkpt>
      <trkpt lat="43.41804" lon="6.06289">
        <ele>227.19999694824</ele>
        <time>2017-06-07T12:11:56Z</time>
      </trkpt>
      <trkpt lat="43.41809" lon="6.06292">
        <ele>227.39999389648</ele>
        <time>2017-06-07T12:11:58Z</time>
      </trkpt>
      <trkpt lat="43.41814" lon="6.06293">
        <ele>227.60000610352</ele>
        <time>2017-06-07T12:12:00Z</time>
      </trkpt>
      <trkpt lat="43.41816" lon="6.06293">
        <ele>227.80000305176</ele>
        <time>2017-06-07T12:12:01Z</time>
      </trkpt>
      <trkpt lat="43.41819" lon="6.06294">
        <ele>227.80000305176</ele>
        <time>2017-06-07T12:12:02Z</time>
      </trkpt>
      <trkpt lat="43.41821" lon="6.06294">
        <ele>227.82499694824</ele>
        <time>2017-06-07T12:12:03Z</time>
      </trkpt>
      <trkpt lat="43.41824" lon="6.06294">
        <ele>227.85000610352</ele>
        <time>2017-06-07T12:12:04Z</time>
      </trkpt>
      <trkpt lat="43.41829" lon="6.06294">
        <ele>227.89999389648</ele>
        <time>2017-06-07T12:12:06Z</time>
      </trkpt>
      <trkpt lat="43.41832" lon="6.06294">
        <ele>227.92500305176</ele>
        <time>2017-06-07T12:12:07Z</time>
      </trkpt>
      <trkpt lat="43.41834" lon="6.06294">
        <ele>227.94999694824</ele>
        <time>2017-06-07T12:12:08Z</time>
      </trkpt>
      <trkpt lat="43.41837" lon="6.06294">
        <ele>227.97500610352</ele>
        <time>2017-06-07T12:12:09Z</time>
      </trkpt>
      <trkpt lat="43.41842" lon="6.06293">
        <ele>228</ele>
        <time>2017-06-07T12:12:11Z</time>
      </trkpt>
      <trkpt lat="43.41852" lon="6.06294">
        <ele>228.73333740234</ele>
        <time>2017-06-07T12:12:15Z</time>
      </trkpt>
      <trkpt lat="43.41857" lon="6.06294">
        <ele>229</ele>
        <time>2017-06-07T12:12:17Z</time>
      </trkpt>
      <trkpt lat="43.4186" lon="6.06294">
        <ele>229.19999694824</ele>
        <time>2017-06-07T12:12:18Z</time>
      </trkpt>
      <trkpt lat="43.41862" lon="6.06294">
        <ele>229.39999389648</ele>
        <time>2017-06-07T12:12:19Z</time>
      </trkpt>
      <trkpt lat="43.41865" lon="6.06294">
        <ele>229.39999389648</ele>
        <time>2017-06-07T12:12:20Z</time>
      </trkpt>
      <trkpt lat="43.4187" lon="6.06294">
        <ele>229.86666870117</ele>
        <time>2017-06-07T12:12:22Z</time>
      </trkpt>
      <trkpt lat="43.41873" lon="6.06294">
        <ele>230.10000610352</ele>
        <time>2017-06-07T12:12:23Z</time>
      </trkpt>
      <trkpt lat="43.41875" lon="6.06294">
        <ele>230.33332824707</ele>
        <time>2017-06-07T12:12:24Z</time>
      </trkpt>
      <trkpt lat="43.41878" lon="6.06294">
        <ele>230.56666564941</ele>
        <time>2017-06-07T12:12:25Z</time>
      </trkpt>
      <trkpt lat="43.41883" lon="6.06294">
        <ele>230.80000305176</ele>
        <time>2017-06-07T12:12:27Z</time>
      </trkpt>
      <trkpt lat="43.41896" lon="6.06294">
        <ele>231.39999389648</ele>
        <time>2017-06-07T12:12:32Z</time>
      </trkpt>
      <trkpt lat="43.41901" lon="6.06295">
        <ele>231.93333435059</ele>
        <time>2017-06-07T12:12:34Z</time>
      </trkpt>
      <trkpt lat="43.41903" lon="6.06294">
        <ele>232.19999694824</ele>
        <time>2017-06-07T12:12:35Z</time>
      </trkpt>
      <trkpt lat="43.41905" lon="6.06294">
        <ele>232.19999694824</ele>
        <time>2017-06-07T12:12:36Z</time>
      </trkpt>
      <trkpt lat="43.41909" lon="6.06294">
        <ele>232.60000610352</ele>
        <time>2017-06-07T12:12:38Z</time>
      </trkpt>
      <trkpt lat="43.41912" lon="6.06294">
        <ele>232.80000305176</ele>
        <time>2017-06-07T12:12:39Z</time>
      </trkpt>
      <trkpt lat="43.41916" lon="6.06293">
        <ele>233.19999694824</ele>
        <time>2017-06-07T12:12:41Z</time>
      </trkpt>
      <trkpt lat="43.41923" lon="6.06292">
        <ele>233.60000610352</ele>
        <time>2017-06-07T12:12:44Z</time>
      </trkpt>
      <trkpt lat="43.41928" lon="6.06292">
        <ele>233.66667175293</ele>
        <time>2017-06-07T12:12:46Z</time>
      </trkpt>
      <trkpt lat="43.4193" lon="6.06291">
        <ele>233.70001220703</ele>
        <time>2017-06-07T12:12:47Z</time>
      </trkpt>
      <trkpt lat="43.41937" lon="6.0629">
        <ele>233.80000305176</ele>
        <time>2017-06-07T12:12:50Z</time>
      </trkpt>
      <trkpt lat="43.4194" lon="6.06289">
        <ele>233.80000305176</ele>
        <time>2017-06-07T12:12:51Z</time>
      </trkpt>
      <trkpt lat="43.41942" lon="6.06288">
        <ele>234</ele>
        <time>2017-06-07T12:12:52Z</time>
      </trkpt>
      <trkpt lat="43.41945" lon="6.06288">
        <ele>234.19999694824</ele>
        <time>2017-06-07T12:12:53Z</time>
      </trkpt>
      <trkpt lat="43.41954" lon="6.06285">
        <ele>234.5</ele>
        <time>2017-06-07T12:12:57Z</time>
      </trkpt>
      <trkpt lat="43.41959" lon="6.06283">
        <ele>234.60000610352</ele>
        <time>2017-06-07T12:12:59Z</time>
      </trkpt>
      <trkpt lat="43.41961" lon="6.06282">
        <ele>234.80000305176</ele>
        <time>2017-06-07T12:13:00Z</time>
      </trkpt>
      <trkpt lat="43.41966" lon="6.06281">
        <ele>235.0333404541</ele>
        <time>2017-06-07T12:13:02Z</time>
      </trkpt>
      <trkpt lat="43.41968" lon="6.0628">
        <ele>235.26666259766</ele>
        <time>2017-06-07T12:13:03Z</time>
      </trkpt>
      <trkpt lat="43.41971" lon="6.06279">
        <ele>235.5</ele>
        <time>2017-06-07T12:13:04Z</time>
      </trkpt>
      <trkpt lat="43.41975" lon="6.06278">
        <ele>235.96667480469</ele>
        <time>2017-06-07T12:13:06Z</time>
      </trkpt>
      <trkpt lat="43.41979" lon="6.06277">
        <ele>236.43333435059</ele>
        <time>2017-06-07T12:13:08Z</time>
      </trkpt>
      <trkpt lat="43.41981" lon="6.06276">
        <ele>236.66667175293</ele>
        <time>2017-06-07T12:13:09Z</time>
      </trkpt>
      <trkpt lat="43.41983" lon="6.06276">
        <ele>236.89999389648</ele>
        <time>2017-06-07T12:13:10Z</time>
      </trkpt>
      <trkpt lat="43.41986" lon="6.06274">
        <ele>237.36666870117</ele>
        <time>2017-06-07T12:13:12Z</time>
      </trkpt>
      <trkpt lat="43.41988" lon="6.06274">
        <ele>237.60000610352</ele>
        <time>2017-06-07T12:13:13Z</time>
      </trkpt>
      <trkpt lat="43.41992" lon="6.06272">
        <ele>238.06666564941</ele>
        <time>2017-06-07T12:13:15Z</time>
      </trkpt>
      <trkpt lat="43.41994" lon="6.06271">
        <ele>238.30000305176</ele>
        <time>2017-06-07T12:13:16Z</time>
      </trkpt>
      <trkpt lat="43.42" lon="6.0627">
        <ele>239</ele>
        <time>2017-06-07T12:13:19Z</time>
      </trkpt>
      <trkpt lat="43.42003" lon="6.06269">
        <ele>239.10000610352</ele>
        <time>2017-06-07T12:13:21Z</time>
      </trkpt>
      <trkpt lat="43.42004" lon="6.06268">
        <ele>239.19999694824</ele>
        <time>2017-06-07T12:13:22Z</time>
      </trkpt>
      <trkpt lat="43.42006" lon="6.06268">
        <ele>239.19999694824</ele>
        <time>2017-06-07T12:13:23Z</time>
      </trkpt>
      <trkpt lat="43.4201" lon="6.06267">
        <ele>239.78181457519</ele>
        <time>2017-06-07T12:13:25Z</time>
      </trkpt>
      <trkpt lat="43.42011" lon="6.06266">
        <ele>240.07272338867</ele>
        <time>2017-06-07T12:13:26Z</time>
      </trkpt>
      <trkpt lat="43.42013" lon="6.06266">
        <ele>240.36363220215</ele>
        <time>2017-06-07T12:13:27Z</time>
      </trkpt>
      <trkpt lat="43.42015" lon="6.06265">
        <ele>240.65454101562</ele>
        <time>2017-06-07T12:13:28Z</time>
      </trkpt>
      <trkpt lat="43.42017" lon="6.06265">
        <ele>240.9454498291</ele>
        <time>2017-06-07T12:13:29Z</time>
      </trkpt>
      <trkpt lat="43.42018" lon="6.06264">
        <ele>241.23635864258</ele>
        <time>2017-06-07T12:13:30Z</time>
      </trkpt>
      <trkpt lat="43.4202" lon="6.06264">
        <ele>241.52726745606</ele>
        <time>2017-06-07T12:13:31Z</time>
      </trkpt>
      <trkpt lat="43.42022" lon="6.06263">
        <ele>241.81817626953</ele>
        <time>2017-06-07T12:13:32Z</time>
      </trkpt>
      <trkpt lat="43.42023" lon="6.06262">
        <ele>242.10908508301</ele>
        <time>2017-06-07T12:13:33Z</time>
      </trkpt>
      <trkpt lat="43.42025" lon="6.06262">
        <ele>242.39999389648</ele>
        <time>2017-06-07T12:13:34Z</time>
      </trkpt>
      <trkpt lat="43.42027" lon="6.06261">
        <ele>242.39999389648</ele>
        <time>2017-06-07T12:13:35Z</time>
      </trkpt>
      <trkpt lat="43.42031" lon="6.0626">
        <ele>242.80000305176</ele>
        <time>2017-06-07T12:13:37Z</time>
      </trkpt>
      <trkpt lat="43.42032" lon="6.06259">
        <ele>243</ele>
        <time>2017-06-07T12:13:38Z</time>
      </trkpt>
      <trkpt lat="43.42036" lon="6.06258">
        <ele>243.39999389648</ele>
        <time>2017-06-07T12:13:40Z</time>
      </trkpt>
      <trkpt lat="43.42043" lon="6.06255">
        <ele>244.08000183106</ele>
        <time>2017-06-07T12:13:44Z</time>
      </trkpt>
      <trkpt lat="43.42046" lon="6.06254">
        <ele>244.63999938965</ele>
        <time>2017-06-07T12:13:46Z</time>
      </trkpt>
      <trkpt lat="43.42048" lon="6.06253">
        <ele>244.91999816894</ele>
        <time>2017-06-07T12:13:47Z</time>
      </trkpt>
      <trkpt lat="43.42055" lon="6.06251">
        <ele>246.03999328613</ele>
        <time>2017-06-07T12:13:51Z</time>
      </trkpt>
      <trkpt lat="43.42064" lon="6.06248">
        <ele>247.7200012207</ele>
        <time>2017-06-07T12:13:57Z</time>
      </trkpt>
      <trkpt lat="43.42067" lon="6.06247">
        <ele>248.2799987793</ele>
        <time>2017-06-07T12:13:59Z</time>
      </trkpt>
      <trkpt lat="43.4207" lon="6.06245">
        <ele>248.83999633789</ele>
        <time>2017-06-07T12:14:01Z</time>
      </trkpt>
      <trkpt lat="43.42073" lon="6.06244">
        <ele>249.39999389648</ele>
        <time>2017-06-07T12:14:03Z</time>
      </trkpt>
      <trkpt lat="43.42077" lon="6.06243">
        <ele>249.5</ele>
        <time>2017-06-07T12:14:05Z</time>
      </trkpt>
      <trkpt lat="43.4208" lon="6.06242">
        <ele>249.60000610352</ele>
        <time>2017-06-07T12:14:07Z</time>
      </trkpt>
      <trkpt lat="43.42083" lon="6.06241">
        <ele>250</ele>
        <time>2017-06-07T12:14:09Z</time>
      </trkpt>
      <trkpt lat="43.42088" lon="6.06239">
        <ele>250.60000610352</ele>
        <time>2017-06-07T12:14:13Z</time>
      </trkpt>
      <trkpt lat="43.42093" lon="6.06238">
        <ele>250.75</ele>
        <time>2017-06-07T12:14:16Z</time>
      </trkpt>
      <trkpt lat="43.42094" lon="6.06237">
        <ele>250.80000305176</ele>
        <time>2017-06-07T12:14:17Z</time>
      </trkpt>
      <trkpt lat="43.42096" lon="6.06237">
        <ele>250.80000305176</ele>
        <time>2017-06-07T12:14:18Z</time>
      </trkpt>
      <trkpt lat="43.42103" lon="6.06234">
        <ele>252.46667480469</ele>
        <time>2017-06-07T12:14:23Z</time>
      </trkpt>
      <trkpt lat="43.42117" lon="6.06229">
        <ele>254</ele>
        <time>2017-06-07T12:14:32Z</time>
      </trkpt>
      <trkpt lat="43.42119" lon="6.06228">
        <ele>254</ele>
        <time>2017-06-07T12:14:33Z</time>
      </trkpt>
      <trkpt lat="43.42122" lon="6.06227">
        <ele>254.40000915527</ele>
        <time>2017-06-07T12:14:35Z</time>
      </trkpt>
      <trkpt lat="43.42124" lon="6.06227">
        <ele>254.60000610352</ele>
        <time>2017-06-07T12:14:36Z</time>
      </trkpt>
      <trkpt lat="43.42126" lon="6.06226">
        <ele>254.60000610352</ele>
        <time>2017-06-07T12:14:37Z</time>
      </trkpt>
      <trkpt lat="43.42128" lon="6.06225">
        <ele>254.80000305176</ele>
        <time>2017-06-07T12:14:38Z</time>
      </trkpt>
      <trkpt lat="43.4213" lon="6.06224">
        <ele>254.80000305176</ele>
        <time>2017-06-07T12:14:39Z</time>
      </trkpt>
      <trkpt lat="43.42133" lon="6.06223">
        <ele>255.19999694824</ele>
        <time>2017-06-07T12:14:41Z</time>
      </trkpt>
      <trkpt lat="43.42135" lon="6.06223">
        <ele>255.19999694824</ele>
        <time>2017-06-07T12:14:42Z</time>
      </trkpt>
      <trkpt lat="43.42137" lon="6.06222">
        <ele>255.39999389648</ele>
        <time>2017-06-07T12:14:43Z</time>
      </trkpt>
      <trkpt lat="43.42138" lon="6.06222">
        <ele>255.39999389648</ele>
        <time>2017-06-07T12:14:44Z</time>
      </trkpt>
      <trkpt lat="43.4214" lon="6.06221">
        <ele>255.60000610352</ele>
        <time>2017-06-07T12:14:45Z</time>
      </trkpt>
      <trkpt lat="43.42142" lon="6.0622">
        <ele>255.60000610352</ele>
        <time>2017-06-07T12:14:46Z</time>
      </trkpt>
      <trkpt lat="43.42143" lon="6.0622">
        <ele>255.70001220703</ele>
        <time>2017-06-07T12:14:47Z</time>
      </trkpt>
      <trkpt lat="43.42146" lon="6.06219">
        <ele>255.80000305176</ele>
        <time>2017-06-07T12:14:49Z</time>
      </trkpt>
      <trkpt lat="43.42147" lon="6.06219">
        <ele>256</ele>
        <time>2017-06-07T12:14:50Z</time>
      </trkpt>
      <trkpt lat="43.42148" lon="6.06217">
        <ele>255.80000305176</ele>
        <time>2017-06-07T12:14:51Z</time>
      </trkpt>
      <trkpt lat="43.42149" lon="6.06216">
        <ele>255.80000305176</ele>
        <time>2017-06-07T12:14:52Z</time>
      </trkpt>
      <trkpt lat="43.4215" lon="6.06213">
        <ele>255.60000610352</ele>
        <time>2017-06-07T12:14:54Z</time>
      </trkpt>
      <trkpt lat="43.42151" lon="6.06212">
        <ele>255.60000610352</ele>
        <time>2017-06-07T12:14:55Z</time>
      </trkpt>
      <trkpt lat="43.42151" lon="6.06211">
        <ele>255.60000610352</ele>
        <time>2017-06-07T12:14:56Z</time>
      </trkpt>
      <trkpt lat="43.42151" lon="6.0621">
        <ele>255.60000610352</ele>
        <time>2017-06-07T12:14:57Z</time>
      </trkpt>
      <trkpt lat="43.42151" lon="6.06209">
        <ele>255.80000305176</ele>
        <time>2017-06-07T12:14:58Z</time>
      </trkpt>
      <trkpt lat="43.42151" lon="6.06208">
        <ele>255.80000305176</ele>
        <time>2017-06-07T12:14:59Z</time>
      </trkpt>
      <trkpt lat="43.42151" lon="6.06208">
        <ele>255.86666870117</ele>
        <time>2017-06-07T12:15:00Z</time>
      </trkpt>
      <trkpt lat="43.42151" lon="6.06208">
        <ele>255.93333435059</ele>
        <time>2017-06-07T12:15:01Z</time>
      </trkpt>
      <trkpt lat="43.42151" lon="6.06208">
        <ele>256</ele>
        <time>2017-06-07T12:15:03Z</time>
      </trkpt>
      <trkpt lat="43.42151" lon="6.06208">
        <ele>256.20001220703</ele>
        <time>2017-06-07T12:15:08Z</time>
      </trkpt>
      <trkpt lat="43.42151" lon="6.06209">
        <ele>255.39999389648</ele>
        <time>2017-06-07T12:15:16Z</time>
      </trkpt>
      <trkpt lat="43.42151" lon="6.06209">
        <ele>255.60000610352</ele>
        <time>2017-06-07T12:15:21Z</time>
      </trkpt>
      <trkpt lat="43.42151" lon="6.06209">
        <ele>255.33332824707</ele>
        <time>2017-06-07T12:15:25Z</time>
      </trkpt>
      <trkpt lat="43.42151" lon="6.06209">
        <ele>255.39999389648</ele>
        <time>2017-06-07T12:15:30Z</time>
      </trkpt>
      <trkpt lat="43.42151" lon="6.06209">
        <ele>256</ele>
        <time>2017-06-07T12:15:35Z</time>
      </trkpt>
      <trkpt lat="43.42151" lon="6.06208">
        <ele>255.80000305176</ele>
        <time>2017-06-07T12:15:37Z</time>
      </trkpt>
      <trkpt lat="43.42152" lon="6.06204">
        <ele>255.19999694824</ele>
        <time>2017-06-07T12:15:40Z</time>
      </trkpt>
      <trkpt lat="43.42153" lon="6.06202">
        <ele>255.19999694824</ele>
        <time>2017-06-07T12:15:41Z</time>
      </trkpt>
      <trkpt lat="43.42153" lon="6.062">
        <ele>255.39999389648</ele>
        <time>2017-06-07T12:15:42Z</time>
      </trkpt>
      <trkpt lat="43.42152" lon="6.06197">
        <ele>255.60000610352</ele>
        <time>2017-06-07T12:15:43Z</time>
      </trkpt>
      <trkpt lat="43.4215" lon="6.06192">
        <ele>255.60000610352</ele>
        <time>2017-06-07T12:15:45Z</time>
      </trkpt>
      <trkpt lat="43.42149" lon="6.06186">
        <ele>255.19999694824</ele>
        <time>2017-06-07T12:15:47Z</time>
      </trkpt>
      <trkpt lat="43.42146" lon="6.06179">
        <ele>254.80000305176</ele>
        <time>2017-06-07T12:15:49Z</time>
      </trkpt>
      <trkpt lat="43.42141" lon="6.06166">
        <ele>254.26666259766</ele>
        <time>2017-06-07T12:15:52Z</time>
      </trkpt>
      <trkpt lat="43.42139" lon="6.0616">
        <ele>254</ele>
        <time>2017-06-07T12:15:53Z</time>
      </trkpt>
      <trkpt lat="43.42136" lon="6.06149">
        <ele>253.4666595459</ele>
        <time>2017-06-07T12:15:55Z</time>
      </trkpt>
      <trkpt lat="43.42134" lon="6.06143">
        <ele>253.19999694824</ele>
        <time>2017-06-07T12:15:56Z</time>
      </trkpt>
      <trkpt lat="43.42132" lon="6.06136">
        <ele>253.19999694824</ele>
        <time>2017-06-07T12:15:57Z</time>
      </trkpt>
      <trkpt lat="43.42131" lon="6.0613">
        <ele>253.13333129883</ele>
        <time>2017-06-07T12:15:58Z</time>
      </trkpt>
      <trkpt lat="43.4213" lon="6.06124">
        <ele>253.06666564941</ele>
        <time>2017-06-07T12:15:59Z</time>
      </trkpt>
      <trkpt lat="43.42128" lon="6.06119">
        <ele>253</ele>
        <time>2017-06-07T12:16:00Z</time>
      </trkpt>
      <trkpt lat="43.42126" lon="6.06114">
        <ele>253</ele>
        <time>2017-06-07T12:16:01Z</time>
      </trkpt>
      <trkpt lat="43.42125" lon="6.06109">
        <ele>253</ele>
        <time>2017-06-07T12:16:02Z</time>
      </trkpt>
      <trkpt lat="43.42124" lon="6.06104">
        <ele>253</ele>
        <time>2017-06-07T12:16:03Z</time>
      </trkpt>
      <trkpt lat="43.42123" lon="6.06099">
        <ele>253.19999694824</ele>
        <time>2017-06-07T12:16:04Z</time>
      </trkpt>
      <trkpt lat="43.42122" lon="6.06089">
        <ele>253.4666595459</ele>
        <time>2017-06-07T12:16:06Z</time>
      </trkpt>
      <trkpt lat="43.42119" lon="6.06071">
        <ele>254.31428527832</ele>
        <time>2017-06-07T12:16:10Z</time>
      </trkpt>
      <trkpt lat="43.42118" lon="6.06067">
        <ele>254.62857055664</ele>
        <time>2017-06-07T12:16:11Z</time>
      </trkpt>
      <trkpt lat="43.42118" lon="6.06062">
        <ele>254.94285583496</ele>
        <time>2017-06-07T12:16:12Z</time>
      </trkpt>
      <trkpt lat="43.42116" lon="6.06048">
        <ele>255.88572692871</ele>
        <time>2017-06-07T12:16:15Z</time>
      </trkpt>
      <trkpt lat="43.42114" lon="6.06039">
        <ele>256.20001220703</ele>
        <time>2017-06-07T12:16:17Z</time>
      </trkpt>
      <trkpt lat="43.42112" lon="6.0603">
        <ele>256.60000610352</ele>
        <time>2017-06-07T12:16:19Z</time>
      </trkpt>
      <trkpt lat="43.42111" lon="6.06026">
        <ele>256.79998779297</ele>
        <time>2017-06-07T12:16:20Z</time>
      </trkpt>
      <trkpt lat="43.4211" lon="6.06022">
        <ele>256.79998779297</ele>
        <time>2017-06-07T12:16:21Z</time>
      </trkpt>
      <trkpt lat="43.42109" lon="6.06017">
        <ele>257</ele>
        <time>2017-06-07T12:16:22Z</time>
      </trkpt>
      <trkpt lat="43.42105" lon="6.06001">
        <ele>256.79998779297</ele>
        <time>2017-06-07T12:16:25Z</time>
      </trkpt>
      <trkpt lat="43.42102" lon="6.05984">
        <ele>256.20001220703</ele>
        <time>2017-06-07T12:16:28Z</time>
      </trkpt>
      <trkpt lat="43.421" lon="6.05978">
        <ele>256</ele>
        <time>2017-06-07T12:16:29Z</time>
      </trkpt>
      <trkpt lat="43.42099" lon="6.05973">
        <ele>255.80000305176</ele>
        <time>2017-06-07T12:16:30Z</time>
      </trkpt>
      <trkpt lat="43.42093" lon="6.05948">
        <ele>255.60000610352</ele>
        <time>2017-06-07T12:16:34Z</time>
      </trkpt>
      <trkpt lat="43.42086" lon="6.05917">
        <ele>255.19999694824</ele>
        <time>2017-06-07T12:16:39Z</time>
      </trkpt>
      <trkpt lat="43.42083" lon="6.05904">
        <ele>254.80000305176</ele>
        <time>2017-06-07T12:16:41Z</time>
      </trkpt>
      <trkpt lat="43.4208" lon="6.05891">
        <ele>254.80000305176</ele>
        <time>2017-06-07T12:16:43Z</time>
      </trkpt>
      <trkpt lat="43.42076" lon="6.05878">
        <ele>254.80000305176</ele>
        <time>2017-06-07T12:16:45Z</time>
      </trkpt>
      <trkpt lat="43.42074" lon="6.05871">
        <ele>255</ele>
        <time>2017-06-07T12:16:46Z</time>
      </trkpt>
      <trkpt lat="43.42073" lon="6.05865">
        <ele>255</ele>
        <time>2017-06-07T12:16:47Z</time>
      </trkpt>
      <trkpt lat="43.42071" lon="6.05858">
        <ele>255</ele>
        <time>2017-06-07T12:16:48Z</time>
      </trkpt>
      <trkpt lat="43.42069" lon="6.05851">
        <ele>254.80000305176</ele>
        <time>2017-06-07T12:16:49Z</time>
      </trkpt>
      <trkpt lat="43.42067" lon="6.05843">
        <ele>254.60000610352</ele>
        <time>2017-06-07T12:16:50Z</time>
      </trkpt>
      <trkpt lat="43.42065" lon="6.05834">
        <ele>254.39999389648</ele>
        <time>2017-06-07T12:16:51Z</time>
      </trkpt>
      <trkpt lat="43.42063" lon="6.05824">
        <ele>254</ele>
        <time>2017-06-07T12:16:52Z</time>
      </trkpt>
      <trkpt lat="43.4206" lon="6.05814">
        <ele>253.39999389648</ele>
        <time>2017-06-07T12:16:53Z</time>
      </trkpt>
      <trkpt lat="43.42058" lon="6.05804">
        <ele>253</ele>
        <time>2017-06-07T12:16:54Z</time>
      </trkpt>
      <trkpt lat="43.42056" lon="6.05794">
        <ele>252.80000305176</ele>
        <time>2017-06-07T12:16:55Z</time>
      </trkpt>
      <trkpt lat="43.42054" lon="6.05785">
        <ele>252.80000305176</ele>
        <time>2017-06-07T12:16:56Z</time>
      </trkpt>
      <trkpt lat="43.42053" lon="6.05776">
        <ele>252.55000305176</ele>
        <time>2017-06-07T12:16:57Z</time>
      </trkpt>
      <trkpt lat="43.42051" lon="6.05766">
        <ele>252.30000305176</ele>
        <time>2017-06-07T12:16:58Z</time>
      </trkpt>
      <trkpt lat="43.42047" lon="6.05749">
        <ele>251.80000305176</ele>
        <time>2017-06-07T12:17:00Z</time>
      </trkpt>
      <trkpt lat="43.42043" lon="6.05722">
        <ele>251.39999389648</ele>
        <time>2017-06-07T12:17:03Z</time>
      </trkpt>
      <trkpt lat="43.42041" lon="6.05713">
        <ele>251.39999389648</ele>
        <time>2017-06-07T12:17:04Z</time>
      </trkpt>
      <trkpt lat="43.42039" lon="6.05705">
        <ele>251.19999694824</ele>
        <time>2017-06-07T12:17:05Z</time>
      </trkpt>
      <trkpt lat="43.42038" lon="6.05696">
        <ele>251</ele>
        <time>2017-06-07T12:17:06Z</time>
      </trkpt>
      <trkpt lat="43.42036" lon="6.05688">
        <ele>251</ele>
        <time>2017-06-07T12:17:07Z</time>
      </trkpt>
      <trkpt lat="43.42035" lon="6.05681">
        <ele>250.80000305176</ele>
        <time>2017-06-07T12:17:08Z</time>
      </trkpt>
      <trkpt lat="43.4203" lon="6.05649">
        <ele>251.39999389648</ele>
        <time>2017-06-07T12:17:13Z</time>
      </trkpt>
      <trkpt lat="43.42028" lon="6.05644">
        <ele>251.70666503906</ele>
        <time>2017-06-07T12:17:14Z</time>
      </trkpt>
      <trkpt lat="43.42028" lon="6.05638">
        <ele>252.01332092285</ele>
        <time>2017-06-07T12:17:15Z</time>
      </trkpt>
      <trkpt lat="43.42025" lon="6.05623">
        <ele>252.93333435059</ele>
        <time>2017-06-07T12:17:18Z</time>
      </trkpt>
      <trkpt lat="43.42024" lon="6.05618">
        <ele>253.23999023438</ele>
        <time>2017-06-07T12:17:19Z</time>
      </trkpt>
      <trkpt lat="43.42023" lon="6.05614">
        <ele>253.54666137695</ele>
        <time>2017-06-07T12:17:20Z</time>
      </trkpt>
      <trkpt lat="43.42022" lon="6.05604">
        <ele>254.16000366211</ele>
        <time>2017-06-07T12:17:22Z</time>
      </trkpt>
      <trkpt lat="43.4202" lon="6.05594">
        <ele>254.77333068848</ele>
        <time>2017-06-07T12:17:24Z</time>
      </trkpt>
      <trkpt lat="43.42017" lon="6.05575">
        <ele>256</ele>
        <time>2017-06-07T12:17:28Z</time>
      </trkpt>
      <trkpt lat="43.42016" lon="6.05571">
        <ele>256</ele>
        <time>2017-06-07T12:17:29Z</time>
      </trkpt>
      <trkpt lat="43.42014" lon="6.05561">
        <ele>256.48001098633</ele>
        <time>2017-06-07T12:17:31Z</time>
      </trkpt>
      <trkpt lat="43.42014" lon="6.05557">
        <ele>256.7200012207</ele>
        <time>2017-06-07T12:17:32Z</time>
      </trkpt>
      <trkpt lat="43.42013" lon="6.05552">
        <ele>256.95999145508</ele>
        <time>2017-06-07T12:17:33Z</time>
      </trkpt>
      <trkpt lat="43.42012" lon="6.05547">
        <ele>257.20001220703</ele>
        <time>2017-06-07T12:17:34Z</time>
      </trkpt>
      <trkpt lat="43.42009" lon="6.05526">
        <ele>258.39999389648</ele>
        <time>2017-06-07T12:17:39Z</time>
      </trkpt>
      <trkpt lat="43.42008" lon="6.05513">
        <ele>258.8444519043</ele>
        <time>2017-06-07T12:17:42Z</time>
      </trkpt>
      <trkpt lat="43.42006" lon="6.05502">
        <ele>259.51110839844</ele>
        <time>2017-06-07T12:17:45Z</time>
      </trkpt>
      <trkpt lat="43.42005" lon="6.05499">
        <ele>259.73333740234</ele>
        <time>2017-06-07T12:17:46Z</time>
      </trkpt>
      <trkpt lat="43.42004" lon="6.05492">
        <ele>260.17776489258</ele>
        <time>2017-06-07T12:17:48Z</time>
      </trkpt>
      <trkpt lat="43.42004" lon="6.05489">
        <ele>260.39999389648</ele>
        <time>2017-06-07T12:17:49Z</time>
      </trkpt>
      <trkpt lat="43.42002" lon="6.05481">
        <ele>260.60000610352</ele>
        <time>2017-06-07T12:17:51Z</time>
      </trkpt>
      <trkpt lat="43.42002" lon="6.05477">
        <ele>260.60000610352</ele>
        <time>2017-06-07T12:17:52Z</time>
      </trkpt>
      <trkpt lat="43.42001" lon="6.05474">
        <ele>260.60000610352</ele>
        <time>2017-06-07T12:17:53Z</time>
      </trkpt>
      <trkpt lat="43.42" lon="6.0547">
        <ele>260.39999389648</ele>
        <time>2017-06-07T12:17:54Z</time>
      </trkpt>
      <trkpt lat="43.41999" lon="6.05466">
        <ele>260.39999389648</ele>
        <time>2017-06-07T12:17:55Z</time>
      </trkpt>
      <trkpt lat="43.41998" lon="6.05462">
        <ele>260.01998901367</ele>
        <time>2017-06-07T12:17:56Z</time>
      </trkpt>
      <trkpt lat="43.41995" lon="6.05453">
        <ele>259.25997924805</ele>
        <time>2017-06-07T12:17:58Z</time>
      </trkpt>
      <trkpt lat="43.41994" lon="6.05448">
        <ele>258.88000488281</ele>
        <time>2017-06-07T12:17:59Z</time>
      </trkpt>
      <trkpt lat="43.41992" lon="6.05438">
        <ele>258.11999511719</ele>
        <time>2017-06-07T12:18:01Z</time>
      </trkpt>
      <trkpt lat="43.41986" lon="6.05417">
        <ele>256.97998046875</ele>
        <time>2017-06-07T12:18:04Z</time>
      </trkpt>
      <trkpt lat="43.41985" lon="6.0541">
        <ele>256.60000610352</ele>
        <time>2017-06-07T12:18:05Z</time>
      </trkpt>
      <trkpt lat="43.41982" lon="6.05402">
        <ele>256.2200012207</ele>
        <time>2017-06-07T12:18:06Z</time>
      </trkpt>
      <trkpt lat="43.4198" lon="6.05394">
        <ele>255.83999633789</ele>
        <time>2017-06-07T12:18:07Z</time>
      </trkpt>
      <trkpt lat="43.41973" lon="6.05369">
        <ele>254.69999694824</ele>
        <time>2017-06-07T12:18:10Z</time>
      </trkpt>
      <trkpt lat="43.41969" lon="6.05351">
        <ele>253.94000244141</ele>
        <time>2017-06-07T12:18:12Z</time>
      </trkpt>
      <trkpt lat="43.41966" lon="6.05342">
        <ele>253.55999755859</ele>
        <time>2017-06-07T12:18:13Z</time>
      </trkpt>
      <trkpt lat="43.41964" lon="6.05333">
        <ele>253.17999267578</ele>
        <time>2017-06-07T12:18:14Z</time>
      </trkpt>
      <trkpt lat="43.41956" lon="6.05295">
        <ele>251.65998840332</ele>
        <time>2017-06-07T12:18:18Z</time>
      </trkpt>
      <trkpt lat="43.41954" lon="6.05285">
        <ele>251.2799987793</ele>
        <time>2017-06-07T12:18:19Z</time>
      </trkpt>
      <trkpt lat="43.41953" lon="6.05275">
        <ele>250.89999389648</ele>
        <time>2017-06-07T12:18:20Z</time>
      </trkpt>
      <trkpt lat="43.41951" lon="6.05265">
        <ele>250.51998901367</ele>
        <time>2017-06-07T12:18:21Z</time>
      </trkpt>
      <trkpt lat="43.41948" lon="6.05255">
        <ele>250.13999938965</ele>
        <time>2017-06-07T12:18:22Z</time>
      </trkpt>
      <trkpt lat="43.41946" lon="6.05245">
        <ele>249.75999450684</ele>
        <time>2017-06-07T12:18:23Z</time>
      </trkpt>
      <trkpt lat="43.41945" lon="6.05234">
        <ele>249.37998962402</ele>
        <time>2017-06-07T12:18:24Z</time>
      </trkpt>
      <trkpt lat="43.41945" lon="6.05224">
        <ele>249</ele>
        <time>2017-06-07T12:18:25Z</time>
      </trkpt>
      <trkpt lat="43.41944" lon="6.05214">
        <ele>248.61999511719</ele>
        <time>2017-06-07T12:18:26Z</time>
      </trkpt>
      <trkpt lat="43.41943" lon="6.05205">
        <ele>248.23999023438</ele>
        <time>2017-06-07T12:18:27Z</time>
      </trkpt>
      <trkpt lat="43.41943" lon="6.05196">
        <ele>247.86000061035</ele>
        <time>2017-06-07T12:18:28Z</time>
      </trkpt>
      <trkpt lat="43.41943" lon="6.05187">
        <ele>247.47999572754</ele>
        <time>2017-06-07T12:18:29Z</time>
      </trkpt>
      <trkpt lat="43.41942" lon="6.05178">
        <ele>247.09999084473</ele>
        <time>2017-06-07T12:18:30Z</time>
      </trkpt>
      <trkpt lat="43.41942" lon="6.0517">
        <ele>246.7200012207</ele>
        <time>2017-06-07T12:18:31Z</time>
      </trkpt>
      <trkpt lat="43.41947" lon="6.05153">
        <ele>245.58000183106</ele>
        <time>2017-06-07T12:18:34Z</time>
      </trkpt>
      <trkpt lat="43.4195" lon="6.0515">
        <ele>245.19999694824</ele>
        <time>2017-06-07T12:18:35Z</time>
      </trkpt>
      <trkpt lat="43.41954" lon="6.05148">
        <ele>245.19999694824</ele>
        <time>2017-06-07T12:18:36Z</time>
      </trkpt>
      <trkpt lat="43.41957" lon="6.05146">
        <ele>245.19999694824</ele>
        <time>2017-06-07T12:18:37Z</time>
      </trkpt>
      <trkpt lat="43.41961" lon="6.05144">
        <ele>245.19999694824</ele>
        <time>2017-06-07T12:18:38Z</time>
      </trkpt>
      <trkpt lat="43.41968" lon="6.0514">
        <ele>245.80000305176</ele>
        <time>2017-06-07T12:18:40Z</time>
      </trkpt>
      <trkpt lat="43.41977" lon="6.05135">
        <ele>246.19999694824</ele>
        <time>2017-06-07T12:18:43Z</time>
      </trkpt>
      <trkpt lat="43.41983" lon="6.05132">
        <ele>246.59999084473</ele>
        <time>2017-06-07T12:18:45Z</time>
      </trkpt>
      <trkpt lat="43.41987" lon="6.05131">
        <ele>246.80000305176</ele>
        <time>2017-06-07T12:18:46Z</time>
      </trkpt>
      <trkpt lat="43.41993" lon="6.0513">
        <ele>247.19999694824</ele>
        <time>2017-06-07T12:18:48Z</time>
      </trkpt>
      <trkpt lat="43.41996" lon="6.0513">
        <ele>247.19999694824</ele>
        <time>2017-06-07T12:18:49Z</time>
      </trkpt>
      <trkpt lat="43.41999" lon="6.05128">
        <ele>247.39999389648</ele>
        <time>2017-06-07T12:18:50Z</time>
      </trkpt>
      <trkpt lat="43.42002" lon="6.05127">
        <ele>247.39999389648</ele>
        <time>2017-06-07T12:18:51Z</time>
      </trkpt>
      <trkpt lat="43.42005" lon="6.05127">
        <ele>247.59999084473</ele>
        <time>2017-06-07T12:18:52Z</time>
      </trkpt>
      <trkpt lat="43.4201" lon="6.05124">
        <ele>248</ele>
        <time>2017-06-07T12:18:54Z</time>
      </trkpt>
      <trkpt lat="43.4202" lon="6.0512">
        <ele>248.39999389648</ele>
        <time>2017-06-07T12:18:57Z</time>
      </trkpt>
      <trkpt lat="43.42024" lon="6.05119">
        <ele>248.60000610352</ele>
        <time>2017-06-07T12:18:58Z</time>
      </trkpt>
      <trkpt lat="43.42027" lon="6.05119">
        <ele>248.60000610352</ele>
        <time>2017-06-07T12:18:59Z</time>
      </trkpt>
      <trkpt lat="43.42031" lon="6.05118">
        <ele>248.66667175293</ele>
        <time>2017-06-07T12:19:00Z</time>
      </trkpt>
      <trkpt lat="43.42041" lon="6.05115">
        <ele>248.80000305176</ele>
        <time>2017-06-07T12:19:03Z</time>
      </trkpt>
      <trkpt lat="43.42047" lon="6.05113">
        <ele>249.19999694824</ele>
        <time>2017-06-07T12:19:05Z</time>
      </trkpt>
      <trkpt lat="43.4205" lon="6.05112">
        <ele>249.39999389648</ele>
        <time>2017-06-07T12:19:06Z</time>
      </trkpt>
      <trkpt lat="43.42057" lon="6.05111">
        <ele>249.80000305176</ele>
        <time>2017-06-07T12:19:08Z</time>
      </trkpt>
      <trkpt lat="43.42063" lon="6.0511">
        <ele>250.19999694824</ele>
        <time>2017-06-07T12:19:10Z</time>
      </trkpt>
      <trkpt lat="43.42068" lon="6.05108">
        <ele>250.39999389648</ele>
        <time>2017-06-07T12:19:12Z</time>
      </trkpt>
      <trkpt lat="43.42071" lon="6.05108">
        <ele>250.60000610352</ele>
        <time>2017-06-07T12:19:13Z</time>
      </trkpt>
      <trkpt lat="43.42074" lon="6.05108">
        <ele>250.60000610352</ele>
        <time>2017-06-07T12:19:14Z</time>
      </trkpt>
      <trkpt lat="43.42077" lon="6.05108">
        <ele>250.66667175293</ele>
        <time>2017-06-07T12:19:15Z</time>
      </trkpt>
      <trkpt lat="43.4208" lon="6.05108">
        <ele>250.73333740234</ele>
        <time>2017-06-07T12:19:16Z</time>
      </trkpt>
      <trkpt lat="43.42082" lon="6.05108">
        <ele>250.80000305176</ele>
        <time>2017-06-07T12:19:17Z</time>
      </trkpt>
      <trkpt lat="43.42085" lon="6.05108">
        <ele>250.80000305176</ele>
        <time>2017-06-07T12:19:18Z</time>
      </trkpt>
      <trkpt lat="43.42093" lon="6.05109">
        <ele>251.06666564941</ele>
        <time>2017-06-07T12:19:21Z</time>
      </trkpt>
      <trkpt lat="43.42096" lon="6.0511">
        <ele>251.13333129883</ele>
        <time>2017-06-07T12:19:22Z</time>
      </trkpt>
      <trkpt lat="43.42107" lon="6.0511">
        <ele>251.33332824707</ele>
        <time>2017-06-07T12:19:26Z</time>
      </trkpt>
      <trkpt lat="43.42113" lon="6.05111">
        <ele>251.39999389648</ele>
        <time>2017-06-07T12:19:28Z</time>
      </trkpt>
      <trkpt lat="43.42117" lon="6.05111">
        <ele>251.60000610352</ele>
        <time>2017-06-07T12:19:29Z</time>
      </trkpt>
      <trkpt lat="43.42119" lon="6.05111">
        <ele>251.60000610352</ele>
        <time>2017-06-07T12:19:30Z</time>
      </trkpt>
      <trkpt lat="43.42124" lon="6.05112">
        <ele>252.30000305176</ele>
        <time>2017-06-07T12:19:32Z</time>
      </trkpt>
      <trkpt lat="43.42126" lon="6.05113">
        <ele>252.64999389648</ele>
        <time>2017-06-07T12:19:33Z</time>
      </trkpt>
      <trkpt lat="43.42128" lon="6.05115">
        <ele>253</ele>
        <time>2017-06-07T12:19:34Z</time>
      </trkpt>
      <trkpt lat="43.42129" lon="6.05117">
        <ele>253.35000610352</ele>
        <time>2017-06-07T12:19:35Z</time>
      </trkpt>
      <trkpt lat="43.42133" lon="6.05121">
        <ele>254.04998779297</ele>
        <time>2017-06-07T12:19:37Z</time>
      </trkpt>
      <trkpt lat="43.42134" lon="6.05123">
        <ele>254.39999389648</ele>
        <time>2017-06-07T12:19:38Z</time>
      </trkpt>
      <trkpt lat="43.42136" lon="6.05125">
        <ele>254.39999389648</ele>
        <time>2017-06-07T12:19:39Z</time>
      </trkpt>
      <trkpt lat="43.42138" lon="6.05127">
        <ele>254.19999694824</ele>
        <time>2017-06-07T12:19:40Z</time>
      </trkpt>
      <trkpt lat="43.4214" lon="6.05129">
        <ele>254.19999694824</ele>
        <time>2017-06-07T12:19:41Z</time>
      </trkpt>
      <trkpt lat="43.42142" lon="6.0513">
        <ele>254.19999694824</ele>
        <time>2017-06-07T12:19:42Z</time>
      </trkpt>
      <trkpt lat="43.42143" lon="6.05131">
        <ele>254.19999694824</ele>
        <time>2017-06-07T12:19:43Z</time>
      </trkpt>
      <trkpt lat="43.42144" lon="6.05132">
        <ele>254.19999694824</ele>
        <time>2017-06-07T12:19:44Z</time>
      </trkpt>
      <trkpt lat="43.42145" lon="6.05133">
        <ele>254.39999389648</ele>
        <time>2017-06-07T12:19:45Z</time>
      </trkpt>
      <trkpt lat="43.42145" lon="6.05134">
        <ele>254.80000305176</ele>
        <time>2017-06-07T12:19:46Z</time>
      </trkpt>
      <trkpt lat="43.42145" lon="6.05134">
        <ele>255.19999694824</ele>
        <time>2017-06-07T12:19:48Z</time>
      </trkpt>
      <trkpt lat="43.42145" lon="6.05134">
        <ele>255.19999694824</ele>
        <time>2017-06-07T12:19:49Z</time>
      </trkpt>
      <trkpt lat="43.42145" lon="6.05134">
        <ele>254.80000305176</ele>
        <time>2017-06-07T12:19:52Z</time>
      </trkpt>
      <trkpt lat="43.42145" lon="6.05134">
        <ele>254.80000305176</ele>
        <time>2017-06-07T12:19:55Z</time>
      </trkpt>
      <trkpt lat="43.42146" lon="6.05134">
        <ele>254.80000305176</ele>
        <time>2017-06-07T12:19:56Z</time>
      </trkpt>
      <trkpt lat="43.42146" lon="6.05134">
        <ele>255</ele>
        <time>2017-06-07T12:19:58Z</time>
      </trkpt>
      <trkpt lat="43.42146" lon="6.05134">
        <ele>255</ele>
        <time>2017-06-07T12:19:59Z</time>
      </trkpt>
      <trkpt lat="43.42146" lon="6.05134">
        <ele>254.80000305176</ele>
        <time>2017-06-07T12:20:02Z</time>
      </trkpt>
      <trkpt lat="43.42146" lon="6.05134">
        <ele>254.39999389648</ele>
        <time>2017-06-07T12:20:06Z</time>
      </trkpt>
      <trkpt lat="43.42146" lon="6.05134">
        <ele>253.80000305176</ele>
        <time>2017-06-07T12:20:09Z</time>
      </trkpt>
      <trkpt lat="43.42146" lon="6.05134">
        <ele>253.39999389648</ele>
        <time>2017-06-07T12:20:11Z</time>
      </trkpt>
      <trkpt lat="43.42145" lon="6.05134">
        <ele>253</ele>
        <time>2017-06-07T12:20:13Z</time>
      </trkpt>
      <trkpt lat="43.42145" lon="6.05134">
        <ele>252.80000305176</ele>
        <time>2017-06-07T12:20:14Z</time>
      </trkpt>
      <trkpt lat="43.42145" lon="6.05134">
        <ele>252.60000610352</ele>
        <time>2017-06-07T12:20:15Z</time>
      </trkpt>
      <trkpt lat="43.42145" lon="6.05134">
        <ele>252.40000915527</ele>
        <time>2017-06-07T12:20:16Z</time>
      </trkpt>
      <trkpt lat="43.42145" lon="6.05134">
        <ele>252</ele>
        <time>2017-06-07T12:20:18Z</time>
      </trkpt>
      <trkpt lat="43.42145" lon="6.05134">
        <ele>254</ele>
        <time>2017-06-07T12:20:29Z</time>
      </trkpt>
      <trkpt lat="43.42145" lon="6.05134">
        <ele>254.19999694824</ele>
        <time>2017-06-07T12:20:33Z</time>
      </trkpt>
      <trkpt lat="43.42145" lon="6.05134">
        <ele>253.80000305176</ele>
        <time>2017-06-07T12:20:38Z</time>
      </trkpt>
      <trkpt lat="43.42145" lon="6.05134">
        <ele>253.80000305176</ele>
        <time>2017-06-07T12:20:39Z</time>
      </trkpt>
      <trkpt lat="43.42145" lon="6.05134">
        <ele>254.19999694824</ele>
        <time>2017-06-07T12:20:43Z</time>
      </trkpt>
      <trkpt lat="43.42145" lon="6.05134">
        <ele>254.19999694824</ele>
        <time>2017-06-07T12:20:45Z</time>
      </trkpt>
      <trkpt lat="43.42145" lon="6.05134">
        <ele>254.19999694824</ele>
        <time>2017-06-07T12:20:46Z</time>
      </trkpt>
      <trkpt lat="43.42145" lon="6.05134">
        <ele>254.19999694824</ele>
        <time>2017-06-07T12:20:48Z</time>
      </trkpt>
      <trkpt lat="43.42145" lon="6.05134">
        <ele>254.19999694824</ele>
        <time>2017-06-07T12:20:49Z</time>
      </trkpt>
      <trkpt lat="43.42145" lon="6.05134">
        <ele>254</ele>
        <time>2017-06-07T12:20:50Z</time>
      </trkpt>
      <trkpt lat="43.42145" lon="6.05134">
        <ele>252.80000305176</ele>
        <time>2017-06-07T12:20:56Z</time>
      </trkpt>
      <trkpt lat="43.42145" lon="6.05134">
        <ele>253</ele>
        <time>2017-06-07T12:21:14Z</time>
      </trkpt>
      <trkpt lat="43.42145" lon="6.05134">
        <ele>252.19999694824</ele>
        <time>2017-06-07T12:21:21Z</time>
      </trkpt>
      <trkpt lat="43.42145" lon="6.05134">
        <ele>252.19999694824</ele>
        <time>2017-06-07T12:21:23Z</time>
      </trkpt>
      <trkpt lat="43.42145" lon="6.05135">
        <ele>252.19999694824</ele>
        <time>2017-06-07T12:21:25Z</time>
      </trkpt>
      <trkpt lat="43.42147" lon="6.05139">
        <ele>252.60000610352</ele>
        <time>2017-06-07T12:21:28Z</time>
      </trkpt>
      <trkpt lat="43.42149" lon="6.05141">
        <ele>252.86666870117</ele>
        <time>2017-06-07T12:21:29Z</time>
      </trkpt>
      <trkpt lat="43.4215" lon="6.05143">
        <ele>253.13333129883</ele>
        <time>2017-06-07T12:21:30Z</time>
      </trkpt>
      <trkpt lat="43.42152" lon="6.05146">
        <ele>253.39999389648</ele>
        <time>2017-06-07T12:21:31Z</time>
      </trkpt>
      <trkpt lat="43.42154" lon="6.05148">
        <ele>253.39999389648</ele>
        <time>2017-06-07T12:21:32Z</time>
      </trkpt>
      <trkpt lat="43.42157" lon="6.0515">
        <ele>253.59999084473</ele>
        <time>2017-06-07T12:21:33Z</time>
      </trkpt>
      <trkpt lat="43.42159" lon="6.05152">
        <ele>253.80000305176</ele>
        <time>2017-06-07T12:21:34Z</time>
      </trkpt>
      <trkpt lat="43.42162" lon="6.05154">
        <ele>254</ele>
        <time>2017-06-07T12:21:35Z</time>
      </trkpt>
      <trkpt lat="43.42165" lon="6.05156">
        <ele>254</ele>
        <time>2017-06-07T12:21:36Z</time>
      </trkpt>
      <trkpt lat="43.42172" lon="6.05161">
        <ele>254.14999389648</ele>
        <time>2017-06-07T12:21:39Z</time>
      </trkpt>
      <trkpt lat="43.42176" lon="6.05163">
        <ele>254.19999694824</ele>
        <time>2017-06-07T12:21:41Z</time>
      </trkpt>
      <trkpt lat="43.42179" lon="6.05165">
        <ele>254.26666259766</ele>
        <time>2017-06-07T12:21:42Z</time>
      </trkpt>
      <trkpt lat="43.42181" lon="6.05166">
        <ele>254.33332824707</ele>
        <time>2017-06-07T12:21:43Z</time>
      </trkpt>
      <trkpt lat="43.42187" lon="6.05169">
        <ele>254.39999389648</ele>
        <time>2017-06-07T12:21:45Z</time>
      </trkpt>
      <trkpt lat="43.42192" lon="6.05172">
        <ele>254.60000610352</ele>
        <time>2017-06-07T12:21:47Z</time>
      </trkpt>
      <trkpt lat="43.42197" lon="6.05176">
        <ele>254.80000305176</ele>
        <time>2017-06-07T12:21:49Z</time>
      </trkpt>
      <trkpt lat="43.422" lon="6.05179">
        <ele>255</ele>
        <time>2017-06-07T12:21:50Z</time>
      </trkpt>
      <trkpt lat="43.42205" lon="6.05182">
        <ele>255.19999694824</ele>
        <time>2017-06-07T12:21:52Z</time>
      </trkpt>
      <trkpt lat="43.42207" lon="6.05184">
        <ele>255.39999389648</ele>
        <time>2017-06-07T12:21:53Z</time>
      </trkpt>
      <trkpt lat="43.42212" lon="6.05187">
        <ele>255.80000305176</ele>
        <time>2017-06-07T12:21:55Z</time>
      </trkpt>
      <trkpt lat="43.42215" lon="6.05188">
        <ele>255.80000305176</ele>
        <time>2017-06-07T12:21:56Z</time>
      </trkpt>
      <trkpt lat="43.4222" lon="6.0519">
        <ele>256</ele>
        <time>2017-06-07T12:21:58Z</time>
      </trkpt>
      <trkpt lat="43.42225" lon="6.05192">
        <ele>256.39999389648</ele>
        <time>2017-06-07T12:22:00Z</time>
      </trkpt>
      <trkpt lat="43.42227" lon="6.05194">
        <ele>256.60000610352</ele>
        <time>2017-06-07T12:22:01Z</time>
      </trkpt>
      <trkpt lat="43.42231" lon="6.05198">
        <ele>256.79998779297</ele>
        <time>2017-06-07T12:22:03Z</time>
      </trkpt>
      <trkpt lat="43.42233" lon="6.05201">
        <ele>256.79998779297</ele>
        <time>2017-06-07T12:22:04Z</time>
      </trkpt>
      <trkpt lat="43.42236" lon="6.05206">
        <ele>256.9333190918</ele>
        <time>2017-06-07T12:22:06Z</time>
      </trkpt>
      <trkpt lat="43.42239" lon="6.05208">
        <ele>257</ele>
        <time>2017-06-07T12:22:07Z</time>
      </trkpt>
      <trkpt lat="43.42244" lon="6.05211">
        <ele>257.13333129883</ele>
        <time>2017-06-07T12:22:09Z</time>
      </trkpt>
      <trkpt lat="43.42246" lon="6.05211">
        <ele>257.26666259766</ele>
        <time>2017-06-07T12:22:10Z</time>
      </trkpt>
      <trkpt lat="43.42252" lon="6.05212">
        <ele>257.39999389648</ele>
        <time>2017-06-07T12:22:12Z</time>
      </trkpt>
      <trkpt lat="43.42254" lon="6.05212">
        <ele>257.60000610352</ele>
        <time>2017-06-07T12:22:13Z</time>
      </trkpt>
      <trkpt lat="43.4226" lon="6.05211">
        <ele>258</ele>
        <time>2017-06-07T12:22:15Z</time>
      </trkpt>
      <trkpt lat="43.42271" lon="6.05211">
        <ele>258.79998779297</ele>
        <time>2017-06-07T12:22:19Z</time>
      </trkpt>
      <trkpt lat="43.42277" lon="6.05212">
        <ele>259</ele>
        <time>2017-06-07T12:22:21Z</time>
      </trkpt>
      <trkpt lat="43.42279" lon="6.05212">
        <ele>259.20001220703</ele>
        <time>2017-06-07T12:22:22Z</time>
      </trkpt>
      <trkpt lat="43.42285" lon="6.05213">
        <ele>259</ele>
        <time>2017-06-07T12:22:24Z</time>
      </trkpt>
      <trkpt lat="43.42292" lon="6.05215">
        <ele>259.5</ele>
        <time>2017-06-07T12:22:27Z</time>
      </trkpt>
      <trkpt lat="43.42295" lon="6.05216">
        <ele>259.79998779297</ele>
        <time>2017-06-07T12:22:28Z</time>
      </trkpt>
      <trkpt lat="43.42302" lon="6.05218">
        <ele>260</ele>
        <time>2017-06-07T12:22:31Z</time>
      </trkpt>
      <trkpt lat="43.42304" lon="6.05219">
        <ele>260.13333129883</ele>
        <time>2017-06-07T12:22:32Z</time>
      </trkpt>
      <trkpt lat="43.42307" lon="6.05219">
        <ele>260.26666259766</ele>
        <time>2017-06-07T12:22:33Z</time>
      </trkpt>
      <trkpt lat="43.42309" lon="6.0522">
        <ele>260.39999389648</ele>
        <time>2017-06-07T12:22:34Z</time>
      </trkpt>
      <trkpt lat="43.42311" lon="6.0522">
        <ele>260.39999389648</ele>
        <time>2017-06-07T12:22:35Z</time>
      </trkpt>
      <trkpt lat="43.42315" lon="6.0522">
        <ele>260.79998779297</ele>
        <time>2017-06-07T12:22:37Z</time>
      </trkpt>
      <trkpt lat="43.42318" lon="6.05221">
        <ele>261</ele>
        <time>2017-06-07T12:22:38Z</time>
      </trkpt>
      <trkpt lat="43.4232" lon="6.05222">
        <ele>261.19998168945</ele>
        <time>2017-06-07T12:22:39Z</time>
      </trkpt>
      <trkpt lat="43.42322" lon="6.05222">
        <ele>261.39999389648</ele>
        <time>2017-06-07T12:22:40Z</time>
      </trkpt>
      <trkpt lat="43.42324" lon="6.05223">
        <ele>261.59997558594</ele>
        <time>2017-06-07T12:22:41Z</time>
      </trkpt>
      <trkpt lat="43.42328" lon="6.05224">
        <ele>261.79998779297</ele>
        <time>2017-06-07T12:22:43Z</time>
      </trkpt>
      <trkpt lat="43.42332" lon="6.05226">
        <ele>262.2799987793</ele>
        <time>2017-06-07T12:22:45Z</time>
      </trkpt>
      <trkpt lat="43.42334" lon="6.05226">
        <ele>262.51998901367</ele>
        <time>2017-06-07T12:22:46Z</time>
      </trkpt>
      <trkpt lat="43.42336" lon="6.05227">
        <ele>262.76000976562</ele>
        <time>2017-06-07T12:22:47Z</time>
      </trkpt>
      <trkpt lat="43.4234" lon="6.05228">
        <ele>263</ele>
        <time>2017-06-07T12:22:49Z</time>
      </trkpt>
      <trkpt lat="43.42342" lon="6.05229">
        <ele>263.26666259766</ele>
        <time>2017-06-07T12:22:50Z</time>
      </trkpt>
      <trkpt lat="43.42343" lon="6.05229">
        <ele>263.53332519531</ele>
        <time>2017-06-07T12:22:51Z</time>
      </trkpt>
      <trkpt lat="43.42345" lon="6.0523">
        <ele>263.79998779297</ele>
        <time>2017-06-07T12:22:52Z</time>
      </trkpt>
      <trkpt lat="43.42347" lon="6.0523">
        <ele>263.79998779297</ele>
        <time>2017-06-07T12:22:53Z</time>
      </trkpt>
      <trkpt lat="43.42351" lon="6.05231">
        <ele>264.20001220703</ele>
        <time>2017-06-07T12:22:55Z</time>
      </trkpt>
      <trkpt lat="43.42355" lon="6.05231">
        <ele>264.39999389648</ele>
        <time>2017-06-07T12:22:57Z</time>
      </trkpt>
      <trkpt lat="43.42361" lon="6.0523">
        <ele>264.60000610352</ele>
        <time>2017-06-07T12:23:00Z</time>
      </trkpt>
      <trkpt lat="43.42365" lon="6.05229">
        <ele>264.89093017578</ele>
        <time>2017-06-07T12:23:02Z</time>
      </trkpt>
      <trkpt lat="43.42367" lon="6.05228">
        <ele>265.03637695312</ele>
        <time>2017-06-07T12:23:03Z</time>
      </trkpt>
      <trkpt lat="43.42369" lon="6.05227">
        <ele>265.18182373047</ele>
        <time>2017-06-07T12:23:04Z</time>
      </trkpt>
      <trkpt lat="43.42371" lon="6.05226">
        <ele>265.32727050781</ele>
        <time>2017-06-07T12:23:05Z</time>
      </trkpt>
      <trkpt lat="43.42374" lon="6.05226">
        <ele>265.61819458008</ele>
        <time>2017-06-07T12:23:07Z</time>
      </trkpt>
      <trkpt lat="43.42382" lon="6.05225">
        <ele>266.20001220703</ele>
        <time>2017-06-07T12:23:11Z</time>
      </trkpt>
      <trkpt lat="43.42384" lon="6.05225">
        <ele>266.20001220703</ele>
        <time>2017-06-07T12:23:12Z</time>
      </trkpt>
      <trkpt lat="43.42387" lon="6.05225">
        <ele>266.29998779297</ele>
        <time>2017-06-07T12:23:13Z</time>
      </trkpt>
      <trkpt lat="43.42391" lon="6.05224">
        <ele>266.39999389648</ele>
        <time>2017-06-07T12:23:15Z</time>
      </trkpt>
      <trkpt lat="43.42395" lon="6.05223">
        <ele>266.79998779297</ele>
        <time>2017-06-07T12:23:17Z</time>
      </trkpt>
      <trkpt lat="43.42398" lon="6.05223">
        <ele>267</ele>
        <time>2017-06-07T12:23:18Z</time>
      </trkpt>
      <trkpt lat="43.424" lon="6.05222">
        <ele>267</ele>
        <time>2017-06-07T12:23:19Z</time>
      </trkpt>
      <trkpt lat="43.42402" lon="6.05221">
        <ele>266.79998779297</ele>
        <time>2017-06-07T12:23:20Z</time>
      </trkpt>
      <trkpt lat="43.42404" lon="6.05221">
        <ele>266.79998779297</ele>
        <time>2017-06-07T12:23:21Z</time>
      </trkpt>
      <trkpt lat="43.42406" lon="6.0522">
        <ele>266.79998779297</ele>
        <time>2017-06-07T12:23:22Z</time>
      </trkpt>
      <trkpt lat="43.42408" lon="6.0522">
        <ele>266.79998779297</ele>
        <time>2017-06-07T12:23:23Z</time>
      </trkpt>
      <trkpt lat="43.4241" lon="6.0522">
        <ele>266.79998779297</ele>
        <time>2017-06-07T12:23:24Z</time>
      </trkpt>
      <trkpt lat="43.42416" lon="6.0522">
        <ele>267.39999389648</ele>
        <time>2017-06-07T12:23:27Z</time>
      </trkpt>
      <trkpt lat="43.42418" lon="6.0522">
        <ele>267.60000610352</ele>
        <time>2017-06-07T12:23:28Z</time>
      </trkpt>
      <trkpt lat="43.4242" lon="6.05219">
        <ele>267.60000610352</ele>
        <time>2017-06-07T12:23:29Z</time>
      </trkpt>
      <trkpt lat="43.42425" lon="6.0522">
        <ele>267.79998779297</ele>
        <time>2017-06-07T12:23:31Z</time>
      </trkpt>
      <trkpt lat="43.42427" lon="6.0522">
        <ele>267.89999389648</ele>
        <time>2017-06-07T12:23:32Z</time>
      </trkpt>
      <trkpt lat="43.42429" lon="6.0522">
        <ele>268</ele>
        <time>2017-06-07T12:23:33Z</time>
      </trkpt>
      <trkpt lat="43.42431" lon="6.0522">
        <ele>268</ele>
        <time>2017-06-07T12:23:34Z</time>
      </trkpt>
      <trkpt lat="43.42434" lon="6.0522">
        <ele>268.20001220703</ele>
        <time>2017-06-07T12:23:35Z</time>
      </trkpt>
      <trkpt lat="43.42438" lon="6.05219">
        <ele>268.39999389648</ele>
        <time>2017-06-07T12:23:37Z</time>
      </trkpt>
      <trkpt lat="43.4244" lon="6.05219">
        <ele>268.53332519531</ele>
        <time>2017-06-07T12:23:38Z</time>
      </trkpt>
      <trkpt lat="43.42442" lon="6.05218">
        <ele>268.66665649414</ele>
        <time>2017-06-07T12:23:39Z</time>
      </trkpt>
      <trkpt lat="43.42447" lon="6.05216">
        <ele>268.79998779297</ele>
        <time>2017-06-07T12:23:41Z</time>
      </trkpt>
      <trkpt lat="43.42449" lon="6.05216">
        <ele>269.10766601562</ele>
        <time>2017-06-07T12:23:42Z</time>
      </trkpt>
      <trkpt lat="43.42452" lon="6.05215">
        <ele>269.41537475586</ele>
        <time>2017-06-07T12:23:43Z</time>
      </trkpt>
      <trkpt lat="43.42455" lon="6.05215">
        <ele>269.72305297852</ele>
        <time>2017-06-07T12:23:44Z</time>
      </trkpt>
      <trkpt lat="43.42456" lon="6.05214">
        <ele>270.03076171875</ele>
        <time>2017-06-07T12:23:45Z</time>
      </trkpt>
      <trkpt lat="43.42458" lon="6.05213">
        <ele>270.33843994141</ele>
        <time>2017-06-07T12:23:46Z</time>
      </trkpt>
      <trkpt lat="43.4246" lon="6.05212">
        <ele>270.64614868164</ele>
        <time>2017-06-07T12:23:47Z</time>
      </trkpt>
      <trkpt lat="43.42461" lon="6.05211">
        <ele>270.9538269043</ele>
        <time>2017-06-07T12:23:48Z</time>
      </trkpt>
      <trkpt lat="43.42464" lon="6.05209">
        <ele>271.56921386719</ele>
        <time>2017-06-07T12:23:50Z</time>
      </trkpt>
      <trkpt lat="43.42466" lon="6.05209">
        <ele>271.87692260742</ele>
        <time>2017-06-07T12:23:51Z</time>
      </trkpt>
      <trkpt lat="43.42469" lon="6.05209">
        <ele>272.49230957031</ele>
        <time>2017-06-07T12:23:53Z</time>
      </trkpt>
      <trkpt lat="43.42471" lon="6.05209">
        <ele>272.79998779297</ele>
        <time>2017-06-07T12:23:54Z</time>
      </trkpt>
      <trkpt lat="43.42473" lon="6.05209">
        <ele>272.79998779297</ele>
        <time>2017-06-07T12:23:55Z</time>
      </trkpt>
      <trkpt lat="43.42475" lon="6.05209">
        <ele>272.79998779297</ele>
        <time>2017-06-07T12:23:56Z</time>
      </trkpt>
      <trkpt lat="43.42482" lon="6.05211">
        <ele>272.60000610352</ele>
        <time>2017-06-07T12:23:59Z</time>
      </trkpt>
      <trkpt lat="43.42484" lon="6.05211">
        <ele>272.60000610352</ele>
        <time>2017-06-07T12:24:00Z</time>
      </trkpt>
      <trkpt lat="43.42487" lon="6.05212">
        <ele>272.40002441406</ele>
        <time>2017-06-07T12:24:01Z</time>
      </trkpt>
      <trkpt lat="43.42489" lon="6.05213">
        <ele>272.20001220703</ele>
        <time>2017-06-07T12:24:02Z</time>
      </trkpt>
      <trkpt lat="43.42492" lon="6.05214">
        <ele>272.20001220703</ele>
        <time>2017-06-07T12:24:03Z</time>
      </trkpt>
      <trkpt lat="43.42495" lon="6.05215">
        <ele>272</ele>
        <time>2017-06-07T12:24:04Z</time>
      </trkpt>
      <trkpt lat="43.42498" lon="6.05217">
        <ele>272</ele>
        <time>2017-06-07T12:24:05Z</time>
      </trkpt>
      <trkpt lat="43.42501" lon="6.05219">
        <ele>271.79998779297</ele>
        <time>2017-06-07T12:24:06Z</time>
      </trkpt>
      <trkpt lat="43.42503" lon="6.05219">
        <ele>271.79998779297</ele>
        <time>2017-06-07T12:24:07Z</time>
      </trkpt>
      <trkpt lat="43.42505" lon="6.05219">
        <ele>271.79998779297</ele>
        <time>2017-06-07T12:24:08Z</time>
      </trkpt>
      <trkpt lat="43.42507" lon="6.05219">
        <ele>271.79998779297</ele>
        <time>2017-06-07T12:24:09Z</time>
      </trkpt>
      <trkpt lat="43.4251" lon="6.0522">
        <ele>272</ele>
        <time>2017-06-07T12:24:10Z</time>
      </trkpt>
      <trkpt lat="43.42512" lon="6.0522">
        <ele>272</ele>
        <time>2017-06-07T12:24:11Z</time>
      </trkpt>
      <trkpt lat="43.42514" lon="6.0522">
        <ele>272.10000610352</ele>
        <time>2017-06-07T12:24:12Z</time>
      </trkpt>
      <trkpt lat="43.42516" lon="6.0522">
        <ele>272.20001220703</ele>
        <time>2017-06-07T12:24:13Z</time>
      </trkpt>
      <trkpt lat="43.42519" lon="6.0522">
        <ele>272.20001220703</ele>
        <time>2017-06-07T12:24:14Z</time>
      </trkpt>
      <trkpt lat="43.42521" lon="6.05219">
        <ele>272.20001220703</ele>
        <time>2017-06-07T12:24:15Z</time>
      </trkpt>
      <trkpt lat="43.42527" lon="6.05219">
        <ele>272</ele>
        <time>2017-06-07T12:24:17Z</time>
      </trkpt>
      <trkpt lat="43.42529" lon="6.05219">
        <ele>272</ele>
        <time>2017-06-07T12:24:18Z</time>
      </trkpt>
      <trkpt lat="43.4253" lon="6.05218">
        <ele>272</ele>
        <time>2017-06-07T12:24:19Z</time>
      </trkpt>
      <trkpt lat="43.42532" lon="6.05218">
        <ele>272.20001220703</ele>
        <time>2017-06-07T12:24:20Z</time>
      </trkpt>
      <trkpt lat="43.42533" lon="6.05218">
        <ele>272.39999389648</ele>
        <time>2017-06-07T12:24:21Z</time>
      </trkpt>
      <trkpt lat="43.42535" lon="6.05218">
        <ele>272.39999389648</ele>
        <time>2017-06-07T12:24:22Z</time>
      </trkpt>
      <trkpt lat="43.42538" lon="6.05217">
        <ele>272.60000610352</ele>
        <time>2017-06-07T12:24:23Z</time>
      </trkpt>
      <trkpt lat="43.4254" lon="6.05217">
        <ele>272.39999389648</ele>
        <time>2017-06-07T12:24:24Z</time>
      </trkpt>
      <trkpt lat="43.42543" lon="6.05217">
        <ele>272.20001220703</ele>
        <time>2017-06-07T12:24:25Z</time>
      </trkpt>
      <trkpt lat="43.42545" lon="6.05217">
        <ele>272.20001220703</ele>
        <time>2017-06-07T12:24:26Z</time>
      </trkpt>
      <trkpt lat="43.42548" lon="6.05217">
        <ele>272.39999389648</ele>
        <time>2017-06-07T12:24:27Z</time>
      </trkpt>
      <trkpt lat="43.42553" lon="6.05214">
        <ele>273.60000610352</ele>
        <time>2017-06-07T12:24:30Z</time>
      </trkpt>
      <trkpt lat="43.42556" lon="6.05214">
        <ele>274.39999389648</ele>
        <time>2017-06-07T12:24:32Z</time>
      </trkpt>
      <trkpt lat="43.42558" lon="6.05213">
        <ele>274.60000610352</ele>
        <time>2017-06-07T12:24:33Z</time>
      </trkpt>
      <trkpt lat="43.42569" lon="6.05215">
        <ele>275.08001708984</ele>
        <time>2017-06-07T12:24:38Z</time>
      </trkpt>
      <trkpt lat="43.42571" lon="6.05215">
        <ele>275.11999511719</ele>
        <time>2017-06-07T12:24:39Z</time>
      </trkpt>
      <trkpt lat="43.42576" lon="6.05217">
        <ele>275.20001220703</ele>
        <time>2017-06-07T12:24:41Z</time>
      </trkpt>
      <trkpt lat="43.42581" lon="6.05219">
        <ele>275.25</ele>
        <time>2017-06-07T12:24:43Z</time>
      </trkpt>
      <trkpt lat="43.42583" lon="6.05221">
        <ele>275.29998779297</ele>
        <time>2017-06-07T12:24:44Z</time>
      </trkpt>
      <trkpt lat="43.42586" lon="6.05223">
        <ele>275.35000610352</ele>
        <time>2017-06-07T12:24:45Z</time>
      </trkpt>
      <trkpt lat="43.42588" lon="6.05225">
        <ele>275.39999389648</ele>
        <time>2017-06-07T12:24:46Z</time>
      </trkpt>
      <trkpt lat="43.4259" lon="6.05227">
        <ele>275.39999389648</ele>
        <time>2017-06-07T12:24:47Z</time>
      </trkpt>
      <trkpt lat="43.42597" lon="6.05234">
        <ele>275.44613647461</ele>
        <time>2017-06-07T12:24:50Z</time>
      </trkpt>
      <trkpt lat="43.42599" lon="6.05236">
        <ele>275.46154785156</ele>
        <time>2017-06-07T12:24:51Z</time>
      </trkpt>
      <trkpt lat="43.42603" lon="6.0524">
        <ele>275.49230957031</ele>
        <time>2017-06-07T12:24:53Z</time>
      </trkpt>
      <trkpt lat="43.42609" lon="6.05246">
        <ele>275.53845214844</ele>
        <time>2017-06-07T12:24:56Z</time>
      </trkpt>
      <trkpt lat="43.42611" lon="6.05248">
        <ele>275.55386352539</ele>
        <time>2017-06-07T12:24:57Z</time>
      </trkpt>
      <trkpt lat="43.42616" lon="6.05251">
        <ele>275.58462524414</ele>
        <time>2017-06-07T12:24:59Z</time>
      </trkpt>
      <trkpt lat="43.42617" lon="6.05252">
        <ele>275.60000610352</ele>
        <time>2017-06-07T12:25:00Z</time>
      </trkpt>
      <trkpt lat="43.42619" lon="6.05253">
        <ele>275.60000610352</ele>
        <time>2017-06-07T12:25:01Z</time>
      </trkpt>
      <trkpt lat="43.4262" lon="6.05254">
        <ele>275.85000610352</ele>
        <time>2017-06-07T12:25:02Z</time>
      </trkpt>
      <trkpt lat="43.42622" lon="6.05255">
        <ele>276.10000610352</ele>
        <time>2017-06-07T12:25:03Z</time>
      </trkpt>
      <trkpt lat="43.42625" lon="6.05257">
        <ele>276.60000610352</ele>
        <time>2017-06-07T12:25:05Z</time>
      </trkpt>
      <trkpt lat="43.42627" lon="6.05257">
        <ele>276.60000610352</ele>
        <time>2017-06-07T12:25:06Z</time>
      </trkpt>
      <trkpt lat="43.42629" lon="6.05258">
        <ele>276.79998779297</ele>
        <time>2017-06-07T12:25:07Z</time>
      </trkpt>
      <trkpt lat="43.4263" lon="6.05259">
        <ele>276.79998779297</ele>
        <time>2017-06-07T12:25:08Z</time>
      </trkpt>
      <trkpt lat="43.42631" lon="6.0526">
        <ele>276.89999389648</ele>
        <time>2017-06-07T12:25:09Z</time>
      </trkpt>
      <trkpt lat="43.42632" lon="6.0526">
        <ele>277</ele>
        <time>2017-06-07T12:25:10Z</time>
      </trkpt>
      <trkpt lat="43.42632" lon="6.0526">
        <ele>277.20001220703</ele>
        <time>2017-06-07T12:25:12Z</time>
      </trkpt>
      <trkpt lat="43.42632" lon="6.0526">
        <ele>277.20001220703</ele>
        <time>2017-06-07T12:25:13Z</time>
      </trkpt>
      <trkpt lat="43.42632" lon="6.0526">
        <ele>277.39999389648</ele>
        <time>2017-06-07T12:25:14Z</time>
      </trkpt>
      <trkpt lat="43.42632" lon="6.0526">
        <ele>277.41665649414</ele>
        <time>2017-06-07T12:25:16Z</time>
      </trkpt>
      <trkpt lat="43.42632" lon="6.0526">
        <ele>277.4333190918</ele>
        <time>2017-06-07T12:25:17Z</time>
      </trkpt>
      <trkpt lat="43.42632" lon="6.0526">
        <ele>277.5</ele>
        <time>2017-06-07T12:25:21Z</time>
      </trkpt>
      <trkpt lat="43.42632" lon="6.0526">
        <ele>277.54998779297</ele>
        <time>2017-06-07T12:25:24Z</time>
      </trkpt>
      <trkpt lat="43.42632" lon="6.0526">
        <ele>277.79998779297</ele>
        <time>2017-06-07T12:25:34Z</time>
      </trkpt>
      <trkpt lat="43.42632" lon="6.0526">
        <ele>277.60000610352</ele>
        <time>2017-06-07T12:25:41Z</time>
      </trkpt>
      <trkpt lat="43.42632" lon="6.0526">
        <ele>277.60000610352</ele>
        <time>2017-06-07T12:25:43Z</time>
      </trkpt>
      <trkpt lat="43.42632" lon="6.0526">
        <ele>277.79998779297</ele>
        <time>2017-06-07T12:25:44Z</time>
      </trkpt>
      <trkpt lat="43.42632" lon="6.0526">
        <ele>278</ele>
        <time>2017-06-07T12:25:46Z</time>
      </trkpt>
      <trkpt lat="43.42632" lon="6.05261">
        <ele>278</ele>
        <time>2017-06-07T12:25:47Z</time>
      </trkpt>
      <trkpt lat="43.42632" lon="6.05262">
        <ele>278.10000610352</ele>
        <time>2017-06-07T12:25:48Z</time>
      </trkpt>
      <trkpt lat="43.42632" lon="6.05264">
        <ele>278.20001220703</ele>
        <time>2017-06-07T12:25:49Z</time>
      </trkpt>
      <trkpt lat="43.42633" lon="6.05266">
        <ele>278.20001220703</ele>
        <time>2017-06-07T12:25:50Z</time>
      </trkpt>
      <trkpt lat="43.42634" lon="6.05268">
        <ele>278.40002441406</ele>
        <time>2017-06-07T12:25:51Z</time>
      </trkpt>
      <trkpt lat="43.42636" lon="6.05271">
        <ele>278.60000610352</ele>
        <time>2017-06-07T12:25:52Z</time>
      </trkpt>
      <trkpt lat="43.42638" lon="6.05273">
        <ele>278.60000610352</ele>
        <time>2017-06-07T12:25:53Z</time>
      </trkpt>
      <trkpt lat="43.42643" lon="6.05277">
        <ele>278.79998779297</ele>
        <time>2017-06-07T12:25:55Z</time>
      </trkpt>
      <trkpt lat="43.42645" lon="6.05278">
        <ele>278.86666870117</ele>
        <time>2017-06-07T12:25:56Z</time>
      </trkpt>
      <trkpt lat="43.42652" lon="6.05285">
        <ele>279.0666809082</ele>
        <time>2017-06-07T12:25:59Z</time>
      </trkpt>
      <trkpt lat="43.42654" lon="6.05291">
        <ele>279.20001220703</ele>
        <time>2017-06-07T12:26:01Z</time>
      </trkpt>
      <trkpt lat="43.42657" lon="6.05295">
        <ele>279.40002441406</ele>
        <time>2017-06-07T12:26:03Z</time>
      </trkpt>
      <trkpt lat="43.42659" lon="6.05298">
        <ele>279.60000610352</ele>
        <time>2017-06-07T12:26:04Z</time>
      </trkpt>
      <trkpt lat="43.42662" lon="6.05302">
        <ele>280</ele>
        <time>2017-06-07T12:26:06Z</time>
      </trkpt>
      <trkpt lat="43.42662" lon="6.05304">
        <ele>280.20001220703</ele>
        <time>2017-06-07T12:26:07Z</time>
      </trkpt>
      <trkpt lat="43.42662" lon="6.05306">
        <ele>280.20001220703</ele>
        <time>2017-06-07T12:26:08Z</time>
      </trkpt>
      <trkpt lat="43.42664" lon="6.05309">
        <ele>280.40002441406</ele>
        <time>2017-06-07T12:26:09Z</time>
      </trkpt>
      <trkpt lat="43.42665" lon="6.05311">
        <ele>280.60000610352</ele>
        <time>2017-06-07T12:26:10Z</time>
      </trkpt>
      <trkpt lat="43.42666" lon="6.05313">
        <ele>280.39999389648</ele>
        <time>2017-06-07T12:26:11Z</time>
      </trkpt>
      <trkpt lat="43.42668" lon="6.05315">
        <ele>280.60000610352</ele>
        <time>2017-06-07T12:26:12Z</time>
      </trkpt>
      <trkpt lat="43.4267" lon="6.05318">
        <ele>280.60000610352</ele>
        <time>2017-06-07T12:26:13Z</time>
      </trkpt>
      <trkpt lat="43.42671" lon="6.0532">
        <ele>280.79998779297</ele>
        <time>2017-06-07T12:26:14Z</time>
      </trkpt>
      <trkpt lat="43.42672" lon="6.05321">
        <ele>281</ele>
        <time>2017-06-07T12:26:15Z</time>
      </trkpt>
      <trkpt lat="43.42673" lon="6.05323">
        <ele>281</ele>
        <time>2017-06-07T12:26:16Z</time>
      </trkpt>
      <trkpt lat="43.42674" lon="6.05324">
        <ele>281.20001220703</ele>
        <time>2017-06-07T12:26:17Z</time>
      </trkpt>
      <trkpt lat="43.42675" lon="6.05324">
        <ele>281.20001220703</ele>
        <time>2017-06-07T12:26:18Z</time>
      </trkpt>
      <trkpt lat="43.42675" lon="6.05324">
        <ele>281.20001220703</ele>
        <time>2017-06-07T12:26:19Z</time>
      </trkpt>
      <trkpt lat="43.42831" lon="6.05724">
        <ele>306.39999389648</ele>
        <time>2017-06-07T12:33:37Z</time>
      </trkpt>
      <trkpt lat="43.42831" lon="6.05724">
        <ele>307.20001220703</ele>
        <time>2017-06-07T12:33:49Z</time>
      </trkpt>
      <trkpt lat="43.42831" lon="6.05724">
        <ele>306.39999389648</ele>
        <time>2017-06-07T12:33:59Z</time>
      </trkpt>
      <trkpt lat="43.42831" lon="6.05724">
        <ele>306.60000610352</ele>
        <time>2017-06-07T12:34:19Z</time>
      </trkpt>
      <trkpt lat="43.42831" lon="6.05724">
        <ele>306.89999389648</ele>
        <time>2017-06-07T12:34:23Z</time>
      </trkpt>
      <trkpt lat="43.42831" lon="6.05724">
        <ele>307.10000610352</ele>
        <time>2017-06-07T12:34:25Z</time>
      </trkpt>
      <trkpt lat="43.42831" lon="6.05724">
        <ele>307.70001220703</ele>
        <time>2017-06-07T12:34:53Z</time>
      </trkpt>
      <trkpt lat="43.42831" lon="6.05724">
        <ele>307.9333190918</ele>
        <time>2017-06-07T12:34:59Z</time>
      </trkpt>
      <trkpt lat="43.42831" lon="6.05724">
        <ele>308.39999389648</ele>
        <time>2017-06-07T12:35:05Z</time>
      </trkpt>
      <trkpt lat="43.42831" lon="6.05724">
        <ele>308</ele>
        <time>2017-06-07T12:35:11Z</time>
      </trkpt>
      <trkpt lat="43.42831" lon="6.05725">
        <ele>307.39999389648</ele>
        <time>2017-06-07T12:35:57Z</time>
      </trkpt>
      <trkpt lat="43.42831" lon="6.05725">
        <ele>308</ele>
        <time>2017-06-07T12:36:12Z</time>
      </trkpt>
      <trkpt lat="43.42831" lon="6.05725">
        <ele>307.79998779297</ele>
        <time>2017-06-07T12:36:26Z</time>
      </trkpt>
      <trkpt lat="43.42831" lon="6.05725">
        <ele>307.86666870117</ele>
        <time>2017-06-07T12:36:28Z</time>
      </trkpt>
      <trkpt lat="43.42831" lon="6.05725">
        <ele>307.96667480469</ele>
        <time>2017-06-07T12:36:31Z</time>
      </trkpt>
      <trkpt lat="43.42831" lon="6.05725">
        <ele>308.52728271484</ele>
        <time>2017-06-07T12:36:43Z</time>
      </trkpt>
      <trkpt lat="43.42831" lon="6.05725">
        <ele>308.56362915039</ele>
        <time>2017-06-07T12:36:45Z</time>
      </trkpt>
      <trkpt lat="43.42831" lon="6.05725">
        <ele>308.58181762695</ele>
        <time>2017-06-07T12:36:46Z</time>
      </trkpt>
      <trkpt lat="43.42831" lon="6.05725">
        <ele>308.60000610352</ele>
        <time>2017-06-07T12:36:47Z</time>
      </trkpt>
      <trkpt lat="43.42832" lon="6.05725">
        <ele>308.60000610352</ele>
        <time>2017-06-07T12:36:48Z</time>
      </trkpt>
      <trkpt lat="43.42832" lon="6.05725">
        <ele>308.79998779297</ele>
        <time>2017-06-07T12:36:49Z</time>
      </trkpt>
      <trkpt lat="43.42833" lon="6.05725">
        <ele>309</ele>
        <time>2017-06-07T12:36:50Z</time>
      </trkpt>
      <trkpt lat="43.42834" lon="6.05724">
        <ele>309</ele>
        <time>2017-06-07T12:36:51Z</time>
      </trkpt>
      <trkpt lat="43.42835" lon="6.05723">
        <ele>309.20001220703</ele>
        <time>2017-06-07T12:36:52Z</time>
      </trkpt>
      <trkpt lat="43.42836" lon="6.05721">
        <ele>309</ele>
        <time>2017-06-07T12:36:53Z</time>
      </trkpt>
      <trkpt lat="43.42838" lon="6.05719">
        <ele>308.79998779297</ele>
        <time>2017-06-07T12:36:54Z</time>
      </trkpt>
      <trkpt lat="43.42841" lon="6.05715">
        <ele>308.39999389648</ele>
        <time>2017-06-07T12:36:56Z</time>
      </trkpt>
      <trkpt lat="43.42841" lon="6.05713">
        <ele>308.39999389648</ele>
        <time>2017-06-07T12:36:57Z</time>
      </trkpt>
      <trkpt lat="43.42841" lon="6.0571">
        <ele>307.79998779297</ele>
        <time>2017-06-07T12:36:58Z</time>
      </trkpt>
      <trkpt lat="43.42842" lon="6.05707">
        <ele>307.79998779297</ele>
        <time>2017-06-07T12:36:59Z</time>
      </trkpt>
      <trkpt lat="43.42843" lon="6.05698">
        <ele>307.60000610352</ele>
        <time>2017-06-07T12:37:02Z</time>
      </trkpt>
      <trkpt lat="43.42844" lon="6.05695">
        <ele>307.60000610352</ele>
        <time>2017-06-07T12:37:03Z</time>
      </trkpt>
      <trkpt lat="43.42845" lon="6.05692">
        <ele>307.60000610352</ele>
        <time>2017-06-07T12:37:04Z</time>
      </trkpt>
      <trkpt lat="43.42845" lon="6.05687">
        <ele>307.60000610352</ele>
        <time>2017-06-07T12:37:05Z</time>
      </trkpt>
      <trkpt lat="43.42847" lon="6.0568">
        <ele>307.79998779297</ele>
        <time>2017-06-07T12:37:07Z</time>
      </trkpt>
      <trkpt lat="43.42847" lon="6.05676">
        <ele>307.86666870117</ele>
        <time>2017-06-07T12:37:08Z</time>
      </trkpt>
      <trkpt lat="43.42848" lon="6.05672">
        <ele>307.9333190918</ele>
        <time>2017-06-07T12:37:09Z</time>
      </trkpt>
      <trkpt lat="43.42849" lon="6.05669">
        <ele>308</ele>
        <time>2017-06-07T12:37:10Z</time>
      </trkpt>
      <trkpt lat="43.42849" lon="6.05665">
        <ele>307.79998779297</ele>
        <time>2017-06-07T12:37:11Z</time>
      </trkpt>
      <trkpt lat="43.4285" lon="6.05657">
        <ele>307.69998168945</ele>
        <time>2017-06-07T12:37:13Z</time>
      </trkpt>
      <trkpt lat="43.4285" lon="6.05653">
        <ele>307.59997558594</ele>
        <time>2017-06-07T12:37:14Z</time>
      </trkpt>
      <trkpt lat="43.42851" lon="6.05649">
        <ele>307.5</ele>
        <time>2017-06-07T12:37:15Z</time>
      </trkpt>
      <trkpt lat="43.42852" lon="6.05645">
        <ele>307.39999389648</ele>
        <time>2017-06-07T12:37:16Z</time>
      </trkpt>
      <trkpt lat="43.42852" lon="6.05641">
        <ele>307.39999389648</ele>
        <time>2017-06-07T12:37:17Z</time>
      </trkpt>
      <trkpt lat="43.42853" lon="6.05633">
        <ele>307.20001220703</ele>
        <time>2017-06-07T12:37:19Z</time>
      </trkpt>
      <trkpt lat="43.42854" lon="6.05626">
        <ele>307.09091186523</ele>
        <time>2017-06-07T12:37:21Z</time>
      </trkpt>
      <trkpt lat="43.42854" lon="6.05622">
        <ele>307.03637695312</ele>
        <time>2017-06-07T12:37:22Z</time>
      </trkpt>
      <trkpt lat="43.42855" lon="6.05619">
        <ele>306.98184204102</ele>
        <time>2017-06-07T12:37:23Z</time>
      </trkpt>
      <trkpt lat="43.42855" lon="6.05615">
        <ele>306.92727661133</ele>
        <time>2017-06-07T12:37:24Z</time>
      </trkpt>
      <trkpt lat="43.42856" lon="6.05604">
        <ele>306.76364135742</ele>
        <time>2017-06-07T12:37:27Z</time>
      </trkpt>
      <trkpt lat="43.4286" lon="6.05579">
        <ele>306.39999389648</ele>
        <time>2017-06-07T12:37:33Z</time>
      </trkpt>
      <trkpt lat="43.42861" lon="6.05565">
        <ele>305.19998168945</ele>
        <time>2017-06-07T12:37:36Z</time>
      </trkpt>
      <trkpt lat="43.42862" lon="6.0556">
        <ele>304.79998779297</ele>
        <time>2017-06-07T12:37:37Z</time>
      </trkpt>
      <trkpt lat="43.42862" lon="6.05555">
        <ele>304.79998779297</ele>
        <time>2017-06-07T12:37:38Z</time>
      </trkpt>
      <trkpt lat="43.42863" lon="6.0555">
        <ele>305.20001220703</ele>
        <time>2017-06-07T12:37:39Z</time>
      </trkpt>
      <trkpt lat="43.42865" lon="6.05537">
        <ele>305.79998779297</ele>
        <time>2017-06-07T12:37:42Z</time>
      </trkpt>
      <trkpt lat="43.42867" lon="6.05528">
        <ele>305.79998779297</ele>
        <time>2017-06-07T12:37:44Z</time>
      </trkpt>
      <trkpt lat="43.42868" lon="6.05524">
        <ele>305.79998779297</ele>
        <time>2017-06-07T12:37:45Z</time>
      </trkpt>
      <trkpt lat="43.42869" lon="6.05515">
        <ele>305.60000610352</ele>
        <time>2017-06-07T12:37:47Z</time>
      </trkpt>
      <trkpt lat="43.42869" lon="6.0551">
        <ele>305.79998779297</ele>
        <time>2017-06-07T12:37:48Z</time>
      </trkpt>
      <trkpt lat="43.4287" lon="6.05505">
        <ele>305.79998779297</ele>
        <time>2017-06-07T12:37:49Z</time>
      </trkpt>
      <trkpt lat="43.4287" lon="6.055">
        <ele>305.79998779297</ele>
        <time>2017-06-07T12:37:50Z</time>
      </trkpt>
      <trkpt lat="43.42871" lon="6.0549">
        <ele>305.60000610352</ele>
        <time>2017-06-07T12:37:52Z</time>
      </trkpt>
      <trkpt lat="43.42873" lon="6.05466">
        <ele>306.39999389648</ele>
        <time>2017-06-07T12:37:57Z</time>
      </trkpt>
      <trkpt lat="43.42873" lon="6.05461">
        <ele>306.59997558594</ele>
        <time>2017-06-07T12:37:58Z</time>
      </trkpt>
      <trkpt lat="43.42873" lon="6.05456">
        <ele>306.79998779297</ele>
        <time>2017-06-07T12:37:59Z</time>
      </trkpt>
      <trkpt lat="43.42875" lon="6.05447">
        <ele>307</ele>
        <time>2017-06-07T12:38:01Z</time>
      </trkpt>
      <trkpt lat="43.42876" lon="6.05438">
        <ele>307.39999389648</ele>
        <time>2017-06-07T12:38:03Z</time>
      </trkpt>
      <trkpt lat="43.42878" lon="6.05424">
        <ele>307.60000610352</ele>
        <time>2017-06-07T12:38:06Z</time>
      </trkpt>
      <trkpt lat="43.4288" lon="6.05415">
        <ele>307.79998779297</ele>
        <time>2017-06-07T12:38:08Z</time>
      </trkpt>
      <trkpt lat="43.42881" lon="6.05406">
        <ele>308</ele>
        <time>2017-06-07T12:38:10Z</time>
      </trkpt>
      <trkpt lat="43.42881" lon="6.05401">
        <ele>307.60000610352</ele>
        <time>2017-06-07T12:38:11Z</time>
      </trkpt>
      <trkpt lat="43.42881" lon="6.05396">
        <ele>307.60000610352</ele>
        <time>2017-06-07T12:38:12Z</time>
      </trkpt>
      <trkpt lat="43.4288" lon="6.05392">
        <ele>307.60000610352</ele>
        <time>2017-06-07T12:38:13Z</time>
      </trkpt>
      <trkpt lat="43.42881" lon="6.05387">
        <ele>307.60000610352</ele>
        <time>2017-06-07T12:38:14Z</time>
      </trkpt>
      <trkpt lat="43.4288" lon="6.05379">
        <ele>308.20001220703</ele>
        <time>2017-06-07T12:38:16Z</time>
      </trkpt>
      <trkpt lat="43.42881" lon="6.05375">
        <ele>308.60000610352</ele>
        <time>2017-06-07T12:38:17Z</time>
      </trkpt>
      <trkpt lat="43.42881" lon="6.05371">
        <ele>308.79998779297</ele>
        <time>2017-06-07T12:38:18Z</time>
      </trkpt>
      <trkpt lat="43.42882" lon="6.05363">
        <ele>309</ele>
        <time>2017-06-07T12:38:20Z</time>
      </trkpt>
      <trkpt lat="43.42883" lon="6.05359">
        <ele>309.18334960938</ele>
        <time>2017-06-07T12:38:21Z</time>
      </trkpt>
      <trkpt lat="43.42885" lon="6.05347">
        <ele>309.73333740234</ele>
        <time>2017-06-07T12:38:24Z</time>
      </trkpt>
      <trkpt lat="43.42887" lon="6.05331">
        <ele>310.46667480469</ele>
        <time>2017-06-07T12:38:28Z</time>
      </trkpt>
      <trkpt lat="43.42889" lon="6.05324">
        <ele>310.83334350586</ele>
        <time>2017-06-07T12:38:30Z</time>
      </trkpt>
      <trkpt lat="43.42889" lon="6.05321">
        <ele>311.01666259766</ele>
        <time>2017-06-07T12:38:31Z</time>
      </trkpt>
      <trkpt lat="43.42889" lon="6.05317">
        <ele>311.20001220703</ele>
        <time>2017-06-07T12:38:32Z</time>
      </trkpt>
      <trkpt lat="43.4289" lon="6.05314">
        <ele>311.20001220703</ele>
        <time>2017-06-07T12:38:33Z</time>
      </trkpt>
      <trkpt lat="43.4289" lon="6.05311">
        <ele>311</ele>
        <time>2017-06-07T12:38:34Z</time>
      </trkpt>
      <trkpt lat="43.42891" lon="6.05307">
        <ele>311</ele>
        <time>2017-06-07T12:38:35Z</time>
      </trkpt>
      <trkpt lat="43.42892" lon="6.05296">
        <ele>310.84997558594</ele>
        <time>2017-06-07T12:38:38Z</time>
      </trkpt>
      <trkpt lat="43.42892" lon="6.05289">
        <ele>310.79998779297</ele>
        <time>2017-06-07T12:38:40Z</time>
      </trkpt>
      <trkpt lat="43.42893" lon="6.05281">
        <ele>310.51428222656</ele>
        <time>2017-06-07T12:38:42Z</time>
      </trkpt>
      <trkpt lat="43.42895" lon="6.0527">
        <ele>310.08569335938</ele>
        <time>2017-06-07T12:38:45Z</time>
      </trkpt>
      <trkpt lat="43.42896" lon="6.05258">
        <ele>309.79998779297</ele>
        <time>2017-06-07T12:38:48Z</time>
      </trkpt>
      <trkpt lat="43.42897" lon="6.05254">
        <ele>310</ele>
        <time>2017-06-07T12:38:49Z</time>
      </trkpt>
      <trkpt lat="43.42898" lon="6.05246">
        <ele>310.79998779297</ele>
        <time>2017-06-07T12:38:51Z</time>
      </trkpt>
      <trkpt lat="43.42898" lon="6.05241">
        <ele>311</ele>
        <time>2017-06-07T12:38:52Z</time>
      </trkpt>
      <trkpt lat="43.429" lon="6.05228">
        <ele>311.20001220703</ele>
        <time>2017-06-07T12:38:55Z</time>
      </trkpt>
      <trkpt lat="43.429" lon="6.05224">
        <ele>311.20001220703</ele>
        <time>2017-06-07T12:38:56Z</time>
      </trkpt>
      <trkpt lat="43.42901" lon="6.05219">
        <ele>310.90002441406</ele>
        <time>2017-06-07T12:38:57Z</time>
      </trkpt>
      <trkpt lat="43.42904" lon="6.05198">
        <ele>310</ele>
        <time>2017-06-07T12:39:02Z</time>
      </trkpt>
      <trkpt lat="43.42905" lon="6.05193">
        <ele>310</ele>
        <time>2017-06-07T12:39:03Z</time>
      </trkpt>
      <trkpt lat="43.42906" lon="6.05185">
        <ele>310.20001220703</ele>
        <time>2017-06-07T12:39:05Z</time>
      </trkpt>
      <trkpt lat="43.42907" lon="6.0518">
        <ele>310.29998779297</ele>
        <time>2017-06-07T12:39:06Z</time>
      </trkpt>
      <trkpt lat="43.42907" lon="6.05176">
        <ele>310.39999389648</ele>
        <time>2017-06-07T12:39:07Z</time>
      </trkpt>
      <trkpt lat="43.42908" lon="6.05166">
        <ele>310.39999389648</ele>
        <time>2017-06-07T12:39:09Z</time>
      </trkpt>
      <trkpt lat="43.42909" lon="6.05161">
        <ele>310.39999389648</ele>
        <time>2017-06-07T12:39:10Z</time>
      </trkpt>
      <trkpt lat="43.4291" lon="6.0515">
        <ele>309.79998779297</ele>
        <time>2017-06-07T12:39:12Z</time>
      </trkpt>
      <trkpt lat="43.42911" lon="6.05144">
        <ele>309.60000610352</ele>
        <time>2017-06-07T12:39:13Z</time>
      </trkpt>
      <trkpt lat="43.42911" lon="6.05139">
        <ele>309.20001220703</ele>
        <time>2017-06-07T12:39:14Z</time>
      </trkpt>
      <trkpt lat="43.42915" lon="6.05116">
        <ele>309.20001220703</ele>
        <time>2017-06-07T12:39:18Z</time>
      </trkpt>
      <trkpt lat="43.42917" lon="6.05094">
        <ele>308</ele>
        <time>2017-06-07T12:39:22Z</time>
      </trkpt>
      <trkpt lat="43.42918" lon="6.05083">
        <ele>306.79998779297</ele>
        <time>2017-06-07T12:39:24Z</time>
      </trkpt>
      <trkpt lat="43.42918" lon="6.05078">
        <ele>306.39999389648</ele>
        <time>2017-06-07T12:39:25Z</time>
      </trkpt>
      <trkpt lat="43.4292" lon="6.05067">
        <ele>306.39999389648</ele>
        <time>2017-06-07T12:39:27Z</time>
      </trkpt>
      <trkpt lat="43.4292" lon="6.05062">
        <ele>306.39999389648</ele>
        <time>2017-06-07T12:39:28Z</time>
      </trkpt>
      <trkpt lat="43.42921" lon="6.05052">
        <ele>306.79998779297</ele>
        <time>2017-06-07T12:39:30Z</time>
      </trkpt>
      <trkpt lat="43.42922" lon="6.05047">
        <ele>307</ele>
        <time>2017-06-07T12:39:31Z</time>
      </trkpt>
      <trkpt lat="43.42923" lon="6.05042">
        <ele>307</ele>
        <time>2017-06-07T12:39:32Z</time>
      </trkpt>
      <trkpt lat="43.42924" lon="6.05032">
        <ele>307.13333129883</ele>
        <time>2017-06-07T12:39:34Z</time>
      </trkpt>
      <trkpt lat="43.42926" lon="6.0501">
        <ele>307</ele>
        <time>2017-06-07T12:39:38Z</time>
      </trkpt>
      <trkpt lat="43.42926" lon="6.05004">
        <ele>306.70001220703</ele>
        <time>2017-06-07T12:39:39Z</time>
      </trkpt>
      <trkpt lat="43.42927" lon="6.04998">
        <ele>306.39999389648</ele>
        <time>2017-06-07T12:39:40Z</time>
      </trkpt>
      <trkpt lat="43.42928" lon="6.04992">
        <ele>306.10000610352</ele>
        <time>2017-06-07T12:39:41Z</time>
      </trkpt>
      <trkpt lat="43.42928" lon="6.04986">
        <ele>305.79998779297</ele>
        <time>2017-06-07T12:39:42Z</time>
      </trkpt>
      <trkpt lat="43.42929" lon="6.0498">
        <ele>305.5</ele>
        <time>2017-06-07T12:39:43Z</time>
      </trkpt>
      <trkpt lat="43.42932" lon="6.04958">
        <ele>304.60000610352</ele>
        <time>2017-06-07T12:39:47Z</time>
      </trkpt>
      <trkpt lat="43.42933" lon="6.04953">
        <ele>304.33334350586</ele>
        <time>2017-06-07T12:39:48Z</time>
      </trkpt>
      <trkpt lat="43.42933" lon="6.04942">
        <ele>303.79998779297</ele>
        <time>2017-06-07T12:39:50Z</time>
      </trkpt>
      <trkpt lat="43.42933" lon="6.04937">
        <ele>303.53332519531</ele>
        <time>2017-06-07T12:39:51Z</time>
      </trkpt>
      <trkpt lat="43.42934" lon="6.04926">
        <ele>303</ele>
        <time>2017-06-07T12:39:53Z</time>
      </trkpt>
      <trkpt lat="43.42934" lon="6.04915">
        <ele>302.79998779297</ele>
        <time>2017-06-07T12:39:55Z</time>
      </trkpt>
      <trkpt lat="43.42934" lon="6.04909">
        <ele>302.79998779297</ele>
        <time>2017-06-07T12:39:56Z</time>
      </trkpt>
      <trkpt lat="43.42934" lon="6.04904">
        <ele>302.33331298828</ele>
        <time>2017-06-07T12:39:57Z</time>
      </trkpt>
      <trkpt lat="43.42935" lon="6.04898">
        <ele>301.86666870117</ele>
        <time>2017-06-07T12:39:58Z</time>
      </trkpt>
      <trkpt lat="43.42936" lon="6.04892">
        <ele>301.39999389648</ele>
        <time>2017-06-07T12:39:59Z</time>
      </trkpt>
      <trkpt lat="43.42936" lon="6.04886">
        <ele>300.9333190918</ele>
        <time>2017-06-07T12:40:00Z</time>
      </trkpt>
      <trkpt lat="43.42937" lon="6.04879">
        <ele>300.46667480469</ele>
        <time>2017-06-07T12:40:01Z</time>
      </trkpt>
      <trkpt lat="43.42938" lon="6.04872">
        <ele>300</ele>
        <time>2017-06-07T12:40:02Z</time>
      </trkpt>
      <trkpt lat="43.4294" lon="6.04864">
        <ele>299.53332519531</ele>
        <time>2017-06-07T12:40:03Z</time>
      </trkpt>
      <trkpt lat="43.42942" lon="6.04856">
        <ele>299.0666809082</ele>
        <time>2017-06-07T12:40:04Z</time>
      </trkpt>
      <trkpt lat="43.42944" lon="6.04848">
        <ele>298.60000610352</ele>
        <time>2017-06-07T12:40:05Z</time>
      </trkpt>
      <trkpt lat="43.42945" lon="6.04839">
        <ele>298.13333129883</ele>
        <time>2017-06-07T12:40:06Z</time>
      </trkpt>
      <trkpt lat="43.42947" lon="6.04831">
        <ele>297.66668701172</ele>
        <time>2017-06-07T12:40:07Z</time>
      </trkpt>
      <trkpt lat="43.42948" lon="6.04823">
        <ele>297.20001220703</ele>
        <time>2017-06-07T12:40:08Z</time>
      </trkpt>
      <trkpt lat="43.42949" lon="6.04815">
        <ele>297.20001220703</ele>
        <time>2017-06-07T12:40:09Z</time>
      </trkpt>
      <trkpt lat="43.4295" lon="6.04808">
        <ele>297.20001220703</ele>
        <time>2017-06-07T12:40:10Z</time>
      </trkpt>
      <trkpt lat="43.42953" lon="6.04795">
        <ele>297.39999389648</ele>
        <time>2017-06-07T12:40:12Z</time>
      </trkpt>
      <trkpt lat="43.42953" lon="6.04789">
        <ele>297.79998779297</ele>
        <time>2017-06-07T12:40:13Z</time>
      </trkpt>
      <trkpt lat="43.42953" lon="6.04783">
        <ele>298</ele>
        <time>2017-06-07T12:40:14Z</time>
      </trkpt>
      <trkpt lat="43.42953" lon="6.04773">
        <ele>298.79998779297</ele>
        <time>2017-06-07T12:40:16Z</time>
      </trkpt>
      <trkpt lat="43.42953" lon="6.04769">
        <ele>299</ele>
        <time>2017-06-07T12:40:17Z</time>
      </trkpt>
      <trkpt lat="43.42953" lon="6.04765">
        <ele>299.39999389648</ele>
        <time>2017-06-07T12:40:18Z</time>
      </trkpt>
      <trkpt lat="43.42953" lon="6.04761">
        <ele>299.39999389648</ele>
        <time>2017-06-07T12:40:19Z</time>
      </trkpt>
      <trkpt lat="43.42954" lon="6.04756">
        <ele>299.63998413086</ele>
        <time>2017-06-07T12:40:20Z</time>
      </trkpt>
      <trkpt lat="43.42954" lon="6.04752">
        <ele>299.88000488281</ele>
        <time>2017-06-07T12:40:21Z</time>
      </trkpt>
      <trkpt lat="43.42955" lon="6.04748">
        <ele>300.11999511719</ele>
        <time>2017-06-07T12:40:22Z</time>
      </trkpt>
      <trkpt lat="43.42956" lon="6.04743">
        <ele>300.36001586914</ele>
        <time>2017-06-07T12:40:23Z</time>
      </trkpt>
      <trkpt lat="43.42956" lon="6.04738">
        <ele>300.60000610352</ele>
        <time>2017-06-07T12:40:24Z</time>
      </trkpt>
      <trkpt lat="43.42957" lon="6.04733">
        <ele>300.60000610352</ele>
        <time>2017-06-07T12:40:25Z</time>
      </trkpt>
      <trkpt lat="43.4296" lon="6.0472">
        <ele>300.60000610352</ele>
        <time>2017-06-07T12:40:28Z</time>
      </trkpt>
      <trkpt lat="43.4296" lon="6.04715">
        <ele>300.60000610352</ele>
        <time>2017-06-07T12:40:29Z</time>
      </trkpt>
      <trkpt lat="43.42962" lon="6.04701">
        <ele>299.85000610352</ele>
        <time>2017-06-07T12:40:32Z</time>
      </trkpt>
      <trkpt lat="43.42963" lon="6.04691">
        <ele>299.60000610352</ele>
        <time>2017-06-07T12:40:34Z</time>
      </trkpt>
      <trkpt lat="43.42965" lon="6.04676">
        <ele>299.60000610352</ele>
        <time>2017-06-07T12:40:37Z</time>
      </trkpt>
      <trkpt lat="43.42965" lon="6.04671">
        <ele>299.79998779297</ele>
        <time>2017-06-07T12:40:38Z</time>
      </trkpt>
      <trkpt lat="43.42966" lon="6.04666">
        <ele>299.79998779297</ele>
        <time>2017-06-07T12:40:39Z</time>
      </trkpt>
      <trkpt lat="43.42967" lon="6.04656">
        <ele>299.60000610352</ele>
        <time>2017-06-07T12:40:41Z</time>
      </trkpt>
      <trkpt lat="43.42968" lon="6.04646">
        <ele>299.20001220703</ele>
        <time>2017-06-07T12:40:43Z</time>
      </trkpt>
      <trkpt lat="43.42969" lon="6.04642">
        <ele>299.20001220703</ele>
        <time>2017-06-07T12:40:44Z</time>
      </trkpt>
      <trkpt lat="43.4297" lon="6.04627">
        <ele>299.39999389648</ele>
        <time>2017-06-07T12:40:47Z</time>
      </trkpt>
      <trkpt lat="43.42972" lon="6.04613">
        <ele>299.20001220703</ele>
        <time>2017-06-07T12:40:50Z</time>
      </trkpt>
      <trkpt lat="43.42972" lon="6.04609">
        <ele>299</ele>
        <time>2017-06-07T12:40:51Z</time>
      </trkpt>
      <trkpt lat="43.42973" lon="6.04604">
        <ele>299</ele>
        <time>2017-06-07T12:40:52Z</time>
      </trkpt>
      <trkpt lat="43.42973" lon="6.04599">
        <ele>299</ele>
        <time>2017-06-07T12:40:53Z</time>
      </trkpt>
      <trkpt lat="43.42974" lon="6.04594">
        <ele>299</ele>
        <time>2017-06-07T12:40:54Z</time>
      </trkpt>
      <trkpt lat="43.42974" lon="6.04589">
        <ele>299.20001220703</ele>
        <time>2017-06-07T12:40:55Z</time>
      </trkpt>
      <trkpt lat="43.42976" lon="6.04584">
        <ele>299.20001220703</ele>
        <time>2017-06-07T12:40:56Z</time>
      </trkpt>
      <trkpt lat="43.42977" lon="6.04578">
        <ele>299.20001220703</ele>
        <time>2017-06-07T12:40:57Z</time>
      </trkpt>
      <trkpt lat="43.42978" lon="6.04572">
        <ele>299.20001220703</ele>
        <time>2017-06-07T12:40:58Z</time>
      </trkpt>
      <trkpt lat="43.42979" lon="6.04565">
        <ele>299.20001220703</ele>
        <time>2017-06-07T12:40:59Z</time>
      </trkpt>
      <trkpt lat="43.42979" lon="6.04557">
        <ele>298.79998779297</ele>
        <time>2017-06-07T12:41:00Z</time>
      </trkpt>
      <trkpt lat="43.42979" lon="6.04549">
        <ele>298.39999389648</ele>
        <time>2017-06-07T12:41:01Z</time>
      </trkpt>
      <trkpt lat="43.42978" lon="6.04541">
        <ele>297.79998779297</ele>
        <time>2017-06-07T12:41:02Z</time>
      </trkpt>
      <trkpt lat="43.42978" lon="6.04534">
        <ele>297</ele>
        <time>2017-06-07T12:41:03Z</time>
      </trkpt>
      <trkpt lat="43.42978" lon="6.04529">
        <ele>296.79998779297</ele>
        <time>2017-06-07T12:41:04Z</time>
      </trkpt>
      <trkpt lat="43.42978" lon="6.04524">
        <ele>296.79998779297</ele>
        <time>2017-06-07T12:41:05Z</time>
      </trkpt>
      <trkpt lat="43.42978" lon="6.04522">
        <ele>296.79998779297</ele>
        <time>2017-06-07T12:41:06Z</time>
      </trkpt>
      <trkpt lat="43.42978" lon="6.04519">
        <ele>297.20001220703</ele>
        <time>2017-06-07T12:41:07Z</time>
      </trkpt>
      <trkpt lat="43.42978" lon="6.04518">
        <ele>297.79998779297</ele>
        <time>2017-06-07T12:41:08Z</time>
      </trkpt>
      <trkpt lat="43.42977" lon="6.04516">
        <ele>298.39999389648</ele>
        <time>2017-06-07T12:41:09Z</time>
      </trkpt>
      <trkpt lat="43.42977" lon="6.04514">
        <ele>298.60000610352</ele>
        <time>2017-06-07T12:41:10Z</time>
      </trkpt>
      <trkpt lat="43.42977" lon="6.04512">
        <ele>299</ele>
        <time>2017-06-07T12:41:11Z</time>
      </trkpt>
      <trkpt lat="43.42976" lon="6.04511">
        <ele>299.20001220703</ele>
        <time>2017-06-07T12:41:12Z</time>
      </trkpt>
      <trkpt lat="43.42976" lon="6.04508">
        <ele>300</ele>
        <time>2017-06-07T12:41:14Z</time>
      </trkpt>
      <trkpt lat="43.42977" lon="6.04502">
        <ele>300.48889160156</ele>
        <time>2017-06-07T12:41:17Z</time>
      </trkpt>
      <trkpt lat="43.42977" lon="6.04501">
        <ele>300.77780151367</ele>
        <time>2017-06-07T12:41:18Z</time>
      </trkpt>
      <trkpt lat="43.42978" lon="6.04494">
        <ele>301.93334960938</ele>
        <time>2017-06-07T12:41:22Z</time>
      </trkpt>
      <trkpt lat="43.42978" lon="6.04488">
        <ele>302.79998779297</ele>
        <time>2017-06-07T12:41:25Z</time>
      </trkpt>
      <trkpt lat="43.42978" lon="6.04485">
        <ele>303.37777709961</ele>
        <time>2017-06-07T12:41:27Z</time>
      </trkpt>
      <trkpt lat="43.42978" lon="6.04483">
        <ele>303.66665649414</ele>
        <time>2017-06-07T12:41:28Z</time>
      </trkpt>
      <trkpt lat="43.4298" lon="6.04475">
        <ele>304.82220458984</ele>
        <time>2017-06-07T12:41:32Z</time>
      </trkpt>
      <trkpt lat="43.42982" lon="6.04468">
        <ele>305.63333129883</ele>
        <time>2017-06-07T12:41:36Z</time>
      </trkpt>
      <trkpt lat="43.42982" lon="6.04466">
        <ele>305.86666870117</ele>
        <time>2017-06-07T12:41:37Z</time>
      </trkpt>
      <trkpt lat="43.42984" lon="6.04463">
        <ele>306.33331298828</ele>
        <time>2017-06-07T12:41:39Z</time>
      </trkpt>
      <trkpt lat="43.42986" lon="6.04458">
        <ele>306.79998779297</ele>
        <time>2017-06-07T12:41:42Z</time>
      </trkpt>
      <trkpt lat="43.42986" lon="6.04457">
        <ele>306.89999389648</ele>
        <time>2017-06-07T12:41:43Z</time>
      </trkpt>
      <trkpt lat="43.42987" lon="6.04454">
        <ele>307</ele>
        <time>2017-06-07T12:41:45Z</time>
      </trkpt>
      <trkpt lat="43.42989" lon="6.04449">
        <ele>307.20001220703</ele>
        <time>2017-06-07T12:41:48Z</time>
      </trkpt>
      <trkpt lat="43.4299" lon="6.04448">
        <ele>307.26666259766</ele>
        <time>2017-06-07T12:41:49Z</time>
      </trkpt>
      <trkpt lat="43.42991" lon="6.04446">
        <ele>307.33334350586</ele>
        <time>2017-06-07T12:41:50Z</time>
      </trkpt>
      <trkpt lat="43.42991" lon="6.04444">
        <ele>307.40002441406</ele>
        <time>2017-06-07T12:41:51Z</time>
      </trkpt>
      <trkpt lat="43.4299" lon="6.04443">
        <ele>307.46667480469</ele>
        <time>2017-06-07T12:41:52Z</time>
      </trkpt>
      <trkpt lat="43.4299" lon="6.04443">
        <ele>307.53332519531</ele>
        <time>2017-06-07T12:41:53Z</time>
      </trkpt>
      <trkpt lat="43.4299" lon="6.04443">
        <ele>307.66668701172</ele>
        <time>2017-06-07T12:41:55Z</time>
      </trkpt>
      <trkpt lat="43.4299" lon="6.04442">
        <ele>307.73333740234</ele>
        <time>2017-06-07T12:41:56Z</time>
      </trkpt>
      <trkpt lat="43.4299" lon="6.04442">
        <ele>307.79998779297</ele>
        <time>2017-06-07T12:41:57Z</time>
      </trkpt>
      <trkpt lat="43.4299" lon="6.04442">
        <ele>308</ele>
        <time>2017-06-07T12:42:00Z</time>
      </trkpt>
      <trkpt lat="43.4299" lon="6.04443">
        <ele>308</ele>
        <time>2017-06-07T12:42:01Z</time>
      </trkpt>
      <trkpt lat="43.4299" lon="6.04442">
        <ele>308.20001220703</ele>
        <time>2017-06-07T12:42:02Z</time>
      </trkpt>
      <trkpt lat="43.4299" lon="6.04441">
        <ele>308.39999389648</ele>
        <time>2017-06-07T12:42:03Z</time>
      </trkpt>
      <trkpt lat="43.4299" lon="6.0444">
        <ele>308.39999389648</ele>
        <time>2017-06-07T12:42:04Z</time>
      </trkpt>
      <trkpt lat="43.4299" lon="6.04438">
        <ele>308.39999389648</ele>
        <time>2017-06-07T12:42:05Z</time>
      </trkpt>
      <trkpt lat="43.42991" lon="6.04436">
        <ele>308.20001220703</ele>
        <time>2017-06-07T12:42:06Z</time>
      </trkpt>
      <trkpt lat="43.42991" lon="6.04434">
        <ele>308.20001220703</ele>
        <time>2017-06-07T12:42:07Z</time>
      </trkpt>
      <trkpt lat="43.42992" lon="6.04431">
        <ele>307.93334960938</ele>
        <time>2017-06-07T12:42:08Z</time>
      </trkpt>
      <trkpt lat="43.42992" lon="6.04429">
        <ele>307.66665649414</ele>
        <time>2017-06-07T12:42:09Z</time>
      </trkpt>
      <trkpt lat="43.42992" lon="6.04426">
        <ele>307.39999389648</ele>
        <time>2017-06-07T12:42:10Z</time>
      </trkpt>
      <trkpt lat="43.42993" lon="6.04424">
        <ele>307.39999389648</ele>
        <time>2017-06-07T12:42:11Z</time>
      </trkpt>
      <trkpt lat="43.42994" lon="6.04417">
        <ele>307.39999389648</ele>
        <time>2017-06-07T12:42:14Z</time>
      </trkpt>
      <trkpt lat="43.42994" lon="6.04415">
        <ele>307.39999389648</ele>
        <time>2017-06-07T12:42:15Z</time>
      </trkpt>
      <trkpt lat="43.42995" lon="6.04409">
        <ele>307.79998779297</ele>
        <time>2017-06-07T12:42:18Z</time>
      </trkpt>
      <trkpt lat="43.42995" lon="6.04407">
        <ele>307.79998779297</ele>
        <time>2017-06-07T12:42:19Z</time>
      </trkpt>
      <trkpt lat="43.42995" lon="6.04406">
        <ele>307.79998779297</ele>
        <time>2017-06-07T12:42:20Z</time>
      </trkpt>
      <trkpt lat="43.42995" lon="6.04402">
        <ele>307.60000610352</ele>
        <time>2017-06-07T12:42:22Z</time>
      </trkpt>
      <trkpt lat="43.42996" lon="6.04399">
        <ele>307.60000610352</ele>
        <time>2017-06-07T12:42:23Z</time>
      </trkpt>
      <trkpt lat="43.42996" lon="6.04395">
        <ele>307</ele>
        <time>2017-06-07T12:42:25Z</time>
      </trkpt>
      <trkpt lat="43.42997" lon="6.04389">
        <ele>306.39999389648</ele>
        <time>2017-06-07T12:42:27Z</time>
      </trkpt>
      <trkpt lat="43.42999" lon="6.04379">
        <ele>305.79998779297</ele>
        <time>2017-06-07T12:42:30Z</time>
      </trkpt>
      <trkpt lat="43.43" lon="6.04376">
        <ele>305.59997558594</ele>
        <time>2017-06-07T12:42:31Z</time>
      </trkpt>
      <trkpt lat="43.43" lon="6.04368">
        <ele>305.39999389648</ele>
        <time>2017-06-07T12:42:33Z</time>
      </trkpt>
      <trkpt lat="43.43" lon="6.04363">
        <ele>305.08572387695</ele>
        <time>2017-06-07T12:42:34Z</time>
      </trkpt>
      <trkpt lat="43.43001" lon="6.04359">
        <ele>304.77142333984</ele>
        <time>2017-06-07T12:42:35Z</time>
      </trkpt>
      <trkpt lat="43.43001" lon="6.04355">
        <ele>304.45715332031</ele>
        <time>2017-06-07T12:42:36Z</time>
      </trkpt>
      <trkpt lat="43.43002" lon="6.0435">
        <ele>304.1428527832</ele>
        <time>2017-06-07T12:42:37Z</time>
      </trkpt>
      <trkpt lat="43.43003" lon="6.0434">
        <ele>303.51428222656</ele>
        <time>2017-06-07T12:42:39Z</time>
      </trkpt>
      <trkpt lat="43.43004" lon="6.04335">
        <ele>303.20001220703</ele>
        <time>2017-06-07T12:42:40Z</time>
      </trkpt>
      <trkpt lat="43.43005" lon="6.0433">
        <ele>303.20001220703</ele>
        <time>2017-06-07T12:42:41Z</time>
      </trkpt>
      <trkpt lat="43.43006" lon="6.04325">
        <ele>303.10000610352</ele>
        <time>2017-06-07T12:42:42Z</time>
      </trkpt>
      <trkpt lat="43.43007" lon="6.04317">
        <ele>303</ele>
        <time>2017-06-07T12:42:44Z</time>
      </trkpt>
      <trkpt lat="43.43007" lon="6.04313">
        <ele>303.20001220703</ele>
        <time>2017-06-07T12:42:45Z</time>
      </trkpt>
      <trkpt lat="43.43007" lon="6.04309">
        <ele>303.20001220703</ele>
        <time>2017-06-07T12:42:46Z</time>
      </trkpt>
      <trkpt lat="43.43008" lon="6.04297">
        <ele>303.39999389648</ele>
        <time>2017-06-07T12:42:49Z</time>
      </trkpt>
      <trkpt lat="43.43009" lon="6.04283">
        <ele>304.79998779297</ele>
        <time>2017-06-07T12:42:53Z</time>
      </trkpt>
      <trkpt lat="43.4301" lon="6.04276">
        <ele>305.07998657227</ele>
        <time>2017-06-07T12:42:55Z</time>
      </trkpt>
      <trkpt lat="43.43011" lon="6.0427">
        <ele>305.35998535156</ele>
        <time>2017-06-07T12:42:57Z</time>
      </trkpt>
      <trkpt lat="43.43011" lon="6.04267">
        <ele>305.5</ele>
        <time>2017-06-07T12:42:58Z</time>
      </trkpt>
      <trkpt lat="43.43012" lon="6.04264">
        <ele>305.64001464844</ele>
        <time>2017-06-07T12:42:59Z</time>
      </trkpt>
      <trkpt lat="43.43013" lon="6.04258">
        <ele>305.92001342773</ele>
        <time>2017-06-07T12:43:01Z</time>
      </trkpt>
      <trkpt lat="43.43014" lon="6.04255">
        <ele>306.05999755859</ele>
        <time>2017-06-07T12:43:02Z</time>
      </trkpt>
      <trkpt lat="43.43015" lon="6.04252">
        <ele>306.20001220703</ele>
        <time>2017-06-07T12:43:03Z</time>
      </trkpt>
      <trkpt lat="43.43015" lon="6.0425">
        <ele>306.20001220703</ele>
        <time>2017-06-07T12:43:04Z</time>
      </trkpt>
      <trkpt lat="43.43016" lon="6.04247">
        <ele>306</ele>
        <time>2017-06-07T12:43:05Z</time>
      </trkpt>
      <trkpt lat="43.43016" lon="6.04243">
        <ele>305.60000610352</ele>
        <time>2017-06-07T12:43:07Z</time>
      </trkpt>
      <trkpt lat="43.43017" lon="6.04242">
        <ele>305.60000610352</ele>
        <time>2017-06-07T12:43:08Z</time>
      </trkpt>
      <trkpt lat="43.43018" lon="6.0424">
        <ele>305.60000610352</ele>
        <time>2017-06-07T12:43:09Z</time>
      </trkpt>
      <trkpt lat="43.43019" lon="6.04236">
        <ele>305.60000610352</ele>
        <time>2017-06-07T12:43:11Z</time>
      </trkpt>
      <trkpt lat="43.43019" lon="6.04234">
        <ele>305.60000610352</ele>
        <time>2017-06-07T12:43:12Z</time>
      </trkpt>
      <trkpt lat="43.4302" lon="6.04229">
        <ele>305.79998779297</ele>
        <time>2017-06-07T12:43:14Z</time>
      </trkpt>
      <trkpt lat="43.4302" lon="6.04226">
        <ele>306</ele>
        <time>2017-06-07T12:43:15Z</time>
      </trkpt>
      <trkpt lat="43.43021" lon="6.04223">
        <ele>306.20001220703</ele>
        <time>2017-06-07T12:43:16Z</time>
      </trkpt>
      <trkpt lat="43.43023" lon="6.04214">
        <ele>306</ele>
        <time>2017-06-07T12:43:19Z</time>
      </trkpt>
      <trkpt lat="43.43026" lon="6.04206">
        <ele>305.60000610352</ele>
        <time>2017-06-07T12:43:22Z</time>
      </trkpt>
      <trkpt lat="43.43027" lon="6.04199">
        <ele>305.5</ele>
        <time>2017-06-07T12:43:24Z</time>
      </trkpt>
      <trkpt lat="43.43029" lon="6.04189">
        <ele>305.20001220703</ele>
        <time>2017-06-07T12:43:27Z</time>
      </trkpt>
      <trkpt lat="43.4303" lon="6.04186">
        <ele>305.10000610352</ele>
        <time>2017-06-07T12:43:28Z</time>
      </trkpt>
      <trkpt lat="43.43032" lon="6.04178">
        <ele>305</ele>
        <time>2017-06-07T12:43:30Z</time>
      </trkpt>
      <trkpt lat="43.43032" lon="6.04174">
        <ele>304.95999145508</ele>
        <time>2017-06-07T12:43:31Z</time>
      </trkpt>
      <trkpt lat="43.43034" lon="6.04167">
        <ele>304.88000488281</ele>
        <time>2017-06-07T12:43:33Z</time>
      </trkpt>
      <trkpt lat="43.43037" lon="6.04153">
        <ele>304.73333740234</ele>
        <time>2017-06-07T12:43:37Z</time>
      </trkpt>
      <trkpt lat="43.43038" lon="6.0415">
        <ele>304.66665649414</ele>
        <time>2017-06-07T12:43:38Z</time>
      </trkpt>
      <trkpt lat="43.43039" lon="6.04146">
        <ele>304.59997558594</ele>
        <time>2017-06-07T12:43:39Z</time>
      </trkpt>
      <trkpt lat="43.43039" lon="6.04143">
        <ele>304.53332519531</ele>
        <time>2017-06-07T12:43:40Z</time>
      </trkpt>
      <trkpt lat="43.43042" lon="6.04131">
        <ele>304.39999389648</ele>
        <time>2017-06-07T12:43:43Z</time>
      </trkpt>
      <trkpt lat="43.43043" lon="6.04127">
        <ele>304.20001220703</ele>
        <time>2017-06-07T12:43:44Z</time>
      </trkpt>
      <trkpt lat="43.43044" lon="6.04124">
        <ele>304.20001220703</ele>
        <time>2017-06-07T12:43:45Z</time>
      </trkpt>
      <trkpt lat="43.43044" lon="6.0412">
        <ele>304.20001220703</ele>
        <time>2017-06-07T12:43:46Z</time>
      </trkpt>
      <trkpt lat="43.43047" lon="6.04102">
        <ele>305.79998779297</ele>
        <time>2017-06-07T12:43:51Z</time>
      </trkpt>
      <trkpt lat="43.43047" lon="6.04095">
        <ele>306</ele>
        <time>2017-06-07T12:43:53Z</time>
      </trkpt>
      <trkpt lat="43.43048" lon="6.04089">
        <ele>305.60000610352</ele>
        <time>2017-06-07T12:43:55Z</time>
      </trkpt>
      <trkpt lat="43.4305" lon="6.04085">
        <ele>305.20001220703</ele>
        <time>2017-06-07T12:43:56Z</time>
      </trkpt>
      <trkpt lat="43.4305" lon="6.04082">
        <ele>305</ele>
        <time>2017-06-07T12:43:57Z</time>
      </trkpt>
      <trkpt lat="43.43051" lon="6.04079">
        <ele>304.79998779297</ele>
        <time>2017-06-07T12:43:58Z</time>
      </trkpt>
      <trkpt lat="43.43053" lon="6.04072">
        <ele>304.60000610352</ele>
        <time>2017-06-07T12:44:00Z</time>
      </trkpt>
      <trkpt lat="43.43056" lon="6.04059">
        <ele>305.39999389648</ele>
        <time>2017-06-07T12:44:04Z</time>
      </trkpt>
      <trkpt lat="43.4306" lon="6.04044">
        <ele>306.20001220703</ele>
        <time>2017-06-07T12:44:08Z</time>
      </trkpt>
      <trkpt lat="43.43061" lon="6.04041">
        <ele>306.20001220703</ele>
        <time>2017-06-07T12:44:09Z</time>
      </trkpt>
      <trkpt lat="43.43062" lon="6.04038">
        <ele>306.26666259766</ele>
        <time>2017-06-07T12:44:10Z</time>
      </trkpt>
      <trkpt lat="43.43063" lon="6.04034">
        <ele>306.33334350586</ele>
        <time>2017-06-07T12:44:11Z</time>
      </trkpt>
      <trkpt lat="43.43064" lon="6.04031">
        <ele>306.39999389648</ele>
        <time>2017-06-07T12:44:12Z</time>
      </trkpt>
      <trkpt lat="43.43064" lon="6.04028">
        <ele>306.20001220703</ele>
        <time>2017-06-07T12:44:13Z</time>
      </trkpt>
      <trkpt lat="43.43065" lon="6.04026">
        <ele>306.20001220703</ele>
        <time>2017-06-07T12:44:14Z</time>
      </trkpt>
      <trkpt lat="43.43066" lon="6.04024">
        <ele>306.20001220703</ele>
        <time>2017-06-07T12:44:15Z</time>
      </trkpt>
      <trkpt lat="43.43066" lon="6.04022">
        <ele>306.39999389648</ele>
        <time>2017-06-07T12:44:16Z</time>
      </trkpt>
      <trkpt lat="43.43066" lon="6.04022">
        <ele>306.39999389648</ele>
        <time>2017-06-07T12:44:17Z</time>
      </trkpt>
      <trkpt lat="43.43066" lon="6.04022">
        <ele>306.59997558594</ele>
        <time>2017-06-07T12:44:18Z</time>
      </trkpt>
      <trkpt lat="43.43066" lon="6.04021">
        <ele>306.79998779297</ele>
        <time>2017-06-07T12:44:19Z</time>
      </trkpt>
      <trkpt lat="43.43066" lon="6.04021">
        <ele>306.79998779297</ele>
        <time>2017-06-07T12:44:20Z</time>
      </trkpt>
      <trkpt lat="43.43066" lon="6.04021">
        <ele>307</ele>
        <time>2017-06-07T12:44:22Z</time>
      </trkpt>
      <trkpt lat="43.43066" lon="6.04021">
        <ele>307.03332519531</ele>
        <time>2017-06-07T12:44:23Z</time>
      </trkpt>
      <trkpt lat="43.43066" lon="6.04021">
        <ele>307.16668701172</ele>
        <time>2017-06-07T12:44:27Z</time>
      </trkpt>
      <trkpt lat="43.43066" lon="6.04021">
        <ele>307.70001220703</ele>
        <time>2017-06-07T12:44:37Z</time>
      </trkpt>
      <trkpt lat="43.43066" lon="6.04021">
        <ele>307.79998779297</ele>
        <time>2017-06-07T12:44:41Z</time>
      </trkpt>
      <trkpt lat="43.43066" lon="6.04021">
        <ele>307.92498779297</ele>
        <time>2017-06-07T12:44:46Z</time>
      </trkpt>
      <trkpt lat="43.43066" lon="6.04022">
        <ele>307.82498168945</ele>
        <time>2017-06-07T12:45:04Z</time>
      </trkpt>
      <trkpt lat="43.43066" lon="6.04022">
        <ele>308.10000610352</ele>
        <time>2017-06-07T12:45:11Z</time>
      </trkpt>
      <trkpt lat="43.43066" lon="6.04022">
        <ele>308.20001220703</ele>
        <time>2017-06-07T12:45:14Z</time>
      </trkpt>
      <trkpt lat="43.43066" lon="6.04021">
        <ele>308.20001220703</ele>
        <time>2017-06-07T12:45:20Z</time>
      </trkpt>
      <trkpt lat="43.43066" lon="6.04021">
        <ele>308.20001220703</ele>
        <time>2017-06-07T12:45:30Z</time>
      </trkpt>
      <trkpt lat="43.43066" lon="6.04021">
        <ele>308</ele>
        <time>2017-06-07T12:46:00Z</time>
      </trkpt>
      <trkpt lat="43.43066" lon="6.04021">
        <ele>308.39999389648</ele>
        <time>2017-06-07T12:46:07Z</time>
      </trkpt>
      <trkpt lat="43.43066" lon="6.04021">
        <ele>308.20001220703</ele>
        <time>2017-06-07T12:46:08Z</time>
      </trkpt>
      <trkpt lat="43.43066" lon="6.0402">
        <ele>308</ele>
        <time>2017-06-07T12:46:09Z</time>
      </trkpt>
      <trkpt lat="43.43066" lon="6.04019">
        <ele>308</ele>
        <time>2017-06-07T12:46:10Z</time>
      </trkpt>
      <trkpt lat="43.43066" lon="6.04018">
        <ele>307.89999389648</ele>
        <time>2017-06-07T12:46:11Z</time>
      </trkpt>
      <trkpt lat="43.43066" lon="6.04015">
        <ele>307.79998779297</ele>
        <time>2017-06-07T12:46:12Z</time>
      </trkpt>
      <trkpt lat="43.43066" lon="6.04012">
        <ele>307.79998779297</ele>
        <time>2017-06-07T12:46:13Z</time>
      </trkpt>
      <trkpt lat="43.43067" lon="6.04009">
        <ele>308</ele>
        <time>2017-06-07T12:46:14Z</time>
      </trkpt>
      <trkpt lat="43.43067" lon="6.04006">
        <ele>308</ele>
        <time>2017-06-07T12:46:15Z</time>
      </trkpt>
      <trkpt lat="43.43069" lon="6.03998">
        <ele>308</ele>
        <time>2017-06-07T12:46:17Z</time>
      </trkpt>
      <trkpt lat="43.43069" lon="6.03994">
        <ele>308</ele>
        <time>2017-06-07T12:46:18Z</time>
      </trkpt>
      <trkpt lat="43.4307" lon="6.0399">
        <ele>308.20001220703</ele>
        <time>2017-06-07T12:46:19Z</time>
      </trkpt>
      <trkpt lat="43.43071" lon="6.03986">
        <ele>308.20001220703</ele>
        <time>2017-06-07T12:46:20Z</time>
      </trkpt>
      <trkpt lat="43.43073" lon="6.03981">
        <ele>308.40002441406</ele>
        <time>2017-06-07T12:46:21Z</time>
      </trkpt>
      <trkpt lat="43.43073" lon="6.03977">
        <ele>308.60000610352</ele>
        <time>2017-06-07T12:46:22Z</time>
      </trkpt>
      <trkpt lat="43.43074" lon="6.03972">
        <ele>308.79998779297</ele>
        <time>2017-06-07T12:46:23Z</time>
      </trkpt>
      <trkpt lat="43.43075" lon="6.03967">
        <ele>309</ele>
        <time>2017-06-07T12:46:24Z</time>
      </trkpt>
      <trkpt lat="43.43076" lon="6.03958">
        <ele>309.39999389648</ele>
        <time>2017-06-07T12:46:26Z</time>
      </trkpt>
      <trkpt lat="43.43077" lon="6.03954">
        <ele>309.39999389648</ele>
        <time>2017-06-07T12:46:27Z</time>
      </trkpt>
      <trkpt lat="43.43078" lon="6.03945">
        <ele>309.91427612305</ele>
        <time>2017-06-07T12:46:29Z</time>
      </trkpt>
      <trkpt lat="43.43079" lon="6.03937">
        <ele>310.42855834961</ele>
        <time>2017-06-07T12:46:31Z</time>
      </trkpt>
      <trkpt lat="43.43084" lon="6.03915">
        <ele>311.97143554688</ele>
        <time>2017-06-07T12:46:37Z</time>
      </trkpt>
      <trkpt lat="43.43085" lon="6.03912">
        <ele>312.22857666016</ele>
        <time>2017-06-07T12:46:38Z</time>
      </trkpt>
      <trkpt lat="43.43086" lon="6.03902">
        <ele>313</ele>
        <time>2017-06-07T12:46:41Z</time>
      </trkpt>
      <trkpt lat="43.43087" lon="6.03899">
        <ele>313</ele>
        <time>2017-06-07T12:46:42Z</time>
      </trkpt>
      <trkpt lat="43.43087" lon="6.03889">
        <ele>313.20001220703</ele>
        <time>2017-06-07T12:46:45Z</time>
      </trkpt>
      <trkpt lat="43.43087" lon="6.03881">
        <ele>313.36666870117</ele>
        <time>2017-06-07T12:46:47Z</time>
      </trkpt>
      <trkpt lat="43.43087" lon="6.03874">
        <ele>313.70001220703</ele>
        <time>2017-06-07T12:46:49Z</time>
      </trkpt>
      <trkpt lat="43.43088" lon="6.03867">
        <ele>314.03335571289</ele>
        <time>2017-06-07T12:46:51Z</time>
      </trkpt>
      <trkpt lat="43.43089" lon="6.03859">
        <ele>314.20001220703</ele>
        <time>2017-06-07T12:46:53Z</time>
      </trkpt>
      <trkpt lat="43.43089" lon="6.03852">
        <ele>314.39999389648</ele>
        <time>2017-06-07T12:46:55Z</time>
      </trkpt>
      <trkpt lat="43.4309" lon="6.03836">
        <ele>314</ele>
        <time>2017-06-07T12:46:59Z</time>
      </trkpt>
      <trkpt lat="43.43091" lon="6.03828">
        <ele>313.89999389648</ele>
        <time>2017-06-07T12:47:01Z</time>
      </trkpt>
      <trkpt lat="43.43091" lon="6.0382">
        <ele>313.79998779297</ele>
        <time>2017-06-07T12:47:03Z</time>
      </trkpt>
      <trkpt lat="43.43091" lon="6.03813">
        <ele>313.79998779297</ele>
        <time>2017-06-07T12:47:05Z</time>
      </trkpt>
      <trkpt lat="43.43093" lon="6.03794">
        <ele>314.20001220703</ele>
        <time>2017-06-07T12:47:10Z</time>
      </trkpt>
      <trkpt lat="43.43093" lon="6.0379">
        <ele>314.20001220703</ele>
        <time>2017-06-07T12:47:11Z</time>
      </trkpt>
      <trkpt lat="43.43094" lon="6.03778">
        <ele>314</ele>
        <time>2017-06-07T12:47:14Z</time>
      </trkpt>
      <trkpt lat="43.43094" lon="6.03771">
        <ele>314.20001220703</ele>
        <time>2017-06-07T12:47:16Z</time>
      </trkpt>
      <trkpt lat="43.43095" lon="6.03764">
        <ele>314.39999389648</ele>
        <time>2017-06-07T12:47:18Z</time>
      </trkpt>
      <trkpt lat="43.43095" lon="6.03756">
        <ele>314.60000610352</ele>
        <time>2017-06-07T12:47:20Z</time>
      </trkpt>
      <trkpt lat="43.43095" lon="6.03748">
        <ele>314.60000610352</ele>
        <time>2017-06-07T12:47:22Z</time>
      </trkpt>
      <trkpt lat="43.43095" lon="6.03737">
        <ele>314</ele>
        <time>2017-06-07T12:47:25Z</time>
      </trkpt>
      <trkpt lat="43.43096" lon="6.03726">
        <ele>314.20001220703</ele>
        <time>2017-06-07T12:47:28Z</time>
      </trkpt>
      <trkpt lat="43.43096" lon="6.03723">
        <ele>314.39999389648</ele>
        <time>2017-06-07T12:47:29Z</time>
      </trkpt>
      <trkpt lat="43.43096" lon="6.0372">
        <ele>314.79998779297</ele>
        <time>2017-06-07T12:47:30Z</time>
      </trkpt>
      <trkpt lat="43.43096" lon="6.03713">
        <ele>314.89999389648</ele>
        <time>2017-06-07T12:47:32Z</time>
      </trkpt>
      <trkpt lat="43.43097" lon="6.03705">
        <ele>314.60000610352</ele>
        <time>2017-06-07T12:47:34Z</time>
      </trkpt>
      <trkpt lat="43.43097" lon="6.03694">
        <ele>314.39999389648</ele>
        <time>2017-06-07T12:47:37Z</time>
      </trkpt>
      <trkpt lat="43.43098" lon="6.03687">
        <ele>314.60000610352</ele>
        <time>2017-06-07T12:47:39Z</time>
      </trkpt>
      <trkpt lat="43.43098" lon="6.03683">
        <ele>314.60000610352</ele>
        <time>2017-06-07T12:47:40Z</time>
      </trkpt>
      <trkpt lat="43.431" lon="6.03675">
        <ele>314.70001220703</ele>
        <time>2017-06-07T12:47:42Z</time>
      </trkpt>
      <trkpt lat="43.43104" lon="6.03665">
        <ele>314.79998779297</ele>
        <time>2017-06-07T12:47:45Z</time>
      </trkpt>
      <trkpt lat="43.43105" lon="6.03658">
        <ele>314.79998779297</ele>
        <time>2017-06-07T12:47:47Z</time>
      </trkpt>
      <trkpt lat="43.43106" lon="6.03654">
        <ele>314.79998779297</ele>
        <time>2017-06-07T12:47:48Z</time>
      </trkpt>
      <trkpt lat="43.43103" lon="6.03638">
        <ele>314.60000610352</ele>
        <time>2017-06-07T12:47:52Z</time>
      </trkpt>
      <trkpt lat="43.43103" lon="6.0362">
        <ele>315.20001220703</ele>
        <time>2017-06-07T12:47:57Z</time>
      </trkpt>
      <trkpt lat="43.43103" lon="6.03616">
        <ele>315.20001220703</ele>
        <time>2017-06-07T12:47:58Z</time>
      </trkpt>
      <trkpt lat="43.43105" lon="6.03606">
        <ele>315.39999389648</ele>
        <time>2017-06-07T12:48:01Z</time>
      </trkpt>
      <trkpt lat="43.43105" lon="6.03602">
        <ele>315.60000610352</ele>
        <time>2017-06-07T12:48:02Z</time>
      </trkpt>
      <trkpt lat="43.43105" lon="6.03599">
        <ele>315.79998779297</ele>
        <time>2017-06-07T12:48:03Z</time>
      </trkpt>
      <trkpt lat="43.43106" lon="6.03595">
        <ele>316</ele>
        <time>2017-06-07T12:48:04Z</time>
      </trkpt>
      <trkpt lat="43.43106" lon="6.03593">
        <ele>316.20001220703</ele>
        <time>2017-06-07T12:48:05Z</time>
      </trkpt>
      <trkpt lat="43.43107" lon="6.03591">
        <ele>316.60000610352</ele>
        <time>2017-06-07T12:48:06Z</time>
      </trkpt>
      <trkpt lat="43.43107" lon="6.03589">
        <ele>317</ele>
        <time>2017-06-07T12:48:07Z</time>
      </trkpt>
      <trkpt lat="43.43108" lon="6.03588">
        <ele>317.39999389648</ele>
        <time>2017-06-07T12:48:08Z</time>
      </trkpt>
      <trkpt lat="43.43108" lon="6.03587">
        <ele>317.60000610352</ele>
        <time>2017-06-07T12:48:09Z</time>
      </trkpt>
      <trkpt lat="43.43108" lon="6.03586">
        <ele>317.79998779297</ele>
        <time>2017-06-07T12:48:10Z</time>
      </trkpt>
      <trkpt lat="43.43108" lon="6.03586">
        <ele>317.79998779297</ele>
        <time>2017-06-07T12:48:11Z</time>
      </trkpt>
      <trkpt lat="43.43108" lon="6.03586">
        <ele>318</ele>
        <time>2017-06-07T12:48:12Z</time>
      </trkpt>
      <trkpt lat="43.43108" lon="6.03586">
        <ele>318</ele>
        <time>2017-06-07T12:48:13Z</time>
      </trkpt>
      <trkpt lat="43.43108" lon="6.03586">
        <ele>318.39999389648</ele>
        <time>2017-06-07T12:48:17Z</time>
      </trkpt>
      <trkpt lat="43.43108" lon="6.03586">
        <ele>318.52856445312</ele>
        <time>2017-06-07T12:48:26Z</time>
      </trkpt>
      <trkpt lat="43.43108" lon="6.03587">
        <ele>318.60000610352</ele>
        <time>2017-06-07T12:48:31Z</time>
      </trkpt>
      <trkpt lat="43.43108" lon="6.03587">
        <ele>318.39999389648</ele>
        <time>2017-06-07T12:48:33Z</time>
      </trkpt>
      <trkpt lat="43.43108" lon="6.03586">
        <ele>318</ele>
        <time>2017-06-07T12:48:38Z</time>
      </trkpt>
      <trkpt lat="43.43108" lon="6.03586">
        <ele>318</ele>
        <time>2017-06-07T12:48:40Z</time>
      </trkpt>
      <trkpt lat="43.43108" lon="6.03586">
        <ele>318.20001220703</ele>
        <time>2017-06-07T12:48:42Z</time>
      </trkpt>
      <trkpt lat="43.43109" lon="6.03587">
        <ele>318.20001220703</ele>
        <time>2017-06-07T12:48:43Z</time>
      </trkpt>
      <trkpt lat="43.43109" lon="6.03587">
        <ele>318.39999389648</ele>
        <time>2017-06-07T12:48:44Z</time>
      </trkpt>
      <trkpt lat="43.43109" lon="6.03586">
        <ele>318.39999389648</ele>
        <time>2017-06-07T12:48:45Z</time>
      </trkpt>
      <trkpt lat="43.4311" lon="6.03587">
        <ele>318.59997558594</ele>
        <time>2017-06-07T12:48:46Z</time>
      </trkpt>
      <trkpt lat="43.43111" lon="6.03587">
        <ele>318.79998779297</ele>
        <time>2017-06-07T12:48:47Z</time>
      </trkpt>
      <trkpt lat="43.43112" lon="6.03588">
        <ele>318.60000610352</ele>
        <time>2017-06-07T12:48:48Z</time>
      </trkpt>
      <trkpt lat="43.43114" lon="6.03588">
        <ele>318.60000610352</ele>
        <time>2017-06-07T12:48:49Z</time>
      </trkpt>
      <trkpt lat="43.43116" lon="6.03588">
        <ele>318.48001098633</ele>
        <time>2017-06-07T12:48:50Z</time>
      </trkpt>
      <trkpt lat="43.43118" lon="6.03588">
        <ele>318.36001586914</ele>
        <time>2017-06-07T12:48:51Z</time>
      </trkpt>
      <trkpt lat="43.4312" lon="6.03587">
        <ele>318.23999023438</ele>
        <time>2017-06-07T12:48:52Z</time>
      </trkpt>
      <trkpt lat="43.43122" lon="6.03587">
        <ele>318.11999511719</ele>
        <time>2017-06-07T12:48:53Z</time>
      </trkpt>
      <trkpt lat="43.43127" lon="6.03586">
        <ele>318</ele>
        <time>2017-06-07T12:48:55Z</time>
      </trkpt>
      <trkpt lat="43.4313" lon="6.03585">
        <ele>318</ele>
        <time>2017-06-07T12:48:56Z</time>
      </trkpt>
      <trkpt lat="43.43138" lon="6.03585">
        <ele>318</ele>
        <time>2017-06-07T12:48:59Z</time>
      </trkpt>
      <trkpt lat="43.43141" lon="6.03585">
        <ele>318.20001220703</ele>
        <time>2017-06-07T12:49:00Z</time>
      </trkpt>
      <trkpt lat="43.43144" lon="6.03585">
        <ele>318.20001220703</ele>
        <time>2017-06-07T12:49:01Z</time>
      </trkpt>
      <trkpt lat="43.43149" lon="6.03586">
        <ele>318.39999389648</ele>
        <time>2017-06-07T12:49:03Z</time>
      </trkpt>
      <trkpt lat="43.43154" lon="6.03589">
        <ele>318.79998779297</ele>
        <time>2017-06-07T12:49:05Z</time>
      </trkpt>
      <trkpt lat="43.43156" lon="6.0359">
        <ele>318.79998779297</ele>
        <time>2017-06-07T12:49:06Z</time>
      </trkpt>
      <trkpt lat="43.43158" lon="6.03592">
        <ele>319</ele>
        <time>2017-06-07T12:49:07Z</time>
      </trkpt>
      <trkpt lat="43.43161" lon="6.03597">
        <ele>319.39999389648</ele>
        <time>2017-06-07T12:49:09Z</time>
      </trkpt>
      <trkpt lat="43.43163" lon="6.03599">
        <ele>319.59997558594</ele>
        <time>2017-06-07T12:49:10Z</time>
      </trkpt>
      <trkpt lat="43.43164" lon="6.03602">
        <ele>319.79998779297</ele>
        <time>2017-06-07T12:49:11Z</time>
      </trkpt>
      <trkpt lat="43.43165" lon="6.03609">
        <ele>319.84997558594</ele>
        <time>2017-06-07T12:49:13Z</time>
      </trkpt>
      <trkpt lat="43.43166" lon="6.03614">
        <ele>319.89999389648</ele>
        <time>2017-06-07T12:49:14Z</time>
      </trkpt>
      <trkpt lat="43.43166" lon="6.03618">
        <ele>319.95001220703</ele>
        <time>2017-06-07T12:49:15Z</time>
      </trkpt>
      <trkpt lat="43.43166" lon="6.03622">
        <ele>320</ele>
        <time>2017-06-07T12:49:16Z</time>
      </trkpt>
      <trkpt lat="43.43167" lon="6.03626">
        <ele>320</ele>
        <time>2017-06-07T12:49:17Z</time>
      </trkpt>
      <trkpt lat="43.43167" lon="6.03631">
        <ele>320</ele>
        <time>2017-06-07T12:49:18Z</time>
      </trkpt>
      <trkpt lat="43.43167" lon="6.03634">
        <ele>320</ele>
        <time>2017-06-07T12:49:19Z</time>
      </trkpt>
      <trkpt lat="43.43166" lon="6.03637">
        <ele>319.79998779297</ele>
        <time>2017-06-07T12:49:20Z</time>
      </trkpt>
      <trkpt lat="43.43167" lon="6.03641">
        <ele>319.79998779297</ele>
        <time>2017-06-07T12:49:21Z</time>
      </trkpt>
      <trkpt lat="43.43167" lon="6.03644">
        <ele>319.73333740234</ele>
        <time>2017-06-07T12:49:22Z</time>
      </trkpt>
      <trkpt lat="43.43167" lon="6.03652">
        <ele>319.60000610352</ele>
        <time>2017-06-07T12:49:24Z</time>
      </trkpt>
      <trkpt lat="43.43166" lon="6.03657">
        <ele>319.60000610352</ele>
        <time>2017-06-07T12:49:25Z</time>
      </trkpt>
      <trkpt lat="43.43165" lon="6.03661">
        <ele>319.39999389648</ele>
        <time>2017-06-07T12:49:26Z</time>
      </trkpt>
      <trkpt lat="43.43163" lon="6.03675">
        <ele>318.66665649414</ele>
        <time>2017-06-07T12:49:29Z</time>
      </trkpt>
      <trkpt lat="43.43161" lon="6.03696">
        <ele>317.20001220703</ele>
        <time>2017-06-07T12:49:33Z</time>
      </trkpt>
      <trkpt lat="43.43159" lon="6.03702">
        <ele>317.20001220703</ele>
        <time>2017-06-07T12:49:34Z</time>
      </trkpt>
      <trkpt lat="43.43155" lon="6.03725">
        <ele>316.5</ele>
        <time>2017-06-07T12:49:38Z</time>
      </trkpt>
      <trkpt lat="43.43154" lon="6.03731">
        <ele>316.19998168945</ele>
        <time>2017-06-07T12:49:39Z</time>
      </trkpt>
      <trkpt lat="43.43153" lon="6.03737">
        <ele>315.89999389648</ele>
        <time>2017-06-07T12:49:40Z</time>
      </trkpt>
      <trkpt lat="43.43151" lon="6.03744">
        <ele>315.60000610352</ele>
        <time>2017-06-07T12:49:41Z</time>
      </trkpt>
      <trkpt lat="43.43151" lon="6.0375">
        <ele>315.29998779297</ele>
        <time>2017-06-07T12:49:42Z</time>
      </trkpt>
      <trkpt lat="43.43151" lon="6.03756">
        <ele>315</ele>
        <time>2017-06-07T12:49:43Z</time>
      </trkpt>
      <trkpt lat="43.43152" lon="6.03762">
        <ele>315</ele>
        <time>2017-06-07T12:49:44Z</time>
      </trkpt>
      <trkpt lat="43.43153" lon="6.03768">
        <ele>314.79998779297</ele>
        <time>2017-06-07T12:49:45Z</time>
      </trkpt>
      <trkpt lat="43.43154" lon="6.03773">
        <ele>314.60000610352</ele>
        <time>2017-06-07T12:49:46Z</time>
      </trkpt>
      <trkpt lat="43.43155" lon="6.03777">
        <ele>314.60000610352</ele>
        <time>2017-06-07T12:49:47Z</time>
      </trkpt>
      <trkpt lat="43.43156" lon="6.03781">
        <ele>314.39999389648</ele>
        <time>2017-06-07T12:49:48Z</time>
      </trkpt>
      <trkpt lat="43.43158" lon="6.03782">
        <ele>314.60000610352</ele>
        <time>2017-06-07T12:49:49Z</time>
      </trkpt>
      <trkpt lat="43.4316" lon="6.03784">
        <ele>314.79998779297</ele>
        <time>2017-06-07T12:49:50Z</time>
      </trkpt>
      <trkpt lat="43.43162" lon="6.03785">
        <ele>315</ele>
        <time>2017-06-07T12:49:51Z</time>
      </trkpt>
      <trkpt lat="43.43164" lon="6.03786">
        <ele>315.20001220703</ele>
        <time>2017-06-07T12:49:52Z</time>
      </trkpt>
      <trkpt lat="43.43167" lon="6.03787">
        <ele>315.39999389648</ele>
        <time>2017-06-07T12:49:53Z</time>
      </trkpt>
      <trkpt lat="43.43169" lon="6.03787">
        <ele>315.60000610352</ele>
        <time>2017-06-07T12:49:54Z</time>
      </trkpt>
      <trkpt lat="43.43172" lon="6.03788">
        <ele>315.79998779297</ele>
        <time>2017-06-07T12:49:56Z</time>
      </trkpt>
      <trkpt lat="43.43174" lon="6.03787">
        <ele>316</ele>
        <time>2017-06-07T12:49:57Z</time>
      </trkpt>
      <trkpt lat="43.43175" lon="6.03785">
        <ele>316</ele>
        <time>2017-06-07T12:49:58Z</time>
      </trkpt>
      <trkpt lat="43.43175" lon="6.03783">
        <ele>316.10000610352</ele>
        <time>2017-06-07T12:49:59Z</time>
      </trkpt>
      <trkpt lat="43.43176" lon="6.0378">
        <ele>316.20001220703</ele>
        <time>2017-06-07T12:50:00Z</time>
      </trkpt>
      <trkpt lat="43.43177" lon="6.03777">
        <ele>316.20001220703</ele>
        <time>2017-06-07T12:50:01Z</time>
      </trkpt>
      <trkpt lat="43.43178" lon="6.03774">
        <ele>316.39999389648</ele>
        <time>2017-06-07T12:50:02Z</time>
      </trkpt>
      <trkpt lat="43.43179" lon="6.0377">
        <ele>316.20001220703</ele>
        <time>2017-06-07T12:50:03Z</time>
      </trkpt>
      <trkpt lat="43.43179" lon="6.03768">
        <ele>316.39999389648</ele>
        <time>2017-06-07T12:50:04Z</time>
      </trkpt>
      <trkpt lat="43.4318" lon="6.03767">
        <ele>316.39999389648</ele>
        <time>2017-06-07T12:50:05Z</time>
      </trkpt>
      <trkpt lat="43.43181" lon="6.03765">
        <ele>316.20001220703</ele>
        <time>2017-06-07T12:50:06Z</time>
      </trkpt>
      <trkpt lat="43.43182" lon="6.03763">
        <ele>316.20001220703</ele>
        <time>2017-06-07T12:50:07Z</time>
      </trkpt>
      <trkpt lat="43.43186" lon="6.03757">
        <ele>315.91430664062</ele>
        <time>2017-06-07T12:50:09Z</time>
      </trkpt>
      <trkpt lat="43.43188" lon="6.03755">
        <ele>315.77145385742</ele>
        <time>2017-06-07T12:50:10Z</time>
      </trkpt>
      <trkpt lat="43.4319" lon="6.03751">
        <ele>315.62857055664</ele>
        <time>2017-06-07T12:50:11Z</time>
      </trkpt>
      <trkpt lat="43.43192" lon="6.03748">
        <ele>315.48571777344</ele>
        <time>2017-06-07T12:50:12Z</time>
      </trkpt>
      <trkpt lat="43.43192" lon="6.03746">
        <ele>315.34286499023</ele>
        <time>2017-06-07T12:50:13Z</time>
      </trkpt>
      <trkpt lat="43.43192" lon="6.03744">
        <ele>315.20001220703</ele>
        <time>2017-06-07T12:50:14Z</time>
      </trkpt>
      <trkpt lat="43.43192" lon="6.03742">
        <ele>315.20001220703</ele>
        <time>2017-06-07T12:50:15Z</time>
      </trkpt>
      <trkpt lat="43.43192" lon="6.03739">
        <ele>315.13333129883</ele>
        <time>2017-06-07T12:50:16Z</time>
      </trkpt>
      <trkpt lat="43.43192" lon="6.03736">
        <ele>315.0666809082</ele>
        <time>2017-06-07T12:50:17Z</time>
      </trkpt>
      <trkpt lat="43.43193" lon="6.03733">
        <ele>315</ele>
        <time>2017-06-07T12:50:18Z</time>
      </trkpt>
      <trkpt lat="43.43198" lon="6.03727">
        <ele>314.67272949219</ele>
        <time>2017-06-07T12:50:20Z</time>
      </trkpt>
      <trkpt lat="43.432" lon="6.03724">
        <ele>314.34545898438</ele>
        <time>2017-06-07T12:50:21Z</time>
      </trkpt>
      <trkpt lat="43.43202" lon="6.0372">
        <ele>314.01818847656</ele>
        <time>2017-06-07T12:50:22Z</time>
      </trkpt>
      <trkpt lat="43.43208" lon="6.03715">
        <ele>313.36364746094</ele>
        <time>2017-06-07T12:50:24Z</time>
      </trkpt>
      <trkpt lat="43.4321" lon="6.03711">
        <ele>313.03634643555</ele>
        <time>2017-06-07T12:50:25Z</time>
      </trkpt>
      <trkpt lat="43.43213" lon="6.03707">
        <ele>312.70907592773</ele>
        <time>2017-06-07T12:50:26Z</time>
      </trkpt>
      <trkpt lat="43.43215" lon="6.03704">
        <ele>312.38180541992</ele>
        <time>2017-06-07T12:50:27Z</time>
      </trkpt>
      <trkpt lat="43.43217" lon="6.03701">
        <ele>312.05453491211</ele>
        <time>2017-06-07T12:50:28Z</time>
      </trkpt>
      <trkpt lat="43.43222" lon="6.03693">
        <ele>311.07272338867</ele>
        <time>2017-06-07T12:50:31Z</time>
      </trkpt>
      <trkpt lat="43.43223" lon="6.03691">
        <ele>310.74545288086</ele>
        <time>2017-06-07T12:50:32Z</time>
      </trkpt>
      <trkpt lat="43.43226" lon="6.03687">
        <ele>310.09091186523</ele>
        <time>2017-06-07T12:50:34Z</time>
      </trkpt>
      <trkpt lat="43.43227" lon="6.03685">
        <ele>309.76364135742</ele>
        <time>2017-06-07T12:50:35Z</time>
      </trkpt>
      <trkpt lat="43.43228" lon="6.03683">
        <ele>309.43634033203</ele>
        <time>2017-06-07T12:50:36Z</time>
      </trkpt>
      <trkpt lat="43.43229" lon="6.03682">
        <ele>309.10906982422</ele>
        <time>2017-06-07T12:50:37Z</time>
      </trkpt>
      <trkpt lat="43.4323" lon="6.03681">
        <ele>308.78179931641</ele>
        <time>2017-06-07T12:50:38Z</time>
      </trkpt>
      <trkpt lat="43.4323" lon="6.03681">
        <ele>308.45452880859</ele>
        <time>2017-06-07T12:50:39Z</time>
      </trkpt>
      <trkpt lat="43.4323" lon="6.03681">
        <ele>308.12725830078</ele>
        <time>2017-06-07T12:50:40Z</time>
      </trkpt>
      <trkpt lat="43.4323" lon="6.03681">
        <ele>307.79998779297</ele>
        <time>2017-06-07T12:50:41Z</time>
      </trkpt>
      <trkpt lat="43.4323" lon="6.03681">
        <ele>307.79998779297</ele>
        <time>2017-06-07T12:50:42Z</time>
      </trkpt>
      <trkpt lat="43.4323" lon="6.03681">
        <ele>307.73333740234</ele>
        <time>2017-06-07T12:50:43Z</time>
      </trkpt>
      <trkpt lat="43.4323" lon="6.03681">
        <ele>307.60000610352</ele>
        <time>2017-06-07T12:50:45Z</time>
      </trkpt>
      <trkpt lat="43.4323" lon="6.03681">
        <ele>307.60000610352</ele>
        <time>2017-06-07T12:50:47Z</time>
      </trkpt>
      <trkpt lat="43.4323" lon="6.03681">
        <ele>307.5</ele>
        <time>2017-06-07T12:50:49Z</time>
      </trkpt>
      <trkpt lat="43.4323" lon="6.03681">
        <ele>307.45001220703</ele>
        <time>2017-06-07T12:50:50Z</time>
      </trkpt>
      <trkpt lat="43.43231" lon="6.03681">
        <ele>307.39999389648</ele>
        <time>2017-06-07T12:50:51Z</time>
      </trkpt>
      <trkpt lat="43.43232" lon="6.03679">
        <ele>307.39999389648</ele>
        <time>2017-06-07T12:50:52Z</time>
      </trkpt>
      <trkpt lat="43.43233" lon="6.03678">
        <ele>307.29998779297</ele>
        <time>2017-06-07T12:50:53Z</time>
      </trkpt>
      <trkpt lat="43.43235" lon="6.03677">
        <ele>307.20001220703</ele>
        <time>2017-06-07T12:50:54Z</time>
      </trkpt>
      <trkpt lat="43.43236" lon="6.03675">
        <ele>307.20001220703</ele>
        <time>2017-06-07T12:50:55Z</time>
      </trkpt>
      <trkpt lat="43.43238" lon="6.03673">
        <ele>306.76000976562</ele>
        <time>2017-06-07T12:50:56Z</time>
      </trkpt>
      <trkpt lat="43.4324" lon="6.03671">
        <ele>306.32000732422</ele>
        <time>2017-06-07T12:50:57Z</time>
      </trkpt>
      <trkpt lat="43.43241" lon="6.03669">
        <ele>305.88000488281</ele>
        <time>2017-06-07T12:50:58Z</time>
      </trkpt>
      <trkpt lat="43.43242" lon="6.03668">
        <ele>305.44000244141</ele>
        <time>2017-06-07T12:50:59Z</time>
      </trkpt>
      <trkpt lat="43.43242" lon="6.03668">
        <ele>305</ele>
        <time>2017-06-07T12:51:00Z</time>
      </trkpt>
      <trkpt lat="43.43242" lon="6.03668">
        <ele>305</ele>
        <time>2017-06-07T12:51:01Z</time>
      </trkpt>
      <trkpt lat="43.43242" lon="6.03667">
        <ele>305</ele>
        <time>2017-06-07T12:51:02Z</time>
      </trkpt>
      <trkpt lat="43.43242" lon="6.03667">
        <ele>305</ele>
        <time>2017-06-07T12:51:03Z</time>
      </trkpt>
      <trkpt lat="43.43243" lon="6.03666">
        <ele>305.20001220703</ele>
        <time>2017-06-07T12:51:04Z</time>
      </trkpt>
      <trkpt lat="43.43244" lon="6.03665">
        <ele>305.20001220703</ele>
        <time>2017-06-07T12:51:05Z</time>
      </trkpt>
      <trkpt lat="43.43245" lon="6.03663">
        <ele>305.20001220703</ele>
        <time>2017-06-07T12:51:06Z</time>
      </trkpt>
      <trkpt lat="43.43246" lon="6.03661">
        <ele>305.20001220703</ele>
        <time>2017-06-07T12:51:07Z</time>
      </trkpt>
      <trkpt lat="43.43248" lon="6.03658">
        <ele>304.79998779297</ele>
        <time>2017-06-07T12:51:08Z</time>
      </trkpt>
      <trkpt lat="43.43251" lon="6.03655">
        <ele>304.60000610352</ele>
        <time>2017-06-07T12:51:09Z</time>
      </trkpt>
      <trkpt lat="43.43253" lon="6.03653">
        <ele>304.39999389648</ele>
        <time>2017-06-07T12:51:10Z</time>
      </trkpt>
      <trkpt lat="43.43255" lon="6.0365">
        <ele>303.79998779297</ele>
        <time>2017-06-07T12:51:11Z</time>
      </trkpt>
      <trkpt lat="43.43257" lon="6.03647">
        <ele>303.39999389648</ele>
        <time>2017-06-07T12:51:12Z</time>
      </trkpt>
      <trkpt lat="43.43262" lon="6.03641">
        <ele>302.39999389648</ele>
        <time>2017-06-07T12:51:15Z</time>
      </trkpt>
      <trkpt lat="43.43264" lon="6.03639">
        <ele>302</ele>
        <time>2017-06-07T12:51:16Z</time>
      </trkpt>
      <trkpt lat="43.43265" lon="6.03638">
        <ele>301.79998779297</ele>
        <time>2017-06-07T12:51:17Z</time>
      </trkpt>
      <trkpt lat="43.43267" lon="6.03636">
        <ele>301.20001220703</ele>
        <time>2017-06-07T12:51:18Z</time>
      </trkpt>
      <trkpt lat="43.4327" lon="6.03632">
        <ele>299.79998779297</ele>
        <time>2017-06-07T12:51:20Z</time>
      </trkpt>
      <trkpt lat="43.43273" lon="6.03629">
        <ele>299.20001220703</ele>
        <time>2017-06-07T12:51:21Z</time>
      </trkpt>
      <trkpt lat="43.43275" lon="6.03626">
        <ele>298.79998779297</ele>
        <time>2017-06-07T12:51:22Z</time>
      </trkpt>
      <trkpt lat="43.43277" lon="6.03623">
        <ele>298.39999389648</ele>
        <time>2017-06-07T12:51:23Z</time>
      </trkpt>
      <trkpt lat="43.43279" lon="6.03619">
        <ele>298.20001220703</ele>
        <time>2017-06-07T12:51:24Z</time>
      </trkpt>
      <trkpt lat="43.43283" lon="6.03613">
        <ele>297.67779541016</ele>
        <time>2017-06-07T12:51:26Z</time>
      </trkpt>
      <trkpt lat="43.43285" lon="6.0361">
        <ele>297.15557861328</ele>
        <time>2017-06-07T12:51:27Z</time>
      </trkpt>
      <trkpt lat="43.43289" lon="6.03605">
        <ele>296.11111450195</ele>
        <time>2017-06-07T12:51:29Z</time>
      </trkpt>
      <trkpt lat="43.43292" lon="6.03603">
        <ele>295.58889770508</ele>
        <time>2017-06-07T12:51:30Z</time>
      </trkpt>
      <trkpt lat="43.43296" lon="6.03598">
        <ele>294.54443359375</ele>
        <time>2017-06-07T12:51:32Z</time>
      </trkpt>
      <trkpt lat="43.433" lon="6.0359">
        <ele>293.5</ele>
        <time>2017-06-07T12:51:34Z</time>
      </trkpt>
      <trkpt lat="43.43303" lon="6.03586">
        <ele>292.97778320312</ele>
        <time>2017-06-07T12:51:35Z</time>
      </trkpt>
      <trkpt lat="43.43304" lon="6.03582">
        <ele>292.45556640625</ele>
        <time>2017-06-07T12:51:36Z</time>
      </trkpt>
      <trkpt lat="43.43305" lon="6.03578">
        <ele>291.9333190918</ele>
        <time>2017-06-07T12:51:37Z</time>
      </trkpt>
      <trkpt lat="43.43306" lon="6.03573">
        <ele>291.41110229492</ele>
        <time>2017-06-07T12:51:38Z</time>
      </trkpt>
      <trkpt lat="43.43307" lon="6.0357">
        <ele>290.88888549805</ele>
        <time>2017-06-07T12:51:39Z</time>
      </trkpt>
      <trkpt lat="43.43307" lon="6.03569">
        <ele>290.36666870117</ele>
        <time>2017-06-07T12:51:40Z</time>
      </trkpt>
      <trkpt lat="43.43308" lon="6.03568">
        <ele>289.84442138672</ele>
        <time>2017-06-07T12:51:41Z</time>
      </trkpt>
      <trkpt lat="43.43308" lon="6.03568">
        <ele>289.32220458984</ele>
        <time>2017-06-07T12:51:42Z</time>
      </trkpt>
      <trkpt lat="43.43309" lon="6.03569">
        <ele>288.79998779297</ele>
        <time>2017-06-07T12:51:43Z</time>
      </trkpt>
      <trkpt lat="43.43309" lon="6.0357">
        <ele>288.79998779297</ele>
        <time>2017-06-07T12:51:44Z</time>
      </trkpt>
      <trkpt lat="43.4331" lon="6.03573">
        <ele>288.39999389648</ele>
        <time>2017-06-07T12:51:46Z</time>
      </trkpt>
      <trkpt lat="43.43311" lon="6.03575">
        <ele>288.39999389648</ele>
        <time>2017-06-07T12:51:47Z</time>
      </trkpt>
      <trkpt lat="43.43311" lon="6.03579">
        <ele>288.13333129883</ele>
        <time>2017-06-07T12:51:48Z</time>
      </trkpt>
      <trkpt lat="43.43311" lon="6.03582">
        <ele>287.86666870117</ele>
        <time>2017-06-07T12:51:49Z</time>
      </trkpt>
      <trkpt lat="43.43311" lon="6.03586">
        <ele>287.59997558594</ele>
        <time>2017-06-07T12:51:50Z</time>
      </trkpt>
      <trkpt lat="43.43311" lon="6.0359">
        <ele>287.33331298828</ele>
        <time>2017-06-07T12:51:51Z</time>
      </trkpt>
      <trkpt lat="43.43311" lon="6.03593">
        <ele>287.06665039062</ele>
        <time>2017-06-07T12:51:52Z</time>
      </trkpt>
      <trkpt lat="43.43311" lon="6.03599">
        <ele>286.79998779297</ele>
        <time>2017-06-07T12:51:54Z</time>
      </trkpt>
      <trkpt lat="43.43311" lon="6.03602">
        <ele>286.35382080078</ele>
        <time>2017-06-07T12:51:55Z</time>
      </trkpt>
      <trkpt lat="43.43311" lon="6.03607">
        <ele>285.46151733398</ele>
        <time>2017-06-07T12:51:57Z</time>
      </trkpt>
      <trkpt lat="43.4331" lon="6.0361">
        <ele>285.01538085938</ele>
        <time>2017-06-07T12:51:58Z</time>
      </trkpt>
      <trkpt lat="43.43311" lon="6.03614">
        <ele>284.56921386719</ele>
        <time>2017-06-07T12:51:59Z</time>
      </trkpt>
      <trkpt lat="43.43311" lon="6.03617">
        <ele>284.12307739258</ele>
        <time>2017-06-07T12:52:00Z</time>
      </trkpt>
      <trkpt lat="43.43311" lon="6.03621">
        <ele>283.67691040039</ele>
        <time>2017-06-07T12:52:01Z</time>
      </trkpt>
      <trkpt lat="43.43311" lon="6.03625">
        <ele>283.23077392578</ele>
        <time>2017-06-07T12:52:02Z</time>
      </trkpt>
      <trkpt lat="43.4331" lon="6.03629">
        <ele>282.78460693359</ele>
        <time>2017-06-07T12:52:03Z</time>
      </trkpt>
      <trkpt lat="43.43309" lon="6.03633">
        <ele>282.33847045898</ele>
        <time>2017-06-07T12:52:04Z</time>
      </trkpt>
      <trkpt lat="43.43308" lon="6.03636">
        <ele>281.8923034668</ele>
        <time>2017-06-07T12:52:05Z</time>
      </trkpt>
      <trkpt lat="43.43306" lon="6.0364">
        <ele>281</ele>
        <time>2017-06-07T12:52:07Z</time>
      </trkpt>
      <trkpt lat="43.43304" lon="6.03642">
        <ele>281</ele>
        <time>2017-06-07T12:52:08Z</time>
      </trkpt>
      <trkpt lat="43.43301" lon="6.03646">
        <ele>280.44000244141</ele>
        <time>2017-06-07T12:52:10Z</time>
      </trkpt>
      <trkpt lat="43.43301" lon="6.03648">
        <ele>280.16000366211</ele>
        <time>2017-06-07T12:52:11Z</time>
      </trkpt>
      <trkpt lat="43.433" lon="6.0365">
        <ele>279.88000488281</ele>
        <time>2017-06-07T12:52:12Z</time>
      </trkpt>
      <trkpt lat="43.43299" lon="6.03652">
        <ele>279.60000610352</ele>
        <time>2017-06-07T12:52:13Z</time>
      </trkpt>
      <trkpt lat="43.43298" lon="6.03658">
        <ele>279.39999389648</ele>
        <time>2017-06-07T12:52:15Z</time>
      </trkpt>
      <trkpt lat="43.43297" lon="6.03662">
        <ele>279.20001220703</ele>
        <time>2017-06-07T12:52:16Z</time>
      </trkpt>
      <trkpt lat="43.43297" lon="6.03665">
        <ele>279</ele>
        <time>2017-06-07T12:52:17Z</time>
      </trkpt>
      <trkpt lat="43.43297" lon="6.03669">
        <ele>278.79998779297</ele>
        <time>2017-06-07T12:52:18Z</time>
      </trkpt>
      <trkpt lat="43.43296" lon="6.03673">
        <ele>278.60000610352</ele>
        <time>2017-06-07T12:52:19Z</time>
      </trkpt>
      <trkpt lat="43.43296" lon="6.03676">
        <ele>278.39999389648</ele>
        <time>2017-06-07T12:52:20Z</time>
      </trkpt>
      <trkpt lat="43.43296" lon="6.0368">
        <ele>278.20001220703</ele>
        <time>2017-06-07T12:52:21Z</time>
      </trkpt>
      <trkpt lat="43.43297" lon="6.03683">
        <ele>278</ele>
        <time>2017-06-07T12:52:22Z</time>
      </trkpt>
      <trkpt lat="43.43298" lon="6.03686">
        <ele>278</ele>
        <time>2017-06-07T12:52:23Z</time>
      </trkpt>
      <trkpt lat="43.43298" lon="6.03689">
        <ele>277.96667480469</ele>
        <time>2017-06-07T12:52:24Z</time>
      </trkpt>
      <trkpt lat="43.43299" lon="6.03691">
        <ele>277.9333190918</ele>
        <time>2017-06-07T12:52:25Z</time>
      </trkpt>
      <trkpt lat="43.43299" lon="6.03692">
        <ele>277.89999389648</ele>
        <time>2017-06-07T12:52:26Z</time>
      </trkpt>
      <trkpt lat="43.43299" lon="6.03693">
        <ele>277.86666870117</ele>
        <time>2017-06-07T12:52:27Z</time>
      </trkpt>
      <trkpt lat="43.43299" lon="6.03694">
        <ele>277.83331298828</ele>
        <time>2017-06-07T12:52:28Z</time>
      </trkpt>
      <trkpt lat="43.43299" lon="6.03696">
        <ele>277.79998779297</ele>
        <time>2017-06-07T12:52:29Z</time>
      </trkpt>
      <trkpt lat="43.433" lon="6.03697">
        <ele>277.79998779297</ele>
        <time>2017-06-07T12:52:30Z</time>
      </trkpt>
      <trkpt lat="43.43301" lon="6.03699">
        <ele>277.60000610352</ele>
        <time>2017-06-07T12:52:31Z</time>
      </trkpt>
      <trkpt lat="43.43302" lon="6.03701">
        <ele>277.60000610352</ele>
        <time>2017-06-07T12:52:32Z</time>
      </trkpt>
      <trkpt lat="43.43303" lon="6.03703">
        <ele>277.39999389648</ele>
        <time>2017-06-07T12:52:33Z</time>
      </trkpt>
      <trkpt lat="43.43304" lon="6.03706">
        <ele>277.39999389648</ele>
        <time>2017-06-07T12:52:34Z</time>
      </trkpt>
      <trkpt lat="43.43305" lon="6.03708">
        <ele>277.14999389648</ele>
        <time>2017-06-07T12:52:35Z</time>
      </trkpt>
      <trkpt lat="43.43307" lon="6.0371">
        <ele>276.89999389648</ele>
        <time>2017-06-07T12:52:36Z</time>
      </trkpt>
      <trkpt lat="43.43309" lon="6.03713">
        <ele>276.64999389648</ele>
        <time>2017-06-07T12:52:37Z</time>
      </trkpt>
      <trkpt lat="43.43311" lon="6.03716">
        <ele>276.39999389648</ele>
        <time>2017-06-07T12:52:38Z</time>
      </trkpt>
      <trkpt lat="43.43312" lon="6.0372">
        <ele>276.39999389648</ele>
        <time>2017-06-07T12:52:39Z</time>
      </trkpt>
      <trkpt lat="43.43317" lon="6.03726">
        <ele>276.20001220703</ele>
        <time>2017-06-07T12:52:41Z</time>
      </trkpt>
      <trkpt lat="43.43319" lon="6.03728">
        <ele>276.10000610352</ele>
        <time>2017-06-07T12:52:42Z</time>
      </trkpt>
      <trkpt lat="43.43321" lon="6.03731">
        <ele>276</ele>
        <time>2017-06-07T12:52:43Z</time>
      </trkpt>
      <trkpt lat="43.43325" lon="6.03735">
        <ele>275.79998779297</ele>
        <time>2017-06-07T12:52:45Z</time>
      </trkpt>
      <trkpt lat="43.43327" lon="6.03737">
        <ele>275.79998779297</ele>
        <time>2017-06-07T12:52:46Z</time>
      </trkpt>
      <trkpt lat="43.43329" lon="6.03738">
        <ele>275.64999389648</ele>
        <time>2017-06-07T12:52:47Z</time>
      </trkpt>
      <trkpt lat="43.43332" lon="6.03739">
        <ele>275.5</ele>
        <time>2017-06-07T12:52:48Z</time>
      </trkpt>
      <trkpt lat="43.43336" lon="6.03743">
        <ele>275.20001220703</ele>
        <time>2017-06-07T12:52:50Z</time>
      </trkpt>
      <trkpt lat="43.43338" lon="6.03745">
        <ele>275.20001220703</ele>
        <time>2017-06-07T12:52:51Z</time>
      </trkpt>
      <trkpt lat="43.43341" lon="6.03746">
        <ele>275</ele>
        <time>2017-06-07T12:52:52Z</time>
      </trkpt>
      <trkpt lat="43.43343" lon="6.03748">
        <ele>275</ele>
        <time>2017-06-07T12:52:53Z</time>
      </trkpt>
      <trkpt lat="43.43346" lon="6.0375">
        <ele>274.60000610352</ele>
        <time>2017-06-07T12:52:54Z</time>
      </trkpt>
      <trkpt lat="43.43348" lon="6.03752">
        <ele>274.60000610352</ele>
        <time>2017-06-07T12:52:55Z</time>
      </trkpt>
      <trkpt lat="43.4335" lon="6.03754">
        <ele>274.33334350586</ele>
        <time>2017-06-07T12:52:56Z</time>
      </trkpt>
      <trkpt lat="43.43353" lon="6.03756">
        <ele>274.0666809082</ele>
        <time>2017-06-07T12:52:57Z</time>
      </trkpt>
      <trkpt lat="43.43355" lon="6.03758">
        <ele>273.79998779297</ele>
        <time>2017-06-07T12:52:58Z</time>
      </trkpt>
      <trkpt lat="43.43358" lon="6.03761">
        <ele>273.53332519531</ele>
        <time>2017-06-07T12:52:59Z</time>
      </trkpt>
      <trkpt lat="43.43364" lon="6.03767">
        <ele>273</ele>
        <time>2017-06-07T12:53:01Z</time>
      </trkpt>
      <trkpt lat="43.43367" lon="6.0377">
        <ele>273</ele>
        <time>2017-06-07T12:53:02Z</time>
      </trkpt>
      <trkpt lat="43.43369" lon="6.03774">
        <ele>272.79998779297</ele>
        <time>2017-06-07T12:53:03Z</time>
      </trkpt>
      <trkpt lat="43.43373" lon="6.03778">
        <ele>272.79998779297</ele>
        <time>2017-06-07T12:53:04Z</time>
      </trkpt>
      <trkpt lat="43.43377" lon="6.03781">
        <ele>272.70001220703</ele>
        <time>2017-06-07T12:53:05Z</time>
      </trkpt>
      <trkpt lat="43.4338" lon="6.03784">
        <ele>272.60000610352</ele>
        <time>2017-06-07T12:53:06Z</time>
      </trkpt>
      <trkpt lat="43.43383" lon="6.03786">
        <ele>272.60000610352</ele>
        <time>2017-06-07T12:53:07Z</time>
      </trkpt>
      <trkpt lat="43.43386" lon="6.03788">
        <ele>272.375</ele>
        <time>2017-06-07T12:53:08Z</time>
      </trkpt>
      <trkpt lat="43.43388" lon="6.03791">
        <ele>272.14999389648</ele>
        <time>2017-06-07T12:53:09Z</time>
      </trkpt>
      <trkpt lat="43.43391" lon="6.03793">
        <ele>271.92498779297</ele>
        <time>2017-06-07T12:53:10Z</time>
      </trkpt>
      <trkpt lat="43.43395" lon="6.03798">
        <ele>271.47500610352</ele>
        <time>2017-06-07T12:53:12Z</time>
      </trkpt>
      <trkpt lat="43.43398" lon="6.038">
        <ele>271.25</ele>
        <time>2017-06-07T12:53:13Z</time>
      </trkpt>
      <trkpt lat="43.434" lon="6.03802">
        <ele>271.02499389648</ele>
        <time>2017-06-07T12:53:14Z</time>
      </trkpt>
      <trkpt lat="43.43403" lon="6.03804">
        <ele>270.79998779297</ele>
        <time>2017-06-07T12:53:15Z</time>
      </trkpt>
      <trkpt lat="43.43405" lon="6.03805">
        <ele>270.79998779297</ele>
        <time>2017-06-07T12:53:16Z</time>
      </trkpt>
      <trkpt lat="43.43407" lon="6.03805">
        <ele>270.79998779297</ele>
        <time>2017-06-07T12:53:17Z</time>
      </trkpt>
      <trkpt lat="43.43409" lon="6.03805">
        <ele>270.79998779297</ele>
        <time>2017-06-07T12:53:18Z</time>
      </trkpt>
      <trkpt lat="43.43412" lon="6.03805">
        <ele>270.79998779297</ele>
        <time>2017-06-07T12:53:19Z</time>
      </trkpt>
      <trkpt lat="43.43415" lon="6.03805">
        <ele>271</ele>
        <time>2017-06-07T12:53:20Z</time>
      </trkpt>
      <trkpt lat="43.43417" lon="6.03805">
        <ele>271.20001220703</ele>
        <time>2017-06-07T12:53:21Z</time>
      </trkpt>
      <trkpt lat="43.4342" lon="6.03804">
        <ele>271.20001220703</ele>
        <time>2017-06-07T12:53:22Z</time>
      </trkpt>
      <trkpt lat="43.43423" lon="6.03802">
        <ele>271</ele>
        <time>2017-06-07T12:53:23Z</time>
      </trkpt>
      <trkpt lat="43.43425" lon="6.038">
        <ele>270.60000610352</ele>
        <time>2017-06-07T12:53:24Z</time>
      </trkpt>
      <trkpt lat="43.43427" lon="6.03796">
        <ele>270.39999389648</ele>
        <time>2017-06-07T12:53:25Z</time>
      </trkpt>
      <trkpt lat="43.43428" lon="6.03793">
        <ele>270.20001220703</ele>
        <time>2017-06-07T12:53:26Z</time>
      </trkpt>
      <trkpt lat="43.4343" lon="6.0379">
        <ele>270</ele>
        <time>2017-06-07T12:53:27Z</time>
      </trkpt>
      <trkpt lat="43.43434" lon="6.0378">
        <ele>270.20001220703</ele>
        <time>2017-06-07T12:53:30Z</time>
      </trkpt>
      <trkpt lat="43.43435" lon="6.03777">
        <ele>270.39999389648</ele>
        <time>2017-06-07T12:53:31Z</time>
      </trkpt>
      <trkpt lat="43.43438" lon="6.03771">
        <ele>270.60000610352</ele>
        <time>2017-06-07T12:53:33Z</time>
      </trkpt>
      <trkpt lat="43.4344" lon="6.03768">
        <ele>270.79998779297</ele>
        <time>2017-06-07T12:53:34Z</time>
      </trkpt>
      <trkpt lat="43.43442" lon="6.03765">
        <ele>270.79998779297</ele>
        <time>2017-06-07T12:53:35Z</time>
      </trkpt>
      <trkpt lat="43.43444" lon="6.03762">
        <ele>270.79998779297</ele>
        <time>2017-06-07T12:53:36Z</time>
      </trkpt>
      <trkpt lat="43.43447" lon="6.03759">
        <ele>270.60000610352</ele>
        <time>2017-06-07T12:53:37Z</time>
      </trkpt>
      <trkpt lat="43.43454" lon="6.03754">
        <ele>270.20001220703</ele>
        <time>2017-06-07T12:53:39Z</time>
      </trkpt>
      <trkpt lat="43.43457" lon="6.03752">
        <ele>270</ele>
        <time>2017-06-07T12:53:40Z</time>
      </trkpt>
      <trkpt lat="43.4346" lon="6.03748">
        <ele>269.60000610352</ele>
        <time>2017-06-07T12:53:41Z</time>
      </trkpt>
      <trkpt lat="43.43464" lon="6.03744">
        <ele>269.20001220703</ele>
        <time>2017-06-07T12:53:42Z</time>
      </trkpt>
      <trkpt lat="43.43467" lon="6.03741">
        <ele>269</ele>
        <time>2017-06-07T12:53:43Z</time>
      </trkpt>
      <trkpt lat="43.43471" lon="6.03738">
        <ele>268.60000610352</ele>
        <time>2017-06-07T12:53:44Z</time>
      </trkpt>
      <trkpt lat="43.43475" lon="6.03737">
        <ele>268.39999389648</ele>
        <time>2017-06-07T12:53:45Z</time>
      </trkpt>
      <trkpt lat="43.43478" lon="6.03737">
        <ele>268</ele>
        <time>2017-06-07T12:53:46Z</time>
      </trkpt>
      <trkpt lat="43.43481" lon="6.03737">
        <ele>267.39999389648</ele>
        <time>2017-06-07T12:53:47Z</time>
      </trkpt>
      <trkpt lat="43.43484" lon="6.03738">
        <ele>267</ele>
        <time>2017-06-07T12:53:48Z</time>
      </trkpt>
      <trkpt lat="43.43486" lon="6.0374">
        <ele>266.60000610352</ele>
        <time>2017-06-07T12:53:49Z</time>
      </trkpt>
      <trkpt lat="43.43489" lon="6.03742">
        <ele>266.39999389648</ele>
        <time>2017-06-07T12:53:50Z</time>
      </trkpt>
      <trkpt lat="43.43493" lon="6.03745">
        <ele>266.20001220703</ele>
        <time>2017-06-07T12:53:51Z</time>
      </trkpt>
      <trkpt lat="43.43495" lon="6.03746">
        <ele>265.60000610352</ele>
        <time>2017-06-07T12:53:52Z</time>
      </trkpt>
      <trkpt lat="43.43501" lon="6.0375">
        <ele>264.79998779297</ele>
        <time>2017-06-07T12:53:54Z</time>
      </trkpt>
      <trkpt lat="43.43507" lon="6.03755">
        <ele>264.20001220703</ele>
        <time>2017-06-07T12:53:56Z</time>
      </trkpt>
      <trkpt lat="43.4351" lon="6.03758">
        <ele>264</ele>
        <time>2017-06-07T12:53:57Z</time>
      </trkpt>
      <trkpt lat="43.43514" lon="6.0376">
        <ele>263.79998779297</ele>
        <time>2017-06-07T12:53:58Z</time>
      </trkpt>
      <trkpt lat="43.43517" lon="6.03763">
        <ele>263.60000610352</ele>
        <time>2017-06-07T12:53:59Z</time>
      </trkpt>
      <trkpt lat="43.4352" lon="6.03765">
        <ele>263.20001220703</ele>
        <time>2017-06-07T12:54:00Z</time>
      </trkpt>
      <trkpt lat="43.43523" lon="6.03767">
        <ele>263.20001220703</ele>
        <time>2017-06-07T12:54:01Z</time>
      </trkpt>
      <trkpt lat="43.43527" lon="6.03771">
        <ele>263</ele>
        <time>2017-06-07T12:54:03Z</time>
      </trkpt>
      <trkpt lat="43.43529" lon="6.03772">
        <ele>262.89999389648</ele>
        <time>2017-06-07T12:54:04Z</time>
      </trkpt>
      <trkpt lat="43.43531" lon="6.03772">
        <ele>262.79998779297</ele>
        <time>2017-06-07T12:54:05Z</time>
      </trkpt>
      <trkpt lat="43.43533" lon="6.03773">
        <ele>262.79998779297</ele>
        <time>2017-06-07T12:54:06Z</time>
      </trkpt>
      <trkpt lat="43.43539" lon="6.03775">
        <ele>262.11428833008</ele>
        <time>2017-06-07T12:54:08Z</time>
      </trkpt>
      <trkpt lat="43.43543" lon="6.03776">
        <ele>261.77142333984</ele>
        <time>2017-06-07T12:54:09Z</time>
      </trkpt>
      <trkpt lat="43.43546" lon="6.03777">
        <ele>261.42855834961</ele>
        <time>2017-06-07T12:54:10Z</time>
      </trkpt>
      <trkpt lat="43.43549" lon="6.03779">
        <ele>261.08569335938</ele>
        <time>2017-06-07T12:54:11Z</time>
      </trkpt>
      <trkpt lat="43.43552" lon="6.03781">
        <ele>260.74285888672</ele>
        <time>2017-06-07T12:54:12Z</time>
      </trkpt>
      <trkpt lat="43.43555" lon="6.03782">
        <ele>260.39999389648</ele>
        <time>2017-06-07T12:54:13Z</time>
      </trkpt>
      <trkpt lat="43.43557" lon="6.03782">
        <ele>260.39999389648</ele>
        <time>2017-06-07T12:54:14Z</time>
      </trkpt>
      <trkpt lat="43.4356" lon="6.03782">
        <ele>260.14999389648</ele>
        <time>2017-06-07T12:54:15Z</time>
      </trkpt>
      <trkpt lat="43.43562" lon="6.03781">
        <ele>259.89999389648</ele>
        <time>2017-06-07T12:54:16Z</time>
      </trkpt>
      <trkpt lat="43.43565" lon="6.0378">
        <ele>259.64999389648</ele>
        <time>2017-06-07T12:54:17Z</time>
      </trkpt>
      <trkpt lat="43.43567" lon="6.03777">
        <ele>259.39999389648</ele>
        <time>2017-06-07T12:54:18Z</time>
      </trkpt>
      <trkpt lat="43.43568" lon="6.03773">
        <ele>259.14999389648</ele>
        <time>2017-06-07T12:54:19Z</time>
      </trkpt>
      <trkpt lat="43.4357" lon="6.03771">
        <ele>258.89999389648</ele>
        <time>2017-06-07T12:54:20Z</time>
      </trkpt>
      <trkpt lat="43.43571" lon="6.0377">
        <ele>258.39999389648</ele>
        <time>2017-06-07T12:54:22Z</time>
      </trkpt>
      <trkpt lat="43.43571" lon="6.0377">
        <ele>258.39999389648</ele>
        <time>2017-06-07T12:54:23Z</time>
      </trkpt>
      <trkpt lat="43.43571" lon="6.03769">
        <ele>258.20001220703</ele>
        <time>2017-06-07T12:54:24Z</time>
      </trkpt>
      <trkpt lat="43.43571" lon="6.03769">
        <ele>258.20001220703</ele>
        <time>2017-06-07T12:54:25Z</time>
      </trkpt>
      <trkpt lat="43.43571" lon="6.03769">
        <ele>258.20001220703</ele>
        <time>2017-06-07T12:54:27Z</time>
      </trkpt>
      <trkpt lat="43.43571" lon="6.03769">
        <ele>258.39999389648</ele>
        <time>2017-06-07T12:54:28Z</time>
      </trkpt>
      <trkpt lat="43.43571" lon="6.03769">
        <ele>258.53332519531</ele>
        <time>2017-06-07T12:54:30Z</time>
      </trkpt>
      <trkpt lat="43.43571" lon="6.03769">
        <ele>258.79998779297</ele>
        <time>2017-06-07T12:54:32Z</time>
      </trkpt>
      <trkpt lat="43.43571" lon="6.03769">
        <ele>258.89999389648</ele>
        <time>2017-06-07T12:54:34Z</time>
      </trkpt>
      <trkpt lat="43.43571" lon="6.03769">
        <ele>259</ele>
        <time>2017-06-07T12:54:35Z</time>
      </trkpt>
      <trkpt lat="43.43571" lon="6.03769">
        <ele>259</ele>
        <time>2017-06-07T12:54:36Z</time>
      </trkpt>
      <trkpt lat="43.43571" lon="6.03769">
        <ele>259.07998657227</ele>
        <time>2017-06-07T12:54:37Z</time>
      </trkpt>
      <trkpt lat="43.43571" lon="6.03769">
        <ele>259.23999023438</ele>
        <time>2017-06-07T12:54:39Z</time>
      </trkpt>
      <trkpt lat="43.43571" lon="6.03769">
        <ele>259.32000732422</ele>
        <time>2017-06-07T12:54:40Z</time>
      </trkpt>
      <trkpt lat="43.43571" lon="6.03769">
        <ele>259.39999389648</ele>
        <time>2017-06-07T12:54:41Z</time>
      </trkpt>
      <trkpt lat="43.43571" lon="6.03769">
        <ele>259.60000610352</ele>
        <time>2017-06-07T12:54:45Z</time>
      </trkpt>
      <trkpt lat="43.43571" lon="6.03769">
        <ele>259.20001220703</ele>
        <time>2017-06-07T12:54:53Z</time>
      </trkpt>
      <trkpt lat="43.43571" lon="6.03769">
        <ele>259.20001220703</ele>
        <time>2017-06-07T12:54:55Z</time>
      </trkpt>
      <trkpt lat="43.43571" lon="6.0377">
        <ele>259.20001220703</ele>
        <time>2017-06-07T12:54:57Z</time>
      </trkpt>
      <trkpt lat="43.43571" lon="6.0377">
        <ele>259.20001220703</ele>
        <time>2017-06-07T12:55:00Z</time>
      </trkpt>
      <trkpt lat="43.43571" lon="6.0377">
        <ele>259.20001220703</ele>
        <time>2017-06-07T12:55:02Z</time>
      </trkpt>
      <trkpt lat="43.43571" lon="6.0377">
        <ele>259.20001220703</ele>
        <time>2017-06-07T12:55:10Z</time>
      </trkpt>
      <trkpt lat="43.43571" lon="6.0377">
        <ele>259</ele>
        <time>2017-06-07T12:55:18Z</time>
      </trkpt>
      <trkpt lat="43.43571" lon="6.0377">
        <ele>258.79998779297</ele>
        <time>2017-06-07T12:56:05Z</time>
      </trkpt>
      <trkpt lat="43.43571" lon="6.0377">
        <ele>258.79998779297</ele>
        <time>2017-06-07T12:56:07Z</time>
      </trkpt>
      <trkpt lat="43.43571" lon="6.0377">
        <ele>258.60000610352</ele>
        <time>2017-06-07T12:56:11Z</time>
      </trkpt>
      <trkpt lat="43.43571" lon="6.0377">
        <ele>258.20001220703</ele>
        <time>2017-06-07T12:56:17Z</time>
      </trkpt>
      <trkpt lat="43.43571" lon="6.0377">
        <ele>258.79998779297</ele>
        <time>2017-06-07T12:56:35Z</time>
      </trkpt>
      <trkpt lat="43.43571" lon="6.0377">
        <ele>258.20001220703</ele>
        <time>2017-06-07T12:56:39Z</time>
      </trkpt>
      <trkpt lat="43.43571" lon="6.0377">
        <ele>257.79998779297</ele>
        <time>2017-06-07T12:56:45Z</time>
      </trkpt>
      <trkpt lat="43.43571" lon="6.0377">
        <ele>258.20001220703</ele>
        <time>2017-06-07T12:57:10Z</time>
      </trkpt>
      <trkpt lat="43.43571" lon="6.0377">
        <ele>258.20001220703</ele>
        <time>2017-06-07T12:57:14Z</time>
      </trkpt>
      <trkpt lat="43.43571" lon="6.0377">
        <ele>258.20001220703</ele>
        <time>2017-06-07T12:57:18Z</time>
      </trkpt>
      <trkpt lat="43.43571" lon="6.0377">
        <ele>259</ele>
        <time>2017-06-07T12:57:47Z</time>
      </trkpt>
      <trkpt lat="43.43571" lon="6.03769">
        <ele>258.39999389648</ele>
        <time>2017-06-07T12:57:55Z</time>
      </trkpt>
      <trkpt lat="43.43571" lon="6.03769">
        <ele>257.60000610352</ele>
        <time>2017-06-07T12:58:21Z</time>
      </trkpt>
      <trkpt lat="43.43571" lon="6.03769">
        <ele>258</ele>
        <time>2017-06-07T12:58:27Z</time>
      </trkpt>
      <trkpt lat="43.43571" lon="6.0377">
        <ele>258</ele>
        <time>2017-06-07T12:58:28Z</time>
      </trkpt>
      <trkpt lat="43.43571" lon="6.03769">
        <ele>258.13333129883</ele>
        <time>2017-06-07T12:58:29Z</time>
      </trkpt>
      <trkpt lat="43.43571" lon="6.03769">
        <ele>258.44000244141</ele>
        <time>2017-06-07T12:58:34Z</time>
      </trkpt>
      <trkpt lat="43.43571" lon="6.03769">
        <ele>258.69998168945</ele>
        <time>2017-06-07T12:59:07Z</time>
      </trkpt>
      <trkpt lat="43.43571" lon="6.03769">
        <ele>258.79998779297</ele>
        <time>2017-06-07T12:59:21Z</time>
      </trkpt>
      <trkpt lat="43.43571" lon="6.03769">
        <ele>259.39999389648</ele>
        <time>2017-06-07T12:59:39Z</time>
      </trkpt>
      <trkpt lat="43.43571" lon="6.03769">
        <ele>259.73043823242</ele>
        <time>2017-06-07T13:00:03Z</time>
      </trkpt>
      <trkpt lat="43.43571" lon="6.03769">
        <ele>259.79998779297</ele>
        <time>2017-06-07T13:00:07Z</time>
      </trkpt>
      <trkpt lat="43.43571" lon="6.03769">
        <ele>259.79998779297</ele>
        <time>2017-06-07T13:00:09Z</time>
      </trkpt>
      <trkpt lat="43.43571" lon="6.03769">
        <ele>260</ele>
        <time>2017-06-07T13:00:11Z</time>
      </trkpt>
      <trkpt lat="43.43571" lon="6.03769">
        <ele>260</ele>
        <time>2017-06-07T13:00:13Z</time>
      </trkpt>
      <trkpt lat="43.43571" lon="6.03769">
        <ele>259.55999755859</ele>
        <time>2017-06-07T13:00:18Z</time>
      </trkpt>
      <trkpt lat="43.43571" lon="6.03769">
        <ele>259.20001220703</ele>
        <time>2017-06-07T13:00:26Z</time>
      </trkpt>
      <trkpt lat="43.43571" lon="6.03769">
        <ele>259.60000610352</ele>
        <time>2017-06-07T13:00:30Z</time>
      </trkpt>
      <trkpt lat="43.43571" lon="6.03768">
        <ele>259.60000610352</ele>
        <time>2017-06-07T13:00:32Z</time>
      </trkpt>
      <trkpt lat="43.43572" lon="6.03768">
        <ele>259.60000610352</ele>
        <time>2017-06-07T13:00:33Z</time>
      </trkpt>
      <trkpt lat="43.43573" lon="6.03767">
        <ele>259.60000610352</ele>
        <time>2017-06-07T13:00:35Z</time>
      </trkpt>
      <trkpt lat="43.43573" lon="6.03766">
        <ele>259.39999389648</ele>
        <time>2017-06-07T13:00:36Z</time>
      </trkpt>
      <trkpt lat="43.43573" lon="6.03765">
        <ele>259.39999389648</ele>
        <time>2017-06-07T13:00:37Z</time>
      </trkpt>
      <trkpt lat="43.43573" lon="6.03763">
        <ele>259.20001220703</ele>
        <time>2017-06-07T13:00:38Z</time>
      </trkpt>
      <trkpt lat="43.43572" lon="6.03761">
        <ele>259</ele>
        <time>2017-06-07T13:00:39Z</time>
      </trkpt>
      <trkpt lat="43.43571" lon="6.03758">
        <ele>259</ele>
        <time>2017-06-07T13:00:40Z</time>
      </trkpt>
      <trkpt lat="43.43571" lon="6.03755">
        <ele>258.77777099609</ele>
        <time>2017-06-07T13:00:41Z</time>
      </trkpt>
      <trkpt lat="43.43571" lon="6.03751">
        <ele>258.55554199219</ele>
        <time>2017-06-07T13:00:42Z</time>
      </trkpt>
      <trkpt lat="43.43572" lon="6.03747">
        <ele>258.33334350586</ele>
        <time>2017-06-07T13:00:43Z</time>
      </trkpt>
      <trkpt lat="43.43571" lon="6.03742">
        <ele>258.11111450195</ele>
        <time>2017-06-07T13:00:44Z</time>
      </trkpt>
      <trkpt lat="43.43571" lon="6.03738">
        <ele>257.88888549805</ele>
        <time>2017-06-07T13:00:45Z</time>
      </trkpt>
      <trkpt lat="43.43571" lon="6.03727">
        <ele>257.44445800781</ele>
        <time>2017-06-07T13:00:47Z</time>
      </trkpt>
      <trkpt lat="43.4357" lon="6.03722">
        <ele>257.22222900391</ele>
        <time>2017-06-07T13:00:48Z</time>
      </trkpt>
      <trkpt lat="43.4357" lon="6.03711">
        <ele>257</ele>
        <time>2017-06-07T13:00:50Z</time>
      </trkpt>
      <trkpt lat="43.4357" lon="6.03698">
        <ele>256.73333740234</ele>
        <time>2017-06-07T13:00:52Z</time>
      </trkpt>
      <trkpt lat="43.43571" lon="6.03691">
        <ele>256.60000610352</ele>
        <time>2017-06-07T13:00:53Z</time>
      </trkpt>
      <trkpt lat="43.43572" lon="6.03684">
        <ele>256.60000610352</ele>
        <time>2017-06-07T13:00:54Z</time>
      </trkpt>
      <trkpt lat="43.43574" lon="6.03677">
        <ele>256.5</ele>
        <time>2017-06-07T13:00:55Z</time>
      </trkpt>
      <trkpt lat="43.43575" lon="6.0367">
        <ele>256.39999389648</ele>
        <time>2017-06-07T13:00:56Z</time>
      </trkpt>
      <trkpt lat="43.43576" lon="6.03655">
        <ele>256.60000610352</ele>
        <time>2017-06-07T13:00:59Z</time>
      </trkpt>
      <trkpt lat="43.43578" lon="6.0365">
        <ele>256.60000610352</ele>
        <time>2017-06-07T13:01:00Z</time>
      </trkpt>
      <trkpt lat="43.43579" lon="6.03645">
        <ele>256.60000610352</ele>
        <time>2017-06-07T13:01:01Z</time>
      </trkpt>
      <trkpt lat="43.43581" lon="6.03634">
        <ele>256.60000610352</ele>
        <time>2017-06-07T13:01:03Z</time>
      </trkpt>
      <trkpt lat="43.43582" lon="6.03627">
        <ele>256.60000610352</ele>
        <time>2017-06-07T13:01:04Z</time>
      </trkpt>
      <trkpt lat="43.43582" lon="6.03621">
        <ele>256.60000610352</ele>
        <time>2017-06-07T13:01:05Z</time>
      </trkpt>
      <trkpt lat="43.43581" lon="6.03615">
        <ele>256.20001220703</ele>
        <time>2017-06-07T13:01:06Z</time>
      </trkpt>
      <trkpt lat="43.43581" lon="6.03609">
        <ele>256.20001220703</ele>
        <time>2017-06-07T13:01:07Z</time>
      </trkpt>
      <trkpt lat="43.43581" lon="6.03603">
        <ele>256.39999389648</ele>
        <time>2017-06-07T13:01:08Z</time>
      </trkpt>
      <trkpt lat="43.43582" lon="6.0359">
        <ele>256.46667480469</ele>
        <time>2017-06-07T13:01:10Z</time>
      </trkpt>
      <trkpt lat="43.43582" lon="6.03584">
        <ele>256.53332519531</ele>
        <time>2017-06-07T13:01:11Z</time>
      </trkpt>
      <trkpt lat="43.43583" lon="6.03579">
        <ele>256.60000610352</ele>
        <time>2017-06-07T13:01:12Z</time>
      </trkpt>
      <trkpt lat="43.43585" lon="6.03574">
        <ele>256.60000610352</ele>
        <time>2017-06-07T13:01:13Z</time>
      </trkpt>
      <trkpt lat="43.43587" lon="6.0357">
        <ele>256.39999389648</ele>
        <time>2017-06-07T13:01:14Z</time>
      </trkpt>
      <trkpt lat="43.43589" lon="6.03566">
        <ele>256.60000610352</ele>
        <time>2017-06-07T13:01:15Z</time>
      </trkpt>
      <trkpt lat="43.4359" lon="6.03562">
        <ele>256.79998779297</ele>
        <time>2017-06-07T13:01:16Z</time>
      </trkpt>
      <trkpt lat="43.43592" lon="6.03559">
        <ele>257</ele>
        <time>2017-06-07T13:01:17Z</time>
      </trkpt>
      <trkpt lat="43.43595" lon="6.03555">
        <ele>257</ele>
        <time>2017-06-07T13:01:18Z</time>
      </trkpt>
      <trkpt lat="43.436" lon="6.03548">
        <ele>257.04998779297</ele>
        <time>2017-06-07T13:01:20Z</time>
      </trkpt>
      <trkpt lat="43.43602" lon="6.03544">
        <ele>257.07501220703</ele>
        <time>2017-06-07T13:01:21Z</time>
      </trkpt>
      <trkpt lat="43.43605" lon="6.03535">
        <ele>257.125</ele>
        <time>2017-06-07T13:01:23Z</time>
      </trkpt>
      <trkpt lat="43.43607" lon="6.0353">
        <ele>257.15002441406</ele>
        <time>2017-06-07T13:01:24Z</time>
      </trkpt>
      <trkpt lat="43.43613" lon="6.03517">
        <ele>257</ele>
        <time>2017-06-07T13:01:27Z</time>
      </trkpt>
      <trkpt lat="43.43615" lon="6.03496">
        <ele>257.20001220703</ele>
        <time>2017-06-07T13:01:31Z</time>
      </trkpt>
      <trkpt lat="43.43615" lon="6.03491">
        <ele>257.39999389648</ele>
        <time>2017-06-07T13:01:32Z</time>
      </trkpt>
      <trkpt lat="43.43616" lon="6.03486">
        <ele>257.60000610352</ele>
        <time>2017-06-07T13:01:33Z</time>
      </trkpt>
      <trkpt lat="43.43619" lon="6.03478">
        <ele>258</ele>
        <time>2017-06-07T13:01:35Z</time>
      </trkpt>
      <trkpt lat="43.43621" lon="6.03475">
        <ele>258</ele>
        <time>2017-06-07T13:01:36Z</time>
      </trkpt>
      <trkpt lat="43.43622" lon="6.03471">
        <ele>258.23999023438</ele>
        <time>2017-06-07T13:01:37Z</time>
      </trkpt>
      <trkpt lat="43.43623" lon="6.03468">
        <ele>258.48001098633</ele>
        <time>2017-06-07T13:01:38Z</time>
      </trkpt>
      <trkpt lat="43.43624" lon="6.03463">
        <ele>258.7200012207</ele>
        <time>2017-06-07T13:01:39Z</time>
      </trkpt>
      <trkpt lat="43.43626" lon="6.03459">
        <ele>258.96002197266</ele>
        <time>2017-06-07T13:01:40Z</time>
      </trkpt>
      <trkpt lat="43.43627" lon="6.03455">
        <ele>259.20001220703</ele>
        <time>2017-06-07T13:01:41Z</time>
      </trkpt>
      <trkpt lat="43.43628" lon="6.0345">
        <ele>259.20001220703</ele>
        <time>2017-06-07T13:01:42Z</time>
      </trkpt>
      <trkpt lat="43.43628" lon="6.03445">
        <ele>259.39999389648</ele>
        <time>2017-06-07T13:01:43Z</time>
      </trkpt>
      <trkpt lat="43.43628" lon="6.0344">
        <ele>259.39999389648</ele>
        <time>2017-06-07T13:01:44Z</time>
      </trkpt>
      <trkpt lat="43.43628" lon="6.03436">
        <ele>259.60000610352</ele>
        <time>2017-06-07T13:01:45Z</time>
      </trkpt>
      <trkpt lat="43.43629" lon="6.03431">
        <ele>259.79998779297</ele>
        <time>2017-06-07T13:01:46Z</time>
      </trkpt>
      <trkpt lat="43.43629" lon="6.03427">
        <ele>260</ele>
        <time>2017-06-07T13:01:47Z</time>
      </trkpt>
      <trkpt lat="43.43629" lon="6.03423">
        <ele>260</ele>
        <time>2017-06-07T13:01:48Z</time>
      </trkpt>
      <trkpt lat="43.43628" lon="6.03419">
        <ele>260.20001220703</ele>
        <time>2017-06-07T13:01:49Z</time>
      </trkpt>
      <trkpt lat="43.43628" lon="6.03415">
        <ele>260.20001220703</ele>
        <time>2017-06-07T13:01:50Z</time>
      </trkpt>
      <trkpt lat="43.43628" lon="6.0341">
        <ele>260.20001220703</ele>
        <time>2017-06-07T13:01:51Z</time>
      </trkpt>
      <trkpt lat="43.43628" lon="6.03405">
        <ele>260.20001220703</ele>
        <time>2017-06-07T13:01:52Z</time>
      </trkpt>
      <trkpt lat="43.43628" lon="6.03401">
        <ele>260.20001220703</ele>
        <time>2017-06-07T13:01:53Z</time>
      </trkpt>
      <trkpt lat="43.43628" lon="6.03395">
        <ele>260</ele>
        <time>2017-06-07T13:01:54Z</time>
      </trkpt>
      <trkpt lat="43.4363" lon="6.0339">
        <ele>259.79998779297</ele>
        <time>2017-06-07T13:01:55Z</time>
      </trkpt>
      <trkpt lat="43.43633" lon="6.03386">
        <ele>259.39999389648</ele>
        <time>2017-06-07T13:01:56Z</time>
      </trkpt>
      <trkpt lat="43.43636" lon="6.03382">
        <ele>259.20001220703</ele>
        <time>2017-06-07T13:01:57Z</time>
      </trkpt>
      <trkpt lat="43.43638" lon="6.03378">
        <ele>258.79998779297</ele>
        <time>2017-06-07T13:01:58Z</time>
      </trkpt>
      <trkpt lat="43.4364" lon="6.03375">
        <ele>258.60000610352</ele>
        <time>2017-06-07T13:01:59Z</time>
      </trkpt>
      <trkpt lat="43.43642" lon="6.03371">
        <ele>258.39999389648</ele>
        <time>2017-06-07T13:02:00Z</time>
      </trkpt>
      <trkpt lat="43.43643" lon="6.03368">
        <ele>258.60000610352</ele>
        <time>2017-06-07T13:02:01Z</time>
      </trkpt>
      <trkpt lat="43.43645" lon="6.03364">
        <ele>259</ele>
        <time>2017-06-07T13:02:02Z</time>
      </trkpt>
      <trkpt lat="43.43647" lon="6.0336">
        <ele>259.20001220703</ele>
        <time>2017-06-07T13:02:03Z</time>
      </trkpt>
      <trkpt lat="43.43649" lon="6.03356">
        <ele>259.39999389648</ele>
        <time>2017-06-07T13:02:04Z</time>
      </trkpt>
      <trkpt lat="43.43652" lon="6.03351">
        <ele>259.60000610352</ele>
        <time>2017-06-07T13:02:05Z</time>
      </trkpt>
      <trkpt lat="43.43656" lon="6.03343">
        <ele>259.60000610352</ele>
        <time>2017-06-07T13:02:07Z</time>
      </trkpt>
      <trkpt lat="43.4366" lon="6.03335">
        <ele>259.60000610352</ele>
        <time>2017-06-07T13:02:09Z</time>
      </trkpt>
      <trkpt lat="43.43663" lon="6.03331">
        <ele>259.20001220703</ele>
        <time>2017-06-07T13:02:10Z</time>
      </trkpt>
      <trkpt lat="43.43665" lon="6.03326">
        <ele>258.79998779297</ele>
        <time>2017-06-07T13:02:11Z</time>
      </trkpt>
      <trkpt lat="43.43665" lon="6.0332">
        <ele>258.60000610352</ele>
        <time>2017-06-07T13:02:12Z</time>
      </trkpt>
      <trkpt lat="43.43665" lon="6.03315">
        <ele>258.79998779297</ele>
        <time>2017-06-07T13:02:13Z</time>
      </trkpt>
      <trkpt lat="43.43666" lon="6.03311">
        <ele>258.79998779297</ele>
        <time>2017-06-07T13:02:14Z</time>
      </trkpt>
      <trkpt lat="43.43667" lon="6.03308">
        <ele>258.91998291016</ele>
        <time>2017-06-07T13:02:15Z</time>
      </trkpt>
      <trkpt lat="43.43669" lon="6.03304">
        <ele>259.03997802734</ele>
        <time>2017-06-07T13:02:16Z</time>
      </trkpt>
      <trkpt lat="43.43671" lon="6.03302">
        <ele>259.16000366211</ele>
        <time>2017-06-07T13:02:17Z</time>
      </trkpt>
      <trkpt lat="43.43678" lon="6.03295">
        <ele>259.51998901367</ele>
        <time>2017-06-07T13:02:20Z</time>
      </trkpt>
      <trkpt lat="43.43679" lon="6.03292">
        <ele>259.63998413086</ele>
        <time>2017-06-07T13:02:21Z</time>
      </trkpt>
      <trkpt lat="43.43681" lon="6.03289">
        <ele>259.76000976562</ele>
        <time>2017-06-07T13:02:22Z</time>
      </trkpt>
      <trkpt lat="43.43684" lon="6.03282">
        <ele>260</ele>
        <time>2017-06-07T13:02:24Z</time>
      </trkpt>
      <trkpt lat="43.43686" lon="6.03278">
        <ele>260</ele>
        <time>2017-06-07T13:02:25Z</time>
      </trkpt>
      <trkpt lat="43.43687" lon="6.03273">
        <ele>260.20001220703</ele>
        <time>2017-06-07T13:02:26Z</time>
      </trkpt>
      <trkpt lat="43.43689" lon="6.03269">
        <ele>260.20001220703</ele>
        <time>2017-06-07T13:02:27Z</time>
      </trkpt>
      <trkpt lat="43.43689" lon="6.03265">
        <ele>260</ele>
        <time>2017-06-07T13:02:28Z</time>
      </trkpt>
      <trkpt lat="43.4369" lon="6.03261">
        <ele>260</ele>
        <time>2017-06-07T13:02:29Z</time>
      </trkpt>
      <trkpt lat="43.4369" lon="6.03258">
        <ele>259.97143554688</ele>
        <time>2017-06-07T13:02:30Z</time>
      </trkpt>
      <trkpt lat="43.4369" lon="6.03255">
        <ele>259.94284057617</ele>
        <time>2017-06-07T13:02:31Z</time>
      </trkpt>
      <trkpt lat="43.4369" lon="6.03252">
        <ele>259.91427612305</ele>
        <time>2017-06-07T13:02:32Z</time>
      </trkpt>
      <trkpt lat="43.4369" lon="6.0325">
        <ele>259.88571166992</ele>
        <time>2017-06-07T13:02:33Z</time>
      </trkpt>
      <trkpt lat="43.4369" lon="6.03249">
        <ele>259.8571472168</ele>
        <time>2017-06-07T13:02:34Z</time>
      </trkpt>
      <trkpt lat="43.4369" lon="6.03249">
        <ele>259.79998779297</ele>
        <time>2017-06-07T13:02:36Z</time>
      </trkpt>
      <trkpt lat="43.4369" lon="6.03249">
        <ele>259.79998779297</ele>
        <time>2017-06-07T13:02:37Z</time>
      </trkpt>
      <trkpt lat="43.4369" lon="6.03249">
        <ele>260</ele>
        <time>2017-06-07T13:02:38Z</time>
      </trkpt>
      <trkpt lat="43.4369" lon="6.03249">
        <ele>260</ele>
        <time>2017-06-07T13:02:39Z</time>
      </trkpt>
      <trkpt lat="43.4369" lon="6.03249">
        <ele>260</ele>
        <time>2017-06-07T13:02:40Z</time>
      </trkpt>
      <trkpt lat="43.4369" lon="6.03249">
        <ele>260</ele>
        <time>2017-06-07T13:02:41Z</time>
      </trkpt>
      <trkpt lat="43.4369" lon="6.03249">
        <ele>259.79998779297</ele>
        <time>2017-06-07T13:02:45Z</time>
      </trkpt>
      <trkpt lat="43.4369" lon="6.03249">
        <ele>259.79998779297</ele>
        <time>2017-06-07T13:02:49Z</time>
      </trkpt>
      <trkpt lat="43.4369" lon="6.03249">
        <ele>259.60000610352</ele>
        <time>2017-06-07T13:02:52Z</time>
      </trkpt>
      <trkpt lat="43.4369" lon="6.03249">
        <ele>259.39999389648</ele>
        <time>2017-06-07T13:02:54Z</time>
      </trkpt>
      <trkpt lat="43.4369" lon="6.03249">
        <ele>259.29998779297</ele>
        <time>2017-06-07T13:02:56Z</time>
      </trkpt>
      <trkpt lat="43.4369" lon="6.03249">
        <ele>259.20001220703</ele>
        <time>2017-06-07T13:02:57Z</time>
      </trkpt>
      <trkpt lat="43.4369" lon="6.03249">
        <ele>259.39999389648</ele>
        <time>2017-06-07T13:02:59Z</time>
      </trkpt>
      <trkpt lat="43.4369" lon="6.03249">
        <ele>259.60000610352</ele>
        <time>2017-06-07T13:03:00Z</time>
      </trkpt>
      <trkpt lat="43.4369" lon="6.03249">
        <ele>259.79998779297</ele>
        <time>2017-06-07T13:03:01Z</time>
      </trkpt>
      <trkpt lat="43.4369" lon="6.03249">
        <ele>260.20001220703</ele>
        <time>2017-06-07T13:03:03Z</time>
      </trkpt>
      <trkpt lat="43.4369" lon="6.03248">
        <ele>260.20001220703</ele>
        <time>2017-06-07T13:03:05Z</time>
      </trkpt>
      <trkpt lat="43.4369" lon="6.03248">
        <ele>260.20001220703</ele>
        <time>2017-06-07T13:03:07Z</time>
      </trkpt>
      <trkpt lat="43.4369" lon="6.03248">
        <ele>260.20001220703</ele>
        <time>2017-06-07T13:03:08Z</time>
      </trkpt>
      <trkpt lat="43.4369" lon="6.03247">
        <ele>260</ele>
        <time>2017-06-07T13:03:09Z</time>
      </trkpt>
      <trkpt lat="43.4369" lon="6.03245">
        <ele>260</ele>
        <time>2017-06-07T13:03:10Z</time>
      </trkpt>
      <trkpt lat="43.4369" lon="6.03243">
        <ele>259.97500610352</ele>
        <time>2017-06-07T13:03:11Z</time>
      </trkpt>
      <trkpt lat="43.4369" lon="6.0324">
        <ele>259.95001220703</ele>
        <time>2017-06-07T13:03:12Z</time>
      </trkpt>
      <trkpt lat="43.43688" lon="6.03234">
        <ele>259.89999389648</ele>
        <time>2017-06-07T13:03:14Z</time>
      </trkpt>
      <trkpt lat="43.43687" lon="6.03231">
        <ele>259.875</ele>
        <time>2017-06-07T13:03:15Z</time>
      </trkpt>
      <trkpt lat="43.43687" lon="6.03227">
        <ele>259.84997558594</ele>
        <time>2017-06-07T13:03:16Z</time>
      </trkpt>
      <trkpt lat="43.43688" lon="6.03219">
        <ele>259.79998779297</ele>
        <time>2017-06-07T13:03:18Z</time>
      </trkpt>
      <trkpt lat="43.43689" lon="6.03215">
        <ele>260</ele>
        <time>2017-06-07T13:03:19Z</time>
      </trkpt>
      <trkpt lat="43.4369" lon="6.03211">
        <ele>260.20001220703</ele>
        <time>2017-06-07T13:03:20Z</time>
      </trkpt>
      <trkpt lat="43.43691" lon="6.03207">
        <ele>260.39999389648</ele>
        <time>2017-06-07T13:03:21Z</time>
      </trkpt>
      <trkpt lat="43.43693" lon="6.03199">
        <ele>260.79998779297</ele>
        <time>2017-06-07T13:03:23Z</time>
      </trkpt>
      <trkpt lat="43.43694" lon="6.03196">
        <ele>261</ele>
        <time>2017-06-07T13:03:24Z</time>
      </trkpt>
      <trkpt lat="43.43696" lon="6.0319">
        <ele>261.39999389648</ele>
        <time>2017-06-07T13:03:26Z</time>
      </trkpt>
      <trkpt lat="43.43696" lon="6.03186">
        <ele>261.39999389648</ele>
        <time>2017-06-07T13:03:27Z</time>
      </trkpt>
      <trkpt lat="43.43695" lon="6.03183">
        <ele>261.20001220703</ele>
        <time>2017-06-07T13:03:28Z</time>
      </trkpt>
      <trkpt lat="43.43694" lon="6.03179">
        <ele>261</ele>
        <time>2017-06-07T13:03:29Z</time>
      </trkpt>
      <trkpt lat="43.43694" lon="6.03175">
        <ele>261</ele>
        <time>2017-06-07T13:03:30Z</time>
      </trkpt>
      <trkpt lat="43.43694" lon="6.03171">
        <ele>260.79998779297</ele>
        <time>2017-06-07T13:03:31Z</time>
      </trkpt>
      <trkpt lat="43.43695" lon="6.03164">
        <ele>261</ele>
        <time>2017-06-07T13:03:33Z</time>
      </trkpt>
      <trkpt lat="43.43695" lon="6.03159">
        <ele>261</ele>
        <time>2017-06-07T13:03:34Z</time>
      </trkpt>
      <trkpt lat="43.43695" lon="6.03155">
        <ele>261.20001220703</ele>
        <time>2017-06-07T13:03:35Z</time>
      </trkpt>
      <trkpt lat="43.43695" lon="6.0315">
        <ele>261.20001220703</ele>
        <time>2017-06-07T13:03:36Z</time>
      </trkpt>
      <trkpt lat="43.43694" lon="6.03145">
        <ele>261.20001220703</ele>
        <time>2017-06-07T13:03:37Z</time>
      </trkpt>
      <trkpt lat="43.43694" lon="6.03141">
        <ele>260.79998779297</ele>
        <time>2017-06-07T13:03:38Z</time>
      </trkpt>
      <trkpt lat="43.43693" lon="6.03131">
        <ele>260.20001220703</ele>
        <time>2017-06-07T13:03:40Z</time>
      </trkpt>
      <trkpt lat="43.43693" lon="6.03127">
        <ele>260.20001220703</ele>
        <time>2017-06-07T13:03:41Z</time>
      </trkpt>
      <trkpt lat="43.43693" lon="6.03122">
        <ele>260</ele>
        <time>2017-06-07T13:03:42Z</time>
      </trkpt>
      <trkpt lat="43.43693" lon="6.03117">
        <ele>259.79998779297</ele>
        <time>2017-06-07T13:03:43Z</time>
      </trkpt>
      <trkpt lat="43.43696" lon="6.03102">
        <ele>259.79998779297</ele>
        <time>2017-06-07T13:03:46Z</time>
      </trkpt>
      <trkpt lat="43.43698" lon="6.03086">
        <ele>260</ele>
        <time>2017-06-07T13:03:49Z</time>
      </trkpt>
      <trkpt lat="43.43699" lon="6.03081">
        <ele>260</ele>
        <time>2017-06-07T13:03:50Z</time>
      </trkpt>
      <trkpt lat="43.43707" lon="6.03069">
        <ele>259.79998779297</ele>
        <time>2017-06-07T13:03:53Z</time>
      </trkpt>
      <trkpt lat="43.4371" lon="6.03065">
        <ele>259.60000610352</ele>
        <time>2017-06-07T13:03:54Z</time>
      </trkpt>
      <trkpt lat="43.43714" lon="6.03062">
        <ele>259.39999389648</ele>
        <time>2017-06-07T13:03:55Z</time>
      </trkpt>
      <trkpt lat="43.43718" lon="6.0306">
        <ele>259.60000610352</ele>
        <time>2017-06-07T13:03:56Z</time>
      </trkpt>
      <trkpt lat="43.43721" lon="6.03057">
        <ele>259.60000610352</ele>
        <time>2017-06-07T13:03:57Z</time>
      </trkpt>
      <trkpt lat="43.43725" lon="6.03055">
        <ele>259.90002441406</ele>
        <time>2017-06-07T13:03:58Z</time>
      </trkpt>
      <trkpt lat="43.43729" lon="6.03052">
        <ele>260.20001220703</ele>
        <time>2017-06-07T13:03:59Z</time>
      </trkpt>
      <trkpt lat="43.43737" lon="6.03046">
        <ele>260</ele>
        <time>2017-06-07T13:04:01Z</time>
      </trkpt>
      <trkpt lat="43.43742" lon="6.03044">
        <ele>259</ele>
        <time>2017-06-07T13:04:02Z</time>
      </trkpt>
      <trkpt lat="43.43748" lon="6.03041">
        <ele>258.20001220703</ele>
        <time>2017-06-07T13:04:03Z</time>
      </trkpt>
      <trkpt lat="43.43753" lon="6.0304">
        <ele>257.79998779297</ele>
        <time>2017-06-07T13:04:04Z</time>
      </trkpt>
      <trkpt lat="43.43757" lon="6.03038">
        <ele>257.39999389648</ele>
        <time>2017-06-07T13:04:05Z</time>
      </trkpt>
      <trkpt lat="43.43761" lon="6.03035">
        <ele>257.20001220703</ele>
        <time>2017-06-07T13:04:06Z</time>
      </trkpt>
      <trkpt lat="43.43763" lon="6.0303">
        <ele>257</ele>
        <time>2017-06-07T13:04:07Z</time>
      </trkpt>
      <trkpt lat="43.43765" lon="6.03025">
        <ele>256.79998779297</ele>
        <time>2017-06-07T13:04:08Z</time>
      </trkpt>
      <trkpt lat="43.43766" lon="6.0302">
        <ele>256.79998779297</ele>
        <time>2017-06-07T13:04:09Z</time>
      </trkpt>
      <trkpt lat="43.43769" lon="6.03015">
        <ele>256.79998779297</ele>
        <time>2017-06-07T13:04:10Z</time>
      </trkpt>
      <trkpt lat="43.43771" lon="6.03012">
        <ele>256.79998779297</ele>
        <time>2017-06-07T13:04:11Z</time>
      </trkpt>
      <trkpt lat="43.43776" lon="6.03005">
        <ele>257</ele>
        <time>2017-06-07T13:04:13Z</time>
      </trkpt>
      <trkpt lat="43.4378" lon="6.02997">
        <ele>257.03076171875</ele>
        <time>2017-06-07T13:04:15Z</time>
      </trkpt>
      <trkpt lat="43.43782" lon="6.02993">
        <ele>257.04614257812</ele>
        <time>2017-06-07T13:04:16Z</time>
      </trkpt>
      <trkpt lat="43.43784" lon="6.0299">
        <ele>257.06155395508</ele>
        <time>2017-06-07T13:04:17Z</time>
      </trkpt>
      <trkpt lat="43.43784" lon="6.02986">
        <ele>257.07693481445</ele>
        <time>2017-06-07T13:04:18Z</time>
      </trkpt>
      <trkpt lat="43.43785" lon="6.02984">
        <ele>257.09231567383</ele>
        <time>2017-06-07T13:04:19Z</time>
      </trkpt>
      <trkpt lat="43.43785" lon="6.02983">
        <ele>257.1076965332</ele>
        <time>2017-06-07T13:04:20Z</time>
      </trkpt>
      <trkpt lat="43.43785" lon="6.02982">
        <ele>257.12307739258</ele>
        <time>2017-06-07T13:04:21Z</time>
      </trkpt>
      <trkpt lat="43.43784" lon="6.02983">
        <ele>257.13845825195</ele>
        <time>2017-06-07T13:04:22Z</time>
      </trkpt>
      <trkpt lat="43.43784" lon="6.02982">
        <ele>257.16925048828</ele>
        <time>2017-06-07T13:04:24Z</time>
      </trkpt>
      <trkpt lat="43.43784" lon="6.02982">
        <ele>257.18463134766</ele>
        <time>2017-06-07T13:04:25Z</time>
      </trkpt>
      <trkpt lat="43.43784" lon="6.02982">
        <ele>257.20001220703</ele>
        <time>2017-06-07T13:04:26Z</time>
      </trkpt>
      <trkpt lat="43.43784" lon="6.02982">
        <ele>257.20001220703</ele>
        <time>2017-06-07T13:04:28Z</time>
      </trkpt>
      <trkpt lat="43.43784" lon="6.02982">
        <ele>257.39999389648</ele>
        <time>2017-06-07T13:04:31Z</time>
      </trkpt>
      <trkpt lat="43.43784" lon="6.02982">
        <ele>257.20001220703</ele>
        <time>2017-06-07T13:04:33Z</time>
      </trkpt>
      <trkpt lat="43.43784" lon="6.02982">
        <ele>257.39999389648</ele>
        <time>2017-06-07T13:04:35Z</time>
      </trkpt>
      <trkpt lat="43.43784" lon="6.02982">
        <ele>257.53332519531</ele>
        <time>2017-06-07T13:04:38Z</time>
      </trkpt>
      <trkpt lat="43.43784" lon="6.02982">
        <ele>257.60000610352</ele>
        <time>2017-06-07T13:04:39Z</time>
      </trkpt>
      <trkpt lat="43.43784" lon="6.02982">
        <ele>257.60000610352</ele>
        <time>2017-06-07T13:04:40Z</time>
      </trkpt>
      <trkpt lat="43.43784" lon="6.02982">
        <ele>257.60000610352</ele>
        <time>2017-06-07T13:04:41Z</time>
      </trkpt>
      <trkpt lat="43.43784" lon="6.02982">
        <ele>257.20001220703</ele>
        <time>2017-06-07T13:04:46Z</time>
      </trkpt>
      <trkpt lat="43.43784" lon="6.02982">
        <ele>257.39999389648</ele>
        <time>2017-06-07T13:04:56Z</time>
      </trkpt>
      <trkpt lat="43.43784" lon="6.02982">
        <ele>257.0666809082</ele>
        <time>2017-06-07T13:05:03Z</time>
      </trkpt>
      <trkpt lat="43.43784" lon="6.02982">
        <ele>257</ele>
        <time>2017-06-07T13:05:05Z</time>
      </trkpt>
      <trkpt lat="43.43784" lon="6.02982">
        <ele>256.89999389648</ele>
        <time>2017-06-07T13:05:07Z</time>
      </trkpt>
      <trkpt lat="43.43784" lon="6.02982">
        <ele>256.79998779297</ele>
        <time>2017-06-07T13:05:09Z</time>
      </trkpt>
      <trkpt lat="43.43784" lon="6.02982">
        <ele>256.79998779297</ele>
        <time>2017-06-07T13:05:10Z</time>
      </trkpt>
      <trkpt lat="43.43785" lon="6.0298">
        <ele>256.79998779297</ele>
        <time>2017-06-07T13:05:11Z</time>
      </trkpt>
      <trkpt lat="43.43785" lon="6.02978">
        <ele>256.79998779297</ele>
        <time>2017-06-07T13:05:12Z</time>
      </trkpt>
      <trkpt lat="43.43785" lon="6.02975">
        <ele>256.79998779297</ele>
        <time>2017-06-07T13:05:13Z</time>
      </trkpt>
      <trkpt lat="43.43785" lon="6.02972">
        <ele>256.79998779297</ele>
        <time>2017-06-07T13:05:14Z</time>
      </trkpt>
      <trkpt lat="43.43785" lon="6.02969">
        <ele>256.79998779297</ele>
        <time>2017-06-07T13:05:15Z</time>
      </trkpt>
      <trkpt lat="43.43785" lon="6.02965">
        <ele>257</ele>
        <time>2017-06-07T13:05:16Z</time>
      </trkpt>
      <trkpt lat="43.43786" lon="6.02962">
        <ele>257.20001220703</ele>
        <time>2017-06-07T13:05:17Z</time>
      </trkpt>
      <trkpt lat="43.43787" lon="6.02958">
        <ele>257.20001220703</ele>
        <time>2017-06-07T13:05:18Z</time>
      </trkpt>
      <trkpt lat="43.43788" lon="6.02955">
        <ele>257.20001220703</ele>
        <time>2017-06-07T13:05:19Z</time>
      </trkpt>
      <trkpt lat="43.43789" lon="6.02952">
        <ele>257.20001220703</ele>
        <time>2017-06-07T13:05:20Z</time>
      </trkpt>
      <trkpt lat="43.43791" lon="6.0295">
        <ele>257</ele>
        <time>2017-06-07T13:05:21Z</time>
      </trkpt>
      <trkpt lat="43.43792" lon="6.02947">
        <ele>257</ele>
        <time>2017-06-07T13:05:22Z</time>
      </trkpt>
      <trkpt lat="43.43793" lon="6.02944">
        <ele>256.79998779297</ele>
        <time>2017-06-07T13:05:23Z</time>
      </trkpt>
      <trkpt lat="43.43796" lon="6.02934">
        <ele>256.79998779297</ele>
        <time>2017-06-07T13:05:26Z</time>
      </trkpt>
      <trkpt lat="43.43796" lon="6.0293">
        <ele>256.79998779297</ele>
        <time>2017-06-07T13:05:27Z</time>
      </trkpt>
      <trkpt lat="43.43796" lon="6.02926">
        <ele>256.79998779297</ele>
        <time>2017-06-07T13:05:28Z</time>
      </trkpt>
      <trkpt lat="43.43796" lon="6.02922">
        <ele>257.20001220703</ele>
        <time>2017-06-07T13:05:29Z</time>
      </trkpt>
      <trkpt lat="43.43795" lon="6.02915">
        <ele>257.60000610352</ele>
        <time>2017-06-07T13:05:31Z</time>
      </trkpt>
      <trkpt lat="43.43794" lon="6.02911">
        <ele>257.79998779297</ele>
        <time>2017-06-07T13:05:32Z</time>
      </trkpt>
      <trkpt lat="43.43793" lon="6.02908">
        <ele>258</ele>
        <time>2017-06-07T13:05:33Z</time>
      </trkpt>
      <trkpt lat="43.43793" lon="6.02901">
        <ele>258.60000610352</ele>
        <time>2017-06-07T13:05:35Z</time>
      </trkpt>
      <trkpt lat="43.43794" lon="6.02897">
        <ele>258.79998779297</ele>
        <time>2017-06-07T13:05:36Z</time>
      </trkpt>
      <trkpt lat="43.43794" lon="6.02893">
        <ele>259</ele>
        <time>2017-06-07T13:05:37Z</time>
      </trkpt>
      <trkpt lat="43.43795" lon="6.02882">
        <ele>258.79998779297</ele>
        <time>2017-06-07T13:05:40Z</time>
      </trkpt>
      <trkpt lat="43.43795" lon="6.02878">
        <ele>258.79998779297</ele>
        <time>2017-06-07T13:05:41Z</time>
      </trkpt>
      <trkpt lat="43.43796" lon="6.02874">
        <ele>258.74285888672</ele>
        <time>2017-06-07T13:05:42Z</time>
      </trkpt>
      <trkpt lat="43.43798" lon="6.02867">
        <ele>258.62857055664</ele>
        <time>2017-06-07T13:05:44Z</time>
      </trkpt>
      <trkpt lat="43.438" lon="6.02863">
        <ele>258.57141113281</ele>
        <time>2017-06-07T13:05:45Z</time>
      </trkpt>
      <trkpt lat="43.43801" lon="6.02859">
        <ele>258.51428222656</ele>
        <time>2017-06-07T13:05:46Z</time>
      </trkpt>
      <trkpt lat="43.43803" lon="6.02855">
        <ele>258.45712280273</ele>
        <time>2017-06-07T13:05:47Z</time>
      </trkpt>
      <trkpt lat="43.43805" lon="6.02849">
        <ele>258.39999389648</ele>
        <time>2017-06-07T13:05:49Z</time>
      </trkpt>
      <trkpt lat="43.43806" lon="6.02845">
        <ele>258.33334350586</ele>
        <time>2017-06-07T13:05:50Z</time>
      </trkpt>
      <trkpt lat="43.43807" lon="6.02842">
        <ele>258.26666259766</ele>
        <time>2017-06-07T13:05:51Z</time>
      </trkpt>
      <trkpt lat="43.43808" lon="6.02838">
        <ele>258.20001220703</ele>
        <time>2017-06-07T13:05:52Z</time>
      </trkpt>
      <trkpt lat="43.4381" lon="6.02834">
        <ele>258.20001220703</ele>
        <time>2017-06-07T13:05:53Z</time>
      </trkpt>
      <trkpt lat="43.4381" lon="6.0283">
        <ele>258</ele>
        <time>2017-06-07T13:05:54Z</time>
      </trkpt>
      <trkpt lat="43.43809" lon="6.02826">
        <ele>258</ele>
        <time>2017-06-07T13:05:55Z</time>
      </trkpt>
      <trkpt lat="43.43809" lon="6.02822">
        <ele>258</ele>
        <time>2017-06-07T13:05:56Z</time>
      </trkpt>
      <trkpt lat="43.43808" lon="6.02818">
        <ele>258</ele>
        <time>2017-06-07T13:05:57Z</time>
      </trkpt>
      <trkpt lat="43.43808" lon="6.02816">
        <ele>258.20001220703</ele>
        <time>2017-06-07T13:05:58Z</time>
      </trkpt>
      <trkpt lat="43.43808" lon="6.02814">
        <ele>258.60000610352</ele>
        <time>2017-06-07T13:05:59Z</time>
      </trkpt>
      <trkpt lat="43.43808" lon="6.02813">
        <ele>259.39999389648</ele>
        <time>2017-06-07T13:06:00Z</time>
      </trkpt>
      <trkpt lat="43.43805" lon="6.02807">
        <ele>260</ele>
        <time>2017-06-07T13:06:02Z</time>
      </trkpt>
      <trkpt lat="43.43803" lon="6.02804">
        <ele>260</ele>
        <time>2017-06-07T13:06:03Z</time>
      </trkpt>
      <trkpt lat="43.43802" lon="6.02802">
        <ele>260.20001220703</ele>
        <time>2017-06-07T13:06:04Z</time>
      </trkpt>
      <trkpt lat="43.43799" lon="6.028">
        <ele>260.60000610352</ele>
        <time>2017-06-07T13:06:06Z</time>
      </trkpt>
      <trkpt lat="43.43798" lon="6.02797">
        <ele>260.79998779297</ele>
        <time>2017-06-07T13:06:07Z</time>
      </trkpt>
      <trkpt lat="43.43797" lon="6.02794">
        <ele>261</ele>
        <time>2017-06-07T13:06:08Z</time>
      </trkpt>
      <trkpt lat="43.43793" lon="6.02787">
        <ele>261.20001220703</ele>
        <time>2017-06-07T13:06:10Z</time>
      </trkpt>
      <trkpt lat="43.43791" lon="6.02784">
        <ele>261</ele>
        <time>2017-06-07T13:06:11Z</time>
      </trkpt>
      <trkpt lat="43.4379" lon="6.0278">
        <ele>261</ele>
        <time>2017-06-07T13:06:12Z</time>
      </trkpt>
      <trkpt lat="43.43788" lon="6.02777">
        <ele>260.89999389648</ele>
        <time>2017-06-07T13:06:13Z</time>
      </trkpt>
      <trkpt lat="43.43787" lon="6.02774">
        <ele>260.79998779297</ele>
        <time>2017-06-07T13:06:14Z</time>
      </trkpt>
      <trkpt lat="43.43787" lon="6.02771">
        <ele>261</ele>
        <time>2017-06-07T13:06:15Z</time>
      </trkpt>
      <trkpt lat="43.43787" lon="6.02768">
        <ele>261</ele>
        <time>2017-06-07T13:06:16Z</time>
      </trkpt>
      <trkpt lat="43.43788" lon="6.0276">
        <ele>261.05715942383</ele>
        <time>2017-06-07T13:06:18Z</time>
      </trkpt>
      <trkpt lat="43.4379" lon="6.02754">
        <ele>261.11428833008</ele>
        <time>2017-06-07T13:06:20Z</time>
      </trkpt>
      <trkpt lat="43.43791" lon="6.0275">
        <ele>261.1428527832</ele>
        <time>2017-06-07T13:06:21Z</time>
      </trkpt>
      <trkpt lat="43.4379" lon="6.02746">
        <ele>261.17144775391</ele>
        <time>2017-06-07T13:06:22Z</time>
      </trkpt>
      <trkpt lat="43.4379" lon="6.02743">
        <ele>261.20001220703</ele>
        <time>2017-06-07T13:06:23Z</time>
      </trkpt>
      <trkpt lat="43.43789" lon="6.02739">
        <ele>261.20001220703</ele>
        <time>2017-06-07T13:06:24Z</time>
      </trkpt>
      <trkpt lat="43.43789" lon="6.02736">
        <ele>261.39999389648</ele>
        <time>2017-06-07T13:06:25Z</time>
      </trkpt>
      <trkpt lat="43.43787" lon="6.02731">
        <ele>261.60000610352</ele>
        <time>2017-06-07T13:06:26Z</time>
      </trkpt>
      <trkpt lat="43.43785" lon="6.02724">
        <ele>261.79998779297</ele>
        <time>2017-06-07T13:06:28Z</time>
      </trkpt>
      <trkpt lat="43.43782" lon="6.02722">
        <ele>261.60000610352</ele>
        <time>2017-06-07T13:06:30Z</time>
      </trkpt>
      <trkpt lat="43.43779" lon="6.02721">
        <ele>261.79998779297</ele>
        <time>2017-06-07T13:06:31Z</time>
      </trkpt>
      <trkpt lat="43.43777" lon="6.02719">
        <ele>261.79998779297</ele>
        <time>2017-06-07T13:06:32Z</time>
      </trkpt>
      <trkpt lat="43.43775" lon="6.02718">
        <ele>262</ele>
        <time>2017-06-07T13:06:33Z</time>
      </trkpt>
      <trkpt lat="43.43773" lon="6.02716">
        <ele>262.19998168945</ele>
        <time>2017-06-07T13:06:34Z</time>
      </trkpt>
      <trkpt lat="43.4377" lon="6.02714">
        <ele>262.39999389648</ele>
        <time>2017-06-07T13:06:35Z</time>
      </trkpt>
      <trkpt lat="43.43769" lon="6.02711">
        <ele>262.59997558594</ele>
        <time>2017-06-07T13:06:36Z</time>
      </trkpt>
      <trkpt lat="43.43768" lon="6.02709">
        <ele>262.79998779297</ele>
        <time>2017-06-07T13:06:37Z</time>
      </trkpt>
      <trkpt lat="43.43766" lon="6.02705">
        <ele>263.19998168945</ele>
        <time>2017-06-07T13:06:39Z</time>
      </trkpt>
      <trkpt lat="43.43768" lon="6.02703">
        <ele>263.39999389648</ele>
        <time>2017-06-07T13:06:40Z</time>
      </trkpt>
      <trkpt lat="43.43769" lon="6.02702">
        <ele>263.39999389648</ele>
        <time>2017-06-07T13:06:41Z</time>
      </trkpt>
      <trkpt lat="43.43771" lon="6.02701">
        <ele>263.39999389648</ele>
        <time>2017-06-07T13:06:42Z</time>
      </trkpt>
      <trkpt lat="43.43773" lon="6.027">
        <ele>263.39999389648</ele>
        <time>2017-06-07T13:06:43Z</time>
      </trkpt>
      <trkpt lat="43.43774" lon="6.027">
        <ele>263.20001220703</ele>
        <time>2017-06-07T13:06:44Z</time>
      </trkpt>
      <trkpt lat="43.43776" lon="6.02699">
        <ele>263</ele>
        <time>2017-06-07T13:06:45Z</time>
      </trkpt>
      <trkpt lat="43.43779" lon="6.02695">
        <ele>262.89999389648</ele>
        <time>2017-06-07T13:06:47Z</time>
      </trkpt>
      <trkpt lat="43.43781" lon="6.02692">
        <ele>262.79998779297</ele>
        <time>2017-06-07T13:06:48Z</time>
      </trkpt>
      <trkpt lat="43.43783" lon="6.0269">
        <ele>262.79998779297</ele>
        <time>2017-06-07T13:06:49Z</time>
      </trkpt>
      <trkpt lat="43.43785" lon="6.02687">
        <ele>262.79998779297</ele>
        <time>2017-06-07T13:06:50Z</time>
      </trkpt>
      <trkpt lat="43.43787" lon="6.02684">
        <ele>263</ele>
        <time>2017-06-07T13:06:51Z</time>
      </trkpt>
      <trkpt lat="43.43787" lon="6.02681">
        <ele>263</ele>
        <time>2017-06-07T13:06:52Z</time>
      </trkpt>
      <trkpt lat="43.43785" lon="6.02677">
        <ele>263.23999023438</ele>
        <time>2017-06-07T13:06:54Z</time>
      </trkpt>
      <trkpt lat="43.43785" lon="6.02674">
        <ele>263.36001586914</ele>
        <time>2017-06-07T13:06:55Z</time>
      </trkpt>
      <trkpt lat="43.43785" lon="6.02671">
        <ele>263.48001098633</ele>
        <time>2017-06-07T13:06:56Z</time>
      </trkpt>
      <trkpt lat="43.43786" lon="6.02668">
        <ele>263.60000610352</ele>
        <time>2017-06-07T13:06:57Z</time>
      </trkpt>
      <trkpt lat="43.43786" lon="6.02665">
        <ele>263.60000610352</ele>
        <time>2017-06-07T13:06:58Z</time>
      </trkpt>
      <trkpt lat="43.43786" lon="6.02662">
        <ele>263.73333740234</ele>
        <time>2017-06-07T13:06:59Z</time>
      </trkpt>
      <trkpt lat="43.43786" lon="6.02659">
        <ele>263.86666870117</ele>
        <time>2017-06-07T13:07:00Z</time>
      </trkpt>
      <trkpt lat="43.43785" lon="6.02656">
        <ele>264</ele>
        <time>2017-06-07T13:07:01Z</time>
      </trkpt>
      <trkpt lat="43.43785" lon="6.02654">
        <ele>264</ele>
        <time>2017-06-07T13:07:02Z</time>
      </trkpt>
      <trkpt lat="43.43785" lon="6.02651">
        <ele>264.04998779297</ele>
        <time>2017-06-07T13:07:03Z</time>
      </trkpt>
      <trkpt lat="43.43784" lon="6.02648">
        <ele>264.10000610352</ele>
        <time>2017-06-07T13:07:04Z</time>
      </trkpt>
      <trkpt lat="43.43785" lon="6.02641">
        <ele>264.20001220703</ele>
        <time>2017-06-07T13:07:06Z</time>
      </trkpt>
      <trkpt lat="43.43786" lon="6.02638">
        <ele>264.20001220703</ele>
        <time>2017-06-07T13:07:07Z</time>
      </trkpt>
      <trkpt lat="43.43787" lon="6.02634">
        <ele>264.20001220703</ele>
        <time>2017-06-07T13:07:08Z</time>
      </trkpt>
      <trkpt lat="43.43788" lon="6.0263">
        <ele>264.20001220703</ele>
        <time>2017-06-07T13:07:09Z</time>
      </trkpt>
      <trkpt lat="43.43789" lon="6.02626">
        <ele>264.20001220703</ele>
        <time>2017-06-07T13:07:10Z</time>
      </trkpt>
      <trkpt lat="43.4379" lon="6.02619">
        <ele>264.20001220703</ele>
        <time>2017-06-07T13:07:12Z</time>
      </trkpt>
      <trkpt lat="43.43791" lon="6.02615">
        <ele>264.20001220703</ele>
        <time>2017-06-07T13:07:13Z</time>
      </trkpt>
      <trkpt lat="43.43792" lon="6.02611">
        <ele>264.20001220703</ele>
        <time>2017-06-07T13:07:14Z</time>
      </trkpt>
      <trkpt lat="43.43792" lon="6.02606">
        <ele>264.20001220703</ele>
        <time>2017-06-07T13:07:15Z</time>
      </trkpt>
      <trkpt lat="43.43793" lon="6.02602">
        <ele>264.20001220703</ele>
        <time>2017-06-07T13:07:16Z</time>
      </trkpt>
      <trkpt lat="43.43793" lon="6.02598">
        <ele>264</ele>
        <time>2017-06-07T13:07:17Z</time>
      </trkpt>
      <trkpt lat="43.43793" lon="6.02594">
        <ele>264</ele>
        <time>2017-06-07T13:07:18Z</time>
      </trkpt>
      <trkpt lat="43.43793" lon="6.0259">
        <ele>263.9333190918</ele>
        <time>2017-06-07T13:07:19Z</time>
      </trkpt>
      <trkpt lat="43.43793" lon="6.02578">
        <ele>264</ele>
        <time>2017-06-07T13:07:22Z</time>
      </trkpt>
      <trkpt lat="43.4379" lon="6.02559">
        <ele>264.20001220703</ele>
        <time>2017-06-07T13:07:27Z</time>
      </trkpt>
      <trkpt lat="43.4379" lon="6.02551">
        <ele>264</ele>
        <time>2017-06-07T13:07:29Z</time>
      </trkpt>
      <trkpt lat="43.4379" lon="6.02547">
        <ele>263.79998779297</ele>
        <time>2017-06-07T13:07:30Z</time>
      </trkpt>
      <trkpt lat="43.4379" lon="6.02537">
        <ele>263.39999389648</ele>
        <time>2017-06-07T13:07:33Z</time>
      </trkpt>
      <trkpt lat="43.4379" lon="6.02533">
        <ele>263.60000610352</ele>
        <time>2017-06-07T13:07:34Z</time>
      </trkpt>
      <trkpt lat="43.43791" lon="6.0253">
        <ele>263.79998779297</ele>
        <time>2017-06-07T13:07:35Z</time>
      </trkpt>
      <trkpt lat="43.43792" lon="6.02527">
        <ele>263.79998779297</ele>
        <time>2017-06-07T13:07:36Z</time>
      </trkpt>
      <trkpt lat="43.43795" lon="6.02517">
        <ele>263.39999389648</ele>
        <time>2017-06-07T13:07:39Z</time>
      </trkpt>
      <trkpt lat="43.43795" lon="6.02513">
        <ele>263.20001220703</ele>
        <time>2017-06-07T13:07:40Z</time>
      </trkpt>
      <trkpt lat="43.43795" lon="6.02502">
        <ele>263.39999389648</ele>
        <time>2017-06-07T13:07:43Z</time>
      </trkpt>
      <trkpt lat="43.43796" lon="6.02496">
        <ele>263.20001220703</ele>
        <time>2017-06-07T13:07:45Z</time>
      </trkpt>
      <trkpt lat="43.43796" lon="6.02492">
        <ele>263</ele>
        <time>2017-06-07T13:07:46Z</time>
      </trkpt>
      <trkpt lat="43.43796" lon="6.02489">
        <ele>262.79998779297</ele>
        <time>2017-06-07T13:07:47Z</time>
      </trkpt>
      <trkpt lat="43.43796" lon="6.02486">
        <ele>262.60000610352</ele>
        <time>2017-06-07T13:07:48Z</time>
      </trkpt>
      <trkpt lat="43.43796" lon="6.02484">
        <ele>262.60000610352</ele>
        <time>2017-06-07T13:07:49Z</time>
      </trkpt>
      <trkpt lat="43.43795" lon="6.02481">
        <ele>262.60000610352</ele>
        <time>2017-06-07T13:07:51Z</time>
      </trkpt>
      <trkpt lat="43.43795" lon="6.02477">
        <ele>262.79998779297</ele>
        <time>2017-06-07T13:07:53Z</time>
      </trkpt>
      <trkpt lat="43.43794" lon="6.02476">
        <ele>263.02856445312</ele>
        <time>2017-06-07T13:07:54Z</time>
      </trkpt>
      <trkpt lat="43.43793" lon="6.02476">
        <ele>263.25714111328</ele>
        <time>2017-06-07T13:07:55Z</time>
      </trkpt>
      <trkpt lat="43.43793" lon="6.02476">
        <ele>263.48571777344</ele>
        <time>2017-06-07T13:07:56Z</time>
      </trkpt>
      <trkpt lat="43.4379" lon="6.02477">
        <ele>263.94284057617</ele>
        <time>2017-06-07T13:07:58Z</time>
      </trkpt>
      <trkpt lat="43.43789" lon="6.02477">
        <ele>264.17141723633</ele>
        <time>2017-06-07T13:07:59Z</time>
      </trkpt>
      <trkpt lat="43.43788" lon="6.02476">
        <ele>264.39999389648</ele>
        <time>2017-06-07T13:08:00Z</time>
      </trkpt>
      <trkpt lat="43.43787" lon="6.02475">
        <ele>264.39999389648</ele>
        <time>2017-06-07T13:08:01Z</time>
      </trkpt>
      <trkpt lat="43.43787" lon="6.02475">
        <ele>264.59997558594</ele>
        <time>2017-06-07T13:08:02Z</time>
      </trkpt>
      <trkpt lat="43.43787" lon="6.02474">
        <ele>264.79998779297</ele>
        <time>2017-06-07T13:08:03Z</time>
      </trkpt>
      <trkpt lat="43.43787" lon="6.02474">
        <ele>265</ele>
        <time>2017-06-07T13:08:05Z</time>
      </trkpt>
      <trkpt lat="43.43787" lon="6.02474">
        <ele>265</ele>
        <time>2017-06-07T13:08:06Z</time>
      </trkpt>
      <trkpt lat="43.43787" lon="6.02474">
        <ele>265.20001220703</ele>
        <time>2017-06-07T13:08:09Z</time>
      </trkpt>
      <trkpt lat="43.43787" lon="6.02474">
        <ele>265.29998779297</ele>
        <time>2017-06-07T13:08:10Z</time>
      </trkpt>
      <trkpt lat="43.43787" lon="6.02474">
        <ele>265.39999389648</ele>
        <time>2017-06-07T13:08:11Z</time>
      </trkpt>
      <trkpt lat="43.43787" lon="6.02474">
        <ele>265.39999389648</ele>
        <time>2017-06-07T13:08:13Z</time>
      </trkpt>
      <trkpt lat="43.43787" lon="6.02474">
        <ele>265.39999389648</ele>
        <time>2017-06-07T13:08:15Z</time>
      </trkpt>
      <trkpt lat="43.43787" lon="6.02474">
        <ele>265.39999389648</ele>
        <time>2017-06-07T13:08:16Z</time>
      </trkpt>
      <trkpt lat="43.43787" lon="6.02473">
        <ele>265.39999389648</ele>
        <time>2017-06-07T13:08:18Z</time>
      </trkpt>
      <trkpt lat="43.43787" lon="6.02473">
        <ele>265.20001220703</ele>
        <time>2017-06-07T13:08:20Z</time>
      </trkpt>
      <trkpt lat="43.43786" lon="6.02473">
        <ele>265</ele>
        <time>2017-06-07T13:08:22Z</time>
      </trkpt>
      <trkpt lat="43.43786" lon="6.02473">
        <ele>265</ele>
        <time>2017-06-07T13:08:24Z</time>
      </trkpt>
      <trkpt lat="43.43786" lon="6.02473">
        <ele>265</ele>
        <time>2017-06-07T13:08:25Z</time>
      </trkpt>
      <trkpt lat="43.43787" lon="6.02473">
        <ele>265</ele>
        <time>2017-06-07T13:08:26Z</time>
      </trkpt>
      <trkpt lat="43.43787" lon="6.02473">
        <ele>265</ele>
        <time>2017-06-07T13:08:30Z</time>
      </trkpt>
      <trkpt lat="43.43787" lon="6.02473">
        <ele>265.20001220703</ele>
        <time>2017-06-07T13:08:37Z</time>
      </trkpt>
      <trkpt lat="43.43787" lon="6.02473">
        <ele>265</ele>
        <time>2017-06-07T13:08:39Z</time>
      </trkpt>
      <trkpt lat="43.43787" lon="6.02473">
        <ele>264.39999389648</ele>
        <time>2017-06-07T13:08:43Z</time>
      </trkpt>
      <trkpt lat="43.43787" lon="6.02473">
        <ele>264.39999389648</ele>
        <time>2017-06-07T13:08:48Z</time>
      </trkpt>
      <trkpt lat="43.43787" lon="6.02473">
        <ele>264.60000610352</ele>
        <time>2017-06-07T13:08:50Z</time>
      </trkpt>
      <trkpt lat="43.43787" lon="6.02473">
        <ele>264.60000610352</ele>
        <time>2017-06-07T13:08:51Z</time>
      </trkpt>
      <trkpt lat="43.43787" lon="6.02473">
        <ele>264.82498168945</ele>
        <time>2017-06-07T13:08:54Z</time>
      </trkpt>
      <trkpt lat="43.43785" lon="6.02472">
        <ele>264.875</ele>
        <time>2017-06-07T13:08:56Z</time>
      </trkpt>
      <trkpt lat="43.43785" lon="6.02472">
        <ele>264.89999389648</ele>
        <time>2017-06-07T13:08:57Z</time>
      </trkpt>
      <trkpt lat="43.43785" lon="6.02472">
        <ele>264.92498779297</ele>
        <time>2017-06-07T13:08:58Z</time>
      </trkpt>
      <trkpt lat="43.43784" lon="6.02472">
        <ele>264.95001220703</ele>
        <time>2017-06-07T13:08:59Z</time>
      </trkpt>
      <trkpt lat="43.43784" lon="6.02471">
        <ele>264.97500610352</ele>
        <time>2017-06-07T13:09:00Z</time>
      </trkpt>
      <trkpt lat="43.43784" lon="6.02471">
        <ele>265</ele>
        <time>2017-06-07T13:09:01Z</time>
      </trkpt>
      <trkpt lat="43.43784" lon="6.02472">
        <ele>265</ele>
        <time>2017-06-07T13:09:02Z</time>
      </trkpt>
      <trkpt lat="43.43784" lon="6.02471">
        <ele>265.20001220703</ele>
        <time>2017-06-07T13:09:03Z</time>
      </trkpt>
      <trkpt lat="43.43783" lon="6.02471">
        <ele>265.20001220703</ele>
        <time>2017-06-07T13:09:04Z</time>
      </trkpt>
      <trkpt lat="43.43782" lon="6.0247">
        <ele>265.20001220703</ele>
        <time>2017-06-07T13:09:05Z</time>
      </trkpt>
      <trkpt lat="43.43781" lon="6.02469">
        <ele>265.20001220703</ele>
        <time>2017-06-07T13:09:06Z</time>
      </trkpt>
      <trkpt lat="43.43781" lon="6.02467">
        <ele>265.20001220703</ele>
        <time>2017-06-07T13:09:07Z</time>
      </trkpt>
      <trkpt lat="43.4378" lon="6.02466">
        <ele>265</ele>
        <time>2017-06-07T13:09:08Z</time>
      </trkpt>
      <trkpt lat="43.4378" lon="6.02463">
        <ele>264.79998779297</ele>
        <time>2017-06-07T13:09:09Z</time>
      </trkpt>
      <trkpt lat="43.4378" lon="6.02461">
        <ele>264.79998779297</ele>
        <time>2017-06-07T13:09:10Z</time>
      </trkpt>
      <trkpt lat="43.4378" lon="6.02459">
        <ele>264.60000610352</ele>
        <time>2017-06-07T13:09:11Z</time>
      </trkpt>
      <trkpt lat="43.43779" lon="6.02457">
        <ele>264.60000610352</ele>
        <time>2017-06-07T13:09:12Z</time>
      </trkpt>
      <trkpt lat="43.43777" lon="6.02455">
        <ele>265</ele>
        <time>2017-06-07T13:09:14Z</time>
      </trkpt>
      <trkpt lat="43.43776" lon="6.02453">
        <ele>265.39999389648</ele>
        <time>2017-06-07T13:09:15Z</time>
      </trkpt>
      <trkpt lat="43.43776" lon="6.0245">
        <ele>265.79998779297</ele>
        <time>2017-06-07T13:09:17Z</time>
      </trkpt>
      <trkpt lat="43.43776" lon="6.02449">
        <ele>266.39999389648</ele>
        <time>2017-06-07T13:09:18Z</time>
      </trkpt>
      <trkpt lat="43.43775" lon="6.02449">
        <ele>266.60000610352</ele>
        <time>2017-06-07T13:09:19Z</time>
      </trkpt>
      <trkpt lat="43.43775" lon="6.02448">
        <ele>267</ele>
        <time>2017-06-07T13:09:20Z</time>
      </trkpt>
      <trkpt lat="43.43776" lon="6.02448">
        <ele>267.39999389648</ele>
        <time>2017-06-07T13:09:21Z</time>
      </trkpt>
      <trkpt lat="43.43776" lon="6.02447">
        <ele>267.60000610352</ele>
        <time>2017-06-07T13:09:23Z</time>
      </trkpt>
      <trkpt lat="43.43776" lon="6.02446">
        <ele>267.60000610352</ele>
        <time>2017-06-07T13:09:24Z</time>
      </trkpt>
      <trkpt lat="43.43777" lon="6.02443">
        <ele>267.60000610352</ele>
        <time>2017-06-07T13:09:26Z</time>
      </trkpt>
      <trkpt lat="43.43777" lon="6.02441">
        <ele>267.39999389648</ele>
        <time>2017-06-07T13:09:27Z</time>
      </trkpt>
      <trkpt lat="43.43777" lon="6.02439">
        <ele>267.39999389648</ele>
        <time>2017-06-07T13:09:28Z</time>
      </trkpt>
      <trkpt lat="43.43776" lon="6.02436">
        <ele>267.20001220703</ele>
        <time>2017-06-07T13:09:29Z</time>
      </trkpt>
      <trkpt lat="43.43776" lon="6.02433">
        <ele>267.20001220703</ele>
        <time>2017-06-07T13:09:30Z</time>
      </trkpt>
      <trkpt lat="43.43774" lon="6.02431">
        <ele>267.20001220703</ele>
        <time>2017-06-07T13:09:31Z</time>
      </trkpt>
      <trkpt lat="43.43773" lon="6.0243">
        <ele>267.20001220703</ele>
        <time>2017-06-07T13:09:32Z</time>
      </trkpt>
      <trkpt lat="43.43773" lon="6.02429">
        <ele>267.20001220703</ele>
        <time>2017-06-07T13:09:33Z</time>
      </trkpt>
      <trkpt lat="43.43771" lon="6.02426">
        <ele>267.39999389648</ele>
        <time>2017-06-07T13:09:34Z</time>
      </trkpt>
      <trkpt lat="43.43769" lon="6.02424">
        <ele>267.39999389648</ele>
        <time>2017-06-07T13:09:35Z</time>
      </trkpt>
      <trkpt lat="43.43768" lon="6.02422">
        <ele>267.5</ele>
        <time>2017-06-07T13:09:36Z</time>
      </trkpt>
      <trkpt lat="43.43767" lon="6.02421">
        <ele>267.60000610352</ele>
        <time>2017-06-07T13:09:37Z</time>
      </trkpt>
      <trkpt lat="43.43766" lon="6.02419">
        <ele>267.60000610352</ele>
        <time>2017-06-07T13:09:38Z</time>
      </trkpt>
      <trkpt lat="43.43764" lon="6.02418">
        <ele>267.70001220703</ele>
        <time>2017-06-07T13:09:39Z</time>
      </trkpt>
      <trkpt lat="43.43763" lon="6.02416">
        <ele>267.79998779297</ele>
        <time>2017-06-07T13:09:40Z</time>
      </trkpt>
      <trkpt lat="43.43762" lon="6.02413">
        <ele>267.79998779297</ele>
        <time>2017-06-07T13:09:41Z</time>
      </trkpt>
      <trkpt lat="43.43761" lon="6.0241">
        <ele>268</ele>
        <time>2017-06-07T13:09:42Z</time>
      </trkpt>
      <trkpt lat="43.43759" lon="6.02405">
        <ele>268.16000366211</ele>
        <time>2017-06-07T13:09:44Z</time>
      </trkpt>
      <trkpt lat="43.43758" lon="6.02404">
        <ele>268.32000732422</ele>
        <time>2017-06-07T13:09:45Z</time>
      </trkpt>
      <trkpt lat="43.43753" lon="6.02401">
        <ele>268.79998779297</ele>
        <time>2017-06-07T13:09:48Z</time>
      </trkpt>
      <trkpt lat="43.43751" lon="6.024">
        <ele>268.79998779297</ele>
        <time>2017-06-07T13:09:49Z</time>
      </trkpt>
      <trkpt lat="43.4375" lon="6.02399">
        <ele>269.20001220703</ele>
        <time>2017-06-07T13:09:50Z</time>
      </trkpt>
      <trkpt lat="43.43748" lon="6.02397">
        <ele>269.48571777344</ele>
        <time>2017-06-07T13:09:52Z</time>
      </trkpt>
      <trkpt lat="43.43746" lon="6.02393">
        <ele>270.05715942383</ele>
        <time>2017-06-07T13:09:54Z</time>
      </trkpt>
      <trkpt lat="43.43745" lon="6.02391">
        <ele>270.34286499023</ele>
        <time>2017-06-07T13:09:55Z</time>
      </trkpt>
      <trkpt lat="43.43744" lon="6.02389">
        <ele>270.62857055664</ele>
        <time>2017-06-07T13:09:56Z</time>
      </trkpt>
      <trkpt lat="43.43744" lon="6.02387">
        <ele>270.91430664062</ele>
        <time>2017-06-07T13:09:57Z</time>
      </trkpt>
      <trkpt lat="43.43744" lon="6.02385">
        <ele>271.20001220703</ele>
        <time>2017-06-07T13:09:58Z</time>
      </trkpt>
      <trkpt lat="43.43743" lon="6.02383">
        <ele>271.20001220703</ele>
        <time>2017-06-07T13:09:59Z</time>
      </trkpt>
      <trkpt lat="43.4374" lon="6.02376">
        <ele>270.79998779297</ele>
        <time>2017-06-07T13:10:02Z</time>
      </trkpt>
      <trkpt lat="43.4374" lon="6.02374">
        <ele>270.60000610352</ele>
        <time>2017-06-07T13:10:03Z</time>
      </trkpt>
      <trkpt lat="43.43739" lon="6.02372">
        <ele>270.60000610352</ele>
        <time>2017-06-07T13:10:04Z</time>
      </trkpt>
      <trkpt lat="43.43739" lon="6.02369">
        <ele>270.60000610352</ele>
        <time>2017-06-07T13:10:05Z</time>
      </trkpt>
      <trkpt lat="43.43737" lon="6.02365">
        <ele>270.60000610352</ele>
        <time>2017-06-07T13:10:07Z</time>
      </trkpt>
      <trkpt lat="43.43736" lon="6.02363">
        <ele>270.79998779297</ele>
        <time>2017-06-07T13:10:08Z</time>
      </trkpt>
      <trkpt lat="43.43734" lon="6.02362">
        <ele>271.20001220703</ele>
        <time>2017-06-07T13:10:09Z</time>
      </trkpt>
      <trkpt lat="43.43732" lon="6.02362">
        <ele>271.60000610352</ele>
        <time>2017-06-07T13:10:10Z</time>
      </trkpt>
      <trkpt lat="43.4373" lon="6.02362">
        <ele>272</ele>
        <time>2017-06-07T13:10:12Z</time>
      </trkpt>
      <trkpt lat="43.43728" lon="6.02362">
        <ele>272.20001220703</ele>
        <time>2017-06-07T13:10:13Z</time>
      </trkpt>
      <trkpt lat="43.43727" lon="6.02363">
        <ele>272.60000610352</ele>
        <time>2017-06-07T13:10:14Z</time>
      </trkpt>
      <trkpt lat="43.43725" lon="6.02362">
        <ele>272.79998779297</ele>
        <time>2017-06-07T13:10:15Z</time>
      </trkpt>
      <trkpt lat="43.43724" lon="6.02361">
        <ele>273</ele>
        <time>2017-06-07T13:10:16Z</time>
      </trkpt>
      <trkpt lat="43.43722" lon="6.0236">
        <ele>273.20001220703</ele>
        <time>2017-06-07T13:10:17Z</time>
      </trkpt>
      <trkpt lat="43.43721" lon="6.02358">
        <ele>273.39999389648</ele>
        <time>2017-06-07T13:10:18Z</time>
      </trkpt>
      <trkpt lat="43.4372" lon="6.02356">
        <ele>273.39999389648</ele>
        <time>2017-06-07T13:10:19Z</time>
      </trkpt>
      <trkpt lat="43.43719" lon="6.02353">
        <ele>273.20001220703</ele>
        <time>2017-06-07T13:10:20Z</time>
      </trkpt>
      <trkpt lat="43.43717" lon="6.0235">
        <ele>272.79998779297</ele>
        <time>2017-06-07T13:10:22Z</time>
      </trkpt>
      <trkpt lat="43.43716" lon="6.02348">
        <ele>272.79998779297</ele>
        <time>2017-06-07T13:10:23Z</time>
      </trkpt>
      <trkpt lat="43.43715" lon="6.02345">
        <ele>272.60000610352</ele>
        <time>2017-06-07T13:10:24Z</time>
      </trkpt>
      <trkpt lat="43.43715" lon="6.02343">
        <ele>272.60000610352</ele>
        <time>2017-06-07T13:10:25Z</time>
      </trkpt>
      <trkpt lat="43.43716" lon="6.0234">
        <ele>272.5</ele>
        <time>2017-06-07T13:10:26Z</time>
      </trkpt>
      <trkpt lat="43.43718" lon="6.02334">
        <ele>272.39999389648</ele>
        <time>2017-06-07T13:10:28Z</time>
      </trkpt>
      <trkpt lat="43.4372" lon="6.02332">
        <ele>271.88000488281</ele>
        <time>2017-06-07T13:10:29Z</time>
      </trkpt>
      <trkpt lat="43.43723" lon="6.0233">
        <ele>271.35998535156</ele>
        <time>2017-06-07T13:10:30Z</time>
      </trkpt>
      <trkpt lat="43.43725" lon="6.02328">
        <ele>270.83999633789</ele>
        <time>2017-06-07T13:10:31Z</time>
      </trkpt>
      <trkpt lat="43.43726" lon="6.02324">
        <ele>270.32000732422</ele>
        <time>2017-06-07T13:10:32Z</time>
      </trkpt>
      <trkpt lat="43.43727" lon="6.0232">
        <ele>269.79998779297</ele>
        <time>2017-06-07T13:10:33Z</time>
      </trkpt>
      <trkpt lat="43.43729" lon="6.02315">
        <ele>269.2799987793</ele>
        <time>2017-06-07T13:10:34Z</time>
      </trkpt>
      <trkpt lat="43.4373" lon="6.0231">
        <ele>268.76000976562</ele>
        <time>2017-06-07T13:10:35Z</time>
      </trkpt>
      <trkpt lat="43.43733" lon="6.02305">
        <ele>268.23999023438</ele>
        <time>2017-06-07T13:10:36Z</time>
      </trkpt>
      <trkpt lat="43.43736" lon="6.023">
        <ele>267.7200012207</ele>
        <time>2017-06-07T13:10:37Z</time>
      </trkpt>
      <trkpt lat="43.43739" lon="6.02295">
        <ele>267.20001220703</ele>
        <time>2017-06-07T13:10:38Z</time>
      </trkpt>
      <trkpt lat="43.43744" lon="6.02286">
        <ele>266.16000366211</ele>
        <time>2017-06-07T13:10:40Z</time>
      </trkpt>
      <trkpt lat="43.43745" lon="6.02281">
        <ele>265.64001464844</ele>
        <time>2017-06-07T13:10:41Z</time>
      </trkpt>
      <trkpt lat="43.43748" lon="6.02277">
        <ele>265.11999511719</ele>
        <time>2017-06-07T13:10:42Z</time>
      </trkpt>
      <trkpt lat="43.43751" lon="6.02272">
        <ele>264.60000610352</ele>
        <time>2017-06-07T13:10:43Z</time>
      </trkpt>
      <trkpt lat="43.43754" lon="6.02268">
        <ele>264.60000610352</ele>
        <time>2017-06-07T13:10:44Z</time>
      </trkpt>
      <trkpt lat="43.43756" lon="6.02263">
        <ele>264.23999023438</ele>
        <time>2017-06-07T13:10:45Z</time>
      </trkpt>
      <trkpt lat="43.43758" lon="6.02257">
        <ele>263.88000488281</ele>
        <time>2017-06-07T13:10:46Z</time>
      </trkpt>
      <trkpt lat="43.43761" lon="6.02251">
        <ele>263.51998901367</ele>
        <time>2017-06-07T13:10:47Z</time>
      </trkpt>
      <trkpt lat="43.43763" lon="6.02239">
        <ele>262.79998779297</ele>
        <time>2017-06-07T13:10:49Z</time>
      </trkpt>
      <trkpt lat="43.43765" lon="6.02228">
        <ele>263.20001220703</ele>
        <time>2017-06-07T13:10:51Z</time>
      </trkpt>
      <trkpt lat="43.43766" lon="6.02221">
        <ele>263.39999389648</ele>
        <time>2017-06-07T13:10:52Z</time>
      </trkpt>
      <trkpt lat="43.43766" lon="6.02209">
        <ele>263.79998779297</ele>
        <time>2017-06-07T13:10:54Z</time>
      </trkpt>
      <trkpt lat="43.43766" lon="6.02203">
        <ele>264.20001220703</ele>
        <time>2017-06-07T13:10:55Z</time>
      </trkpt>
      <trkpt lat="43.43766" lon="6.02197">
        <ele>264.20001220703</ele>
        <time>2017-06-07T13:10:56Z</time>
      </trkpt>
      <trkpt lat="43.43767" lon="6.02191">
        <ele>264.39999389648</ele>
        <time>2017-06-07T13:10:57Z</time>
      </trkpt>
      <trkpt lat="43.43769" lon="6.02186">
        <ele>264.60000610352</ele>
        <time>2017-06-07T13:10:58Z</time>
      </trkpt>
      <trkpt lat="43.43774" lon="6.02179">
        <ele>264.79998779297</ele>
        <time>2017-06-07T13:11:00Z</time>
      </trkpt>
      <trkpt lat="43.43776" lon="6.02173">
        <ele>264.79998779297</ele>
        <time>2017-06-07T13:11:01Z</time>
      </trkpt>
      <trkpt lat="43.43778" lon="6.02167">
        <ele>264.60000610352</ele>
        <time>2017-06-07T13:11:02Z</time>
      </trkpt>
      <trkpt lat="43.4378" lon="6.02161">
        <ele>264.39999389648</ele>
        <time>2017-06-07T13:11:03Z</time>
      </trkpt>
      <trkpt lat="43.43782" lon="6.02156">
        <ele>264.20001220703</ele>
        <time>2017-06-07T13:11:04Z</time>
      </trkpt>
      <trkpt lat="43.43788" lon="6.02148">
        <ele>264</ele>
        <time>2017-06-07T13:11:06Z</time>
      </trkpt>
      <trkpt lat="43.43798" lon="6.02138">
        <ele>264</ele>
        <time>2017-06-07T13:11:09Z</time>
      </trkpt>
      <trkpt lat="43.43802" lon="6.02134">
        <ele>264.20001220703</ele>
        <time>2017-06-07T13:11:10Z</time>
      </trkpt>
      <trkpt lat="43.43805" lon="6.02131">
        <ele>264.20001220703</ele>
        <time>2017-06-07T13:11:11Z</time>
      </trkpt>
      <trkpt lat="43.43808" lon="6.02127">
        <ele>264.51428222656</ele>
        <time>2017-06-07T13:11:12Z</time>
      </trkpt>
      <trkpt lat="43.43812" lon="6.02119">
        <ele>265.1428527832</ele>
        <time>2017-06-07T13:11:14Z</time>
      </trkpt>
      <trkpt lat="43.43813" lon="6.0211">
        <ele>265.77142333984</ele>
        <time>2017-06-07T13:11:16Z</time>
      </trkpt>
      <trkpt lat="43.43814" lon="6.02105">
        <ele>266.08572387695</ele>
        <time>2017-06-07T13:11:17Z</time>
      </trkpt>
      <trkpt lat="43.43815" lon="6.02096">
        <ele>266.39999389648</ele>
        <time>2017-06-07T13:11:19Z</time>
      </trkpt>
      <trkpt lat="43.43816" lon="6.02092">
        <ele>266.39999389648</ele>
        <time>2017-06-07T13:11:20Z</time>
      </trkpt>
      <trkpt lat="43.43817" lon="6.02087">
        <ele>266.39999389648</ele>
        <time>2017-06-07T13:11:21Z</time>
      </trkpt>
      <trkpt lat="43.43818" lon="6.02082">
        <ele>266.20001220703</ele>
        <time>2017-06-07T13:11:22Z</time>
      </trkpt>
      <trkpt lat="43.43826" lon="6.02066">
        <ele>265.39999389648</ele>
        <time>2017-06-07T13:11:25Z</time>
      </trkpt>
      <trkpt lat="43.4383" lon="6.02061">
        <ele>265.39999389648</ele>
        <time>2017-06-07T13:11:26Z</time>
      </trkpt>
      <trkpt lat="43.43832" lon="6.02056">
        <ele>265.20001220703</ele>
        <time>2017-06-07T13:11:27Z</time>
      </trkpt>
      <trkpt lat="43.43833" lon="6.02049">
        <ele>265.20001220703</ele>
        <time>2017-06-07T13:11:28Z</time>
      </trkpt>
      <trkpt lat="43.43834" lon="6.02042">
        <ele>265.16000366211</ele>
        <time>2017-06-07T13:11:29Z</time>
      </trkpt>
      <trkpt lat="43.43835" lon="6.02028">
        <ele>265.08001708984</ele>
        <time>2017-06-07T13:11:31Z</time>
      </trkpt>
      <trkpt lat="43.43836" lon="6.02021">
        <ele>265.04000854492</ele>
        <time>2017-06-07T13:11:32Z</time>
      </trkpt>
      <trkpt lat="43.43837" lon="6.02002">
        <ele>265.39999389648</ele>
        <time>2017-06-07T13:11:35Z</time>
      </trkpt>
      <trkpt lat="43.43838" lon="6.01991">
        <ele>266.60000610352</ele>
        <time>2017-06-07T13:11:37Z</time>
      </trkpt>
      <trkpt lat="43.43838" lon="6.01985">
        <ele>266.79998779297</ele>
        <time>2017-06-07T13:11:38Z</time>
      </trkpt>
      <trkpt lat="43.43839" lon="6.01975">
        <ele>266.79998779297</ele>
        <time>2017-06-07T13:11:40Z</time>
      </trkpt>
      <trkpt lat="43.43844" lon="6.01962">
        <ele>266</ele>
        <time>2017-06-07T13:11:43Z</time>
      </trkpt>
      <trkpt lat="43.43848" lon="6.0195">
        <ele>265.79998779297</ele>
        <time>2017-06-07T13:11:46Z</time>
      </trkpt>
      <trkpt lat="43.4385" lon="6.01947">
        <ele>265.79998779297</ele>
        <time>2017-06-07T13:11:47Z</time>
      </trkpt>
      <trkpt lat="43.43853" lon="6.01944">
        <ele>266</ele>
        <time>2017-06-07T13:11:48Z</time>
      </trkpt>
      <trkpt lat="43.43855" lon="6.01942">
        <ele>266</ele>
        <time>2017-06-07T13:11:49Z</time>
      </trkpt>
      <trkpt lat="43.43856" lon="6.0194">
        <ele>266.26666259766</ele>
        <time>2017-06-07T13:11:50Z</time>
      </trkpt>
      <trkpt lat="43.43858" lon="6.01937">
        <ele>266.79998779297</ele>
        <time>2017-06-07T13:11:52Z</time>
      </trkpt>
      <trkpt lat="43.43859" lon="6.01936">
        <ele>266.79998779297</ele>
        <time>2017-06-07T13:11:53Z</time>
      </trkpt>
      <trkpt lat="43.43859" lon="6.01934">
        <ele>266.79998779297</ele>
        <time>2017-06-07T13:11:54Z</time>
      </trkpt>
      <trkpt lat="43.43859" lon="6.01933">
        <ele>266.79998779297</ele>
        <time>2017-06-07T13:11:55Z</time>
      </trkpt>
      <trkpt lat="43.43859" lon="6.01931">
        <ele>266.79998779297</ele>
        <time>2017-06-07T13:11:56Z</time>
      </trkpt>
      <trkpt lat="43.43859" lon="6.01931">
        <ele>266.60000610352</ele>
        <time>2017-06-07T13:11:57Z</time>
      </trkpt>
      <trkpt lat="43.43859" lon="6.0193">
        <ele>266.79998779297</ele>
        <time>2017-06-07T13:11:58Z</time>
      </trkpt>
      <trkpt lat="43.43858" lon="6.0193">
        <ele>266.79998779297</ele>
        <time>2017-06-07T13:11:59Z</time>
      </trkpt>
      <trkpt lat="43.43858" lon="6.01929">
        <ele>266.84997558594</ele>
        <time>2017-06-07T13:12:00Z</time>
      </trkpt>
      <trkpt lat="43.43859" lon="6.0193">
        <ele>266.89999389648</ele>
        <time>2017-06-07T13:12:01Z</time>
      </trkpt>
      <trkpt lat="43.43859" lon="6.0193">
        <ele>266.95001220703</ele>
        <time>2017-06-07T13:12:02Z</time>
      </trkpt>
      <trkpt lat="43.43859" lon="6.0193">
        <ele>267</ele>
        <time>2017-06-07T13:12:04Z</time>
      </trkpt>
      <trkpt lat="43.43859" lon="6.0193">
        <ele>267.04998779297</ele>
        <time>2017-06-07T13:12:05Z</time>
      </trkpt>
      <trkpt lat="43.43859" lon="6.0193">
        <ele>267.20001220703</ele>
        <time>2017-06-07T13:12:08Z</time>
      </trkpt>
      <trkpt lat="43.43858" lon="6.0193">
        <ele>267.20001220703</ele>
        <time>2017-06-07T13:12:09Z</time>
      </trkpt>
      <trkpt lat="43.43858" lon="6.0193">
        <ele>267.20001220703</ele>
        <time>2017-06-07T13:12:11Z</time>
      </trkpt>
      <trkpt lat="43.43858" lon="6.0193">
        <ele>267.20001220703</ele>
        <time>2017-06-07T13:12:12Z</time>
      </trkpt>
      <trkpt lat="43.43859" lon="6.0193">
        <ele>267.20001220703</ele>
        <time>2017-06-07T13:12:13Z</time>
      </trkpt>
      <trkpt lat="43.43859" lon="6.0193">
        <ele>267.20001220703</ele>
        <time>2017-06-07T13:12:16Z</time>
      </trkpt>
      <trkpt lat="43.43859" lon="6.0193">
        <ele>267.20001220703</ele>
        <time>2017-06-07T13:12:17Z</time>
      </trkpt>
      <trkpt lat="43.43859" lon="6.01929">
        <ele>267.20001220703</ele>
        <time>2017-06-07T13:12:22Z</time>
      </trkpt>
      <trkpt lat="43.43859" lon="6.01929">
        <ele>267.60000610352</ele>
        <time>2017-06-07T13:12:24Z</time>
      </trkpt>
      <trkpt lat="43.43859" lon="6.01929">
        <ele>267.79998779297</ele>
        <time>2017-06-07T13:12:27Z</time>
      </trkpt>
      <trkpt lat="43.43859" lon="6.01929">
        <ele>267.79998779297</ele>
        <time>2017-06-07T13:12:32Z</time>
      </trkpt>
      <trkpt lat="43.43859" lon="6.01929">
        <ele>267.60000610352</ele>
        <time>2017-06-07T13:12:38Z</time>
      </trkpt>
      <trkpt lat="43.43859" lon="6.0193">
        <ele>267.20001220703</ele>
        <time>2017-06-07T13:12:56Z</time>
      </trkpt>
      <trkpt lat="43.43859" lon="6.0193">
        <ele>267.20001220703</ele>
        <time>2017-06-07T13:12:58Z</time>
      </trkpt>
      <trkpt lat="43.43859" lon="6.0193">
        <ele>267.39999389648</ele>
        <time>2017-06-07T13:13:03Z</time>
      </trkpt>
      <trkpt lat="43.43859" lon="6.01929">
        <ele>267.39999389648</ele>
        <time>2017-06-07T13:13:14Z</time>
      </trkpt>
      <trkpt lat="43.43859" lon="6.01929">
        <ele>267.66665649414</ele>
        <time>2017-06-07T13:13:19Z</time>
      </trkpt>
      <trkpt lat="43.43859" lon="6.01929">
        <ele>267.79998779297</ele>
        <time>2017-06-07T13:13:22Z</time>
      </trkpt>
      <trkpt lat="43.43859" lon="6.01929">
        <ele>268</ele>
        <time>2017-06-07T13:13:29Z</time>
      </trkpt>
      <trkpt lat="43.43859" lon="6.01929">
        <ele>267.60000610352</ele>
        <time>2017-06-07T13:13:35Z</time>
      </trkpt>
      <trkpt lat="43.43859" lon="6.01929">
        <ele>267.33334350586</ele>
        <time>2017-06-07T13:13:39Z</time>
      </trkpt>
      <trkpt lat="43.43859" lon="6.01929">
        <ele>267.26666259766</ele>
        <time>2017-06-07T13:13:40Z</time>
      </trkpt>
      <trkpt lat="43.43859" lon="6.01929">
        <ele>267.20001220703</ele>
        <time>2017-06-07T13:13:41Z</time>
      </trkpt>
      <trkpt lat="43.43859" lon="6.01929">
        <ele>267.20001220703</ele>
        <time>2017-06-07T13:13:42Z</time>
      </trkpt>
      <trkpt lat="43.43859" lon="6.01929">
        <ele>267.20001220703</ele>
        <time>2017-06-07T13:13:43Z</time>
      </trkpt>
      <trkpt lat="43.43859" lon="6.01929">
        <ele>267.20001220703</ele>
        <time>2017-06-07T13:13:44Z</time>
      </trkpt>
      <trkpt lat="43.43859" lon="6.01929">
        <ele>267.20001220703</ele>
        <time>2017-06-07T13:13:45Z</time>
      </trkpt>
      <trkpt lat="43.43859" lon="6.01929">
        <ele>267.20001220703</ele>
        <time>2017-06-07T13:13:49Z</time>
      </trkpt>
      <trkpt lat="43.43859" lon="6.01929">
        <ele>267.39999389648</ele>
        <time>2017-06-07T13:14:00Z</time>
      </trkpt>
      <trkpt lat="43.43859" lon="6.01929">
        <ele>267.20001220703</ele>
        <time>2017-06-07T13:14:03Z</time>
      </trkpt>
      <trkpt lat="43.43859" lon="6.01929">
        <ele>267.20001220703</ele>
        <time>2017-06-07T13:14:04Z</time>
      </trkpt>
      <trkpt lat="43.43859" lon="6.01929">
        <ele>267.20001220703</ele>
        <time>2017-06-07T13:14:06Z</time>
      </trkpt>
      <trkpt lat="43.43859" lon="6.01929">
        <ele>267.20001220703</ele>
        <time>2017-06-07T13:14:08Z</time>
      </trkpt>
      <trkpt lat="43.43859" lon="6.01929">
        <ele>267.39999389648</ele>
        <time>2017-06-07T13:14:13Z</time>
      </trkpt>
      <trkpt lat="43.43859" lon="6.01929">
        <ele>267.58001708984</ele>
        <time>2017-06-07T13:14:22Z</time>
      </trkpt>
      <trkpt lat="43.43859" lon="6.01929">
        <ele>267.79998779297</ele>
        <time>2017-06-07T13:14:27Z</time>
      </trkpt>
      <trkpt lat="43.43859" lon="6.01929">
        <ele>267.89999389648</ele>
        <time>2017-06-07T13:14:47Z</time>
      </trkpt>
      <trkpt lat="43.43859" lon="6.01929">
        <ele>267.79998779297</ele>
        <time>2017-06-07T13:14:57Z</time>
      </trkpt>
      <trkpt lat="43.43859" lon="6.01929">
        <ele>267.60000610352</ele>
        <time>2017-06-07T13:15:00Z</time>
      </trkpt>
      <trkpt lat="43.43859" lon="6.01929">
        <ele>267.79998779297</ele>
        <time>2017-06-07T13:15:02Z</time>
      </trkpt>
      <trkpt lat="43.43859" lon="6.01929">
        <ele>267.79998779297</ele>
        <time>2017-06-07T13:15:03Z</time>
      </trkpt>
      <trkpt lat="43.43859" lon="6.01929">
        <ele>268</ele>
        <time>2017-06-07T13:15:05Z</time>
      </trkpt>
      <trkpt lat="43.43859" lon="6.01929">
        <ele>267.60000610352</ele>
        <time>2017-06-07T13:15:09Z</time>
      </trkpt>
      <trkpt lat="43.43859" lon="6.01929">
        <ele>267.60000610352</ele>
        <time>2017-06-07T13:15:12Z</time>
      </trkpt>
      <trkpt lat="43.43859" lon="6.01929">
        <ele>267.89999389648</ele>
        <time>2017-06-07T13:15:15Z</time>
      </trkpt>
      <trkpt lat="43.43859" lon="6.01929">
        <ele>268</ele>
        <time>2017-06-07T13:15:16Z</time>
      </trkpt>
      <trkpt lat="43.43859" lon="6.01929">
        <ele>268.10000610352</ele>
        <time>2017-06-07T13:15:18Z</time>
      </trkpt>
      <trkpt lat="43.43859" lon="6.01929">
        <ele>268.29998779297</ele>
        <time>2017-06-07T13:15:20Z</time>
      </trkpt>
      <trkpt lat="43.43859" lon="6.01929">
        <ele>268.39999389648</ele>
        <time>2017-06-07T13:15:21Z</time>
      </trkpt>
      <trkpt lat="43.43859" lon="6.01929">
        <ele>268.60000610352</ele>
        <time>2017-06-07T13:15:24Z</time>
      </trkpt>
      <trkpt lat="43.43859" lon="6.01929">
        <ele>268.20001220703</ele>
        <time>2017-06-07T13:15:28Z</time>
      </trkpt>
      <trkpt lat="43.43859" lon="6.01929">
        <ele>268</ele>
        <time>2017-06-07T13:15:31Z</time>
      </trkpt>
      <trkpt lat="43.43859" lon="6.01929">
        <ele>267.53332519531</ele>
        <time>2017-06-07T13:15:36Z</time>
      </trkpt>
      <trkpt lat="43.43859" lon="6.01928">
        <ele>267.33334350586</ele>
        <time>2017-06-07T13:15:39Z</time>
      </trkpt>
      <trkpt lat="43.43859" lon="6.01929">
        <ele>267.20001220703</ele>
        <time>2017-06-07T13:15:41Z</time>
      </trkpt>
      <trkpt lat="43.43859" lon="6.01928">
        <ele>267.20001220703</ele>
        <time>2017-06-07T13:15:42Z</time>
      </trkpt>
      <trkpt lat="43.43859" lon="6.01928">
        <ele>267.20001220703</ele>
        <time>2017-06-07T13:15:43Z</time>
      </trkpt>
      <trkpt lat="43.43859" lon="6.01928">
        <ele>267.20001220703</ele>
        <time>2017-06-07T13:15:44Z</time>
      </trkpt>
      <trkpt lat="43.43859" lon="6.01928">
        <ele>267.20001220703</ele>
        <time>2017-06-07T13:15:45Z</time>
      </trkpt>
      <trkpt lat="43.43859" lon="6.01928">
        <ele>267.39999389648</ele>
        <time>2017-06-07T13:15:46Z</time>
      </trkpt>
      <trkpt lat="43.43859" lon="6.01928">
        <ele>267.79998779297</ele>
        <time>2017-06-07T13:15:49Z</time>
      </trkpt>
      <trkpt lat="43.43859" lon="6.01928">
        <ele>268</ele>
        <time>2017-06-07T13:15:52Z</time>
      </trkpt>
      <trkpt lat="43.43859" lon="6.01928">
        <ele>267.79998779297</ele>
        <time>2017-06-07T13:15:55Z</time>
      </trkpt>
      <trkpt lat="43.43859" lon="6.01928">
        <ele>267.66665649414</ele>
        <time>2017-06-07T13:15:58Z</time>
      </trkpt>
      <trkpt lat="43.43859" lon="6.01928">
        <ele>267.60000610352</ele>
        <time>2017-06-07T13:15:59Z</time>
      </trkpt>
      <trkpt lat="43.43859" lon="6.01928">
        <ele>267.39999389648</ele>
        <time>2017-06-07T13:16:02Z</time>
      </trkpt>
      <trkpt lat="43.43859" lon="6.01928">
        <ele>267.39999389648</ele>
        <time>2017-06-07T13:16:03Z</time>
      </trkpt>
      <trkpt lat="43.43859" lon="6.01928">
        <ele>267.20001220703</ele>
        <time>2017-06-07T13:16:04Z</time>
      </trkpt>
      <trkpt lat="43.43859" lon="6.01928">
        <ele>267.20001220703</ele>
        <time>2017-06-07T13:16:07Z</time>
      </trkpt>
      <trkpt lat="43.43859" lon="6.01928">
        <ele>267.39999389648</ele>
        <time>2017-06-07T13:16:08Z</time>
      </trkpt>
      <trkpt lat="43.43859" lon="6.01928">
        <ele>267.39999389648</ele>
        <time>2017-06-07T13:16:09Z</time>
      </trkpt>
      <trkpt lat="43.43859" lon="6.01928">
        <ele>267.60000610352</ele>
        <time>2017-06-07T13:16:10Z</time>
      </trkpt>
      <trkpt lat="43.43859" lon="6.01928">
        <ele>267.60000610352</ele>
        <time>2017-06-07T13:16:14Z</time>
      </trkpt>
      <trkpt lat="43.43859" lon="6.01928">
        <ele>267.60000610352</ele>
        <time>2017-06-07T13:16:15Z</time>
      </trkpt>
      <trkpt lat="43.43859" lon="6.01928">
        <ele>267.60000610352</ele>
        <time>2017-06-07T13:16:17Z</time>
      </trkpt>
      <trkpt lat="43.43859" lon="6.01928">
        <ele>267.60000610352</ele>
        <time>2017-06-07T13:16:18Z</time>
      </trkpt>
      <trkpt lat="43.43859" lon="6.01928">
        <ele>267.60000610352</ele>
        <time>2017-06-07T13:16:19Z</time>
      </trkpt>
      <trkpt lat="43.43859" lon="6.01928">
        <ele>267.60000610352</ele>
        <time>2017-06-07T13:16:20Z</time>
      </trkpt>
      <trkpt lat="43.43859" lon="6.01928">
        <ele>267.20001220703</ele>
        <time>2017-06-07T13:16:22Z</time>
      </trkpt>
      <trkpt lat="43.43859" lon="6.01928">
        <ele>267.39999389648</ele>
        <time>2017-06-07T13:16:23Z</time>
      </trkpt>
      <trkpt lat="43.43859" lon="6.01928">
        <ele>267</ele>
        <time>2017-06-07T13:16:25Z</time>
      </trkpt>
      <trkpt lat="43.43859" lon="6.01928">
        <ele>267</ele>
        <time>2017-06-07T13:16:26Z</time>
      </trkpt>
      <trkpt lat="43.43859" lon="6.01928">
        <ele>267</ele>
        <time>2017-06-07T13:16:27Z</time>
      </trkpt>
      <trkpt lat="43.43859" lon="6.01928">
        <ele>267</ele>
        <time>2017-06-07T13:16:32Z</time>
      </trkpt>
      <trkpt lat="43.43859" lon="6.01928">
        <ele>267</ele>
        <time>2017-06-07T13:16:35Z</time>
      </trkpt>
      <trkpt lat="43.43859" lon="6.01928">
        <ele>267</ele>
        <time>2017-06-07T13:16:37Z</time>
      </trkpt>
      <trkpt lat="43.43859" lon="6.01928">
        <ele>267</ele>
        <time>2017-06-07T13:16:43Z</time>
      </trkpt>
      <trkpt lat="43.43859" lon="6.01928">
        <ele>267.20001220703</ele>
        <time>2017-06-07T13:16:45Z</time>
      </trkpt>
      <trkpt lat="43.43859" lon="6.01928">
        <ele>267.39999389648</ele>
        <time>2017-06-07T13:16:47Z</time>
      </trkpt>
      <trkpt lat="43.43859" lon="6.01928">
        <ele>267.39999389648</ele>
        <time>2017-06-07T13:16:48Z</time>
      </trkpt>
      <trkpt lat="43.43859" lon="6.01928">
        <ele>267.39999389648</ele>
        <time>2017-06-07T13:16:50Z</time>
      </trkpt>
      <trkpt lat="43.43859" lon="6.01928">
        <ele>267.20001220703</ele>
        <time>2017-06-07T13:16:52Z</time>
      </trkpt>
      <trkpt lat="43.43859" lon="6.01928">
        <ele>267.39999389648</ele>
        <time>2017-06-07T13:16:54Z</time>
      </trkpt>
      <trkpt lat="43.43859" lon="6.01928">
        <ele>267.20001220703</ele>
        <time>2017-06-07T13:16:55Z</time>
      </trkpt>
      <trkpt lat="43.43859" lon="6.01928">
        <ele>267</ele>
        <time>2017-06-07T13:17:09Z</time>
      </trkpt>
      <trkpt lat="43.43859" lon="6.01928">
        <ele>266.79998779297</ele>
        <time>2017-06-07T13:17:12Z</time>
      </trkpt>
      <trkpt lat="43.43859" lon="6.01928">
        <ele>267.20001220703</ele>
        <time>2017-06-07T13:17:17Z</time>
      </trkpt>
      <trkpt lat="43.43859" lon="6.01928">
        <ele>267.20001220703</ele>
        <time>2017-06-07T13:17:18Z</time>
      </trkpt>
      <trkpt lat="43.43859" lon="6.01928">
        <ele>267</ele>
        <time>2017-06-07T13:17:20Z</time>
      </trkpt>
      <trkpt lat="43.43859" lon="6.01928">
        <ele>267</ele>
        <time>2017-06-07T13:17:21Z</time>
      </trkpt>
      <trkpt lat="43.43859" lon="6.01928">
        <ele>267</ele>
        <time>2017-06-07T13:17:22Z</time>
      </trkpt>
      <trkpt lat="43.43859" lon="6.01928">
        <ele>267.20001220703</ele>
        <time>2017-06-07T13:17:23Z</time>
      </trkpt>
      <trkpt lat="43.4386" lon="6.01927">
        <ele>267.39999389648</ele>
        <time>2017-06-07T13:17:24Z</time>
      </trkpt>
      <trkpt lat="43.43861" lon="6.01926">
        <ele>267.39999389648</ele>
        <time>2017-06-07T13:17:25Z</time>
      </trkpt>
      <trkpt lat="43.43862" lon="6.01925">
        <ele>267.42498779297</ele>
        <time>2017-06-07T13:17:26Z</time>
      </trkpt>
      <trkpt lat="43.43863" lon="6.01924">
        <ele>267.45001220703</ele>
        <time>2017-06-07T13:17:27Z</time>
      </trkpt>
      <trkpt lat="43.43863" lon="6.01922">
        <ele>267.47500610352</ele>
        <time>2017-06-07T13:17:28Z</time>
      </trkpt>
      <trkpt lat="43.43864" lon="6.01915">
        <ele>267.54998779297</ele>
        <time>2017-06-07T13:17:31Z</time>
      </trkpt>
      <trkpt lat="43.43864" lon="6.01913">
        <ele>267.57501220703</ele>
        <time>2017-06-07T13:17:32Z</time>
      </trkpt>
      <trkpt lat="43.43864" lon="6.0191">
        <ele>267.60000610352</ele>
        <time>2017-06-07T13:17:33Z</time>
      </trkpt>
      <trkpt lat="43.43865" lon="6.01907">
        <ele>267.60000610352</ele>
        <time>2017-06-07T13:17:34Z</time>
      </trkpt>
      <trkpt lat="43.43865" lon="6.01904">
        <ele>267.60000610352</ele>
        <time>2017-06-07T13:17:35Z</time>
      </trkpt>
      <trkpt lat="43.43866" lon="6.01901">
        <ele>267.60000610352</ele>
        <time>2017-06-07T13:17:36Z</time>
      </trkpt>
      <trkpt lat="43.43868" lon="6.01893">
        <ele>267.60000610352</ele>
        <time>2017-06-07T13:17:38Z</time>
      </trkpt>
      <trkpt lat="43.43869" lon="6.0189">
        <ele>267.60000610352</ele>
        <time>2017-06-07T13:17:39Z</time>
      </trkpt>
      <trkpt lat="43.4387" lon="6.01886">
        <ele>267.60000610352</ele>
        <time>2017-06-07T13:17:40Z</time>
      </trkpt>
      <trkpt lat="43.43871" lon="6.01882">
        <ele>267.60000610352</ele>
        <time>2017-06-07T13:17:41Z</time>
      </trkpt>
      <trkpt lat="43.43872" lon="6.01873">
        <ele>267.60000610352</ele>
        <time>2017-06-07T13:17:43Z</time>
      </trkpt>
      <trkpt lat="43.43874" lon="6.01864">
        <ele>267.39999389648</ele>
        <time>2017-06-07T13:17:45Z</time>
      </trkpt>
      <trkpt lat="43.43874" lon="6.0186">
        <ele>267.20001220703</ele>
        <time>2017-06-07T13:17:46Z</time>
      </trkpt>
      <trkpt lat="43.43875" lon="6.01855">
        <ele>267.20001220703</ele>
        <time>2017-06-07T13:17:47Z</time>
      </trkpt>
      <trkpt lat="43.43876" lon="6.01851">
        <ele>267.39999389648</ele>
        <time>2017-06-07T13:17:48Z</time>
      </trkpt>
      <trkpt lat="43.43877" lon="6.01837">
        <ele>268.20001220703</ele>
        <time>2017-06-07T13:17:51Z</time>
      </trkpt>
      <trkpt lat="43.43878" lon="6.01833">
        <ele>268.20001220703</ele>
        <time>2017-06-07T13:17:52Z</time>
      </trkpt>
      <trkpt lat="43.43878" lon="6.01829">
        <ele>268.38571166992</ele>
        <time>2017-06-07T13:17:53Z</time>
      </trkpt>
      <trkpt lat="43.43878" lon="6.01824">
        <ele>268.57144165039</ele>
        <time>2017-06-07T13:17:54Z</time>
      </trkpt>
      <trkpt lat="43.43879" lon="6.01819">
        <ele>268.75714111328</ele>
        <time>2017-06-07T13:17:55Z</time>
      </trkpt>
      <trkpt lat="43.43879" lon="6.01815">
        <ele>268.94287109375</ele>
        <time>2017-06-07T13:17:56Z</time>
      </trkpt>
      <trkpt lat="43.43879" lon="6.0181">
        <ele>269.12857055664</ele>
        <time>2017-06-07T13:17:57Z</time>
      </trkpt>
      <trkpt lat="43.43879" lon="6.01806">
        <ele>269.31430053711</ele>
        <time>2017-06-07T13:17:58Z</time>
      </trkpt>
      <trkpt lat="43.4388" lon="6.01802">
        <ele>269.68569946289</ele>
        <time>2017-06-07T13:18:00Z</time>
      </trkpt>
      <trkpt lat="43.4388" lon="6.01798">
        <ele>269.87142944336</ele>
        <time>2017-06-07T13:18:01Z</time>
      </trkpt>
      <trkpt lat="43.43881" lon="6.01794">
        <ele>270.05712890625</ele>
        <time>2017-06-07T13:18:02Z</time>
      </trkpt>
      <trkpt lat="43.43883" lon="6.01788">
        <ele>270.42855834961</ele>
        <time>2017-06-07T13:18:04Z</time>
      </trkpt>
      <trkpt lat="43.43885" lon="6.01784">
        <ele>270.61428833008</ele>
        <time>2017-06-07T13:18:05Z</time>
      </trkpt>
      <trkpt lat="43.43887" lon="6.01777">
        <ele>270.79998779297</ele>
        <time>2017-06-07T13:18:07Z</time>
      </trkpt>
      <trkpt lat="43.43888" lon="6.0177">
        <ele>271.14999389648</ele>
        <time>2017-06-07T13:18:09Z</time>
      </trkpt>
      <trkpt lat="43.43888" lon="6.01766">
        <ele>271.32501220703</ele>
        <time>2017-06-07T13:18:10Z</time>
      </trkpt>
      <trkpt lat="43.43888" lon="6.01762">
        <ele>271.5</ele>
        <time>2017-06-07T13:18:11Z</time>
      </trkpt>
      <trkpt lat="43.43888" lon="6.01758">
        <ele>271.67498779297</ele>
        <time>2017-06-07T13:18:12Z</time>
      </trkpt>
      <trkpt lat="43.43887" lon="6.01754">
        <ele>271.85000610352</ele>
        <time>2017-06-07T13:18:13Z</time>
      </trkpt>
      <trkpt lat="43.43887" lon="6.01751">
        <ele>272.02502441406</ele>
        <time>2017-06-07T13:18:14Z</time>
      </trkpt>
      <trkpt lat="43.43886" lon="6.01747">
        <ele>272.20001220703</ele>
        <time>2017-06-07T13:18:15Z</time>
      </trkpt>
      <trkpt lat="43.43885" lon="6.01742">
        <ele>272.20001220703</ele>
        <time>2017-06-07T13:18:16Z</time>
      </trkpt>
      <trkpt lat="43.43884" lon="6.01739">
        <ele>272.39999389648</ele>
        <time>2017-06-07T13:18:17Z</time>
      </trkpt>
      <trkpt lat="43.43883" lon="6.01735">
        <ele>272.39999389648</ele>
        <time>2017-06-07T13:18:18Z</time>
      </trkpt>
      <trkpt lat="43.4388" lon="6.01728">
        <ele>272.79998779297</ele>
        <time>2017-06-07T13:18:20Z</time>
      </trkpt>
      <trkpt lat="43.43878" lon="6.01721">
        <ele>273.19998168945</ele>
        <time>2017-06-07T13:18:22Z</time>
      </trkpt>
      <trkpt lat="43.43875" lon="6.01715">
        <ele>273.39999389648</ele>
        <time>2017-06-07T13:18:24Z</time>
      </trkpt>
      <trkpt lat="43.43871" lon="6.01701">
        <ele>274.06665039062</ele>
        <time>2017-06-07T13:18:28Z</time>
      </trkpt>
      <trkpt lat="43.4387" lon="6.01694">
        <ele>274.39999389648</ele>
        <time>2017-06-07T13:18:30Z</time>
      </trkpt>
      <trkpt lat="43.4387" lon="6.01682">
        <ele>274.60000610352</ele>
        <time>2017-06-07T13:18:33Z</time>
      </trkpt>
      <trkpt lat="43.4387" lon="6.01671">
        <ele>274.60000610352</ele>
        <time>2017-06-07T13:18:36Z</time>
      </trkpt>
      <trkpt lat="43.4387" lon="6.01667">
        <ele>274.39999389648</ele>
        <time>2017-06-07T13:18:37Z</time>
      </trkpt>
      <trkpt lat="43.43867" lon="6.01659">
        <ele>274.39999389648</ele>
        <time>2017-06-07T13:18:39Z</time>
      </trkpt>
      <trkpt lat="43.43866" lon="6.01657">
        <ele>274.79998779297</ele>
        <time>2017-06-07T13:18:40Z</time>
      </trkpt>
      <trkpt lat="43.43861" lon="6.01657">
        <ele>275.20001220703</ele>
        <time>2017-06-07T13:18:42Z</time>
      </trkpt>
      <trkpt lat="43.43856" lon="6.01659">
        <ele>275.39999389648</ele>
        <time>2017-06-07T13:18:44Z</time>
      </trkpt>
      <trkpt lat="43.43847" lon="6.01669">
        <ele>276.0666809082</ele>
        <time>2017-06-07T13:18:49Z</time>
      </trkpt>
      <trkpt lat="43.43845" lon="6.01671">
        <ele>276.20001220703</ele>
        <time>2017-06-07T13:18:50Z</time>
      </trkpt>
      <trkpt lat="43.4384" lon="6.01675">
        <ele>276.22222900391</ele>
        <time>2017-06-07T13:18:52Z</time>
      </trkpt>
      <trkpt lat="43.43838" lon="6.01676">
        <ele>276.24444580078</ele>
        <time>2017-06-07T13:18:53Z</time>
      </trkpt>
      <trkpt lat="43.43833" lon="6.01679">
        <ele>276.28887939453</ele>
        <time>2017-06-07T13:18:55Z</time>
      </trkpt>
      <trkpt lat="43.43826" lon="6.01683">
        <ele>276.35556030273</ele>
        <time>2017-06-07T13:18:58Z</time>
      </trkpt>
      <trkpt lat="43.43823" lon="6.01684">
        <ele>276.37777709961</ele>
        <time>2017-06-07T13:18:59Z</time>
      </trkpt>
      <trkpt lat="43.4382" lon="6.01685">
        <ele>276.39999389648</ele>
        <time>2017-06-07T13:19:00Z</time>
      </trkpt>
      <trkpt lat="43.43818" lon="6.01686">
        <ele>276.39999389648</ele>
        <time>2017-06-07T13:19:01Z</time>
      </trkpt>
      <trkpt lat="43.43815" lon="6.01687">
        <ele>276.60000610352</ele>
        <time>2017-06-07T13:19:02Z</time>
      </trkpt>
      <trkpt lat="43.43809" lon="6.01689">
        <ele>276.79998779297</ele>
        <time>2017-06-07T13:19:04Z</time>
      </trkpt>
      <trkpt lat="43.43806" lon="6.0169">
        <ele>276.60000610352</ele>
        <time>2017-06-07T13:19:05Z</time>
      </trkpt>
      <trkpt lat="43.43803" lon="6.01691">
        <ele>276.60000610352</ele>
        <time>2017-06-07T13:19:06Z</time>
      </trkpt>
      <trkpt lat="43.43797" lon="6.01694">
        <ele>276.79998779297</ele>
        <time>2017-06-07T13:19:08Z</time>
      </trkpt>
      <trkpt lat="43.43791" lon="6.01695">
        <ele>276.9333190918</ele>
        <time>2017-06-07T13:19:10Z</time>
      </trkpt>
      <trkpt lat="43.43788" lon="6.01695">
        <ele>277</ele>
        <time>2017-06-07T13:19:11Z</time>
      </trkpt>
      <trkpt lat="43.43785" lon="6.01694">
        <ele>277</ele>
        <time>2017-06-07T13:19:12Z</time>
      </trkpt>
      <trkpt lat="43.43782" lon="6.01694">
        <ele>277.10000610352</ele>
        <time>2017-06-07T13:19:13Z</time>
      </trkpt>
      <trkpt lat="43.4378" lon="6.01693">
        <ele>277.20001220703</ele>
        <time>2017-06-07T13:19:14Z</time>
      </trkpt>
      <trkpt lat="43.43775" lon="6.01692">
        <ele>277.40002441406</ele>
        <time>2017-06-07T13:19:16Z</time>
      </trkpt>
      <trkpt lat="43.43773" lon="6.01691">
        <ele>277.60000610352</ele>
        <time>2017-06-07T13:19:17Z</time>
      </trkpt>
      <trkpt lat="43.43768" lon="6.01689">
        <ele>278</ele>
        <time>2017-06-07T13:19:19Z</time>
      </trkpt>
      <trkpt lat="43.43765" lon="6.01688">
        <ele>278.20001220703</ele>
        <time>2017-06-07T13:19:20Z</time>
      </trkpt>
      <trkpt lat="43.43761" lon="6.01686">
        <ele>278.39999389648</ele>
        <time>2017-06-07T13:19:22Z</time>
      </trkpt>
      <trkpt lat="43.43758" lon="6.01685">
        <ele>278.60000610352</ele>
        <time>2017-06-07T13:19:23Z</time>
      </trkpt>
      <trkpt lat="43.43756" lon="6.01684">
        <ele>278.60000610352</ele>
        <time>2017-06-07T13:19:24Z</time>
      </trkpt>
      <trkpt lat="43.43754" lon="6.01682">
        <ele>278.79998779297</ele>
        <time>2017-06-07T13:19:25Z</time>
      </trkpt>
      <trkpt lat="43.43752" lon="6.01682">
        <ele>278.79998779297</ele>
        <time>2017-06-07T13:19:26Z</time>
      </trkpt>
      <trkpt lat="43.4375" lon="6.01681">
        <ele>279</ele>
        <time>2017-06-07T13:19:27Z</time>
      </trkpt>
      <trkpt lat="43.43748" lon="6.0168">
        <ele>279.20001220703</ele>
        <time>2017-06-07T13:19:28Z</time>
      </trkpt>
      <trkpt lat="43.43746" lon="6.01679">
        <ele>279.20001220703</ele>
        <time>2017-06-07T13:19:29Z</time>
      </trkpt>
      <trkpt lat="43.43745" lon="6.01677">
        <ele>279.39999389648</ele>
        <time>2017-06-07T13:19:30Z</time>
      </trkpt>
      <trkpt lat="43.43744" lon="6.01676">
        <ele>279.39999389648</ele>
        <time>2017-06-07T13:19:31Z</time>
      </trkpt>
      <trkpt lat="43.43744" lon="6.01675">
        <ele>279.4333190918</ele>
        <time>2017-06-07T13:19:32Z</time>
      </trkpt>
      <trkpt lat="43.43743" lon="6.01675">
        <ele>279.46667480469</ele>
        <time>2017-06-07T13:19:33Z</time>
      </trkpt>
      <trkpt lat="43.43743" lon="6.01675">
        <ele>279.5</ele>
        <time>2017-06-07T13:19:34Z</time>
      </trkpt>
      <trkpt lat="43.43743" lon="6.01675">
        <ele>279.53332519531</ele>
        <time>2017-06-07T13:19:35Z</time>
      </trkpt>
      <trkpt lat="43.43742" lon="6.01676">
        <ele>279.5666809082</ele>
        <time>2017-06-07T13:19:36Z</time>
      </trkpt>
      <trkpt lat="43.43742" lon="6.01676">
        <ele>279.60000610352</ele>
        <time>2017-06-07T13:19:37Z</time>
      </trkpt>
      <trkpt lat="43.43742" lon="6.01676">
        <ele>279.60000610352</ele>
        <time>2017-06-07T13:19:38Z</time>
      </trkpt>
      <trkpt lat="43.43742" lon="6.01676">
        <ele>279.67999267578</ele>
        <time>2017-06-07T13:19:42Z</time>
      </trkpt>
      <trkpt lat="43.43742" lon="6.01676">
        <ele>279.60000610352</ele>
        <time>2017-06-07T13:19:55Z</time>
      </trkpt>
      <trkpt lat="43.43742" lon="6.01676">
        <ele>280</ele>
        <time>2017-06-07T13:20:04Z</time>
      </trkpt>
      <trkpt lat="43.43742" lon="6.01676">
        <ele>280</ele>
        <time>2017-06-07T13:20:07Z</time>
      </trkpt>
      <trkpt lat="43.43742" lon="6.01676">
        <ele>279.60000610352</ele>
        <time>2017-06-07T13:20:11Z</time>
      </trkpt>
      <trkpt lat="43.43742" lon="6.01676">
        <ele>280</ele>
        <time>2017-06-07T13:20:16Z</time>
      </trkpt>
      <trkpt lat="43.43742" lon="6.01676">
        <ele>280.04998779297</ele>
        <time>2017-06-07T13:20:20Z</time>
      </trkpt>
      <trkpt lat="43.43742" lon="6.01676">
        <ele>280.11251831055</ele>
        <time>2017-06-07T13:20:25Z</time>
      </trkpt>
      <trkpt lat="43.43742" lon="6.01676">
        <ele>280.17501831055</ele>
        <time>2017-06-07T13:20:30Z</time>
      </trkpt>
      <trkpt lat="43.43742" lon="6.01676">
        <ele>280.26666259766</ele>
        <time>2017-06-07T13:20:35Z</time>
      </trkpt>
      <trkpt lat="43.43742" lon="6.01676">
        <ele>279.39999389648</ele>
        <time>2017-06-07T13:20:54Z</time>
      </trkpt>
      <trkpt lat="43.43742" lon="6.01676">
        <ele>280.20001220703</ele>
        <time>2017-06-07T13:20:59Z</time>
      </trkpt>
      <trkpt lat="43.43742" lon="6.01676">
        <ele>280</ele>
        <time>2017-06-07T13:21:02Z</time>
      </trkpt>
      <trkpt lat="43.43742" lon="6.01676">
        <ele>280</ele>
        <time>2017-06-07T13:21:03Z</time>
      </trkpt>
      <trkpt lat="43.43742" lon="6.01676">
        <ele>280.20001220703</ele>
        <time>2017-06-07T13:21:04Z</time>
      </trkpt>
      <trkpt lat="43.43742" lon="6.01676">
        <ele>280.30001831055</ele>
        <time>2017-06-07T13:21:06Z</time>
      </trkpt>
      <trkpt lat="43.43742" lon="6.01676">
        <ele>280.5</ele>
        <time>2017-06-07T13:21:08Z</time>
      </trkpt>
      <trkpt lat="43.43742" lon="6.01676">
        <ele>280.39999389648</ele>
        <time>2017-06-07T13:21:11Z</time>
      </trkpt>
      <trkpt lat="43.43742" lon="6.01676">
        <ele>280.33334350586</ele>
        <time>2017-06-07T13:21:12Z</time>
      </trkpt>
      <trkpt lat="43.43742" lon="6.01676">
        <ele>280.20001220703</ele>
        <time>2017-06-07T13:21:14Z</time>
      </trkpt>
      <trkpt lat="43.43742" lon="6.01676">
        <ele>280.20001220703</ele>
        <time>2017-06-07T13:21:15Z</time>
      </trkpt>
      <trkpt lat="43.43743" lon="6.01675">
        <ele>280.20001220703</ele>
        <time>2017-06-07T13:21:16Z</time>
      </trkpt>
      <trkpt lat="43.43743" lon="6.01675">
        <ele>280.20001220703</ele>
        <time>2017-06-07T13:21:17Z</time>
      </trkpt>
      <trkpt lat="43.43742" lon="6.01676">
        <ele>280.20001220703</ele>
        <time>2017-06-07T13:21:18Z</time>
      </trkpt>
      <trkpt lat="43.43742" lon="6.01677">
        <ele>280.39999389648</ele>
        <time>2017-06-07T13:21:21Z</time>
      </trkpt>
      <trkpt lat="43.43742" lon="6.01677">
        <ele>280.60000610352</ele>
        <time>2017-06-07T13:21:22Z</time>
      </trkpt>
      <trkpt lat="43.43742" lon="6.01677">
        <ele>280.79998779297</ele>
        <time>2017-06-07T13:21:23Z</time>
      </trkpt>
      <trkpt lat="43.43741" lon="6.01677">
        <ele>281</ele>
        <time>2017-06-07T13:21:24Z</time>
      </trkpt>
      <trkpt lat="43.43741" lon="6.01677">
        <ele>281.20001220703</ele>
        <time>2017-06-07T13:21:26Z</time>
      </trkpt>
      <trkpt lat="43.43741" lon="6.01677">
        <ele>281.20001220703</ele>
        <time>2017-06-07T13:21:27Z</time>
      </trkpt>
      <trkpt lat="43.43742" lon="6.01678">
        <ele>281.20001220703</ele>
        <time>2017-06-07T13:21:28Z</time>
      </trkpt>
      <trkpt lat="43.43742" lon="6.01678">
        <ele>281</ele>
        <time>2017-06-07T13:21:30Z</time>
      </trkpt>
      <trkpt lat="43.43742" lon="6.01678">
        <ele>281</ele>
        <time>2017-06-07T13:21:31Z</time>
      </trkpt>
      <trkpt lat="43.43742" lon="6.01678">
        <ele>281</ele>
        <time>2017-06-07T13:21:33Z</time>
      </trkpt>
      <trkpt lat="43.43742" lon="6.01678">
        <ele>281</ele>
        <time>2017-06-07T13:21:36Z</time>
      </trkpt>
      <trkpt lat="43.43742" lon="6.01678">
        <ele>281</ele>
        <time>2017-06-07T13:21:37Z</time>
      </trkpt>
      <trkpt lat="43.43741" lon="6.01678">
        <ele>281.20001220703</ele>
        <time>2017-06-07T13:21:38Z</time>
      </trkpt>
      <trkpt lat="43.4374" lon="6.01679">
        <ele>281.20001220703</ele>
        <time>2017-06-07T13:21:39Z</time>
      </trkpt>
      <trkpt lat="43.43739" lon="6.0168">
        <ele>281.20001220703</ele>
        <time>2017-06-07T13:21:40Z</time>
      </trkpt>
      <trkpt lat="43.43737" lon="6.0168">
        <ele>281</ele>
        <time>2017-06-07T13:21:41Z</time>
      </trkpt>
      <trkpt lat="43.43735" lon="6.0168">
        <ele>281</ele>
        <time>2017-06-07T13:21:42Z</time>
      </trkpt>
      <trkpt lat="43.43733" lon="6.01679">
        <ele>281</ele>
        <time>2017-06-07T13:21:43Z</time>
      </trkpt>
      <trkpt lat="43.43729" lon="6.01676">
        <ele>281</ele>
        <time>2017-06-07T13:21:45Z</time>
      </trkpt>
      <trkpt lat="43.43726" lon="6.01675">
        <ele>281</ele>
        <time>2017-06-07T13:21:46Z</time>
      </trkpt>
      <trkpt lat="43.43724" lon="6.01674">
        <ele>281.20001220703</ele>
        <time>2017-06-07T13:21:47Z</time>
      </trkpt>
      <trkpt lat="43.4372" lon="6.01672">
        <ele>281.79998779297</ele>
        <time>2017-06-07T13:21:49Z</time>
      </trkpt>
      <trkpt lat="43.43718" lon="6.01671">
        <ele>281.79998779297</ele>
        <time>2017-06-07T13:21:50Z</time>
      </trkpt>
      <trkpt lat="43.43716" lon="6.01669">
        <ele>282</ele>
        <time>2017-06-07T13:21:51Z</time>
      </trkpt>
      <trkpt lat="43.43714" lon="6.01667">
        <ele>282</ele>
        <time>2017-06-07T13:21:52Z</time>
      </trkpt>
      <trkpt lat="43.43712" lon="6.01665">
        <ele>282.04998779297</ele>
        <time>2017-06-07T13:21:53Z</time>
      </trkpt>
      <trkpt lat="43.4371" lon="6.01663">
        <ele>282.10000610352</ele>
        <time>2017-06-07T13:21:54Z</time>
      </trkpt>
      <trkpt lat="43.43707" lon="6.01661">
        <ele>282.15002441406</ele>
        <time>2017-06-07T13:21:55Z</time>
      </trkpt>
      <trkpt lat="43.43705" lon="6.01658">
        <ele>282.20001220703</ele>
        <time>2017-06-07T13:21:56Z</time>
      </trkpt>
      <trkpt lat="43.43699" lon="6.01651">
        <ele>282.39999389648</ele>
        <time>2017-06-07T13:21:59Z</time>
      </trkpt>
      <trkpt lat="43.43697" lon="6.01648">
        <ele>282.45001220703</ele>
        <time>2017-06-07T13:22:00Z</time>
      </trkpt>
      <trkpt lat="43.43694" lon="6.01647">
        <ele>282.5</ele>
        <time>2017-06-07T13:22:01Z</time>
      </trkpt>
      <trkpt lat="43.43692" lon="6.01645">
        <ele>282.54998779297</ele>
        <time>2017-06-07T13:22:02Z</time>
      </trkpt>
      <trkpt lat="43.43689" lon="6.01644">
        <ele>282.60000610352</ele>
        <time>2017-06-07T13:22:03Z</time>
      </trkpt>
      <trkpt lat="43.43687" lon="6.01644">
        <ele>282.60000610352</ele>
        <time>2017-06-07T13:22:04Z</time>
      </trkpt>
      <trkpt lat="43.43685" lon="6.01643">
        <ele>282.86666870117</ele>
        <time>2017-06-07T13:22:05Z</time>
      </trkpt>
      <trkpt lat="43.4368" lon="6.01642">
        <ele>283.39999389648</ele>
        <time>2017-06-07T13:22:07Z</time>
      </trkpt>
      <trkpt lat="43.43676" lon="6.01641">
        <ele>283.5</ele>
        <time>2017-06-07T13:22:09Z</time>
      </trkpt>
      <trkpt lat="43.43673" lon="6.0164">
        <ele>283.60000610352</ele>
        <time>2017-06-07T13:22:10Z</time>
      </trkpt>
      <trkpt lat="43.43671" lon="6.01639">
        <ele>283.60000610352</ele>
        <time>2017-06-07T13:22:11Z</time>
      </trkpt>
      <trkpt lat="43.43668" lon="6.01638">
        <ele>283.60000610352</ele>
        <time>2017-06-07T13:22:12Z</time>
      </trkpt>
      <trkpt lat="43.43666" lon="6.01637">
        <ele>283.39999389648</ele>
        <time>2017-06-07T13:22:13Z</time>
      </trkpt>
      <trkpt lat="43.43662" lon="6.01635">
        <ele>283.60000610352</ele>
        <time>2017-06-07T13:22:15Z</time>
      </trkpt>
      <trkpt lat="43.4366" lon="6.01634">
        <ele>283.77142333984</ele>
        <time>2017-06-07T13:22:16Z</time>
      </trkpt>
      <trkpt lat="43.43655" lon="6.01632">
        <ele>284.11428833008</ele>
        <time>2017-06-07T13:22:18Z</time>
      </trkpt>
      <trkpt lat="43.43653" lon="6.0163">
        <ele>284.28570556641</ele>
        <time>2017-06-07T13:22:19Z</time>
      </trkpt>
      <trkpt lat="43.43651" lon="6.01628">
        <ele>284.45712280273</ele>
        <time>2017-06-07T13:22:20Z</time>
      </trkpt>
      <trkpt lat="43.43649" lon="6.01626">
        <ele>284.62857055664</ele>
        <time>2017-06-07T13:22:21Z</time>
      </trkpt>
      <trkpt lat="43.43645" lon="6.0162">
        <ele>284.79998779297</ele>
        <time>2017-06-07T13:22:23Z</time>
      </trkpt>
      <trkpt lat="43.43639" lon="6.01609">
        <ele>284.79998779297</ele>
        <time>2017-06-07T13:22:27Z</time>
      </trkpt>
      <trkpt lat="43.43637" lon="6.01606">
        <ele>284.79998779297</ele>
        <time>2017-06-07T13:22:28Z</time>
      </trkpt>
      <trkpt lat="43.43636" lon="6.01603">
        <ele>284.79998779297</ele>
        <time>2017-06-07T13:22:29Z</time>
      </trkpt>
      <trkpt lat="43.43631" lon="6.01594">
        <ele>285.20001220703</ele>
        <time>2017-06-07T13:22:32Z</time>
      </trkpt>
      <trkpt lat="43.43625" lon="6.01581">
        <ele>285.79998779297</ele>
        <time>2017-06-07T13:22:36Z</time>
      </trkpt>
      <trkpt lat="43.43621" lon="6.01576">
        <ele>285.9333190918</ele>
        <time>2017-06-07T13:22:38Z</time>
      </trkpt>
      <trkpt lat="43.43617" lon="6.01571">
        <ele>286</ele>
        <time>2017-06-07T13:22:40Z</time>
      </trkpt>
      <trkpt lat="43.43613" lon="6.01566">
        <ele>286.20001220703</ele>
        <time>2017-06-07T13:22:42Z</time>
      </trkpt>
      <trkpt lat="43.43611" lon="6.01564">
        <ele>286.45001220703</ele>
        <time>2017-06-07T13:22:43Z</time>
      </trkpt>
      <trkpt lat="43.43609" lon="6.01562">
        <ele>286.70001220703</ele>
        <time>2017-06-07T13:22:44Z</time>
      </trkpt>
      <trkpt lat="43.43604" lon="6.01558">
        <ele>287.20001220703</ele>
        <time>2017-06-07T13:22:46Z</time>
      </trkpt>
      <trkpt lat="43.43602" lon="6.01556">
        <ele>287.20001220703</ele>
        <time>2017-06-07T13:22:47Z</time>
      </trkpt>
      <trkpt lat="43.43597" lon="6.01553">
        <ele>287.44000244141</ele>
        <time>2017-06-07T13:22:49Z</time>
      </trkpt>
      <trkpt lat="43.43592" lon="6.01551">
        <ele>287.67999267578</ele>
        <time>2017-06-07T13:22:51Z</time>
      </trkpt>
      <trkpt lat="43.43586" lon="6.01547">
        <ele>288</ele>
        <time>2017-06-07T13:22:54Z</time>
      </trkpt>
      <trkpt lat="43.4358" lon="6.01546">
        <ele>288.20001220703</ele>
        <time>2017-06-07T13:22:56Z</time>
      </trkpt>
      <trkpt lat="43.43578" lon="6.01546">
        <ele>288.20001220703</ele>
        <time>2017-06-07T13:22:57Z</time>
      </trkpt>
      <trkpt lat="43.43574" lon="6.01543">
        <ele>289</ele>
        <time>2017-06-07T13:22:59Z</time>
      </trkpt>
      <trkpt lat="43.43572" lon="6.01542">
        <ele>289.39999389648</ele>
        <time>2017-06-07T13:23:00Z</time>
      </trkpt>
      <trkpt lat="43.4357" lon="6.01542">
        <ele>289.39999389648</ele>
        <time>2017-06-07T13:23:01Z</time>
      </trkpt>
      <trkpt lat="43.43568" lon="6.01541">
        <ele>289.70001220703</ele>
        <time>2017-06-07T13:23:02Z</time>
      </trkpt>
      <trkpt lat="43.43567" lon="6.01541">
        <ele>290</ele>
        <time>2017-06-07T13:23:03Z</time>
      </trkpt>
      <trkpt lat="43.43564" lon="6.01541">
        <ele>290</ele>
        <time>2017-06-07T13:23:04Z</time>
      </trkpt>
      <trkpt lat="43.4356" lon="6.01539">
        <ele>290.20001220703</ele>
        <time>2017-06-07T13:23:06Z</time>
      </trkpt>
      <trkpt lat="43.43555" lon="6.01538">
        <ele>290.39999389648</ele>
        <time>2017-06-07T13:23:08Z</time>
      </trkpt>
      <trkpt lat="43.43553" lon="6.01538">
        <ele>290.60000610352</ele>
        <time>2017-06-07T13:23:09Z</time>
      </trkpt>
      <trkpt lat="43.43546" lon="6.01538">
        <ele>290.89999389648</ele>
        <time>2017-06-07T13:23:12Z</time>
      </trkpt>
      <trkpt lat="43.43544" lon="6.01537">
        <ele>291.04998779297</ele>
        <time>2017-06-07T13:23:13Z</time>
      </trkpt>
      <trkpt lat="43.43542" lon="6.01537">
        <ele>291.20001220703</ele>
        <time>2017-06-07T13:23:14Z</time>
      </trkpt>
      <trkpt lat="43.4354" lon="6.01537">
        <ele>291.35000610352</ele>
        <time>2017-06-07T13:23:15Z</time>
      </trkpt>
      <trkpt lat="43.43538" lon="6.01536">
        <ele>291.5</ele>
        <time>2017-06-07T13:23:16Z</time>
      </trkpt>
      <trkpt lat="43.43534" lon="6.01536">
        <ele>291.64999389648</ele>
        <time>2017-06-07T13:23:17Z</time>
      </trkpt>
      <trkpt lat="43.43532" lon="6.01535">
        <ele>291.79998779297</ele>
        <time>2017-06-07T13:23:18Z</time>
      </trkpt>
      <trkpt lat="43.4353" lon="6.01534">
        <ele>291.79998779297</ele>
        <time>2017-06-07T13:23:19Z</time>
      </trkpt>
      <trkpt lat="43.43526" lon="6.01531">
        <ele>292</ele>
        <time>2017-06-07T13:23:21Z</time>
      </trkpt>
      <trkpt lat="43.43524" lon="6.0153">
        <ele>292.20001220703</ele>
        <time>2017-06-07T13:23:22Z</time>
      </trkpt>
      <trkpt lat="43.43522" lon="6.01529">
        <ele>292.39999389648</ele>
        <time>2017-06-07T13:23:23Z</time>
      </trkpt>
      <trkpt lat="43.4352" lon="6.01528">
        <ele>292.60000610352</ele>
        <time>2017-06-07T13:23:24Z</time>
      </trkpt>
      <trkpt lat="43.43518" lon="6.01527">
        <ele>292.60000610352</ele>
        <time>2017-06-07T13:23:25Z</time>
      </trkpt>
      <trkpt lat="43.43515" lon="6.01526">
        <ele>292.79998779297</ele>
        <time>2017-06-07T13:23:26Z</time>
      </trkpt>
      <trkpt lat="43.4351" lon="6.01524">
        <ele>292.86666870117</ele>
        <time>2017-06-07T13:23:28Z</time>
      </trkpt>
      <trkpt lat="43.43509" lon="6.01523">
        <ele>292.9333190918</ele>
        <time>2017-06-07T13:23:29Z</time>
      </trkpt>
      <trkpt lat="43.43507" lon="6.01523">
        <ele>293</ele>
        <time>2017-06-07T13:23:30Z</time>
      </trkpt>
      <trkpt lat="43.43505" lon="6.01523">
        <ele>293</ele>
        <time>2017-06-07T13:23:31Z</time>
      </trkpt>
      <trkpt lat="43.43503" lon="6.01525">
        <ele>293.26666259766</ele>
        <time>2017-06-07T13:23:32Z</time>
      </trkpt>
      <trkpt lat="43.43499" lon="6.01527">
        <ele>293.79998779297</ele>
        <time>2017-06-07T13:23:34Z</time>
      </trkpt>
      <trkpt lat="43.43494" lon="6.01529">
        <ele>293.89999389648</ele>
        <time>2017-06-07T13:23:36Z</time>
      </trkpt>
      <trkpt lat="43.43491" lon="6.01529">
        <ele>294</ele>
        <time>2017-06-07T13:23:37Z</time>
      </trkpt>
      <trkpt lat="43.43489" lon="6.01529">
        <ele>294</ele>
        <time>2017-06-07T13:23:38Z</time>
      </trkpt>
      <trkpt lat="43.43487" lon="6.01529">
        <ele>294.20001220703</ele>
        <time>2017-06-07T13:23:39Z</time>
      </trkpt>
      <trkpt lat="43.43485" lon="6.01529">
        <ele>294.39999389648</ele>
        <time>2017-06-07T13:23:40Z</time>
      </trkpt>
      <trkpt lat="43.43483" lon="6.01528">
        <ele>294.39999389648</ele>
        <time>2017-06-07T13:23:41Z</time>
      </trkpt>
      <trkpt lat="43.43481" lon="6.01528">
        <ele>294.60000610352</ele>
        <time>2017-06-07T13:23:42Z</time>
      </trkpt>
      <trkpt lat="43.43479" lon="6.01527">
        <ele>294.60000610352</ele>
        <time>2017-06-07T13:23:43Z</time>
      </trkpt>
      <trkpt lat="43.43472" lon="6.01526">
        <ele>294.9333190918</ele>
        <time>2017-06-07T13:23:46Z</time>
      </trkpt>
      <trkpt lat="43.43469" lon="6.01526">
        <ele>295.0666809082</ele>
        <time>2017-06-07T13:23:47Z</time>
      </trkpt>
      <trkpt lat="43.43467" lon="6.01526">
        <ele>295.20001220703</ele>
        <time>2017-06-07T13:23:48Z</time>
      </trkpt>
      <trkpt lat="43.43465" lon="6.01526">
        <ele>295.20001220703</ele>
        <time>2017-06-07T13:23:49Z</time>
      </trkpt>
      <trkpt lat="43.43461" lon="6.01524">
        <ele>295.46667480469</ele>
        <time>2017-06-07T13:23:51Z</time>
      </trkpt>
      <trkpt lat="43.4346" lon="6.01522">
        <ele>295.60000610352</ele>
        <time>2017-06-07T13:23:52Z</time>
      </trkpt>
      <trkpt lat="43.43458" lon="6.01521">
        <ele>295.60000610352</ele>
        <time>2017-06-07T13:23:53Z</time>
      </trkpt>
      <trkpt lat="43.43456" lon="6.0152">
        <ele>295.79998779297</ele>
        <time>2017-06-07T13:23:54Z</time>
      </trkpt>
      <trkpt lat="43.43455" lon="6.0152">
        <ele>295.79998779297</ele>
        <time>2017-06-07T13:23:55Z</time>
      </trkpt>
      <trkpt lat="43.43453" lon="6.01519">
        <ele>296</ele>
        <time>2017-06-07T13:23:56Z</time>
      </trkpt>
      <trkpt lat="43.43451" lon="6.01518">
        <ele>296</ele>
        <time>2017-06-07T13:23:57Z</time>
      </trkpt>
      <trkpt lat="43.4345" lon="6.01517">
        <ele>296.20001220703</ele>
        <time>2017-06-07T13:23:58Z</time>
      </trkpt>
      <trkpt lat="43.43448" lon="6.01515">
        <ele>296.20001220703</ele>
        <time>2017-06-07T13:23:59Z</time>
      </trkpt>
      <trkpt lat="43.43447" lon="6.01513">
        <ele>296.29998779297</ele>
        <time>2017-06-07T13:24:00Z</time>
      </trkpt>
      <trkpt lat="43.43446" lon="6.01511">
        <ele>296.39999389648</ele>
        <time>2017-06-07T13:24:01Z</time>
      </trkpt>
      <trkpt lat="43.43444" lon="6.01507">
        <ele>296.60000610352</ele>
        <time>2017-06-07T13:24:03Z</time>
      </trkpt>
      <trkpt lat="43.43443" lon="6.01505">
        <ele>296.60000610352</ele>
        <time>2017-06-07T13:24:04Z</time>
      </trkpt>
      <trkpt lat="43.43441" lon="6.01501">
        <ele>296.79998779297</ele>
        <time>2017-06-07T13:24:06Z</time>
      </trkpt>
      <trkpt lat="43.43441" lon="6.01499">
        <ele>296.84997558594</ele>
        <time>2017-06-07T13:24:07Z</time>
      </trkpt>
      <trkpt lat="43.43439" lon="6.01495">
        <ele>296.95001220703</ele>
        <time>2017-06-07T13:24:09Z</time>
      </trkpt>
      <trkpt lat="43.43438" lon="6.01493">
        <ele>297</ele>
        <time>2017-06-07T13:24:10Z</time>
      </trkpt>
      <trkpt lat="43.43438" lon="6.01491">
        <ele>297</ele>
        <time>2017-06-07T13:24:11Z</time>
      </trkpt>
      <trkpt lat="43.43437" lon="6.01489">
        <ele>297.10000610352</ele>
        <time>2017-06-07T13:24:12Z</time>
      </trkpt>
      <trkpt lat="43.43436" lon="6.01484">
        <ele>297.20001220703</ele>
        <time>2017-06-07T13:24:14Z</time>
      </trkpt>
      <trkpt lat="43.43436" lon="6.01476">
        <ele>297.60000610352</ele>
        <time>2017-06-07T13:24:17Z</time>
      </trkpt>
      <trkpt lat="43.43435" lon="6.01474">
        <ele>297.79998779297</ele>
        <time>2017-06-07T13:24:18Z</time>
      </trkpt>
      <trkpt lat="43.43433" lon="6.01469">
        <ele>298.20001220703</ele>
        <time>2017-06-07T13:24:20Z</time>
      </trkpt>
      <trkpt lat="43.43431" lon="6.01462">
        <ele>298.36001586914</ele>
        <time>2017-06-07T13:24:23Z</time>
      </trkpt>
      <trkpt lat="43.4343" lon="6.0146">
        <ele>298.44000244141</ele>
        <time>2017-06-07T13:24:24Z</time>
      </trkpt>
      <trkpt lat="43.4343" lon="6.0145">
        <ele>298.80001831055</ele>
        <time>2017-06-07T13:24:28Z</time>
      </trkpt>
      <trkpt lat="43.4343" lon="6.01447">
        <ele>299</ele>
        <time>2017-06-07T13:24:29Z</time>
      </trkpt>
      <trkpt lat="43.4343" lon="6.01442">
        <ele>299.20001220703</ele>
        <time>2017-06-07T13:24:31Z</time>
      </trkpt>
      <trkpt lat="43.4343" lon="6.01433">
        <ele>299.66665649414</ele>
        <time>2017-06-07T13:24:35Z</time>
      </trkpt>
      <trkpt lat="43.4343" lon="6.01422">
        <ele>301</ele>
        <time>2017-06-07T13:24:40Z</time>
      </trkpt>
      <trkpt lat="43.43429" lon="6.01414">
        <ele>301.39999389648</ele>
        <time>2017-06-07T13:24:44Z</time>
      </trkpt>
      <trkpt lat="43.43429" lon="6.01412">
        <ele>301.39999389648</ele>
        <time>2017-06-07T13:24:45Z</time>
      </trkpt>
      <trkpt lat="43.4343" lon="6.01408">
        <ele>301.53332519531</ele>
        <time>2017-06-07T13:24:47Z</time>
      </trkpt>
      <trkpt lat="43.43429" lon="6.01406">
        <ele>301.60000610352</ele>
        <time>2017-06-07T13:24:48Z</time>
      </trkpt>
      <trkpt lat="43.43429" lon="6.01402">
        <ele>301.88000488281</ele>
        <time>2017-06-07T13:24:50Z</time>
      </trkpt>
      <trkpt lat="43.43428" lon="6.01398">
        <ele>302.44000244141</ele>
        <time>2017-06-07T13:24:52Z</time>
      </trkpt>
      <trkpt lat="43.43428" lon="6.01394">
        <ele>303</ele>
        <time>2017-06-07T13:24:54Z</time>
      </trkpt>
      <trkpt lat="43.43427" lon="6.01386">
        <ele>303.35000610352</ele>
        <time>2017-06-07T13:24:58Z</time>
      </trkpt>
      <trkpt lat="43.43427" lon="6.01384">
        <ele>303.5</ele>
        <time>2017-06-07T13:24:59Z</time>
      </trkpt>
      <trkpt lat="43.43426" lon="6.01382">
        <ele>303.64999389648</ele>
        <time>2017-06-07T13:25:00Z</time>
      </trkpt>
      <trkpt lat="43.43426" lon="6.0138">
        <ele>303.79998779297</ele>
        <time>2017-06-07T13:25:01Z</time>
      </trkpt>
      <trkpt lat="43.43426" lon="6.01377">
        <ele>303.79998779297</ele>
        <time>2017-06-07T13:25:02Z</time>
      </trkpt>
      <trkpt lat="43.43425" lon="6.01372">
        <ele>303.89999389648</ele>
        <time>2017-06-07T13:25:04Z</time>
      </trkpt>
      <trkpt lat="43.43425" lon="6.0137">
        <ele>303.95001220703</ele>
        <time>2017-06-07T13:25:05Z</time>
      </trkpt>
      <trkpt lat="43.43425" lon="6.01366">
        <ele>304</ele>
        <time>2017-06-07T13:25:07Z</time>
      </trkpt>
      <trkpt lat="43.43425" lon="6.01364">
        <ele>304.01998901367</ele>
        <time>2017-06-07T13:25:08Z</time>
      </trkpt>
      <trkpt lat="43.43425" lon="6.01362">
        <ele>304.04000854492</ele>
        <time>2017-06-07T13:25:09Z</time>
      </trkpt>
      <trkpt lat="43.43425" lon="6.0136">
        <ele>304.05999755859</ele>
        <time>2017-06-07T13:25:10Z</time>
      </trkpt>
      <trkpt lat="43.43424" lon="6.01356">
        <ele>304.10000610352</ele>
        <time>2017-06-07T13:25:12Z</time>
      </trkpt>
      <trkpt lat="43.43422" lon="6.01348">
        <ele>304.18002319336</ele>
        <time>2017-06-07T13:25:16Z</time>
      </trkpt>
      <trkpt lat="43.43421" lon="6.01346">
        <ele>304.20001220703</ele>
        <time>2017-06-07T13:25:17Z</time>
      </trkpt>
      <trkpt lat="43.4342" lon="6.01344">
        <ele>304.20001220703</ele>
        <time>2017-06-07T13:25:18Z</time>
      </trkpt>
      <trkpt lat="43.4342" lon="6.01342">
        <ele>304.44000244141</ele>
        <time>2017-06-07T13:25:19Z</time>
      </trkpt>
      <trkpt lat="43.4342" lon="6.01341">
        <ele>304.67999267578</ele>
        <time>2017-06-07T13:25:20Z</time>
      </trkpt>
      <trkpt lat="43.4342" lon="6.0134">
        <ele>304.92001342773</ele>
        <time>2017-06-07T13:25:21Z</time>
      </trkpt>
      <trkpt lat="43.4342" lon="6.0134">
        <ele>305.16000366211</ele>
        <time>2017-06-07T13:25:22Z</time>
      </trkpt>
      <trkpt lat="43.4342" lon="6.0134">
        <ele>305.39999389648</ele>
        <time>2017-06-07T13:25:23Z</time>
      </trkpt>
      <trkpt lat="43.4342" lon="6.0134">
        <ele>305.39999389648</ele>
        <time>2017-06-07T13:25:24Z</time>
      </trkpt>
      <trkpt lat="43.4342" lon="6.0134">
        <ele>305.43637084961</ele>
        <time>2017-06-07T13:25:25Z</time>
      </trkpt>
      <trkpt lat="43.4342" lon="6.0134">
        <ele>305.47271728516</ele>
        <time>2017-06-07T13:25:26Z</time>
      </trkpt>
      <trkpt lat="43.4342" lon="6.0134">
        <ele>305.6181640625</ele>
        <time>2017-06-07T13:25:30Z</time>
      </trkpt>
      <trkpt lat="43.4342" lon="6.0134">
        <ele>305.79998779297</ele>
        <time>2017-06-07T13:25:36Z</time>
      </trkpt>
      <trkpt lat="43.4342" lon="6.0134">
        <ele>305.60000610352</ele>
        <time>2017-06-07T13:25:40Z</time>
      </trkpt>
      <trkpt lat="43.4342" lon="6.0134">
        <ele>305.42855834961</ele>
        <time>2017-06-07T13:25:53Z</time>
      </trkpt>
      <trkpt lat="43.4342" lon="6.0134">
        <ele>305.39999389648</ele>
        <time>2017-06-07T13:25:56Z</time>
      </trkpt>
      <trkpt lat="43.43421" lon="6.01339">
        <ele>305.39999389648</ele>
        <time>2017-06-07T13:25:58Z</time>
      </trkpt>
      <trkpt lat="43.43421" lon="6.01339">
        <ele>305.39999389648</ele>
        <time>2017-06-07T13:26:00Z</time>
      </trkpt>
      <trkpt lat="43.43421" lon="6.01339">
        <ele>305.39999389648</ele>
        <time>2017-06-07T13:26:01Z</time>
      </trkpt>
      <trkpt lat="43.43421" lon="6.01339">
        <ele>305.39999389648</ele>
        <time>2017-06-07T13:26:02Z</time>
      </trkpt>
      <trkpt lat="43.43421" lon="6.01339">
        <ele>305.60000610352</ele>
        <time>2017-06-07T13:26:05Z</time>
      </trkpt>
      <trkpt lat="43.43421" lon="6.01339">
        <ele>305.60000610352</ele>
        <time>2017-06-07T13:26:06Z</time>
      </trkpt>
      <trkpt lat="43.43421" lon="6.01339">
        <ele>305.60000610352</ele>
        <time>2017-06-07T13:26:08Z</time>
      </trkpt>
      <trkpt lat="43.4342" lon="6.01339">
        <ele>305.39999389648</ele>
        <time>2017-06-07T13:26:09Z</time>
      </trkpt>
      <trkpt lat="43.4342" lon="6.01339">
        <ele>305.20001220703</ele>
        <time>2017-06-07T13:26:13Z</time>
      </trkpt>
      <trkpt lat="43.4342" lon="6.01339">
        <ele>304.79998779297</ele>
        <time>2017-06-07T13:26:19Z</time>
      </trkpt>
      <trkpt lat="43.43421" lon="6.01339">
        <ele>305</ele>
        <time>2017-06-07T13:26:20Z</time>
      </trkpt>
      <trkpt lat="43.43421" lon="6.01339">
        <ele>305.20001220703</ele>
        <time>2017-06-07T13:26:21Z</time>
      </trkpt>
      <trkpt lat="43.43421" lon="6.01339">
        <ele>305.20001220703</ele>
        <time>2017-06-07T13:26:22Z</time>
      </trkpt>
      <trkpt lat="43.43421" lon="6.01339">
        <ele>305.39999389648</ele>
        <time>2017-06-07T13:26:24Z</time>
      </trkpt>
      <trkpt lat="43.43421" lon="6.01339">
        <ele>305.5</ele>
        <time>2017-06-07T13:26:25Z</time>
      </trkpt>
      <trkpt lat="43.43421" lon="6.01339">
        <ele>305.60000610352</ele>
        <time>2017-06-07T13:26:26Z</time>
      </trkpt>
      <trkpt lat="43.43421" lon="6.01339">
        <ele>305.39999389648</ele>
        <time>2017-06-07T13:26:28Z</time>
      </trkpt>
      <trkpt lat="43.43421" lon="6.01338">
        <ele>305.39999389648</ele>
        <time>2017-06-07T13:26:29Z</time>
      </trkpt>
      <trkpt lat="43.43421" lon="6.01338">
        <ele>305.39999389648</ele>
        <time>2017-06-07T13:26:31Z</time>
      </trkpt>
      <trkpt lat="43.43421" lon="6.01338">
        <ele>305.39999389648</ele>
        <time>2017-06-07T13:26:32Z</time>
      </trkpt>
      <trkpt lat="43.43423" lon="6.01336">
        <ele>305.39999389648</ele>
        <time>2017-06-07T13:26:34Z</time>
      </trkpt>
      <trkpt lat="43.43423" lon="6.01334">
        <ele>305.39999389648</ele>
        <time>2017-06-07T13:26:35Z</time>
      </trkpt>
      <trkpt lat="43.43425" lon="6.01332">
        <ele>305.39999389648</ele>
        <time>2017-06-07T13:26:36Z</time>
      </trkpt>
      <trkpt lat="43.43426" lon="6.01331">
        <ele>305.39999389648</ele>
        <time>2017-06-07T13:26:37Z</time>
      </trkpt>
      <trkpt lat="43.43427" lon="6.01329">
        <ele>305.39999389648</ele>
        <time>2017-06-07T13:26:38Z</time>
      </trkpt>
      <trkpt lat="43.43429" lon="6.01328">
        <ele>305.39999389648</ele>
        <time>2017-06-07T13:26:39Z</time>
      </trkpt>
      <trkpt lat="43.43432" lon="6.01325">
        <ele>305.39999389648</ele>
        <time>2017-06-07T13:26:41Z</time>
      </trkpt>
      <trkpt lat="43.43434" lon="6.01322">
        <ele>305.79998779297</ele>
        <time>2017-06-07T13:26:43Z</time>
      </trkpt>
      <trkpt lat="43.43435" lon="6.0132">
        <ele>306</ele>
        <time>2017-06-07T13:26:44Z</time>
      </trkpt>
      <trkpt lat="43.43436" lon="6.01318">
        <ele>306.39999389648</ele>
        <time>2017-06-07T13:26:45Z</time>
      </trkpt>
      <trkpt lat="43.43438" lon="6.01317">
        <ele>307</ele>
        <time>2017-06-07T13:26:46Z</time>
      </trkpt>
      <trkpt lat="43.43439" lon="6.01315">
        <ele>307.20001220703</ele>
        <time>2017-06-07T13:26:47Z</time>
      </trkpt>
      <trkpt lat="43.4344" lon="6.01313">
        <ele>307.60000610352</ele>
        <time>2017-06-07T13:26:48Z</time>
      </trkpt>
      <trkpt lat="43.43443" lon="6.01304">
        <ele>309</ele>
        <time>2017-06-07T13:26:52Z</time>
      </trkpt>
      <trkpt lat="43.43444" lon="6.01302">
        <ele>309.20001220703</ele>
        <time>2017-06-07T13:26:53Z</time>
      </trkpt>
      <trkpt lat="43.43444" lon="6.013">
        <ele>309.60000610352</ele>
        <time>2017-06-07T13:26:54Z</time>
      </trkpt>
      <trkpt lat="43.43447" lon="6.01295">
        <ele>310.20001220703</ele>
        <time>2017-06-07T13:26:57Z</time>
      </trkpt>
      <trkpt lat="43.43449" lon="6.01292">
        <ele>310.60000610352</ele>
        <time>2017-06-07T13:26:59Z</time>
      </trkpt>
      <trkpt lat="43.4345" lon="6.0129">
        <ele>310.79998779297</ele>
        <time>2017-06-07T13:27:00Z</time>
      </trkpt>
      <trkpt lat="43.43451" lon="6.01288">
        <ele>310.79998779297</ele>
        <time>2017-06-07T13:27:01Z</time>
      </trkpt>
      <trkpt lat="43.43452" lon="6.01284">
        <ele>311</ele>
        <time>2017-06-07T13:27:03Z</time>
      </trkpt>
      <trkpt lat="43.43452" lon="6.01278">
        <ele>311.42224121094</ele>
        <time>2017-06-07T13:27:06Z</time>
      </trkpt>
      <trkpt lat="43.43452" lon="6.01276">
        <ele>311.64447021484</ele>
        <time>2017-06-07T13:27:07Z</time>
      </trkpt>
      <trkpt lat="43.43452" lon="6.01269">
        <ele>312.31112670898</ele>
        <time>2017-06-07T13:27:10Z</time>
      </trkpt>
      <trkpt lat="43.43452" lon="6.01265">
        <ele>312.75555419922</ele>
        <time>2017-06-07T13:27:12Z</time>
      </trkpt>
      <trkpt lat="43.43453" lon="6.01261">
        <ele>313.20001220703</ele>
        <time>2017-06-07T13:27:14Z</time>
      </trkpt>
      <trkpt lat="43.43454" lon="6.01259">
        <ele>313.20001220703</ele>
        <time>2017-06-07T13:27:15Z</time>
      </trkpt>
      <trkpt lat="43.43456" lon="6.01253">
        <ele>313.79998779297</ele>
        <time>2017-06-07T13:27:18Z</time>
      </trkpt>
      <trkpt lat="43.43457" lon="6.01252">
        <ele>313.79998779297</ele>
        <time>2017-06-07T13:27:19Z</time>
      </trkpt>
      <trkpt lat="43.43458" lon="6.0125">
        <ele>313.86666870117</ele>
        <time>2017-06-07T13:27:20Z</time>
      </trkpt>
      <trkpt lat="43.4346" lon="6.01247">
        <ele>314</ele>
        <time>2017-06-07T13:27:22Z</time>
      </trkpt>
      <trkpt lat="43.43464" lon="6.01244">
        <ele>314.23999023438</ele>
        <time>2017-06-07T13:27:25Z</time>
      </trkpt>
      <trkpt lat="43.43465" lon="6.01242">
        <ele>314.36001586914</ele>
        <time>2017-06-07T13:27:26Z</time>
      </trkpt>
      <trkpt lat="43.43468" lon="6.01239">
        <ele>314.60000610352</ele>
        <time>2017-06-07T13:27:28Z</time>
      </trkpt>
      <trkpt lat="43.43469" lon="6.01238">
        <ele>314.60000610352</ele>
        <time>2017-06-07T13:27:29Z</time>
      </trkpt>
      <trkpt lat="43.43472" lon="6.01233">
        <ele>314.83331298828</ele>
        <time>2017-06-07T13:27:32Z</time>
      </trkpt>
      <trkpt lat="43.43473" lon="6.01231">
        <ele>314.86666870117</ele>
        <time>2017-06-07T13:27:33Z</time>
      </trkpt>
      <trkpt lat="43.43473" lon="6.01228">
        <ele>314.89999389648</ele>
        <time>2017-06-07T13:27:34Z</time>
      </trkpt>
      <trkpt lat="43.43474" lon="6.01224">
        <ele>314.96667480469</ele>
        <time>2017-06-07T13:27:36Z</time>
      </trkpt>
      <trkpt lat="43.43474" lon="6.0122">
        <ele>315</ele>
        <time>2017-06-07T13:27:38Z</time>
      </trkpt>
      <trkpt lat="43.43474" lon="6.01218">
        <ele>315.20001220703</ele>
        <time>2017-06-07T13:27:39Z</time>
      </trkpt>
      <trkpt lat="43.43474" lon="6.01216">
        <ele>315.20001220703</ele>
        <time>2017-06-07T13:27:40Z</time>
      </trkpt>
      <trkpt lat="43.43474" lon="6.01214">
        <ele>315.30001831055</ele>
        <time>2017-06-07T13:27:41Z</time>
      </trkpt>
      <trkpt lat="43.43474" lon="6.01209">
        <ele>315.5</ele>
        <time>2017-06-07T13:27:43Z</time>
      </trkpt>
      <trkpt lat="43.43474" lon="6.01207">
        <ele>315.60000610352</ele>
        <time>2017-06-07T13:27:44Z</time>
      </trkpt>
      <trkpt lat="43.43474" lon="6.01205">
        <ele>315.60000610352</ele>
        <time>2017-06-07T13:27:45Z</time>
      </trkpt>
      <trkpt lat="43.43475" lon="6.012">
        <ele>316</ele>
        <time>2017-06-07T13:27:47Z</time>
      </trkpt>
      <trkpt lat="43.43475" lon="6.01196">
        <ele>316.20001220703</ele>
        <time>2017-06-07T13:27:49Z</time>
      </trkpt>
      <trkpt lat="43.43475" lon="6.01192">
        <ele>316.39999389648</ele>
        <time>2017-06-07T13:27:51Z</time>
      </trkpt>
      <trkpt lat="43.43475" lon="6.01185">
        <ele>316.79998779297</ele>
        <time>2017-06-07T13:27:54Z</time>
      </trkpt>
      <trkpt lat="43.43475" lon="6.01183">
        <ele>316.79998779297</ele>
        <time>2017-06-07T13:27:55Z</time>
      </trkpt>
      <trkpt lat="43.43475" lon="6.01179">
        <ele>317</ele>
        <time>2017-06-07T13:27:57Z</time>
      </trkpt>
      <trkpt lat="43.43475" lon="6.01172">
        <ele>317.5</ele>
        <time>2017-06-07T13:28:00Z</time>
      </trkpt>
      <trkpt lat="43.43474" lon="6.01166">
        <ele>318.39999389648</ele>
        <time>2017-06-07T13:28:03Z</time>
      </trkpt>
      <trkpt lat="43.43473" lon="6.01163">
        <ele>318.39999389648</ele>
        <time>2017-06-07T13:28:04Z</time>
      </trkpt>
      <trkpt lat="43.43473" lon="6.01154">
        <ele>318.39999389648</ele>
        <time>2017-06-07T13:28:08Z</time>
      </trkpt>
      <trkpt lat="43.43475" lon="6.01148">
        <ele>318.60000610352</ele>
        <time>2017-06-07T13:28:11Z</time>
      </trkpt>
      <trkpt lat="43.43476" lon="6.01143">
        <ele>318.79998779297</ele>
        <time>2017-06-07T13:28:13Z</time>
      </trkpt>
      <trkpt lat="43.43477" lon="6.01141">
        <ele>319</ele>
        <time>2017-06-07T13:28:14Z</time>
      </trkpt>
      <trkpt lat="43.43478" lon="6.01139">
        <ele>319.20001220703</ele>
        <time>2017-06-07T13:28:15Z</time>
      </trkpt>
      <trkpt lat="43.43479" lon="6.01137">
        <ele>319.39999389648</ele>
        <time>2017-06-07T13:28:16Z</time>
      </trkpt>
      <trkpt lat="43.43481" lon="6.01134">
        <ele>319.60000610352</ele>
        <time>2017-06-07T13:28:18Z</time>
      </trkpt>
      <trkpt lat="43.43481" lon="6.01133">
        <ele>319.79998779297</ele>
        <time>2017-06-07T13:28:19Z</time>
      </trkpt>
      <trkpt lat="43.43483" lon="6.01131">
        <ele>319.79998779297</ele>
        <time>2017-06-07T13:28:20Z</time>
      </trkpt>
      <trkpt lat="43.43484" lon="6.01128">
        <ele>320</ele>
        <time>2017-06-07T13:28:22Z</time>
      </trkpt>
      <trkpt lat="43.43486" lon="6.01124">
        <ele>320.13333129883</ele>
        <time>2017-06-07T13:28:24Z</time>
      </trkpt>
      <trkpt lat="43.43487" lon="6.01122">
        <ele>320.20001220703</ele>
        <time>2017-06-07T13:28:25Z</time>
      </trkpt>
      <trkpt lat="43.43488" lon="6.0112">
        <ele>320.20001220703</ele>
        <time>2017-06-07T13:28:26Z</time>
      </trkpt>
      <trkpt lat="43.4349" lon="6.01116">
        <ele>320.44000244141</ele>
        <time>2017-06-07T13:28:28Z</time>
      </trkpt>
      <trkpt lat="43.43493" lon="6.0111">
        <ele>320.79998779297</ele>
        <time>2017-06-07T13:28:31Z</time>
      </trkpt>
      <trkpt lat="43.43494" lon="6.01108">
        <ele>320.79998779297</ele>
        <time>2017-06-07T13:28:32Z</time>
      </trkpt>
      <trkpt lat="43.43495" lon="6.01104">
        <ele>321</ele>
        <time>2017-06-07T13:28:34Z</time>
      </trkpt>
      <trkpt lat="43.43496" lon="6.01102">
        <ele>321.20001220703</ele>
        <time>2017-06-07T13:28:35Z</time>
      </trkpt>
      <trkpt lat="43.43497" lon="6.01098">
        <ele>321.40002441406</ele>
        <time>2017-06-07T13:28:37Z</time>
      </trkpt>
      <trkpt lat="43.43499" lon="6.01091">
        <ele>321.79998779297</ele>
        <time>2017-06-07T13:28:40Z</time>
      </trkpt>
      <trkpt lat="43.435" lon="6.01082">
        <ele>322.39999389648</ele>
        <time>2017-06-07T13:28:44Z</time>
      </trkpt>
      <trkpt lat="43.435" lon="6.01075">
        <ele>322.60000610352</ele>
        <time>2017-06-07T13:28:47Z</time>
      </trkpt>
      <trkpt lat="43.43499" lon="6.01068">
        <ele>322.79998779297</ele>
        <time>2017-06-07T13:28:50Z</time>
      </trkpt>
      <trkpt lat="43.43498" lon="6.01063">
        <ele>322.60000610352</ele>
        <time>2017-06-07T13:28:52Z</time>
      </trkpt>
      <trkpt lat="43.43497" lon="6.0106">
        <ele>322.79998779297</ele>
        <time>2017-06-07T13:28:53Z</time>
      </trkpt>
      <trkpt lat="43.43497" lon="6.01055">
        <ele>323</ele>
        <time>2017-06-07T13:28:55Z</time>
      </trkpt>
      <trkpt lat="43.43496" lon="6.01051">
        <ele>323.20001220703</ele>
        <time>2017-06-07T13:28:57Z</time>
      </trkpt>
      <trkpt lat="43.43495" lon="6.01049">
        <ele>323.20001220703</ele>
        <time>2017-06-07T13:28:58Z</time>
      </trkpt>
      <trkpt lat="43.43494" lon="6.01041">
        <ele>323.20001220703</ele>
        <time>2017-06-07T13:29:01Z</time>
      </trkpt>
      <trkpt lat="43.43494" lon="6.01038">
        <ele>323.60000610352</ele>
        <time>2017-06-07T13:29:02Z</time>
      </trkpt>
      <trkpt lat="43.43493" lon="6.01036">
        <ele>323.60000610352</ele>
        <time>2017-06-07T13:29:03Z</time>
      </trkpt>
      <trkpt lat="43.43493" lon="6.01031">
        <ele>323.79998779297</ele>
        <time>2017-06-07T13:29:05Z</time>
      </trkpt>
      <trkpt lat="43.43493" lon="6.01029">
        <ele>324</ele>
        <time>2017-06-07T13:29:06Z</time>
      </trkpt>
      <trkpt lat="43.43493" lon="6.01025">
        <ele>324.10000610352</ele>
        <time>2017-06-07T13:29:08Z</time>
      </trkpt>
      <trkpt lat="43.43493" lon="6.01023">
        <ele>324.20001220703</ele>
        <time>2017-06-07T13:29:09Z</time>
      </trkpt>
      <trkpt lat="43.43493" lon="6.0102">
        <ele>324.20001220703</ele>
        <time>2017-06-07T13:29:10Z</time>
      </trkpt>
      <trkpt lat="43.43492" lon="6.01014">
        <ele>324.60000610352</ele>
        <time>2017-06-07T13:29:13Z</time>
      </trkpt>
      <trkpt lat="43.43491" lon="6.01007">
        <ele>325.20001220703</ele>
        <time>2017-06-07T13:29:16Z</time>
      </trkpt>
      <trkpt lat="43.43491" lon="6.01005">
        <ele>325.20001220703</ele>
        <time>2017-06-07T13:29:17Z</time>
      </trkpt>
      <trkpt lat="43.43492" lon="6.01001">
        <ele>325.60000610352</ele>
        <time>2017-06-07T13:29:19Z</time>
      </trkpt>
      <trkpt lat="43.43494" lon="6.00993">
        <ele>326.20001220703</ele>
        <time>2017-06-07T13:29:23Z</time>
      </trkpt>
      <trkpt lat="43.43496" lon="6.00981">
        <ele>327.39999389648</ele>
        <time>2017-06-07T13:29:29Z</time>
      </trkpt>
      <trkpt lat="43.43496" lon="6.00974">
        <ele>328</ele>
        <time>2017-06-07T13:29:32Z</time>
      </trkpt>
      <trkpt lat="43.43498" lon="6.00965">
        <ele>328.79998779297</ele>
        <time>2017-06-07T13:29:36Z</time>
      </trkpt>
      <trkpt lat="43.43499" lon="6.00961">
        <ele>329.19998168945</ele>
        <time>2017-06-07T13:29:38Z</time>
      </trkpt>
      <trkpt lat="43.43501" lon="6.00953">
        <ele>330</ele>
        <time>2017-06-07T13:29:42Z</time>
      </trkpt>
      <trkpt lat="43.43501" lon="6.00947">
        <ele>330.59997558594</ele>
        <time>2017-06-07T13:29:45Z</time>
      </trkpt>
      <trkpt lat="43.43502" lon="6.00943">
        <ele>330.79998779297</ele>
        <time>2017-06-07T13:29:47Z</time>
      </trkpt>
      <trkpt lat="43.43503" lon="6.00936">
        <ele>331.10000610352</ele>
        <time>2017-06-07T13:29:50Z</time>
      </trkpt>
      <trkpt lat="43.43504" lon="6.00934">
        <ele>331.20001220703</ele>
        <time>2017-06-07T13:29:51Z</time>
      </trkpt>
      <trkpt lat="43.43505" lon="6.00928">
        <ele>331.39999389648</ele>
        <time>2017-06-07T13:29:54Z</time>
      </trkpt>
      <trkpt lat="43.43506" lon="6.00926">
        <ele>331.59997558594</ele>
        <time>2017-06-07T13:29:55Z</time>
      </trkpt>
      <trkpt lat="43.43507" lon="6.0092">
        <ele>332</ele>
        <time>2017-06-07T13:29:58Z</time>
      </trkpt>
      <trkpt lat="43.43507" lon="6.00915">
        <ele>332.39999389648</ele>
        <time>2017-06-07T13:30:00Z</time>
      </trkpt>
      <trkpt lat="43.43507" lon="6.00913">
        <ele>332.39999389648</ele>
        <time>2017-06-07T13:30:01Z</time>
      </trkpt>
      <trkpt lat="43.43508" lon="6.00909">
        <ele>332.74285888672</ele>
        <time>2017-06-07T13:30:03Z</time>
      </trkpt>
      <trkpt lat="43.43509" lon="6.00908">
        <ele>332.91427612305</ele>
        <time>2017-06-07T13:30:04Z</time>
      </trkpt>
      <trkpt lat="43.43511" lon="6.00897">
        <ele>333.88000488281</ele>
        <time>2017-06-07T13:30:10Z</time>
      </trkpt>
      <trkpt lat="43.43512" lon="6.00891">
        <ele>334.7200012207</ele>
        <time>2017-06-07T13:30:13Z</time>
      </trkpt>
      <trkpt lat="43.43513" lon="6.00886">
        <ele>335.20001220703</ele>
        <time>2017-06-07T13:30:16Z</time>
      </trkpt>
      <trkpt lat="43.43515" lon="6.00879">
        <ele>335.60000610352</ele>
        <time>2017-06-07T13:30:20Z</time>
      </trkpt>
      <trkpt lat="43.43516" lon="6.00877">
        <ele>335.79998779297</ele>
        <time>2017-06-07T13:30:21Z</time>
      </trkpt>
      <trkpt lat="43.43516" lon="6.00875">
        <ele>335.79998779297</ele>
        <time>2017-06-07T13:30:22Z</time>
      </trkpt>
      <trkpt lat="43.43517" lon="6.00872">
        <ele>336.19998168945</ele>
        <time>2017-06-07T13:30:24Z</time>
      </trkpt>
      <trkpt lat="43.43518" lon="6.00868">
        <ele>336.39999389648</ele>
        <time>2017-06-07T13:30:26Z</time>
      </trkpt>
      <trkpt lat="43.4352" lon="6.0086">
        <ele>336.79998779297</ele>
        <time>2017-06-07T13:30:30Z</time>
      </trkpt>
      <trkpt lat="43.43521" lon="6.00856">
        <ele>337</ele>
        <time>2017-06-07T13:30:32Z</time>
      </trkpt>
      <trkpt lat="43.43522" lon="6.00852">
        <ele>336.79998779297</ele>
        <time>2017-06-07T13:30:34Z</time>
      </trkpt>
      <trkpt lat="43.43523" lon="6.00845">
        <ele>337.20001220703</ele>
        <time>2017-06-07T13:30:37Z</time>
      </trkpt>
      <trkpt lat="43.43526" lon="6.00832">
        <ele>337.80001831055</ele>
        <time>2017-06-07T13:30:43Z</time>
      </trkpt>
      <trkpt lat="43.43527" lon="6.00826">
        <ele>338.20001220703</ele>
        <time>2017-06-07T13:30:46Z</time>
      </trkpt>
      <trkpt lat="43.43527" lon="6.00824">
        <ele>338.40002441406</ele>
        <time>2017-06-07T13:30:47Z</time>
      </trkpt>
      <trkpt lat="43.43528" lon="6.0082">
        <ele>338.60000610352</ele>
        <time>2017-06-07T13:30:49Z</time>
      </trkpt>
      <trkpt lat="43.43529" lon="6.00819">
        <ele>338.79998779297</ele>
        <time>2017-06-07T13:30:50Z</time>
      </trkpt>
      <trkpt lat="43.43529" lon="6.00817">
        <ele>339</ele>
        <time>2017-06-07T13:30:51Z</time>
      </trkpt>
      <trkpt lat="43.4353" lon="6.00816">
        <ele>339</ele>
        <time>2017-06-07T13:30:52Z</time>
      </trkpt>
      <trkpt lat="43.4353" lon="6.00815">
        <ele>339.20001220703</ele>
        <time>2017-06-07T13:30:53Z</time>
      </trkpt>
      <trkpt lat="43.4353" lon="6.00814">
        <ele>339.39999389648</ele>
        <time>2017-06-07T13:30:54Z</time>
      </trkpt>
      <trkpt lat="43.4353" lon="6.00813">
        <ele>339.39999389648</ele>
        <time>2017-06-07T13:30:55Z</time>
      </trkpt>
      <trkpt lat="43.4353" lon="6.00813">
        <ele>339.60000610352</ele>
        <time>2017-06-07T13:30:57Z</time>
      </trkpt>
      <trkpt lat="43.4353" lon="6.00813">
        <ele>339.60000610352</ele>
        <time>2017-06-07T13:30:59Z</time>
      </trkpt>
      <trkpt lat="43.4353" lon="6.00813">
        <ele>339.33334350586</ele>
        <time>2017-06-07T13:31:03Z</time>
      </trkpt>
      <trkpt lat="43.4353" lon="6.00813">
        <ele>339.20001220703</ele>
        <time>2017-06-07T13:31:05Z</time>
      </trkpt>
      <trkpt lat="43.4353" lon="6.00813">
        <ele>339.0666809082</ele>
        <time>2017-06-07T13:31:09Z</time>
      </trkpt>
      <trkpt lat="43.4353" lon="6.00813">
        <ele>338.86666870117</ele>
        <time>2017-06-07T13:31:15Z</time>
      </trkpt>
      <trkpt lat="43.4353" lon="6.00813">
        <ele>339</ele>
        <time>2017-06-07T13:31:19Z</time>
      </trkpt>
      <trkpt lat="43.4353" lon="6.00813">
        <ele>339.20001220703</ele>
        <time>2017-06-07T13:31:23Z</time>
      </trkpt>
      <trkpt lat="43.4353" lon="6.00813">
        <ele>339</ele>
        <time>2017-06-07T13:31:27Z</time>
      </trkpt>
      <trkpt lat="43.4353" lon="6.00813">
        <ele>339</ele>
        <time>2017-06-07T13:31:32Z</time>
      </trkpt>
      <trkpt lat="43.4353" lon="6.00813">
        <ele>339.20001220703</ele>
        <time>2017-06-07T13:31:54Z</time>
      </trkpt>
      <trkpt lat="43.4353" lon="6.00813">
        <ele>339.20001220703</ele>
        <time>2017-06-07T13:32:03Z</time>
      </trkpt>
      <trkpt lat="43.4353" lon="6.00813">
        <ele>339.39999389648</ele>
        <time>2017-06-07T13:32:07Z</time>
      </trkpt>
      <trkpt lat="43.4353" lon="6.00813">
        <ele>339.39999389648</ele>
        <time>2017-06-07T13:32:10Z</time>
      </trkpt>
      <trkpt lat="43.4353" lon="6.00813">
        <ele>339.20001220703</ele>
        <time>2017-06-07T13:32:13Z</time>
      </trkpt>
      <trkpt lat="43.4353" lon="6.00813">
        <ele>339.12728881836</ele>
        <time>2017-06-07T13:32:15Z</time>
      </trkpt>
      <trkpt lat="43.4353" lon="6.00813">
        <ele>338.98181152344</ele>
        <time>2017-06-07T13:32:19Z</time>
      </trkpt>
      <trkpt lat="43.4353" lon="6.00813">
        <ele>338.87271118164</ele>
        <time>2017-06-07T13:32:22Z</time>
      </trkpt>
      <trkpt lat="43.4353" lon="6.00813">
        <ele>339.39999389648</ele>
        <time>2017-06-07T13:32:28Z</time>
      </trkpt>
      <trkpt lat="43.4353" lon="6.00813">
        <ele>339.39999389648</ele>
        <time>2017-06-07T13:32:29Z</time>
      </trkpt>
      <trkpt lat="43.4353" lon="6.00813">
        <ele>339.39999389648</ele>
        <time>2017-06-07T13:32:30Z</time>
      </trkpt>
      <trkpt lat="43.4353" lon="6.00813">
        <ele>339.20001220703</ele>
        <time>2017-06-07T13:32:32Z</time>
      </trkpt>
      <trkpt lat="43.4353" lon="6.00813">
        <ele>339.17501831055</ele>
        <time>2017-06-07T13:32:33Z</time>
      </trkpt>
      <trkpt lat="43.4353" lon="6.00813">
        <ele>339.125</ele>
        <time>2017-06-07T13:32:35Z</time>
      </trkpt>
      <trkpt lat="43.4353" lon="6.00813">
        <ele>339.10000610352</ele>
        <time>2017-06-07T13:32:36Z</time>
      </trkpt>
      <trkpt lat="43.4353" lon="6.00813">
        <ele>339.04998779297</ele>
        <time>2017-06-07T13:32:38Z</time>
      </trkpt>
      <trkpt lat="43.4353" lon="6.00813">
        <ele>339</ele>
        <time>2017-06-07T13:32:40Z</time>
      </trkpt>
      <trkpt lat="43.4353" lon="6.00813">
        <ele>339</ele>
        <time>2017-06-07T13:32:41Z</time>
      </trkpt>
      <trkpt lat="43.4353" lon="6.00813">
        <ele>339</ele>
        <time>2017-06-07T13:32:45Z</time>
      </trkpt>
      <trkpt lat="43.4353" lon="6.00813">
        <ele>339.28570556641</ele>
        <time>2017-06-07T13:33:05Z</time>
      </trkpt>
      <trkpt lat="43.4353" lon="6.00813">
        <ele>339.20001220703</ele>
        <time>2017-06-07T13:33:08Z</time>
      </trkpt>
      <trkpt lat="43.4353" lon="6.00813">
        <ele>339.20001220703</ele>
        <time>2017-06-07T13:33:13Z</time>
      </trkpt>
      <trkpt lat="43.4353" lon="6.00813">
        <ele>339.39999389648</ele>
        <time>2017-06-07T13:33:22Z</time>
      </trkpt>
      <trkpt lat="43.4353" lon="6.00812">
        <ele>339.39999389648</ele>
        <time>2017-06-07T13:33:51Z</time>
      </trkpt>
      <trkpt lat="43.4353" lon="6.00812">
        <ele>339.39999389648</ele>
        <time>2017-06-07T13:33:58Z</time>
      </trkpt>
      <trkpt lat="43.4353" lon="6.00812">
        <ele>339.0666809082</ele>
        <time>2017-06-07T13:34:02Z</time>
      </trkpt>
      <trkpt lat="43.4353" lon="6.00812">
        <ele>339</ele>
        <time>2017-06-07T13:34:03Z</time>
      </trkpt>
      <trkpt lat="43.4353" lon="6.00812">
        <ele>339.79998779297</ele>
        <time>2017-06-07T13:34:07Z</time>
      </trkpt>
      <trkpt lat="43.4353" lon="6.00812">
        <ele>339.60000610352</ele>
        <time>2017-06-07T13:34:21Z</time>
      </trkpt>
      <trkpt lat="43.4353" lon="6.00812">
        <ele>339.79998779297</ele>
        <time>2017-06-07T13:34:22Z</time>
      </trkpt>
      <trkpt lat="43.4353" lon="6.00812">
        <ele>339.60000610352</ele>
        <time>2017-06-07T13:34:27Z</time>
      </trkpt>
      <trkpt lat="43.4353" lon="6.00812">
        <ele>340.0666809082</ele>
        <time>2017-06-07T13:34:35Z</time>
      </trkpt>
      <trkpt lat="43.4353" lon="6.00812">
        <ele>340</ele>
        <time>2017-06-07T13:34:37Z</time>
      </trkpt>
      <trkpt lat="43.4353" lon="6.00812">
        <ele>340</ele>
        <time>2017-06-07T13:34:39Z</time>
      </trkpt>
      <trkpt lat="43.4353" lon="6.00812">
        <ele>340.20001220703</ele>
        <time>2017-06-07T13:34:43Z</time>
      </trkpt>
      <trkpt lat="43.4353" lon="6.00812">
        <ele>340.20001220703</ele>
        <time>2017-06-07T13:34:46Z</time>
      </trkpt>
      <trkpt lat="43.4353" lon="6.00812">
        <ele>340.20001220703</ele>
        <time>2017-06-07T13:34:48Z</time>
      </trkpt>
      <trkpt lat="43.4353" lon="6.00812">
        <ele>340</ele>
        <time>2017-06-07T13:34:52Z</time>
      </trkpt>
      <trkpt lat="43.4353" lon="6.00812">
        <ele>339.79998779297</ele>
        <time>2017-06-07T13:35:02Z</time>
      </trkpt>
      <trkpt lat="43.4353" lon="6.00812">
        <ele>340.39999389648</ele>
        <time>2017-06-07T13:35:06Z</time>
      </trkpt>
      <trkpt lat="43.4353" lon="6.00812">
        <ele>340.39999389648</ele>
        <time>2017-06-07T13:35:09Z</time>
      </trkpt>
      <trkpt lat="43.4353" lon="6.00812">
        <ele>340.20001220703</ele>
        <time>2017-06-07T13:35:11Z</time>
      </trkpt>
      <trkpt lat="43.4353" lon="6.00812">
        <ele>339.9333190918</ele>
        <time>2017-06-07T13:35:14Z</time>
      </trkpt>
      <trkpt lat="43.43531" lon="6.00811">
        <ele>339.86666870117</ele>
        <time>2017-06-07T13:35:15Z</time>
      </trkpt>
      <trkpt lat="43.43532" lon="6.0081">
        <ele>339.79998779297</ele>
        <time>2017-06-07T13:35:16Z</time>
      </trkpt>
      <trkpt lat="43.43533" lon="6.00809">
        <ele>339.79998779297</ele>
        <time>2017-06-07T13:35:17Z</time>
      </trkpt>
      <trkpt lat="43.43533" lon="6.00807">
        <ele>339.60000610352</ele>
        <time>2017-06-07T13:35:18Z</time>
      </trkpt>
      <trkpt lat="43.43534" lon="6.00804">
        <ele>339.60000610352</ele>
        <time>2017-06-07T13:35:20Z</time>
      </trkpt>
      <trkpt lat="43.43534" lon="6.00802">
        <ele>339.60000610352</ele>
        <time>2017-06-07T13:35:21Z</time>
      </trkpt>
      <trkpt lat="43.43535" lon="6.008">
        <ele>339.60000610352</ele>
        <time>2017-06-07T13:35:22Z</time>
      </trkpt>
      <trkpt lat="43.43536" lon="6.00795">
        <ele>339.79998779297</ele>
        <time>2017-06-07T13:35:24Z</time>
      </trkpt>
      <trkpt lat="43.43538" lon="6.00792">
        <ele>339.79998779297</ele>
        <time>2017-06-07T13:35:25Z</time>
      </trkpt>
      <trkpt lat="43.43538" lon="6.0079">
        <ele>339.60000610352</ele>
        <time>2017-06-07T13:35:26Z</time>
      </trkpt>
      <trkpt lat="43.43539" lon="6.00787">
        <ele>339.60000610352</ele>
        <time>2017-06-07T13:35:27Z</time>
      </trkpt>
      <trkpt lat="43.4354" lon="6.00783">
        <ele>339.46667480469</ele>
        <time>2017-06-07T13:35:28Z</time>
      </trkpt>
      <trkpt lat="43.43541" lon="6.0078">
        <ele>339.33334350586</ele>
        <time>2017-06-07T13:35:29Z</time>
      </trkpt>
      <trkpt lat="43.43542" lon="6.00777">
        <ele>339.20001220703</ele>
        <time>2017-06-07T13:35:30Z</time>
      </trkpt>
      <trkpt lat="43.43542" lon="6.00773">
        <ele>339.20001220703</ele>
        <time>2017-06-07T13:35:31Z</time>
      </trkpt>
      <trkpt lat="43.43546" lon="6.00761">
        <ele>338.79998779297</ele>
        <time>2017-06-07T13:35:34Z</time>
      </trkpt>
      <trkpt lat="43.4355" lon="6.00749">
        <ele>338.29998779297</ele>
        <time>2017-06-07T13:35:37Z</time>
      </trkpt>
      <trkpt lat="43.43552" lon="6.00745">
        <ele>338</ele>
        <time>2017-06-07T13:35:38Z</time>
      </trkpt>
      <trkpt lat="43.43553" lon="6.0074">
        <ele>338</ele>
        <time>2017-06-07T13:35:39Z</time>
      </trkpt>
      <trkpt lat="43.43555" lon="6.00735">
        <ele>337.41818237305</ele>
        <time>2017-06-07T13:35:40Z</time>
      </trkpt>
      <trkpt lat="43.43559" lon="6.00725">
        <ele>336.25454711914</ele>
        <time>2017-06-07T13:35:42Z</time>
      </trkpt>
      <trkpt lat="43.43562" lon="6.00719">
        <ele>335.67272949219</ele>
        <time>2017-06-07T13:35:43Z</time>
      </trkpt>
      <trkpt lat="43.43565" lon="6.00711">
        <ele>335.09091186523</ele>
        <time>2017-06-07T13:35:44Z</time>
      </trkpt>
      <trkpt lat="43.43568" lon="6.00704">
        <ele>334.50909423828</ele>
        <time>2017-06-07T13:35:45Z</time>
      </trkpt>
      <trkpt lat="43.43571" lon="6.00696">
        <ele>333.92727661133</ele>
        <time>2017-06-07T13:35:46Z</time>
      </trkpt>
      <trkpt lat="43.43575" lon="6.00689">
        <ele>333.34545898438</ele>
        <time>2017-06-07T13:35:47Z</time>
      </trkpt>
      <trkpt lat="43.43577" lon="6.00682">
        <ele>332.76364135742</ele>
        <time>2017-06-07T13:35:48Z</time>
      </trkpt>
      <trkpt lat="43.43578" lon="6.00675">
        <ele>332.18182373047</ele>
        <time>2017-06-07T13:35:49Z</time>
      </trkpt>
      <trkpt lat="43.43577" lon="6.00667">
        <ele>331.60000610352</ele>
        <time>2017-06-07T13:35:50Z</time>
      </trkpt>
      <trkpt lat="43.43575" lon="6.0066">
        <ele>331.01818847656</ele>
        <time>2017-06-07T13:35:51Z</time>
      </trkpt>
      <trkpt lat="43.43568" lon="6.00648">
        <ele>329.85455322266</ele>
        <time>2017-06-07T13:35:53Z</time>
      </trkpt>
      <trkpt lat="43.43564" lon="6.00643">
        <ele>329.2727355957</ele>
        <time>2017-06-07T13:35:54Z</time>
      </trkpt>
      <trkpt lat="43.43556" lon="6.00633">
        <ele>328.1091003418</ele>
        <time>2017-06-07T13:35:56Z</time>
      </trkpt>
      <trkpt lat="43.43554" lon="6.00629">
        <ele>327.52728271484</ele>
        <time>2017-06-07T13:35:57Z</time>
      </trkpt>
      <trkpt lat="43.43553" lon="6.00624">
        <ele>326.94546508789</ele>
        <time>2017-06-07T13:35:58Z</time>
      </trkpt>
      <trkpt lat="43.43554" lon="6.00618">
        <ele>326.36364746094</ele>
        <time>2017-06-07T13:35:59Z</time>
      </trkpt>
      <trkpt lat="43.43554" lon="6.00613">
        <ele>325.78182983398</ele>
        <time>2017-06-07T13:36:00Z</time>
      </trkpt>
      <trkpt lat="43.43555" lon="6.00606">
        <ele>325.20001220703</ele>
        <time>2017-06-07T13:36:01Z</time>
      </trkpt>
      <trkpt lat="43.43556" lon="6.00599">
        <ele>324.6181640625</ele>
        <time>2017-06-07T13:36:02Z</time>
      </trkpt>
      <trkpt lat="43.43559" lon="6.00593">
        <ele>324.03634643555</ele>
        <time>2017-06-07T13:36:03Z</time>
      </trkpt>
      <trkpt lat="43.43562" lon="6.00587">
        <ele>323.45452880859</ele>
        <time>2017-06-07T13:36:04Z</time>
      </trkpt>
      <trkpt lat="43.43566" lon="6.00581">
        <ele>322.87271118164</ele>
        <time>2017-06-07T13:36:05Z</time>
      </trkpt>
      <trkpt lat="43.43569" lon="6.00575">
        <ele>322.29089355469</ele>
        <time>2017-06-07T13:36:06Z</time>
      </trkpt>
      <trkpt lat="43.43576" lon="6.0056">
        <ele>321.12725830078</ele>
        <time>2017-06-07T13:36:08Z</time>
      </trkpt>
      <trkpt lat="43.43581" lon="6.00552">
        <ele>320.54544067383</ele>
        <time>2017-06-07T13:36:09Z</time>
      </trkpt>
      <trkpt lat="43.43585" lon="6.00545">
        <ele>319.96362304688</ele>
        <time>2017-06-07T13:36:10Z</time>
      </trkpt>
      <trkpt lat="43.43596" lon="6.00532">
        <ele>318.79998779297</ele>
        <time>2017-06-07T13:36:12Z</time>
      </trkpt>
      <trkpt lat="43.436" lon="6.00525">
        <ele>318.21817016602</ele>
        <time>2017-06-07T13:36:13Z</time>
      </trkpt>
      <trkpt lat="43.43605" lon="6.00518">
        <ele>317.63635253906</ele>
        <time>2017-06-07T13:36:14Z</time>
      </trkpt>
      <trkpt lat="43.43613" lon="6.005">
        <ele>316.47271728516</ele>
        <time>2017-06-07T13:36:16Z</time>
      </trkpt>
      <trkpt lat="43.43615" lon="6.00491">
        <ele>315.8908996582</ele>
        <time>2017-06-07T13:36:17Z</time>
      </trkpt>
      <trkpt lat="43.43617" lon="6.00481">
        <ele>315.30908203125</ele>
        <time>2017-06-07T13:36:18Z</time>
      </trkpt>
      <trkpt lat="43.43618" lon="6.00472">
        <ele>314.7272644043</ele>
        <time>2017-06-07T13:36:19Z</time>
      </trkpt>
      <trkpt lat="43.4362" lon="6.00452">
        <ele>313.56362915039</ele>
        <time>2017-06-07T13:36:21Z</time>
      </trkpt>
      <trkpt lat="43.43619" lon="6.00431">
        <ele>312.39999389648</ele>
        <time>2017-06-07T13:36:23Z</time>
      </trkpt>
      <trkpt lat="43.43617" lon="6.00421">
        <ele>312.39999389648</ele>
        <time>2017-06-07T13:36:24Z</time>
      </trkpt>
      <trkpt lat="43.43615" lon="6.00412">
        <ele>312.20001220703</ele>
        <time>2017-06-07T13:36:25Z</time>
      </trkpt>
      <trkpt lat="43.43611" lon="6.00402">
        <ele>312.20001220703</ele>
        <time>2017-06-07T13:36:26Z</time>
      </trkpt>
      <trkpt lat="43.43608" lon="6.00393">
        <ele>311.82501220703</ele>
        <time>2017-06-07T13:36:27Z</time>
      </trkpt>
      <trkpt lat="43.43606" lon="6.00384">
        <ele>311.45001220703</ele>
        <time>2017-06-07T13:36:28Z</time>
      </trkpt>
      <trkpt lat="43.43606" lon="6.00374">
        <ele>311.07501220703</ele>
        <time>2017-06-07T13:36:29Z</time>
      </trkpt>
      <trkpt lat="43.43607" lon="6.00364">
        <ele>310.70001220703</ele>
        <time>2017-06-07T13:36:30Z</time>
      </trkpt>
      <trkpt lat="43.43609" lon="6.00354">
        <ele>310.32501220703</ele>
        <time>2017-06-07T13:36:31Z</time>
      </trkpt>
      <trkpt lat="43.43612" lon="6.00346">
        <ele>309.95001220703</ele>
        <time>2017-06-07T13:36:32Z</time>
      </trkpt>
      <trkpt lat="43.43618" lon="6.00331">
        <ele>309.20001220703</ele>
        <time>2017-06-07T13:36:34Z</time>
      </trkpt>
      <trkpt lat="43.43622" lon="6.00325">
        <ele>309.20001220703</ele>
        <time>2017-06-07T13:36:35Z</time>
      </trkpt>
      <trkpt lat="43.43626" lon="6.00319">
        <ele>308.91430664062</ele>
        <time>2017-06-07T13:36:36Z</time>
      </trkpt>
      <trkpt lat="43.43634" lon="6.00307">
        <ele>308.34286499023</ele>
        <time>2017-06-07T13:36:38Z</time>
      </trkpt>
      <trkpt lat="43.43639" lon="6.00302">
        <ele>308.05715942383</ele>
        <time>2017-06-07T13:36:39Z</time>
      </trkpt>
      <trkpt lat="43.43644" lon="6.00296">
        <ele>307.77145385742</ele>
        <time>2017-06-07T13:36:40Z</time>
      </trkpt>
      <trkpt lat="43.43649" lon="6.0029">
        <ele>307.48571777344</ele>
        <time>2017-06-07T13:36:41Z</time>
      </trkpt>
      <trkpt lat="43.43652" lon="6.00285">
        <ele>307.20001220703</ele>
        <time>2017-06-07T13:36:42Z</time>
      </trkpt>
      <trkpt lat="43.43655" lon="6.0028">
        <ele>307.20001220703</ele>
        <time>2017-06-07T13:36:43Z</time>
      </trkpt>
      <trkpt lat="43.43657" lon="6.00276">
        <ele>307</ele>
        <time>2017-06-07T13:36:44Z</time>
      </trkpt>
      <trkpt lat="43.43658" lon="6.00273">
        <ele>307</ele>
        <time>2017-06-07T13:36:45Z</time>
      </trkpt>
      <trkpt lat="43.43659" lon="6.00272">
        <ele>307.20001220703</ele>
        <time>2017-06-07T13:36:46Z</time>
      </trkpt>
      <trkpt lat="43.43659" lon="6.00273">
        <ele>307.39999389648</ele>
        <time>2017-06-07T13:36:47Z</time>
      </trkpt>
      <trkpt lat="43.43659" lon="6.00273">
        <ele>307.39999389648</ele>
        <time>2017-06-07T13:36:48Z</time>
      </trkpt>
      <trkpt lat="43.43659" lon="6.00273">
        <ele>307.5</ele>
        <time>2017-06-07T13:36:49Z</time>
      </trkpt>
      <trkpt lat="43.43659" lon="6.00274">
        <ele>307.60000610352</ele>
        <time>2017-06-07T13:36:50Z</time>
      </trkpt>
      <trkpt lat="43.43659" lon="6.00273">
        <ele>307.60000610352</ele>
        <time>2017-06-07T13:36:51Z</time>
      </trkpt>
      <trkpt lat="43.43659" lon="6.00274">
        <ele>307.60000610352</ele>
        <time>2017-06-07T13:36:52Z</time>
      </trkpt>
      <trkpt lat="43.43659" lon="6.00274">
        <ele>307.60000610352</ele>
        <time>2017-06-07T13:36:54Z</time>
      </trkpt>
      <trkpt lat="43.43659" lon="6.00274">
        <ele>307.60000610352</ele>
        <time>2017-06-07T13:36:56Z</time>
      </trkpt>
      <trkpt lat="43.43659" lon="6.00273">
        <ele>307.60000610352</ele>
        <time>2017-06-07T13:36:57Z</time>
      </trkpt>
      <trkpt lat="43.43659" lon="6.00273">
        <ele>307.60000610352</ele>
        <time>2017-06-07T13:36:58Z</time>
      </trkpt>
      <trkpt lat="43.4366" lon="6.00273">
        <ele>307.60000610352</ele>
        <time>2017-06-07T13:36:59Z</time>
      </trkpt>
      <trkpt lat="43.4366" lon="6.00272">
        <ele>307.60000610352</ele>
        <time>2017-06-07T13:37:00Z</time>
      </trkpt>
      <trkpt lat="43.43662" lon="6.00271">
        <ele>307.60000610352</ele>
        <time>2017-06-07T13:37:01Z</time>
      </trkpt>
      <trkpt lat="43.43663" lon="6.0027">
        <ele>307.60000610352</ele>
        <time>2017-06-07T13:37:02Z</time>
      </trkpt>
      <trkpt lat="43.43665" lon="6.00267">
        <ele>307.60000610352</ele>
        <time>2017-06-07T13:37:03Z</time>
      </trkpt>
      <trkpt lat="43.43666" lon="6.00265">
        <ele>307.60000610352</ele>
        <time>2017-06-07T13:37:04Z</time>
      </trkpt>
      <trkpt lat="43.43667" lon="6.00262">
        <ele>307.60000610352</ele>
        <time>2017-06-07T13:37:05Z</time>
      </trkpt>
      <trkpt lat="43.43669" lon="6.0026">
        <ele>307.39999389648</ele>
        <time>2017-06-07T13:37:06Z</time>
      </trkpt>
      <trkpt lat="43.43671" lon="6.00259">
        <ele>307.39999389648</ele>
        <time>2017-06-07T13:37:07Z</time>
      </trkpt>
      <trkpt lat="43.43674" lon="6.00258">
        <ele>307.20001220703</ele>
        <time>2017-06-07T13:37:08Z</time>
      </trkpt>
      <trkpt lat="43.43676" lon="6.00257">
        <ele>307.20001220703</ele>
        <time>2017-06-07T13:37:09Z</time>
      </trkpt>
      <trkpt lat="43.43677" lon="6.00256">
        <ele>307</ele>
        <time>2017-06-07T13:37:10Z</time>
      </trkpt>
      <trkpt lat="43.43679" lon="6.00257">
        <ele>306.79998779297</ele>
        <time>2017-06-07T13:37:11Z</time>
      </trkpt>
      <trkpt lat="43.43681" lon="6.00258">
        <ele>306.79998779297</ele>
        <time>2017-06-07T13:37:12Z</time>
      </trkpt>
      <trkpt lat="43.43683" lon="6.00259">
        <ele>306.66665649414</ele>
        <time>2017-06-07T13:37:13Z</time>
      </trkpt>
      <trkpt lat="43.43687" lon="6.00262">
        <ele>306.39999389648</ele>
        <time>2017-06-07T13:37:15Z</time>
      </trkpt>
      <trkpt lat="43.43691" lon="6.00264">
        <ele>306.20001220703</ele>
        <time>2017-06-07T13:37:17Z</time>
      </trkpt>
      <trkpt lat="43.43694" lon="6.00264">
        <ele>306</ele>
        <time>2017-06-07T13:37:18Z</time>
      </trkpt>
      <trkpt lat="43.43696" lon="6.00265">
        <ele>305.79998779297</ele>
        <time>2017-06-07T13:37:19Z</time>
      </trkpt>
      <trkpt lat="43.43699" lon="6.00266">
        <ele>305.60000610352</ele>
        <time>2017-06-07T13:37:20Z</time>
      </trkpt>
      <trkpt lat="43.43702" lon="6.00266">
        <ele>305.60000610352</ele>
        <time>2017-06-07T13:37:21Z</time>
      </trkpt>
      <trkpt lat="43.43705" lon="6.00266">
        <ele>305.60000610352</ele>
        <time>2017-06-07T13:37:22Z</time>
      </trkpt>
      <trkpt lat="43.43708" lon="6.00266">
        <ele>305.60000610352</ele>
        <time>2017-06-07T13:37:23Z</time>
      </trkpt>
      <trkpt lat="43.43711" lon="6.00266">
        <ele>305.60000610352</ele>
        <time>2017-06-07T13:37:24Z</time>
      </trkpt>
      <trkpt lat="43.43714" lon="6.00266">
        <ele>305.79998779297</ele>
        <time>2017-06-07T13:37:25Z</time>
      </trkpt>
      <trkpt lat="43.43716" lon="6.00265">
        <ele>306</ele>
        <time>2017-06-07T13:37:26Z</time>
      </trkpt>
      <trkpt lat="43.4372" lon="6.00265">
        <ele>306</ele>
        <time>2017-06-07T13:37:27Z</time>
      </trkpt>
      <trkpt lat="43.43723" lon="6.00264">
        <ele>306</ele>
        <time>2017-06-07T13:37:28Z</time>
      </trkpt>
      <trkpt lat="43.43727" lon="6.00262">
        <ele>306</ele>
        <time>2017-06-07T13:37:29Z</time>
      </trkpt>
      <trkpt lat="43.4373" lon="6.00261">
        <ele>306</ele>
        <time>2017-06-07T13:37:30Z</time>
      </trkpt>
      <trkpt lat="43.43733" lon="6.0026">
        <ele>305.79998779297</ele>
        <time>2017-06-07T13:37:31Z</time>
      </trkpt>
      <trkpt lat="43.43735" lon="6.00259">
        <ele>305.79998779297</ele>
        <time>2017-06-07T13:37:32Z</time>
      </trkpt>
      <trkpt lat="43.43736" lon="6.00259">
        <ele>306</ele>
        <time>2017-06-07T13:37:33Z</time>
      </trkpt>
      <trkpt lat="43.43736" lon="6.00259">
        <ele>306.39999389648</ele>
        <time>2017-06-07T13:37:34Z</time>
      </trkpt>
      <trkpt lat="43.43735" lon="6.00259">
        <ele>306.60000610352</ele>
        <time>2017-06-07T13:37:35Z</time>
      </trkpt>
      <trkpt lat="43.43735" lon="6.00259">
        <ele>306.79998779297</ele>
        <time>2017-06-07T13:37:36Z</time>
      </trkpt>
      <trkpt lat="43.43736" lon="6.00259">
        <ele>306.79998779297</ele>
        <time>2017-06-07T13:37:37Z</time>
      </trkpt>
      <trkpt lat="43.43735" lon="6.00259">
        <ele>306.79998779297</ele>
        <time>2017-06-07T13:37:38Z</time>
      </trkpt>
      <trkpt lat="43.43735" lon="6.00259">
        <ele>306.79998779297</ele>
        <time>2017-06-07T13:37:39Z</time>
      </trkpt>
      <trkpt lat="43.43735" lon="6.00259">
        <ele>306.79998779297</ele>
        <time>2017-06-07T13:37:40Z</time>
      </trkpt>
      <trkpt lat="43.43735" lon="6.00259">
        <ele>306.79998779297</ele>
        <time>2017-06-07T13:37:43Z</time>
      </trkpt>
      <trkpt lat="43.43735" lon="6.00259">
        <ele>306.79998779297</ele>
        <time>2017-06-07T13:37:47Z</time>
      </trkpt>
      <trkpt lat="43.43735" lon="6.00259">
        <ele>306.79998779297</ele>
        <time>2017-06-07T13:37:50Z</time>
      </trkpt>
      <trkpt lat="43.43735" lon="6.00259">
        <ele>306.79998779297</ele>
        <time>2017-06-07T13:37:51Z</time>
      </trkpt>
      <trkpt lat="43.43735" lon="6.00258">
        <ele>306.79998779297</ele>
        <time>2017-06-07T13:37:54Z</time>
      </trkpt>
      <trkpt lat="43.43735" lon="6.00258">
        <ele>306.60000610352</ele>
        <time>2017-06-07T13:37:56Z</time>
      </trkpt>
      <trkpt lat="43.43735" lon="6.00258">
        <ele>306</ele>
        <time>2017-06-07T13:37:59Z</time>
      </trkpt>
      <trkpt lat="43.43735" lon="6.00258">
        <ele>305.60000610352</ele>
        <time>2017-06-07T13:38:06Z</time>
      </trkpt>
      <trkpt lat="43.43735" lon="6.00258">
        <ele>305.60000610352</ele>
        <time>2017-06-07T13:38:07Z</time>
      </trkpt>
      <trkpt lat="43.43735" lon="6.00258">
        <ele>305.79998779297</ele>
        <time>2017-06-07T13:38:21Z</time>
      </trkpt>
      <trkpt lat="43.43735" lon="6.00258">
        <ele>306.0666809082</ele>
        <time>2017-06-07T13:38:31Z</time>
      </trkpt>
      <trkpt lat="43.43735" lon="6.00258">
        <ele>306.20001220703</ele>
        <time>2017-06-07T13:38:33Z</time>
      </trkpt>
      <trkpt lat="43.43736" lon="6.00258">
        <ele>306.20001220703</ele>
        <time>2017-06-07T13:38:36Z</time>
      </trkpt>
      <trkpt lat="43.43735" lon="6.00258">
        <ele>306.20001220703</ele>
        <time>2017-06-07T13:38:37Z</time>
      </trkpt>
      <trkpt lat="43.43735" lon="6.00258">
        <ele>305.79998779297</ele>
        <time>2017-06-07T13:38:39Z</time>
      </trkpt>
      <trkpt lat="43.43735" lon="6.00258">
        <ele>305.79998779297</ele>
        <time>2017-06-07T13:38:40Z</time>
      </trkpt>
      <trkpt lat="43.43735" lon="6.00258">
        <ele>306</ele>
        <time>2017-06-07T13:38:43Z</time>
      </trkpt>
      <trkpt lat="43.43735" lon="6.00258">
        <ele>305.79998779297</ele>
        <time>2017-06-07T13:38:46Z</time>
      </trkpt>
      <trkpt lat="43.43735" lon="6.00258">
        <ele>305.57144165039</ele>
        <time>2017-06-07T13:38:49Z</time>
      </trkpt>
      <trkpt lat="43.43735" lon="6.00258">
        <ele>305.42855834961</ele>
        <time>2017-06-07T13:38:54Z</time>
      </trkpt>
      <trkpt lat="43.43735" lon="6.00258">
        <ele>305.39999389648</ele>
        <time>2017-06-07T13:39:10Z</time>
      </trkpt>
      <trkpt lat="43.43735" lon="6.00258">
        <ele>305.60000610352</ele>
        <time>2017-06-07T13:39:17Z</time>
      </trkpt>
      <trkpt lat="43.43735" lon="6.00258">
        <ele>305.9333190918</ele>
        <time>2017-06-07T13:39:35Z</time>
      </trkpt>
      <trkpt lat="43.43735" lon="6.00258">
        <ele>306.39999389648</ele>
        <time>2017-06-07T13:39:43Z</time>
      </trkpt>
      <trkpt lat="43.43735" lon="6.00258">
        <ele>305.39999389648</ele>
        <time>2017-06-07T13:40:01Z</time>
      </trkpt>
      <trkpt lat="43.43735" lon="6.00257">
        <ele>306.60000610352</ele>
        <time>2017-06-07T13:40:46Z</time>
      </trkpt>
      <trkpt lat="43.43735" lon="6.00257">
        <ele>306</ele>
        <time>2017-06-07T13:40:56Z</time>
      </trkpt>
      <trkpt lat="43.43735" lon="6.00257">
        <ele>306.20001220703</ele>
        <time>2017-06-07T13:41:18Z</time>
      </trkpt>
      <trkpt lat="43.43735" lon="6.00257">
        <ele>305.87692260742</ele>
        <time>2017-06-07T13:41:44Z</time>
      </trkpt>
      <trkpt lat="43.43735" lon="6.00257">
        <ele>305.79998779297</ele>
        <time>2017-06-07T13:41:49Z</time>
      </trkpt>
      <trkpt lat="43.43735" lon="6.00257">
        <ele>305.60000610352</ele>
        <time>2017-06-07T13:41:52Z</time>
      </trkpt>
      <trkpt lat="43.43736" lon="6.00257">
        <ele>305.60000610352</ele>
        <time>2017-06-07T13:41:53Z</time>
      </trkpt>
      <trkpt lat="43.43736" lon="6.00257">
        <ele>305.79998779297</ele>
        <time>2017-06-07T13:41:55Z</time>
      </trkpt>
      <trkpt lat="43.43736" lon="6.00257">
        <ele>305.79998779297</ele>
        <time>2017-06-07T13:41:58Z</time>
      </trkpt>
      <trkpt lat="43.43736" lon="6.00257">
        <ele>305.79998779297</ele>
        <time>2017-06-07T13:41:59Z</time>
      </trkpt>
      <trkpt lat="43.43736" lon="6.00257">
        <ele>305.60000610352</ele>
        <time>2017-06-07T13:42:01Z</time>
      </trkpt>
      <trkpt lat="43.43735" lon="6.00257">
        <ele>305.39999389648</ele>
        <time>2017-06-07T13:42:02Z</time>
      </trkpt>
      <trkpt lat="43.43735" lon="6.00257">
        <ele>305.20001220703</ele>
        <time>2017-06-07T13:42:05Z</time>
      </trkpt>
      <trkpt lat="43.43736" lon="6.00257">
        <ele>305.20001220703</ele>
        <time>2017-06-07T13:42:06Z</time>
      </trkpt>
      <trkpt lat="43.43736" lon="6.00257">
        <ele>305.20001220703</ele>
        <time>2017-06-07T13:42:07Z</time>
      </trkpt>
      <trkpt lat="43.43736" lon="6.00257">
        <ele>305.60000610352</ele>
        <time>2017-06-07T13:42:08Z</time>
      </trkpt>
      <trkpt lat="43.43737" lon="6.00257">
        <ele>306</ele>
        <time>2017-06-07T13:42:10Z</time>
      </trkpt>
      <trkpt lat="43.43738" lon="6.00257">
        <ele>306</ele>
        <time>2017-06-07T13:42:11Z</time>
      </trkpt>
      <trkpt lat="43.43739" lon="6.00258">
        <ele>306</ele>
        <time>2017-06-07T13:42:12Z</time>
      </trkpt>
      <trkpt lat="43.4374" lon="6.00259">
        <ele>305.79998779297</ele>
        <time>2017-06-07T13:42:13Z</time>
      </trkpt>
      <trkpt lat="43.43742" lon="6.00261">
        <ele>305.60000610352</ele>
        <time>2017-06-07T13:42:14Z</time>
      </trkpt>
      <trkpt lat="43.43744" lon="6.00263">
        <ele>305.60000610352</ele>
        <time>2017-06-07T13:42:15Z</time>
      </trkpt>
      <trkpt lat="43.43745" lon="6.00265">
        <ele>305.60000610352</ele>
        <time>2017-06-07T13:42:16Z</time>
      </trkpt>
      <trkpt lat="43.43747" lon="6.00268">
        <ele>305.60000610352</ele>
        <time>2017-06-07T13:42:17Z</time>
      </trkpt>
      <trkpt lat="43.43748" lon="6.00272">
        <ele>305.79998779297</ele>
        <time>2017-06-07T13:42:18Z</time>
      </trkpt>
      <trkpt lat="43.43748" lon="6.00276">
        <ele>305.79998779297</ele>
        <time>2017-06-07T13:42:19Z</time>
      </trkpt>
      <trkpt lat="43.43749" lon="6.00279">
        <ele>305.79998779297</ele>
        <time>2017-06-07T13:42:20Z</time>
      </trkpt>
      <trkpt lat="43.4375" lon="6.00285">
        <ele>305.79998779297</ele>
        <time>2017-06-07T13:42:22Z</time>
      </trkpt>
      <trkpt lat="43.4375" lon="6.00287">
        <ele>305.79998779297</ele>
        <time>2017-06-07T13:42:23Z</time>
      </trkpt>
      <trkpt lat="43.43751" lon="6.0029">
        <ele>305.79998779297</ele>
        <time>2017-06-07T13:42:24Z</time>
      </trkpt>
      <trkpt lat="43.43751" lon="6.00293">
        <ele>305.60000610352</ele>
        <time>2017-06-07T13:42:25Z</time>
      </trkpt>
      <trkpt lat="43.4375" lon="6.00297">
        <ele>305.60000610352</ele>
        <time>2017-06-07T13:42:26Z</time>
      </trkpt>
      <trkpt lat="43.4375" lon="6.00302">
        <ele>305.53332519531</ele>
        <time>2017-06-07T13:42:27Z</time>
      </trkpt>
      <trkpt lat="43.43751" lon="6.00307">
        <ele>305.46667480469</ele>
        <time>2017-06-07T13:42:28Z</time>
      </trkpt>
      <trkpt lat="43.43752" lon="6.00313">
        <ele>305.39999389648</ele>
        <time>2017-06-07T13:42:29Z</time>
      </trkpt>
      <trkpt lat="43.43753" lon="6.00325">
        <ele>305.10000610352</ele>
        <time>2017-06-07T13:42:31Z</time>
      </trkpt>
      <trkpt lat="43.43753" lon="6.00332">
        <ele>304.79998779297</ele>
        <time>2017-06-07T13:42:32Z</time>
      </trkpt>
      <trkpt lat="43.43752" lon="6.00338">
        <ele>304.5</ele>
        <time>2017-06-07T13:42:33Z</time>
      </trkpt>
      <trkpt lat="43.43751" lon="6.00346">
        <ele>304.20001220703</ele>
        <time>2017-06-07T13:42:34Z</time>
      </trkpt>
      <trkpt lat="43.4375" lon="6.00353">
        <ele>304.20001220703</ele>
        <time>2017-06-07T13:42:35Z</time>
      </trkpt>
      <trkpt lat="43.43749" lon="6.00361">
        <ele>303.96002197266</ele>
        <time>2017-06-07T13:42:36Z</time>
      </trkpt>
      <trkpt lat="43.43749" lon="6.00369">
        <ele>303.7200012207</ele>
        <time>2017-06-07T13:42:37Z</time>
      </trkpt>
      <trkpt lat="43.4375" lon="6.00376">
        <ele>303.48001098633</ele>
        <time>2017-06-07T13:42:38Z</time>
      </trkpt>
      <trkpt lat="43.43751" lon="6.00384">
        <ele>303.23999023438</ele>
        <time>2017-06-07T13:42:39Z</time>
      </trkpt>
      <trkpt lat="43.43753" lon="6.00391">
        <ele>303</ele>
        <time>2017-06-07T13:42:40Z</time>
      </trkpt>
      <trkpt lat="43.43756" lon="6.00404">
        <ele>302.71429443359</ele>
        <time>2017-06-07T13:42:42Z</time>
      </trkpt>
      <trkpt lat="43.43757" lon="6.00411">
        <ele>302.42855834961</ele>
        <time>2017-06-07T13:42:43Z</time>
      </trkpt>
      <trkpt lat="43.43758" lon="6.00426">
        <ele>301.8571472168</ele>
        <time>2017-06-07T13:42:45Z</time>
      </trkpt>
      <trkpt lat="43.4376" lon="6.00434">
        <ele>301.57144165039</ele>
        <time>2017-06-07T13:42:46Z</time>
      </trkpt>
      <trkpt lat="43.43766" lon="6.00456">
        <ele>301</ele>
        <time>2017-06-07T13:42:49Z</time>
      </trkpt>
      <trkpt lat="43.43768" lon="6.00463">
        <ele>300.79998779297</ele>
        <time>2017-06-07T13:42:50Z</time>
      </trkpt>
      <trkpt lat="43.43771" lon="6.0047">
        <ele>300.79998779297</ele>
        <time>2017-06-07T13:42:51Z</time>
      </trkpt>
      <trkpt lat="43.43773" lon="6.00478">
        <ele>300.46664428711</ele>
        <time>2017-06-07T13:42:52Z</time>
      </trkpt>
      <trkpt lat="43.43774" lon="6.00486">
        <ele>300.13333129883</ele>
        <time>2017-06-07T13:42:53Z</time>
      </trkpt>
      <trkpt lat="43.43776" lon="6.00495">
        <ele>299.79998779297</ele>
        <time>2017-06-07T13:42:54Z</time>
      </trkpt>
      <trkpt lat="43.43778" lon="6.00503">
        <ele>299.46664428711</ele>
        <time>2017-06-07T13:42:55Z</time>
      </trkpt>
      <trkpt lat="43.4378" lon="6.00509">
        <ele>299.13333129883</ele>
        <time>2017-06-07T13:42:56Z</time>
      </trkpt>
      <trkpt lat="43.43784" lon="6.00514">
        <ele>298.79998779297</ele>
        <time>2017-06-07T13:42:57Z</time>
      </trkpt>
      <trkpt lat="43.43787" lon="6.00516">
        <ele>298.79998779297</ele>
        <time>2017-06-07T13:42:58Z</time>
      </trkpt>
      <trkpt lat="43.43792" lon="6.00518">
        <ele>298.66665649414</ele>
        <time>2017-06-07T13:42:59Z</time>
      </trkpt>
      <trkpt lat="43.43797" lon="6.00522">
        <ele>298.53332519531</ele>
        <time>2017-06-07T13:43:00Z</time>
      </trkpt>
      <trkpt lat="43.43806" lon="6.00531">
        <ele>298.39999389648</ele>
        <time>2017-06-07T13:43:02Z</time>
      </trkpt>
      <trkpt lat="43.4381" lon="6.00537">
        <ele>298.07998657227</ele>
        <time>2017-06-07T13:43:03Z</time>
      </trkpt>
      <trkpt lat="43.43813" lon="6.00544">
        <ele>297.75997924805</ele>
        <time>2017-06-07T13:43:04Z</time>
      </trkpt>
      <trkpt lat="43.43814" lon="6.0056">
        <ele>297.11999511719</ele>
        <time>2017-06-07T13:43:06Z</time>
      </trkpt>
      <trkpt lat="43.43816" lon="6.00568">
        <ele>296.79998779297</ele>
        <time>2017-06-07T13:43:07Z</time>
      </trkpt>
      <trkpt lat="43.43818" lon="6.00576">
        <ele>296.79998779297</ele>
        <time>2017-06-07T13:43:08Z</time>
      </trkpt>
      <trkpt lat="43.43821" lon="6.00584">
        <ele>296.70001220703</ele>
        <time>2017-06-07T13:43:09Z</time>
      </trkpt>
      <trkpt lat="43.43824" lon="6.00591">
        <ele>296.60000610352</ele>
        <time>2017-06-07T13:43:10Z</time>
      </trkpt>
      <trkpt lat="43.43827" lon="6.00598">
        <ele>296.60000610352</ele>
        <time>2017-06-07T13:43:11Z</time>
      </trkpt>
      <trkpt lat="43.4383" lon="6.00604">
        <ele>296.79998779297</ele>
        <time>2017-06-07T13:43:12Z</time>
      </trkpt>
      <trkpt lat="43.43834" lon="6.00609">
        <ele>296.79998779297</ele>
        <time>2017-06-07T13:43:13Z</time>
      </trkpt>
      <trkpt lat="43.43837" lon="6.00614">
        <ele>296.89999389648</ele>
        <time>2017-06-07T13:43:14Z</time>
      </trkpt>
      <trkpt lat="43.4384" lon="6.00618">
        <ele>297</ele>
        <time>2017-06-07T13:43:15Z</time>
      </trkpt>
      <trkpt lat="43.43842" lon="6.00623">
        <ele>297</ele>
        <time>2017-06-07T13:43:16Z</time>
      </trkpt>
      <trkpt lat="43.43843" lon="6.00627">
        <ele>297.3571472168</ele>
        <time>2017-06-07T13:43:17Z</time>
      </trkpt>
      <trkpt lat="43.43841" lon="6.00633">
        <ele>298.07144165039</ele>
        <time>2017-06-07T13:43:19Z</time>
      </trkpt>
      <trkpt lat="43.4384" lon="6.00636">
        <ele>298.42855834961</ele>
        <time>2017-06-07T13:43:20Z</time>
      </trkpt>
      <trkpt lat="43.43839" lon="6.00638">
        <ele>298.78570556641</ele>
        <time>2017-06-07T13:43:21Z</time>
      </trkpt>
      <trkpt lat="43.43839" lon="6.00641">
        <ele>299.1428527832</ele>
        <time>2017-06-07T13:43:22Z</time>
      </trkpt>
      <trkpt lat="43.43837" lon="6.00646">
        <ele>299.8571472168</ele>
        <time>2017-06-07T13:43:24Z</time>
      </trkpt>
      <trkpt lat="43.43837" lon="6.00649">
        <ele>300.21429443359</ele>
        <time>2017-06-07T13:43:25Z</time>
      </trkpt>
      <trkpt lat="43.43836" lon="6.00652">
        <ele>300.57144165039</ele>
        <time>2017-06-07T13:43:26Z</time>
      </trkpt>
      <trkpt lat="43.43835" lon="6.00655">
        <ele>300.92855834961</ele>
        <time>2017-06-07T13:43:27Z</time>
      </trkpt>
      <trkpt lat="43.43835" lon="6.00658">
        <ele>301.28570556641</ele>
        <time>2017-06-07T13:43:28Z</time>
      </trkpt>
      <trkpt lat="43.43834" lon="6.0066">
        <ele>301.6428527832</ele>
        <time>2017-06-07T13:43:29Z</time>
      </trkpt>
      <trkpt lat="43.43834" lon="6.00662">
        <ele>302</ele>
        <time>2017-06-07T13:43:30Z</time>
      </trkpt>
      <trkpt lat="43.43834" lon="6.00663">
        <ele>302</ele>
        <time>2017-06-07T13:43:31Z</time>
      </trkpt>
      <trkpt lat="43.43834" lon="6.00665">
        <ele>302.20001220703</ele>
        <time>2017-06-07T13:43:32Z</time>
      </trkpt>
      <trkpt lat="43.43834" lon="6.00666">
        <ele>302.39999389648</ele>
        <time>2017-06-07T13:43:33Z</time>
      </trkpt>
      <trkpt lat="43.43834" lon="6.00667">
        <ele>302.39999389648</ele>
        <time>2017-06-07T13:43:34Z</time>
      </trkpt>
      <trkpt lat="43.43834" lon="6.00668">
        <ele>302.20001220703</ele>
        <time>2017-06-07T13:43:35Z</time>
      </trkpt>
      <trkpt lat="43.43834" lon="6.00668">
        <ele>302.18463134766</ele>
        <time>2017-06-07T13:43:37Z</time>
      </trkpt>
      <trkpt lat="43.43834" lon="6.00668">
        <ele>302.16925048828</ele>
        <time>2017-06-07T13:43:38Z</time>
      </trkpt>
      <trkpt lat="43.43834" lon="6.00668">
        <ele>302.13845825195</ele>
        <time>2017-06-07T13:43:40Z</time>
      </trkpt>
      <trkpt lat="43.43834" lon="6.00668">
        <ele>302.06155395508</ele>
        <time>2017-06-07T13:43:45Z</time>
      </trkpt>
      <trkpt lat="43.43834" lon="6.00668">
        <ele>302</ele>
        <time>2017-06-07T13:43:53Z</time>
      </trkpt>
      <trkpt lat="43.43834" lon="6.00668">
        <ele>302.07998657227</ele>
        <time>2017-06-07T13:43:55Z</time>
      </trkpt>
      <trkpt lat="43.43834" lon="6.00668">
        <ele>302.23999023438</ele>
        <time>2017-06-07T13:43:57Z</time>
      </trkpt>
      <trkpt lat="43.43834" lon="6.00669">
        <ele>302.39999389648</ele>
        <time>2017-06-07T13:43:59Z</time>
      </trkpt>
      <trkpt lat="43.43833" lon="6.00671">
        <ele>302.39999389648</ele>
        <time>2017-06-07T13:44:00Z</time>
      </trkpt>
      <trkpt lat="43.43833" lon="6.00673">
        <ele>302.39999389648</ele>
        <time>2017-06-07T13:44:01Z</time>
      </trkpt>
      <trkpt lat="43.43832" lon="6.00676">
        <ele>302.20001220703</ele>
        <time>2017-06-07T13:44:02Z</time>
      </trkpt>
      <trkpt lat="43.43832" lon="6.0068">
        <ele>302.20001220703</ele>
        <time>2017-06-07T13:44:03Z</time>
      </trkpt>
      <trkpt lat="43.4383" lon="6.00684">
        <ele>301.82000732422</ele>
        <time>2017-06-07T13:44:04Z</time>
      </trkpt>
      <trkpt lat="43.4383" lon="6.00689">
        <ele>301.44000244141</ele>
        <time>2017-06-07T13:44:05Z</time>
      </trkpt>
      <trkpt lat="43.43829" lon="6.00695">
        <ele>301.05999755859</ele>
        <time>2017-06-07T13:44:06Z</time>
      </trkpt>
      <trkpt lat="43.43829" lon="6.00702">
        <ele>300.67999267578</ele>
        <time>2017-06-07T13:44:07Z</time>
      </trkpt>
      <trkpt lat="43.43829" lon="6.00709">
        <ele>300.29998779297</ele>
        <time>2017-06-07T13:44:08Z</time>
      </trkpt>
      <trkpt lat="43.43829" lon="6.00717">
        <ele>299.92001342773</ele>
        <time>2017-06-07T13:44:09Z</time>
      </trkpt>
      <trkpt lat="43.43829" lon="6.00725">
        <ele>299.54000854492</ele>
        <time>2017-06-07T13:44:10Z</time>
      </trkpt>
      <trkpt lat="43.43829" lon="6.00734">
        <ele>299.16000366211</ele>
        <time>2017-06-07T13:44:11Z</time>
      </trkpt>
      <trkpt lat="43.43829" lon="6.00742">
        <ele>298.7799987793</ele>
        <time>2017-06-07T13:44:12Z</time>
      </trkpt>
      <trkpt lat="43.43829" lon="6.00752">
        <ele>298.39999389648</ele>
        <time>2017-06-07T13:44:13Z</time>
      </trkpt>
      <trkpt lat="43.43829" lon="6.00762">
        <ele>298.39999389648</ele>
        <time>2017-06-07T13:44:14Z</time>
      </trkpt>
      <trkpt lat="43.43829" lon="6.00772">
        <ele>297.70001220703</ele>
        <time>2017-06-07T13:44:15Z</time>
      </trkpt>
      <trkpt lat="43.4383" lon="6.00782">
        <ele>297</ele>
        <time>2017-06-07T13:44:16Z</time>
      </trkpt>
      <trkpt lat="43.43829" lon="6.00792">
        <ele>296.29998779297</ele>
        <time>2017-06-07T13:44:17Z</time>
      </trkpt>
      <trkpt lat="43.43827" lon="6.00802">
        <ele>295.60000610352</ele>
        <time>2017-06-07T13:44:18Z</time>
      </trkpt>
      <trkpt lat="43.43825" lon="6.00811">
        <ele>294.90002441406</ele>
        <time>2017-06-07T13:44:19Z</time>
      </trkpt>
      <trkpt lat="43.43822" lon="6.0082">
        <ele>294.20001220703</ele>
        <time>2017-06-07T13:44:20Z</time>
      </trkpt>
      <trkpt lat="43.43819" lon="6.00828">
        <ele>294.20001220703</ele>
        <time>2017-06-07T13:44:21Z</time>
      </trkpt>
      <trkpt lat="43.43814" lon="6.00843">
        <ele>294.20001220703</ele>
        <time>2017-06-07T13:44:23Z</time>
      </trkpt>
      <trkpt lat="43.43813" lon="6.00849">
        <ele>294.39999389648</ele>
        <time>2017-06-07T13:44:24Z</time>
      </trkpt>
      <trkpt lat="43.43812" lon="6.00856">
        <ele>294.79998779297</ele>
        <time>2017-06-07T13:44:25Z</time>
      </trkpt>
      <trkpt lat="43.43811" lon="6.00863">
        <ele>295.20001220703</ele>
        <time>2017-06-07T13:44:26Z</time>
      </trkpt>
      <trkpt lat="43.43811" lon="6.0087">
        <ele>295.20001220703</ele>
        <time>2017-06-07T13:44:27Z</time>
      </trkpt>
      <trkpt lat="43.4381" lon="6.00877">
        <ele>295.20001220703</ele>
        <time>2017-06-07T13:44:28Z</time>
      </trkpt>
      <trkpt lat="43.4381" lon="6.00885">
        <ele>295.20001220703</ele>
        <time>2017-06-07T13:44:29Z</time>
      </trkpt>
      <trkpt lat="43.4381" lon="6.00892">
        <ele>295</ele>
        <time>2017-06-07T13:44:30Z</time>
      </trkpt>
      <trkpt lat="43.43812" lon="6.00901">
        <ele>294.79998779297</ele>
        <time>2017-06-07T13:44:31Z</time>
      </trkpt>
      <trkpt lat="43.43814" lon="6.0091">
        <ele>294.60000610352</ele>
        <time>2017-06-07T13:44:32Z</time>
      </trkpt>
      <trkpt lat="43.43816" lon="6.0092">
        <ele>294.20001220703</ele>
        <time>2017-06-07T13:44:33Z</time>
      </trkpt>
      <trkpt lat="43.43818" lon="6.0093">
        <ele>293.39999389648</ele>
        <time>2017-06-07T13:44:34Z</time>
      </trkpt>
      <trkpt lat="43.43824" lon="6.0095">
        <ele>292</ele>
        <time>2017-06-07T13:44:36Z</time>
      </trkpt>
      <trkpt lat="43.43826" lon="6.00961">
        <ele>291.20001220703</ele>
        <time>2017-06-07T13:44:37Z</time>
      </trkpt>
      <trkpt lat="43.43827" lon="6.00973">
        <ele>290.79998779297</ele>
        <time>2017-06-07T13:44:38Z</time>
      </trkpt>
      <trkpt lat="43.43828" lon="6.00985">
        <ele>290.20001220703</ele>
        <time>2017-06-07T13:44:39Z</time>
      </trkpt>
      <trkpt lat="43.43827" lon="6.00997">
        <ele>289</ele>
        <time>2017-06-07T13:44:40Z</time>
      </trkpt>
      <trkpt lat="43.43826" lon="6.01008">
        <ele>288.39999389648</ele>
        <time>2017-06-07T13:44:41Z</time>
      </trkpt>
      <trkpt lat="43.43824" lon="6.01018">
        <ele>288</ele>
        <time>2017-06-07T13:44:42Z</time>
      </trkpt>
      <trkpt lat="43.43821" lon="6.01026">
        <ele>288</ele>
        <time>2017-06-07T13:44:43Z</time>
      </trkpt>
      <trkpt lat="43.43818" lon="6.01035">
        <ele>288</ele>
        <time>2017-06-07T13:44:44Z</time>
      </trkpt>
      <trkpt lat="43.43815" lon="6.01042">
        <ele>288.39999389648</ele>
        <time>2017-06-07T13:44:45Z</time>
      </trkpt>
      <trkpt lat="43.43812" lon="6.01049">
        <ele>288.60000610352</ele>
        <time>2017-06-07T13:44:46Z</time>
      </trkpt>
      <trkpt lat="43.43809" lon="6.01057">
        <ele>288.60000610352</ele>
        <time>2017-06-07T13:44:47Z</time>
      </trkpt>
      <trkpt lat="43.43806" lon="6.01064">
        <ele>288.79998779297</ele>
        <time>2017-06-07T13:44:48Z</time>
      </trkpt>
      <trkpt lat="43.43804" lon="6.01072">
        <ele>288.79998779297</ele>
        <time>2017-06-07T13:44:49Z</time>
      </trkpt>
      <trkpt lat="43.43801" lon="6.0108">
        <ele>289</ele>
        <time>2017-06-07T13:44:50Z</time>
      </trkpt>
      <trkpt lat="43.43792" lon="6.01104">
        <ele>289.20001220703</ele>
        <time>2017-06-07T13:44:53Z</time>
      </trkpt>
      <trkpt lat="43.43782" lon="6.01131">
        <ele>289.20001220703</ele>
        <time>2017-06-07T13:44:56Z</time>
      </trkpt>
      <trkpt lat="43.43779" lon="6.0114">
        <ele>289</ele>
        <time>2017-06-07T13:44:57Z</time>
      </trkpt>
      <trkpt lat="43.43776" lon="6.0115">
        <ele>289</ele>
        <time>2017-06-07T13:44:58Z</time>
      </trkpt>
      <trkpt lat="43.43772" lon="6.0116">
        <ele>288.79998779297</ele>
        <time>2017-06-07T13:44:59Z</time>
      </trkpt>
      <trkpt lat="43.43766" lon="6.01179">
        <ele>288.39999389648</ele>
        <time>2017-06-07T13:45:01Z</time>
      </trkpt>
      <trkpt lat="43.43764" lon="6.01188">
        <ele>288.60000610352</ele>
        <time>2017-06-07T13:45:02Z</time>
      </trkpt>
      <trkpt lat="43.43764" lon="6.01197">
        <ele>288.39999389648</ele>
        <time>2017-06-07T13:45:03Z</time>
      </trkpt>
      <trkpt lat="43.43764" lon="6.01207">
        <ele>288.39999389648</ele>
        <time>2017-06-07T13:45:04Z</time>
      </trkpt>
      <trkpt lat="43.43764" lon="6.01218">
        <ele>287.79998779297</ele>
        <time>2017-06-07T13:45:05Z</time>
      </trkpt>
      <trkpt lat="43.43764" lon="6.0123">
        <ele>287.20001220703</ele>
        <time>2017-06-07T13:45:06Z</time>
      </trkpt>
      <trkpt lat="43.43765" lon="6.01241">
        <ele>286.60000610352</ele>
        <time>2017-06-07T13:45:07Z</time>
      </trkpt>
      <trkpt lat="43.43766" lon="6.01253">
        <ele>286</ele>
        <time>2017-06-07T13:45:08Z</time>
      </trkpt>
      <trkpt lat="43.43768" lon="6.01264">
        <ele>285.39999389648</ele>
        <time>2017-06-07T13:45:09Z</time>
      </trkpt>
      <trkpt lat="43.43773" lon="6.01287">
        <ele>284.20001220703</ele>
        <time>2017-06-07T13:45:11Z</time>
      </trkpt>
      <trkpt lat="43.43775" lon="6.01298">
        <ele>283.60000610352</ele>
        <time>2017-06-07T13:45:12Z</time>
      </trkpt>
      <trkpt lat="43.43777" lon="6.0131">
        <ele>283</ele>
        <time>2017-06-07T13:45:13Z</time>
      </trkpt>
      <trkpt lat="43.43778" lon="6.01322">
        <ele>282.40002441406</ele>
        <time>2017-06-07T13:45:14Z</time>
      </trkpt>
      <trkpt lat="43.4378" lon="6.01333">
        <ele>281.80001831055</ele>
        <time>2017-06-07T13:45:15Z</time>
      </trkpt>
      <trkpt lat="43.43781" lon="6.01344">
        <ele>281.20001220703</ele>
        <time>2017-06-07T13:45:16Z</time>
      </trkpt>
      <trkpt lat="43.43782" lon="6.01354">
        <ele>281.20001220703</ele>
        <time>2017-06-07T13:45:17Z</time>
      </trkpt>
      <trkpt lat="43.43782" lon="6.01364">
        <ele>280.96002197266</ele>
        <time>2017-06-07T13:45:18Z</time>
      </trkpt>
      <trkpt lat="43.43782" lon="6.01375">
        <ele>280.7200012207</ele>
        <time>2017-06-07T13:45:19Z</time>
      </trkpt>
      <trkpt lat="43.43782" lon="6.01386">
        <ele>280.48001098633</ele>
        <time>2017-06-07T13:45:20Z</time>
      </trkpt>
      <trkpt lat="43.43783" lon="6.01398">
        <ele>280.23999023438</ele>
        <time>2017-06-07T13:45:21Z</time>
      </trkpt>
      <trkpt lat="43.43784" lon="6.01409">
        <ele>280</ele>
        <time>2017-06-07T13:45:22Z</time>
      </trkpt>
      <trkpt lat="43.43784" lon="6.01421">
        <ele>280</ele>
        <time>2017-06-07T13:45:23Z</time>
      </trkpt>
      <trkpt lat="43.43784" lon="6.01433">
        <ele>280</ele>
        <time>2017-06-07T13:45:24Z</time>
      </trkpt>
      <trkpt lat="43.43785" lon="6.01444">
        <ele>280</ele>
        <time>2017-06-07T13:45:25Z</time>
      </trkpt>
      <trkpt lat="43.43786" lon="6.01455">
        <ele>280.60000610352</ele>
        <time>2017-06-07T13:45:26Z</time>
      </trkpt>
      <trkpt lat="43.43786" lon="6.01466">
        <ele>280.79998779297</ele>
        <time>2017-06-07T13:45:27Z</time>
      </trkpt>
      <trkpt lat="43.43787" lon="6.01477">
        <ele>280.79998779297</ele>
        <time>2017-06-07T13:45:28Z</time>
      </trkpt>
      <trkpt lat="43.43786" lon="6.01489">
        <ele>281</ele>
        <time>2017-06-07T13:45:29Z</time>
      </trkpt>
      <trkpt lat="43.43785" lon="6.01501">
        <ele>280.79998779297</ele>
        <time>2017-06-07T13:45:30Z</time>
      </trkpt>
      <trkpt lat="43.43783" lon="6.01513">
        <ele>280.39999389648</ele>
        <time>2017-06-07T13:45:31Z</time>
      </trkpt>
      <trkpt lat="43.43781" lon="6.01525">
        <ele>280</ele>
        <time>2017-06-07T13:45:32Z</time>
      </trkpt>
      <trkpt lat="43.43779" lon="6.01537">
        <ele>279.39999389648</ele>
        <time>2017-06-07T13:45:33Z</time>
      </trkpt>
      <trkpt lat="43.43777" lon="6.01547">
        <ele>279.39999389648</ele>
        <time>2017-06-07T13:45:34Z</time>
      </trkpt>
      <trkpt lat="43.43774" lon="6.01558">
        <ele>279.60000610352</ele>
        <time>2017-06-07T13:45:35Z</time>
      </trkpt>
      <trkpt lat="43.43772" lon="6.01568">
        <ele>279.39999389648</ele>
        <time>2017-06-07T13:45:36Z</time>
      </trkpt>
      <trkpt lat="43.43769" lon="6.01577">
        <ele>279.20001220703</ele>
        <time>2017-06-07T13:45:37Z</time>
      </trkpt>
      <trkpt lat="43.43767" lon="6.01587">
        <ele>279.20001220703</ele>
        <time>2017-06-07T13:45:38Z</time>
      </trkpt>
      <trkpt lat="43.43759" lon="6.01614">
        <ele>279.39999389648</ele>
        <time>2017-06-07T13:45:41Z</time>
      </trkpt>
      <trkpt lat="43.43756" lon="6.01623">
        <ele>279.60000610352</ele>
        <time>2017-06-07T13:45:42Z</time>
      </trkpt>
      <trkpt lat="43.43754" lon="6.01632">
        <ele>279.79998779297</ele>
        <time>2017-06-07T13:45:43Z</time>
      </trkpt>
      <trkpt lat="43.43752" lon="6.0164">
        <ele>279.79998779297</ele>
        <time>2017-06-07T13:45:44Z</time>
      </trkpt>
      <trkpt lat="43.43749" lon="6.01647">
        <ele>280.03997802734</ele>
        <time>2017-06-07T13:45:45Z</time>
      </trkpt>
      <trkpt lat="43.43747" lon="6.01654">
        <ele>280.2799987793</ele>
        <time>2017-06-07T13:45:46Z</time>
      </trkpt>
      <trkpt lat="43.43745" lon="6.01661">
        <ele>280.51998901367</ele>
        <time>2017-06-07T13:45:47Z</time>
      </trkpt>
      <trkpt lat="43.43744" lon="6.01668">
        <ele>280.76000976562</ele>
        <time>2017-06-07T13:45:48Z</time>
      </trkpt>
      <trkpt lat="43.43742" lon="6.01673">
        <ele>281</ele>
        <time>2017-06-07T13:45:49Z</time>
      </trkpt>
      <trkpt lat="43.43741" lon="6.01677">
        <ele>281.23999023438</ele>
        <time>2017-06-07T13:45:50Z</time>
      </trkpt>
      <trkpt lat="43.4374" lon="6.01681">
        <ele>281.48001098633</ele>
        <time>2017-06-07T13:45:51Z</time>
      </trkpt>
      <trkpt lat="43.4374" lon="6.01684">
        <ele>281.7200012207</ele>
        <time>2017-06-07T13:45:52Z</time>
      </trkpt>
      <trkpt lat="43.4374" lon="6.01685">
        <ele>281.96002197266</ele>
        <time>2017-06-07T13:45:53Z</time>
      </trkpt>
      <trkpt lat="43.4374" lon="6.01685">
        <ele>282.20001220703</ele>
        <time>2017-06-07T13:45:54Z</time>
      </trkpt>
      <trkpt lat="43.4374" lon="6.01685">
        <ele>282.20001220703</ele>
        <time>2017-06-07T13:45:55Z</time>
      </trkpt>
      <trkpt lat="43.4374" lon="6.01684">
        <ele>282.39999389648</ele>
        <time>2017-06-07T13:45:56Z</time>
      </trkpt>
      <trkpt lat="43.4374" lon="6.01684">
        <ele>282.39999389648</ele>
        <time>2017-06-07T13:45:57Z</time>
      </trkpt>
      <trkpt lat="43.4374" lon="6.01684">
        <ele>282.60000610352</ele>
        <time>2017-06-07T13:46:01Z</time>
      </trkpt>
      <trkpt lat="43.4374" lon="6.01684">
        <ele>282.33999633789</ele>
        <time>2017-06-07T13:46:10Z</time>
      </trkpt>
      <trkpt lat="43.4374" lon="6.01684">
        <ele>282.79998779297</ele>
        <time>2017-06-07T13:46:32Z</time>
      </trkpt>
      <trkpt lat="43.4374" lon="6.01684">
        <ele>282.40002441406</ele>
        <time>2017-06-07T13:46:42Z</time>
      </trkpt>
      <trkpt lat="43.4374" lon="6.01684">
        <ele>282.20001220703</ele>
        <time>2017-06-07T13:46:44Z</time>
      </trkpt>
      <trkpt lat="43.4374" lon="6.01684">
        <ele>281.60000610352</ele>
        <time>2017-06-07T13:47:02Z</time>
      </trkpt>
      <trkpt lat="43.4374" lon="6.01684">
        <ele>281.60000610352</ele>
        <time>2017-06-07T13:47:05Z</time>
      </trkpt>
      <trkpt lat="43.4374" lon="6.01684">
        <ele>281.60000610352</ele>
        <time>2017-06-07T13:47:07Z</time>
      </trkpt>
      <trkpt lat="43.4374" lon="6.01686">
        <ele>281.60000610352</ele>
        <time>2017-06-07T13:47:08Z</time>
      </trkpt>
      <trkpt lat="43.4374" lon="6.01687">
        <ele>281.60000610352</ele>
        <time>2017-06-07T13:47:09Z</time>
      </trkpt>
      <trkpt lat="43.4374" lon="6.01689">
        <ele>281.79998779297</ele>
        <time>2017-06-07T13:47:10Z</time>
      </trkpt>
      <trkpt lat="43.43739" lon="6.01692">
        <ele>281.79998779297</ele>
        <time>2017-06-07T13:47:11Z</time>
      </trkpt>
      <trkpt lat="43.43739" lon="6.01694">
        <ele>281.60000610352</ele>
        <time>2017-06-07T13:47:12Z</time>
      </trkpt>
      <trkpt lat="43.43738" lon="6.01699">
        <ele>281.60000610352</ele>
        <time>2017-06-07T13:47:14Z</time>
      </trkpt>
      <trkpt lat="43.43738" lon="6.01702">
        <ele>281.60000610352</ele>
        <time>2017-06-07T13:47:15Z</time>
      </trkpt>
      <trkpt lat="43.43737" lon="6.01705">
        <ele>281.60000610352</ele>
        <time>2017-06-07T13:47:16Z</time>
      </trkpt>
      <trkpt lat="43.43736" lon="6.01708">
        <ele>281.79998779297</ele>
        <time>2017-06-07T13:47:17Z</time>
      </trkpt>
      <trkpt lat="43.43734" lon="6.01712">
        <ele>281.60000610352</ele>
        <time>2017-06-07T13:47:18Z</time>
      </trkpt>
      <trkpt lat="43.43733" lon="6.01717">
        <ele>281.39999389648</ele>
        <time>2017-06-07T13:47:19Z</time>
      </trkpt>
      <trkpt lat="43.43732" lon="6.01721">
        <ele>281.20001220703</ele>
        <time>2017-06-07T13:47:20Z</time>
      </trkpt>
      <trkpt lat="43.43731" lon="6.01726">
        <ele>280.79998779297</ele>
        <time>2017-06-07T13:47:21Z</time>
      </trkpt>
      <trkpt lat="43.43729" lon="6.01731">
        <ele>281</ele>
        <time>2017-06-07T13:47:22Z</time>
      </trkpt>
      <trkpt lat="43.43728" lon="6.01735">
        <ele>281</ele>
        <time>2017-06-07T13:47:23Z</time>
      </trkpt>
      <trkpt lat="43.43724" lon="6.01748">
        <ele>281.47998046875</ele>
        <time>2017-06-07T13:47:26Z</time>
      </trkpt>
      <trkpt lat="43.43722" lon="6.01756">
        <ele>281.79998779297</ele>
        <time>2017-06-07T13:47:28Z</time>
      </trkpt>
      <trkpt lat="43.43721" lon="6.0176">
        <ele>281.79998779297</ele>
        <time>2017-06-07T13:47:29Z</time>
      </trkpt>
      <trkpt lat="43.4372" lon="6.01764">
        <ele>282</ele>
        <time>2017-06-07T13:47:30Z</time>
      </trkpt>
      <trkpt lat="43.4372" lon="6.01767">
        <ele>282.19998168945</ele>
        <time>2017-06-07T13:47:31Z</time>
      </trkpt>
      <trkpt lat="43.43719" lon="6.01772">
        <ele>282.39999389648</ele>
        <time>2017-06-07T13:47:32Z</time>
      </trkpt>
      <trkpt lat="43.43719" lon="6.01776">
        <ele>282.39999389648</ele>
        <time>2017-06-07T13:47:33Z</time>
      </trkpt>
      <trkpt lat="43.43719" lon="6.01781">
        <ele>282.39999389648</ele>
        <time>2017-06-07T13:47:34Z</time>
      </trkpt>
      <trkpt lat="43.43717" lon="6.01793">
        <ele>282</ele>
        <time>2017-06-07T13:47:36Z</time>
      </trkpt>
      <trkpt lat="43.43716" lon="6.01801">
        <ele>281</ele>
        <time>2017-06-07T13:47:37Z</time>
      </trkpt>
      <trkpt lat="43.43715" lon="6.01809">
        <ele>280.60000610352</ele>
        <time>2017-06-07T13:47:38Z</time>
      </trkpt>
      <trkpt lat="43.43713" lon="6.01817">
        <ele>280</ele>
        <time>2017-06-07T13:47:39Z</time>
      </trkpt>
      <trkpt lat="43.43712" lon="6.01826">
        <ele>279.39999389648</ele>
        <time>2017-06-07T13:47:40Z</time>
      </trkpt>
      <trkpt lat="43.43711" lon="6.01835">
        <ele>279.20001220703</ele>
        <time>2017-06-07T13:47:41Z</time>
      </trkpt>
      <trkpt lat="43.43707" lon="6.01862">
        <ele>278.39999389648</ele>
        <time>2017-06-07T13:47:44Z</time>
      </trkpt>
      <trkpt lat="43.43705" lon="6.01871">
        <ele>278.20001220703</ele>
        <time>2017-06-07T13:47:45Z</time>
      </trkpt>
      <trkpt lat="43.43702" lon="6.0188">
        <ele>277.79998779297</ele>
        <time>2017-06-07T13:47:46Z</time>
      </trkpt>
      <trkpt lat="43.437" lon="6.01889">
        <ele>277.20001220703</ele>
        <time>2017-06-07T13:47:47Z</time>
      </trkpt>
      <trkpt lat="43.43699" lon="6.01898">
        <ele>276.79998779297</ele>
        <time>2017-06-07T13:47:48Z</time>
      </trkpt>
      <trkpt lat="43.43697" lon="6.01907">
        <ele>276.39999389648</ele>
        <time>2017-06-07T13:47:49Z</time>
      </trkpt>
      <trkpt lat="43.43697" lon="6.01915">
        <ele>276.20001220703</ele>
        <time>2017-06-07T13:47:50Z</time>
      </trkpt>
      <trkpt lat="43.43695" lon="6.01922">
        <ele>276</ele>
        <time>2017-06-07T13:47:51Z</time>
      </trkpt>
      <trkpt lat="43.43694" lon="6.01928">
        <ele>276</ele>
        <time>2017-06-07T13:47:52Z</time>
      </trkpt>
      <trkpt lat="43.43692" lon="6.01934">
        <ele>276.39999389648</ele>
        <time>2017-06-07T13:47:53Z</time>
      </trkpt>
      <trkpt lat="43.4369" lon="6.01938">
        <ele>276.79998779297</ele>
        <time>2017-06-07T13:47:54Z</time>
      </trkpt>
      <trkpt lat="43.43688" lon="6.01941">
        <ele>277.39999389648</ele>
        <time>2017-06-07T13:47:55Z</time>
      </trkpt>
      <trkpt lat="43.43686" lon="6.01944">
        <ele>277.60000610352</ele>
        <time>2017-06-07T13:47:56Z</time>
      </trkpt>
      <trkpt lat="43.43684" lon="6.01945">
        <ele>277.79998779297</ele>
        <time>2017-06-07T13:47:57Z</time>
      </trkpt>
      <trkpt lat="43.43683" lon="6.01946">
        <ele>278</ele>
        <time>2017-06-07T13:47:58Z</time>
      </trkpt>
      <trkpt lat="43.43682" lon="6.01947">
        <ele>278.20001220703</ele>
        <time>2017-06-07T13:47:59Z</time>
      </trkpt>
      <trkpt lat="43.43682" lon="6.01947">
        <ele>278.39999389648</ele>
        <time>2017-06-07T13:48:00Z</time>
      </trkpt>
      <trkpt lat="43.43682" lon="6.01947">
        <ele>278.39999389648</ele>
        <time>2017-06-07T13:48:01Z</time>
      </trkpt>
      <trkpt lat="43.43683" lon="6.01947">
        <ele>278.60000610352</ele>
        <time>2017-06-07T13:48:03Z</time>
      </trkpt>
      <trkpt lat="43.43683" lon="6.01947">
        <ele>278.79998779297</ele>
        <time>2017-06-07T13:48:04Z</time>
      </trkpt>
      <trkpt lat="43.43682" lon="6.01947">
        <ele>278.79998779297</ele>
        <time>2017-06-07T13:48:05Z</time>
      </trkpt>
      <trkpt lat="43.43682" lon="6.01947">
        <ele>278.9333190918</ele>
        <time>2017-06-07T13:48:07Z</time>
      </trkpt>
      <trkpt lat="43.43681" lon="6.01949">
        <ele>279.0666809082</ele>
        <time>2017-06-07T13:48:10Z</time>
      </trkpt>
      <trkpt lat="43.43681" lon="6.01949">
        <ele>279.13333129883</ele>
        <time>2017-06-07T13:48:11Z</time>
      </trkpt>
      <trkpt lat="43.4368" lon="6.0195">
        <ele>279.20001220703</ele>
        <time>2017-06-07T13:48:12Z</time>
      </trkpt>
      <trkpt lat="43.43679" lon="6.01951">
        <ele>279.29998779297</ele>
        <time>2017-06-07T13:48:14Z</time>
      </trkpt>
      <trkpt lat="43.43679" lon="6.01951">
        <ele>279.39999389648</ele>
        <time>2017-06-07T13:48:15Z</time>
      </trkpt>
      <trkpt lat="43.43679" lon="6.01951">
        <ele>279.39999389648</ele>
        <time>2017-06-07T13:48:16Z</time>
      </trkpt>
      <trkpt lat="43.43679" lon="6.01951">
        <ele>279.20001220703</ele>
        <time>2017-06-07T13:48:17Z</time>
      </trkpt>
      <trkpt lat="43.43679" lon="6.01951">
        <ele>279.20001220703</ele>
        <time>2017-06-07T13:48:18Z</time>
      </trkpt>
      <trkpt lat="43.43679" lon="6.01951">
        <ele>279</ele>
        <time>2017-06-07T13:48:19Z</time>
      </trkpt>
      <trkpt lat="43.43679" lon="6.01951">
        <ele>279</ele>
        <time>2017-06-07T13:48:20Z</time>
      </trkpt>
      <trkpt lat="43.43679" lon="6.01951">
        <ele>278.79998779297</ele>
        <time>2017-06-07T13:48:22Z</time>
      </trkpt>
      <trkpt lat="43.43679" lon="6.01951">
        <ele>278.75997924805</ele>
        <time>2017-06-07T13:48:41Z</time>
      </trkpt>
      <trkpt lat="43.43679" lon="6.01951">
        <ele>278.60000610352</ele>
        <time>2017-06-07T13:48:52Z</time>
      </trkpt>
      <trkpt lat="43.43679" lon="6.01951">
        <ele>278.60000610352</ele>
        <time>2017-06-07T13:48:55Z</time>
      </trkpt>
      <trkpt lat="43.43679" lon="6.01951">
        <ele>279</ele>
        <time>2017-06-07T13:48:58Z</time>
      </trkpt>
      <trkpt lat="43.43679" lon="6.01951">
        <ele>278.39999389648</ele>
        <time>2017-06-07T13:49:02Z</time>
      </trkpt>
      <trkpt lat="43.43679" lon="6.01951">
        <ele>278.20001220703</ele>
        <time>2017-06-07T13:49:04Z</time>
      </trkpt>
      <trkpt lat="43.43679" lon="6.01951">
        <ele>278.60000610352</ele>
        <time>2017-06-07T13:49:10Z</time>
      </trkpt>
      <trkpt lat="43.43679" lon="6.01951">
        <ele>279</ele>
        <time>2017-06-07T13:49:25Z</time>
      </trkpt>
      <trkpt lat="43.43679" lon="6.01951">
        <ele>279</ele>
        <time>2017-06-07T13:49:29Z</time>
      </trkpt>
      <trkpt lat="43.43679" lon="6.01951">
        <ele>278.79998779297</ele>
        <time>2017-06-07T13:49:30Z</time>
      </trkpt>
      <trkpt lat="43.43679" lon="6.01951">
        <ele>278.79998779297</ele>
        <time>2017-06-07T13:49:32Z</time>
      </trkpt>
      <trkpt lat="43.43679" lon="6.01951">
        <ele>278.46667480469</ele>
        <time>2017-06-07T13:49:36Z</time>
      </trkpt>
      <trkpt lat="43.43679" lon="6.01951">
        <ele>278.79998779297</ele>
        <time>2017-06-07T13:49:49Z</time>
      </trkpt>
      <trkpt lat="43.43679" lon="6.01951">
        <ele>279</ele>
        <time>2017-06-07T13:49:55Z</time>
      </trkpt>
      <trkpt lat="43.43679" lon="6.01951">
        <ele>278.79998779297</ele>
        <time>2017-06-07T13:50:44Z</time>
      </trkpt>
      <trkpt lat="43.43679" lon="6.01951">
        <ele>279.19998168945</ele>
        <time>2017-06-07T13:50:48Z</time>
      </trkpt>
      <trkpt lat="43.43678" lon="6.01951">
        <ele>279.39999389648</ele>
        <time>2017-06-07T13:50:50Z</time>
      </trkpt>
      <trkpt lat="43.43678" lon="6.01951">
        <ele>279.5</ele>
        <time>2017-06-07T13:50:51Z</time>
      </trkpt>
      <trkpt lat="43.43678" lon="6.01951">
        <ele>279.59997558594</ele>
        <time>2017-06-07T13:50:52Z</time>
      </trkpt>
      <trkpt lat="43.43678" lon="6.01951">
        <ele>279.79998779297</ele>
        <time>2017-06-07T13:50:54Z</time>
      </trkpt>
      <trkpt lat="43.43678" lon="6.01951">
        <ele>279.79998779297</ele>
        <time>2017-06-07T13:50:55Z</time>
      </trkpt>
      <trkpt lat="43.43677" lon="6.01951">
        <ele>279.92727661133</ele>
        <time>2017-06-07T13:50:56Z</time>
      </trkpt>
      <trkpt lat="43.43676" lon="6.01952">
        <ele>280.05453491211</ele>
        <time>2017-06-07T13:50:57Z</time>
      </trkpt>
      <trkpt lat="43.43674" lon="6.01953">
        <ele>280.18182373047</ele>
        <time>2017-06-07T13:50:58Z</time>
      </trkpt>
      <trkpt lat="43.43673" lon="6.01953">
        <ele>280.30908203125</ele>
        <time>2017-06-07T13:50:59Z</time>
      </trkpt>
      <trkpt lat="43.43672" lon="6.01954">
        <ele>280.43637084961</ele>
        <time>2017-06-07T13:51:00Z</time>
      </trkpt>
      <trkpt lat="43.43669" lon="6.01955">
        <ele>280.69091796875</ele>
        <time>2017-06-07T13:51:02Z</time>
      </trkpt>
      <trkpt lat="43.43668" lon="6.01955">
        <ele>280.81817626953</ele>
        <time>2017-06-07T13:51:03Z</time>
      </trkpt>
      <trkpt lat="43.43666" lon="6.01956">
        <ele>281.07272338867</ele>
        <time>2017-06-07T13:51:05Z</time>
      </trkpt>
      <trkpt lat="43.43665" lon="6.01956">
        <ele>281.20001220703</ele>
        <time>2017-06-07T13:51:06Z</time>
      </trkpt>
      <trkpt lat="43.43662" lon="6.01958">
        <ele>281.40002441406</ele>
        <time>2017-06-07T13:51:08Z</time>
      </trkpt>
      <trkpt lat="43.4366" lon="6.01959">
        <ele>281.60000610352</ele>
        <time>2017-06-07T13:51:10Z</time>
      </trkpt>
      <trkpt lat="43.43656" lon="6.01961">
        <ele>282</ele>
        <time>2017-06-07T13:51:13Z</time>
      </trkpt>
      <trkpt lat="43.43655" lon="6.01962">
        <ele>282.20001220703</ele>
        <time>2017-06-07T13:51:14Z</time>
      </trkpt>
      <trkpt lat="43.43653" lon="6.01962">
        <ele>282.20001220703</ele>
        <time>2017-06-07T13:51:15Z</time>
      </trkpt>
      <trkpt lat="43.4365" lon="6.01963">
        <ele>282.29998779297</ele>
        <time>2017-06-07T13:51:17Z</time>
      </trkpt>
      <trkpt lat="43.43648" lon="6.01965">
        <ele>282.39999389648</ele>
        <time>2017-06-07T13:51:19Z</time>
      </trkpt>
      <trkpt lat="43.43647" lon="6.01965">
        <ele>282.39999389648</ele>
        <time>2017-06-07T13:51:20Z</time>
      </trkpt>
      <trkpt lat="43.43645" lon="6.01966">
        <ele>282.45001220703</ele>
        <time>2017-06-07T13:51:21Z</time>
      </trkpt>
      <trkpt lat="43.43644" lon="6.01966">
        <ele>282.5</ele>
        <time>2017-06-07T13:51:22Z</time>
      </trkpt>
      <trkpt lat="43.43643" lon="6.01966">
        <ele>282.54998779297</ele>
        <time>2017-06-07T13:51:23Z</time>
      </trkpt>
      <trkpt lat="43.43642" lon="6.01967">
        <ele>282.60000610352</ele>
        <time>2017-06-07T13:51:24Z</time>
      </trkpt>
      <trkpt lat="43.43641" lon="6.01968">
        <ele>282.39999389648</ele>
        <time>2017-06-07T13:51:25Z</time>
      </trkpt>
      <trkpt lat="43.43639" lon="6.01968">
        <ele>282.60000610352</ele>
        <time>2017-06-07T13:51:26Z</time>
      </trkpt>
      <trkpt lat="43.43637" lon="6.01969">
        <ele>282.79998779297</ele>
        <time>2017-06-07T13:51:28Z</time>
      </trkpt>
      <trkpt lat="43.43636" lon="6.01969">
        <ele>282.79998779297</ele>
        <time>2017-06-07T13:51:29Z</time>
      </trkpt>
      <trkpt lat="43.43634" lon="6.0197">
        <ele>282.89999389648</ele>
        <time>2017-06-07T13:51:30Z</time>
      </trkpt>
      <trkpt lat="43.43633" lon="6.01971">
        <ele>283</ele>
        <time>2017-06-07T13:51:31Z</time>
      </trkpt>
      <trkpt lat="43.43631" lon="6.01971">
        <ele>283</ele>
        <time>2017-06-07T13:51:32Z</time>
      </trkpt>
      <trkpt lat="43.43631" lon="6.01972">
        <ele>283.20001220703</ele>
        <time>2017-06-07T13:51:33Z</time>
      </trkpt>
      <trkpt lat="43.43629" lon="6.01973">
        <ele>283.39999389648</ele>
        <time>2017-06-07T13:51:35Z</time>
      </trkpt>
      <trkpt lat="43.43628" lon="6.01974">
        <ele>283.60000610352</ele>
        <time>2017-06-07T13:51:36Z</time>
      </trkpt>
      <trkpt lat="43.43627" lon="6.01974">
        <ele>283.79998779297</ele>
        <time>2017-06-07T13:51:37Z</time>
      </trkpt>
      <trkpt lat="43.43626" lon="6.01975">
        <ele>284</ele>
        <time>2017-06-07T13:51:38Z</time>
      </trkpt>
      <trkpt lat="43.43625" lon="6.01975">
        <ele>284</ele>
        <time>2017-06-07T13:51:39Z</time>
      </trkpt>
      <trkpt lat="43.43623" lon="6.01975">
        <ele>284.20001220703</ele>
        <time>2017-06-07T13:51:41Z</time>
      </trkpt>
      <trkpt lat="43.43621" lon="6.01976">
        <ele>284.60000610352</ele>
        <time>2017-06-07T13:51:43Z</time>
      </trkpt>
      <trkpt lat="43.43619" lon="6.01978">
        <ele>284.79998779297</ele>
        <time>2017-06-07T13:51:45Z</time>
      </trkpt>
      <trkpt lat="43.43618" lon="6.01978">
        <ele>285.06665039062</ele>
        <time>2017-06-07T13:51:46Z</time>
      </trkpt>
      <trkpt lat="43.43616" lon="6.01979">
        <ele>285.60000610352</ele>
        <time>2017-06-07T13:51:48Z</time>
      </trkpt>
      <trkpt lat="43.43614" lon="6.0198">
        <ele>285.70001220703</ele>
        <time>2017-06-07T13:51:50Z</time>
      </trkpt>
      <trkpt lat="43.43611" lon="6.01981">
        <ele>286.03527832031</ele>
        <time>2017-06-07T13:51:53Z</time>
      </trkpt>
      <trkpt lat="43.4361" lon="6.01981">
        <ele>286.27056884766</ele>
        <time>2017-06-07T13:51:54Z</time>
      </trkpt>
      <trkpt lat="43.43608" lon="6.01982">
        <ele>286.74114990234</ele>
        <time>2017-06-07T13:51:56Z</time>
      </trkpt>
      <trkpt lat="43.43607" lon="6.01983">
        <ele>286.97647094727</ele>
        <time>2017-06-07T13:51:57Z</time>
      </trkpt>
      <trkpt lat="43.43606" lon="6.01983">
        <ele>287.21176147461</ele>
        <time>2017-06-07T13:51:58Z</time>
      </trkpt>
      <trkpt lat="43.43604" lon="6.01984">
        <ele>287.6823425293</ele>
        <time>2017-06-07T13:52:00Z</time>
      </trkpt>
      <trkpt lat="43.43602" lon="6.01985">
        <ele>288.15292358398</ele>
        <time>2017-06-07T13:52:02Z</time>
      </trkpt>
      <trkpt lat="43.43602" lon="6.01985">
        <ele>288.38821411133</ele>
        <time>2017-06-07T13:52:03Z</time>
      </trkpt>
      <trkpt lat="43.436" lon="6.01985">
        <ele>288.85882568359</ele>
        <time>2017-06-07T13:52:05Z</time>
      </trkpt>
      <trkpt lat="43.43599" lon="6.01986">
        <ele>289.09411621094</ele>
        <time>2017-06-07T13:52:06Z</time>
      </trkpt>
      <trkpt lat="43.43598" lon="6.01986">
        <ele>289.32940673828</ele>
        <time>2017-06-07T13:52:07Z</time>
      </trkpt>
      <trkpt lat="43.43597" lon="6.01987">
        <ele>289.56469726562</ele>
        <time>2017-06-07T13:52:08Z</time>
      </trkpt>
      <trkpt lat="43.43597" lon="6.01988">
        <ele>289.79998779297</ele>
        <time>2017-06-07T13:52:09Z</time>
      </trkpt>
      <trkpt lat="43.43597" lon="6.01988">
        <ele>289.79998779297</ele>
        <time>2017-06-07T13:52:10Z</time>
      </trkpt>
      <trkpt lat="43.43597" lon="6.01989">
        <ele>290</ele>
        <time>2017-06-07T13:52:11Z</time>
      </trkpt>
      <trkpt lat="43.43597" lon="6.01989">
        <ele>290</ele>
        <time>2017-06-07T13:52:12Z</time>
      </trkpt>
      <trkpt lat="43.43597" lon="6.01988">
        <ele>289.79998779297</ele>
        <time>2017-06-07T13:52:13Z</time>
      </trkpt>
      <trkpt lat="43.43597" lon="6.01988">
        <ele>289.79998779297</ele>
        <time>2017-06-07T13:52:14Z</time>
      </trkpt>
      <trkpt lat="43.43597" lon="6.01988">
        <ele>289.79998779297</ele>
        <time>2017-06-07T13:52:15Z</time>
      </trkpt>
      <trkpt lat="43.43597" lon="6.01988">
        <ele>289.79998779297</ele>
        <time>2017-06-07T13:52:16Z</time>
      </trkpt>
      <trkpt lat="43.43596" lon="6.01988">
        <ele>289.79998779297</ele>
        <time>2017-06-07T13:52:17Z</time>
      </trkpt>
      <trkpt lat="43.43596" lon="6.01989">
        <ele>290</ele>
        <time>2017-06-07T13:52:18Z</time>
      </trkpt>
      <trkpt lat="43.43595" lon="6.01989">
        <ele>290</ele>
        <time>2017-06-07T13:52:19Z</time>
      </trkpt>
      <trkpt lat="43.43594" lon="6.01989">
        <ele>290.14999389648</ele>
        <time>2017-06-07T13:52:20Z</time>
      </trkpt>
      <trkpt lat="43.43593" lon="6.01989">
        <ele>290.45001220703</ele>
        <time>2017-06-07T13:52:22Z</time>
      </trkpt>
      <trkpt lat="43.43592" lon="6.0199">
        <ele>290.60000610352</ele>
        <time>2017-06-07T13:52:23Z</time>
      </trkpt>
      <trkpt lat="43.43591" lon="6.0199">
        <ele>290.77499389648</ele>
        <time>2017-06-07T13:52:25Z</time>
      </trkpt>
      <trkpt lat="43.43591" lon="6.01991">
        <ele>290.95001220703</ele>
        <time>2017-06-07T13:52:26Z</time>
      </trkpt>
      <trkpt lat="43.4359" lon="6.01991">
        <ele>291.125</ele>
        <time>2017-06-07T13:52:27Z</time>
      </trkpt>
      <trkpt lat="43.43589" lon="6.01991">
        <ele>291.29998779297</ele>
        <time>2017-06-07T13:52:28Z</time>
      </trkpt>
      <trkpt lat="43.43589" lon="6.01992">
        <ele>291.47500610352</ele>
        <time>2017-06-07T13:52:29Z</time>
      </trkpt>
      <trkpt lat="43.43589" lon="6.01992">
        <ele>291.64999389648</ele>
        <time>2017-06-07T13:52:30Z</time>
      </trkpt>
      <trkpt lat="43.43588" lon="6.01992">
        <ele>291.82501220703</ele>
        <time>2017-06-07T13:52:31Z</time>
      </trkpt>
      <trkpt lat="43.43587" lon="6.01993">
        <ele>292</ele>
        <time>2017-06-07T13:52:33Z</time>
      </trkpt>
      <trkpt lat="43.43586" lon="6.01994">
        <ele>292.39999389648</ele>
        <time>2017-06-07T13:52:35Z</time>
      </trkpt>
      <trkpt lat="43.43586" lon="6.01994">
        <ele>292.60000610352</ele>
        <time>2017-06-07T13:52:36Z</time>
      </trkpt>
      <trkpt lat="43.43585" lon="6.01995">
        <ele>292.79998779297</ele>
        <time>2017-06-07T13:52:37Z</time>
      </trkpt>
      <trkpt lat="43.43583" lon="6.01996">
        <ele>293.60000610352</ele>
        <time>2017-06-07T13:52:42Z</time>
      </trkpt>
      <trkpt lat="43.43581" lon="6.01997">
        <ele>294</ele>
        <time>2017-06-07T13:52:44Z</time>
      </trkpt>
      <trkpt lat="43.43581" lon="6.01997">
        <ele>293.79998779297</ele>
        <time>2017-06-07T13:52:45Z</time>
      </trkpt>
      <trkpt lat="43.4358" lon="6.01997">
        <ele>294.20001220703</ele>
        <time>2017-06-07T13:52:47Z</time>
      </trkpt>
      <trkpt lat="43.4358" lon="6.01998">
        <ele>294.39999389648</ele>
        <time>2017-06-07T13:52:48Z</time>
      </trkpt>
      <trkpt lat="43.43579" lon="6.01998">
        <ele>294.39999389648</ele>
        <time>2017-06-07T13:52:49Z</time>
      </trkpt>
      <trkpt lat="43.43578" lon="6.01999">
        <ele>294.60000610352</ele>
        <time>2017-06-07T13:52:51Z</time>
      </trkpt>
      <trkpt lat="43.43577" lon="6.01999">
        <ele>294.79998779297</ele>
        <time>2017-06-07T13:52:52Z</time>
      </trkpt>
      <trkpt lat="43.43575" lon="6.02">
        <ele>295.60000610352</ele>
        <time>2017-06-07T13:52:57Z</time>
      </trkpt>
      <trkpt lat="43.43574" lon="6.02">
        <ele>295.79998779297</ele>
        <time>2017-06-07T13:52:59Z</time>
      </trkpt>
      <trkpt lat="43.43573" lon="6.02001">
        <ele>295.79998779297</ele>
        <time>2017-06-07T13:53:00Z</time>
      </trkpt>
      <trkpt lat="43.43572" lon="6.02001">
        <ele>296</ele>
        <time>2017-06-07T13:53:02Z</time>
      </trkpt>
      <trkpt lat="43.43571" lon="6.02002">
        <ele>296.20001220703</ele>
        <time>2017-06-07T13:53:04Z</time>
      </trkpt>
      <trkpt lat="43.4357" lon="6.02002">
        <ele>296.39999389648</ele>
        <time>2017-06-07T13:53:05Z</time>
      </trkpt>
      <trkpt lat="43.4357" lon="6.02002">
        <ele>296.39999389648</ele>
        <time>2017-06-07T13:53:06Z</time>
      </trkpt>
      <trkpt lat="43.43568" lon="6.02003">
        <ele>296.79998779297</ele>
        <time>2017-06-07T13:53:09Z</time>
      </trkpt>
      <trkpt lat="43.43568" lon="6.02003">
        <ele>296.79998779297</ele>
        <time>2017-06-07T13:53:10Z</time>
      </trkpt>
      <trkpt lat="43.43566" lon="6.02004">
        <ele>297.44000244141</ele>
        <time>2017-06-07T13:53:14Z</time>
      </trkpt>
      <trkpt lat="43.43565" lon="6.02005">
        <ele>297.60000610352</ele>
        <time>2017-06-07T13:53:15Z</time>
      </trkpt>
      <trkpt lat="43.43565" lon="6.02005">
        <ele>297.60000610352</ele>
        <time>2017-06-07T13:53:16Z</time>
      </trkpt>
      <trkpt lat="43.43563" lon="6.02005">
        <ele>297.73333740234</ele>
        <time>2017-06-07T13:53:18Z</time>
      </trkpt>
      <trkpt lat="43.43563" lon="6.02006">
        <ele>297.79998779297</ele>
        <time>2017-06-07T13:53:19Z</time>
      </trkpt>
      <trkpt lat="43.43562" lon="6.02006">
        <ele>297.79998779297</ele>
        <time>2017-06-07T13:53:20Z</time>
      </trkpt>
      <trkpt lat="43.43562" lon="6.02006">
        <ele>297.86666870117</ele>
        <time>2017-06-07T13:53:21Z</time>
      </trkpt>
      <trkpt lat="43.43562" lon="6.02006">
        <ele>297.9333190918</ele>
        <time>2017-06-07T13:53:22Z</time>
      </trkpt>
      <trkpt lat="43.43561" lon="6.02006">
        <ele>298</ele>
        <time>2017-06-07T13:53:24Z</time>
      </trkpt>
      <trkpt lat="43.4356" lon="6.02006">
        <ele>298.10000610352</ele>
        <time>2017-06-07T13:53:25Z</time>
      </trkpt>
      <trkpt lat="43.4356" lon="6.02006">
        <ele>298.20001220703</ele>
        <time>2017-06-07T13:53:26Z</time>
      </trkpt>
      <trkpt lat="43.4356" lon="6.02007">
        <ele>298.20001220703</ele>
        <time>2017-06-07T13:53:27Z</time>
      </trkpt>
      <trkpt lat="43.4356" lon="6.02007">
        <ele>298.79998779297</ele>
        <time>2017-06-07T13:53:30Z</time>
      </trkpt>
      <trkpt lat="43.4356" lon="6.02007">
        <ele>298.79998779297</ele>
        <time>2017-06-07T13:53:32Z</time>
      </trkpt>
      <trkpt lat="43.4356" lon="6.02007">
        <ele>298.9714050293</ele>
        <time>2017-06-07T13:53:33Z</time>
      </trkpt>
      <trkpt lat="43.43559" lon="6.02007">
        <ele>299.31427001953</ele>
        <time>2017-06-07T13:53:35Z</time>
      </trkpt>
      <trkpt lat="43.43558" lon="6.02007">
        <ele>299.48571777344</ele>
        <time>2017-06-07T13:53:36Z</time>
      </trkpt>
      <trkpt lat="43.43556" lon="6.02008">
        <ele>300</ele>
        <time>2017-06-07T13:53:40Z</time>
      </trkpt>
      <trkpt lat="43.43556" lon="6.02008">
        <ele>300.08889770508</ele>
        <time>2017-06-07T13:53:41Z</time>
      </trkpt>
      <trkpt lat="43.43555" lon="6.02008">
        <ele>300.26666259766</ele>
        <time>2017-06-07T13:53:43Z</time>
      </trkpt>
      <trkpt lat="43.43554" lon="6.02009">
        <ele>300.53332519531</ele>
        <time>2017-06-07T13:53:46Z</time>
      </trkpt>
      <trkpt lat="43.43553" lon="6.02009">
        <ele>300.62222290039</ele>
        <time>2017-06-07T13:53:47Z</time>
      </trkpt>
      <trkpt lat="43.43553" lon="6.02009">
        <ele>300.71109008789</ele>
        <time>2017-06-07T13:53:48Z</time>
      </trkpt>
      <trkpt lat="43.43552" lon="6.02009">
        <ele>300.79998779297</ele>
        <time>2017-06-07T13:53:50Z</time>
      </trkpt>
      <trkpt lat="43.43552" lon="6.0201">
        <ele>301</ele>
        <time>2017-06-07T13:53:52Z</time>
      </trkpt>
      <trkpt lat="43.43552" lon="6.0201">
        <ele>301.16665649414</ele>
        <time>2017-06-07T13:53:53Z</time>
      </trkpt>
      <trkpt lat="43.43551" lon="6.0201">
        <ele>301.33334350586</ele>
        <time>2017-06-07T13:53:54Z</time>
      </trkpt>
      <trkpt lat="43.43551" lon="6.0201">
        <ele>301.5</ele>
        <time>2017-06-07T13:53:55Z</time>
      </trkpt>
      <trkpt lat="43.43549" lon="6.0201">
        <ele>302</ele>
        <time>2017-06-07T13:53:58Z</time>
      </trkpt>
      <trkpt lat="43.43548" lon="6.0201">
        <ele>302.22500610352</ele>
        <time>2017-06-07T13:54:00Z</time>
      </trkpt>
      <trkpt lat="43.43547" lon="6.0201">
        <ele>302.45001220703</ele>
        <time>2017-06-07T13:54:01Z</time>
      </trkpt>
      <trkpt lat="43.43545" lon="6.02011">
        <ele>303.34997558594</ele>
        <time>2017-06-07T13:54:05Z</time>
      </trkpt>
      <trkpt lat="43.43545" lon="6.02011">
        <ele>303.57498168945</ele>
        <time>2017-06-07T13:54:06Z</time>
      </trkpt>
      <trkpt lat="43.43544" lon="6.02011">
        <ele>303.79998779297</ele>
        <time>2017-06-07T13:54:07Z</time>
      </trkpt>
      <trkpt lat="43.43543" lon="6.02011">
        <ele>304</ele>
        <time>2017-06-07T13:54:09Z</time>
      </trkpt>
      <trkpt lat="43.43539" lon="6.02013">
        <ele>304.79998779297</ele>
        <time>2017-06-07T13:54:18Z</time>
      </trkpt>
      <trkpt lat="43.43539" lon="6.02014">
        <ele>304.95999145508</ele>
        <time>2017-06-07T13:54:19Z</time>
      </trkpt>
      <trkpt lat="43.43538" lon="6.02014">
        <ele>305.11999511719</ele>
        <time>2017-06-07T13:54:20Z</time>
      </trkpt>
      <trkpt lat="43.43538" lon="6.02014">
        <ele>305.2799987793</ele>
        <time>2017-06-07T13:54:21Z</time>
      </trkpt>
      <trkpt lat="43.43538" lon="6.02014">
        <ele>305.44000244141</ele>
        <time>2017-06-07T13:54:22Z</time>
      </trkpt>
      <trkpt lat="43.43538" lon="6.02014">
        <ele>305.60000610352</ele>
        <time>2017-06-07T13:54:23Z</time>
      </trkpt>
      <trkpt lat="43.43537" lon="6.02014">
        <ele>305.79998779297</ele>
        <time>2017-06-07T13:54:25Z</time>
      </trkpt>
      <trkpt lat="43.43536" lon="6.02014">
        <ele>305.79998779297</ele>
        <time>2017-06-07T13:54:26Z</time>
      </trkpt>
      <trkpt lat="43.43536" lon="6.02015">
        <ele>305.89999389648</ele>
        <time>2017-06-07T13:54:27Z</time>
      </trkpt>
      <trkpt lat="43.43536" lon="6.02015">
        <ele>306</ele>
        <time>2017-06-07T13:54:30Z</time>
      </trkpt>
      <trkpt lat="43.43536" lon="6.02015">
        <ele>306</ele>
        <time>2017-06-07T13:54:31Z</time>
      </trkpt>
      <trkpt lat="43.43536" lon="6.02015">
        <ele>306</ele>
        <time>2017-06-07T13:54:32Z</time>
      </trkpt>
      <trkpt lat="43.43535" lon="6.02015">
        <ele>306</ele>
        <time>2017-06-07T13:54:34Z</time>
      </trkpt>
      <trkpt lat="43.43535" lon="6.02015">
        <ele>305.79998779297</ele>
        <time>2017-06-07T13:54:35Z</time>
      </trkpt>
      <trkpt lat="43.43535" lon="6.02015">
        <ele>306</ele>
        <time>2017-06-07T13:54:36Z</time>
      </trkpt>
      <trkpt lat="43.43534" lon="6.02015">
        <ele>306</ele>
        <time>2017-06-07T13:54:37Z</time>
      </trkpt>
      <trkpt lat="43.43533" lon="6.02015">
        <ele>306.20001220703</ele>
        <time>2017-06-07T13:54:39Z</time>
      </trkpt>
      <trkpt lat="43.43533" lon="6.02015">
        <ele>306.39999389648</ele>
        <time>2017-06-07T13:54:40Z</time>
      </trkpt>
      <trkpt lat="43.43532" lon="6.02015">
        <ele>306.60000610352</ele>
        <time>2017-06-07T13:54:41Z</time>
      </trkpt>
      <trkpt lat="43.43531" lon="6.02015">
        <ele>307</ele>
        <time>2017-06-07T13:54:44Z</time>
      </trkpt>
      <trkpt lat="43.43531" lon="6.02015">
        <ele>307</ele>
        <time>2017-06-07T13:54:45Z</time>
      </trkpt>
      <trkpt lat="43.4353" lon="6.02016">
        <ele>307.20001220703</ele>
        <time>2017-06-07T13:54:46Z</time>
      </trkpt>
      <trkpt lat="43.43529" lon="6.02016">
        <ele>307.40002441406</ele>
        <time>2017-06-07T13:54:48Z</time>
      </trkpt>
      <trkpt lat="43.43528" lon="6.02016">
        <ele>307.60000610352</ele>
        <time>2017-06-07T13:54:49Z</time>
      </trkpt>
      <trkpt lat="43.43528" lon="6.02016">
        <ele>307.80001831055</ele>
        <time>2017-06-07T13:54:50Z</time>
      </trkpt>
      <trkpt lat="43.43528" lon="6.02016">
        <ele>308.20001220703</ele>
        <time>2017-06-07T13:54:53Z</time>
      </trkpt>
      <trkpt lat="43.43528" lon="6.02017">
        <ele>308.20001220703</ele>
        <time>2017-06-07T13:54:54Z</time>
      </trkpt>
      <trkpt lat="43.43528" lon="6.02017">
        <ele>307.94287109375</ele>
        <time>2017-06-07T13:54:57Z</time>
      </trkpt>
      <trkpt lat="43.43528" lon="6.02017">
        <ele>307.88571166992</ele>
        <time>2017-06-07T13:54:58Z</time>
      </trkpt>
      <trkpt lat="43.43528" lon="6.02017">
        <ele>307.82858276367</ele>
        <time>2017-06-07T13:54:59Z</time>
      </trkpt>
      <trkpt lat="43.43527" lon="6.02017">
        <ele>307.77142333984</ele>
        <time>2017-06-07T13:55:00Z</time>
      </trkpt>
      <trkpt lat="43.43527" lon="6.02017">
        <ele>307.71429443359</ele>
        <time>2017-06-07T13:55:01Z</time>
      </trkpt>
      <trkpt lat="43.43526" lon="6.02017">
        <ele>307.65713500977</ele>
        <time>2017-06-07T13:55:02Z</time>
      </trkpt>
      <trkpt lat="43.43526" lon="6.02017">
        <ele>307.60000610352</ele>
        <time>2017-06-07T13:55:04Z</time>
      </trkpt>
      <trkpt lat="43.43526" lon="6.02017">
        <ele>307.60000610352</ele>
        <time>2017-06-07T13:55:05Z</time>
      </trkpt>
      <trkpt lat="43.43526" lon="6.02017">
        <ele>307.79998779297</ele>
        <time>2017-06-07T13:55:06Z</time>
      </trkpt>
      <trkpt lat="43.43526" lon="6.02017">
        <ele>307.79998779297</ele>
        <time>2017-06-07T13:55:07Z</time>
      </trkpt>
      <trkpt lat="43.43526" lon="6.02017">
        <ele>308</ele>
        <time>2017-06-07T13:55:08Z</time>
      </trkpt>
      <trkpt lat="43.43525" lon="6.02018">
        <ele>308</ele>
        <time>2017-06-07T13:55:09Z</time>
      </trkpt>
      <trkpt lat="43.43525" lon="6.02018">
        <ele>308.25</ele>
        <time>2017-06-07T13:55:10Z</time>
      </trkpt>
      <trkpt lat="43.43525" lon="6.02018">
        <ele>308.5</ele>
        <time>2017-06-07T13:55:11Z</time>
      </trkpt>
      <trkpt lat="43.43524" lon="6.02018">
        <ele>308.75</ele>
        <time>2017-06-07T13:55:12Z</time>
      </trkpt>
      <trkpt lat="43.43523" lon="6.02018">
        <ele>309.20001220703</ele>
        <time>2017-06-07T13:55:15Z</time>
      </trkpt>
      <trkpt lat="43.43523" lon="6.02018">
        <ele>309.20001220703</ele>
        <time>2017-06-07T13:55:16Z</time>
      </trkpt>
      <trkpt lat="43.43523" lon="6.02019">
        <ele>309.39999389648</ele>
        <time>2017-06-07T13:55:18Z</time>
      </trkpt>
      <trkpt lat="43.43522" lon="6.02019">
        <ele>309.39999389648</ele>
        <time>2017-06-07T13:55:19Z</time>
      </trkpt>
      <trkpt lat="43.43522" lon="6.02019">
        <ele>309.60000610352</ele>
        <time>2017-06-07T13:55:20Z</time>
      </trkpt>
      <trkpt lat="43.43522" lon="6.02019">
        <ele>309.79998779297</ele>
        <time>2017-06-07T13:55:21Z</time>
      </trkpt>
      <trkpt lat="43.43521" lon="6.02019">
        <ele>310</ele>
        <time>2017-06-07T13:55:24Z</time>
      </trkpt>
      <trkpt lat="43.43521" lon="6.0202">
        <ele>310.20001220703</ele>
        <time>2017-06-07T13:55:26Z</time>
      </trkpt>
      <trkpt lat="43.4352" lon="6.0202">
        <ele>310.2799987793</ele>
        <time>2017-06-07T13:55:27Z</time>
      </trkpt>
      <trkpt lat="43.4352" lon="6.02021">
        <ele>310.36001586914</ele>
        <time>2017-06-07T13:55:28Z</time>
      </trkpt>
      <trkpt lat="43.43519" lon="6.02021">
        <ele>310.60000610352</ele>
        <time>2017-06-07T13:55:31Z</time>
      </trkpt>
      <trkpt lat="43.43518" lon="6.02022">
        <ele>310.70001220703</ele>
        <time>2017-06-07T13:55:33Z</time>
      </trkpt>
      <trkpt lat="43.43518" lon="6.02022">
        <ele>310.79998779297</ele>
        <time>2017-06-07T13:55:34Z</time>
      </trkpt>
      <trkpt lat="43.43518" lon="6.02022">
        <ele>310.79998779297</ele>
        <time>2017-06-07T13:55:36Z</time>
      </trkpt>
      <trkpt lat="43.43518" lon="6.02022">
        <ele>310.89999389648</ele>
        <time>2017-06-07T13:55:37Z</time>
      </trkpt>
      <trkpt lat="43.43518" lon="6.02022">
        <ele>311</ele>
        <time>2017-06-07T13:55:38Z</time>
      </trkpt>
      <trkpt lat="43.43518" lon="6.02022">
        <ele>311</ele>
        <time>2017-06-07T13:55:39Z</time>
      </trkpt>
      <trkpt lat="43.43517" lon="6.02023">
        <ele>311.20001220703</ele>
        <time>2017-06-07T13:55:40Z</time>
      </trkpt>
      <trkpt lat="43.43517" lon="6.02023">
        <ele>311.39999389648</ele>
        <time>2017-06-07T13:55:41Z</time>
      </trkpt>
      <trkpt lat="43.43516" lon="6.02023">
        <ele>311.60000610352</ele>
        <time>2017-06-07T13:55:42Z</time>
      </trkpt>
      <trkpt lat="43.43516" lon="6.02023">
        <ele>311.80001831055</ele>
        <time>2017-06-07T13:55:43Z</time>
      </trkpt>
      <trkpt lat="43.43516" lon="6.02023">
        <ele>312</ele>
        <time>2017-06-07T13:55:44Z</time>
      </trkpt>
      <trkpt lat="43.43516" lon="6.02023">
        <ele>312.20001220703</ele>
        <time>2017-06-07T13:55:45Z</time>
      </trkpt>
      <trkpt lat="43.43515" lon="6.02023">
        <ele>312.20001220703</ele>
        <time>2017-06-07T13:55:46Z</time>
      </trkpt>
      <trkpt lat="43.43515" lon="6.02023">
        <ele>312.33334350586</ele>
        <time>2017-06-07T13:55:48Z</time>
      </trkpt>
      <trkpt lat="43.43515" lon="6.02023">
        <ele>312.39999389648</ele>
        <time>2017-06-07T13:55:49Z</time>
      </trkpt>
      <trkpt lat="43.43515" lon="6.02023">
        <ele>312.39999389648</ele>
        <time>2017-06-07T13:55:50Z</time>
      </trkpt>
      <trkpt lat="43.43515" lon="6.02023">
        <ele>312.5</ele>
        <time>2017-06-07T13:55:51Z</time>
      </trkpt>
      <trkpt lat="43.43515" lon="6.02023">
        <ele>312.60000610352</ele>
        <time>2017-06-07T13:55:53Z</time>
      </trkpt>
      <trkpt lat="43.43515" lon="6.02023">
        <ele>312.76666259766</ele>
        <time>2017-06-07T13:55:54Z</time>
      </trkpt>
      <trkpt lat="43.43515" lon="6.02023">
        <ele>312.93334960938</ele>
        <time>2017-06-07T13:55:55Z</time>
      </trkpt>
      <trkpt lat="43.43514" lon="6.02023">
        <ele>313.10000610352</ele>
        <time>2017-06-07T13:55:56Z</time>
      </trkpt>
      <trkpt lat="43.43513" lon="6.02023">
        <ele>313.26666259766</ele>
        <time>2017-06-07T13:55:57Z</time>
      </trkpt>
      <trkpt lat="43.43513" lon="6.02023">
        <ele>313.43334960938</ele>
        <time>2017-06-07T13:55:58Z</time>
      </trkpt>
      <trkpt lat="43.43512" lon="6.02023">
        <ele>313.60000610352</ele>
        <time>2017-06-07T13:55:59Z</time>
      </trkpt>
      <trkpt lat="43.43512" lon="6.02024">
        <ele>313.76666259766</ele>
        <time>2017-06-07T13:56:00Z</time>
      </trkpt>
      <trkpt lat="43.43512" lon="6.02024">
        <ele>313.93334960938</ele>
        <time>2017-06-07T13:56:01Z</time>
      </trkpt>
      <trkpt lat="43.43511" lon="6.02024">
        <ele>314.10000610352</ele>
        <time>2017-06-07T13:56:02Z</time>
      </trkpt>
      <trkpt lat="43.4351" lon="6.02024">
        <ele>314.43334960938</ele>
        <time>2017-06-07T13:56:04Z</time>
      </trkpt>
      <trkpt lat="43.43509" lon="6.02024">
        <ele>314.60000610352</ele>
        <time>2017-06-07T13:56:05Z</time>
      </trkpt>
      <trkpt lat="43.43509" lon="6.02024">
        <ele>314.70001220703</ele>
        <time>2017-06-07T13:56:07Z</time>
      </trkpt>
      <trkpt lat="43.43509" lon="6.02024">
        <ele>314.79998779297</ele>
        <time>2017-06-07T13:56:08Z</time>
      </trkpt>
      <trkpt lat="43.43509" lon="6.02024">
        <ele>314.79998779297</ele>
        <time>2017-06-07T13:56:09Z</time>
      </trkpt>
      <trkpt lat="43.43509" lon="6.02024">
        <ele>314.60000610352</ele>
        <time>2017-06-07T13:56:10Z</time>
      </trkpt>
      <trkpt lat="43.43508" lon="6.02025">
        <ele>314.79998779297</ele>
        <time>2017-06-07T13:56:12Z</time>
      </trkpt>
      <trkpt lat="43.43508" lon="6.02025">
        <ele>314.94998168945</ele>
        <time>2017-06-07T13:56:13Z</time>
      </trkpt>
      <trkpt lat="43.43507" lon="6.02025">
        <ele>315.09997558594</ele>
        <time>2017-06-07T13:56:14Z</time>
      </trkpt>
      <trkpt lat="43.43506" lon="6.02026">
        <ele>315.39999389648</ele>
        <time>2017-06-07T13:56:16Z</time>
      </trkpt>
      <trkpt lat="43.43505" lon="6.02027">
        <ele>315.79998779297</ele>
        <time>2017-06-07T13:56:18Z</time>
      </trkpt>
      <trkpt lat="43.43505" lon="6.02027">
        <ele>316.20001220703</ele>
        <time>2017-06-07T13:56:19Z</time>
      </trkpt>
      <trkpt lat="43.43505" lon="6.02028">
        <ele>316.20001220703</ele>
        <time>2017-06-07T13:56:20Z</time>
      </trkpt>
      <trkpt lat="43.43505" lon="6.02028">
        <ele>316.20001220703</ele>
        <time>2017-06-07T13:56:21Z</time>
      </trkpt>
      <trkpt lat="43.43505" lon="6.02029">
        <ele>316.20001220703</ele>
        <time>2017-06-07T13:56:22Z</time>
      </trkpt>
      <trkpt lat="43.43505" lon="6.0203">
        <ele>316.20001220703</ele>
        <time>2017-06-07T13:56:23Z</time>
      </trkpt>
      <trkpt lat="43.43505" lon="6.02031">
        <ele>316.20001220703</ele>
        <time>2017-06-07T13:56:25Z</time>
      </trkpt>
      <trkpt lat="43.43504" lon="6.02032">
        <ele>316.20001220703</ele>
        <time>2017-06-07T13:56:26Z</time>
      </trkpt>
      <trkpt lat="43.43504" lon="6.02034">
        <ele>316.5</ele>
        <time>2017-06-07T13:56:28Z</time>
      </trkpt>
      <trkpt lat="43.43504" lon="6.02034">
        <ele>316.64999389648</ele>
        <time>2017-06-07T13:56:29Z</time>
      </trkpt>
      <trkpt lat="43.43504" lon="6.02035">
        <ele>316.79998779297</ele>
        <time>2017-06-07T13:56:30Z</time>
      </trkpt>
      <trkpt lat="43.43504" lon="6.02035">
        <ele>317.20001220703</ele>
        <time>2017-06-07T13:56:32Z</time>
      </trkpt>
      <trkpt lat="43.43504" lon="6.02035">
        <ele>317.20001220703</ele>
        <time>2017-06-07T13:56:33Z</time>
      </trkpt>
      <trkpt lat="43.43504" lon="6.02036">
        <ele>317.20001220703</ele>
        <time>2017-06-07T13:56:35Z</time>
      </trkpt>
      <trkpt lat="43.43504" lon="6.02037">
        <ele>317.39999389648</ele>
        <time>2017-06-07T13:56:37Z</time>
      </trkpt>
      <trkpt lat="43.43504" lon="6.02038">
        <ele>317.20001220703</ele>
        <time>2017-06-07T13:56:38Z</time>
      </trkpt>
      <trkpt lat="43.43504" lon="6.02038">
        <ele>317</ele>
        <time>2017-06-07T13:56:39Z</time>
      </trkpt>
      <trkpt lat="43.43504" lon="6.02039">
        <ele>317</ele>
        <time>2017-06-07T13:56:40Z</time>
      </trkpt>
      <trkpt lat="43.43504" lon="6.0204">
        <ele>317</ele>
        <time>2017-06-07T13:56:41Z</time>
      </trkpt>
      <trkpt lat="43.43504" lon="6.02041">
        <ele>317</ele>
        <time>2017-06-07T13:56:42Z</time>
      </trkpt>
      <trkpt lat="43.43504" lon="6.02042">
        <ele>317.20001220703</ele>
        <time>2017-06-07T13:56:43Z</time>
      </trkpt>
      <trkpt lat="43.43504" lon="6.02042">
        <ele>317.39999389648</ele>
        <time>2017-06-07T13:56:44Z</time>
      </trkpt>
      <trkpt lat="43.43503" lon="6.02043">
        <ele>317.39999389648</ele>
        <time>2017-06-07T13:56:45Z</time>
      </trkpt>
      <trkpt lat="43.43503" lon="6.02043">
        <ele>317.57498168945</ele>
        <time>2017-06-07T13:56:46Z</time>
      </trkpt>
      <trkpt lat="43.43503" lon="6.02044">
        <ele>317.75</ele>
        <time>2017-06-07T13:56:47Z</time>
      </trkpt>
      <trkpt lat="43.43503" lon="6.02044">
        <ele>317.92498779297</ele>
        <time>2017-06-07T13:56:48Z</time>
      </trkpt>
      <trkpt lat="43.43503" lon="6.02044">
        <ele>318.09997558594</ele>
        <time>2017-06-07T13:56:49Z</time>
      </trkpt>
      <trkpt lat="43.43503" lon="6.02045">
        <ele>318.27499389648</ele>
        <time>2017-06-07T13:56:50Z</time>
      </trkpt>
      <trkpt lat="43.43502" lon="6.02046">
        <ele>318.44998168945</ele>
        <time>2017-06-07T13:56:51Z</time>
      </trkpt>
      <trkpt lat="43.43502" lon="6.02046">
        <ele>318.625</ele>
        <time>2017-06-07T13:56:52Z</time>
      </trkpt>
      <trkpt lat="43.43502" lon="6.02046">
        <ele>318.79998779297</ele>
        <time>2017-06-07T13:56:53Z</time>
      </trkpt>
      <trkpt lat="43.43502" lon="6.02046">
        <ele>318.79998779297</ele>
        <time>2017-06-07T13:56:55Z</time>
      </trkpt>
      <trkpt lat="43.43502" lon="6.02046">
        <ele>318.60000610352</ele>
        <time>2017-06-07T13:56:56Z</time>
      </trkpt>
      <trkpt lat="43.43502" lon="6.02047">
        <ele>318.39999389648</ele>
        <time>2017-06-07T13:56:57Z</time>
      </trkpt>
      <trkpt lat="43.43502" lon="6.02047">
        <ele>318.20001220703</ele>
        <time>2017-06-07T13:56:58Z</time>
      </trkpt>
      <trkpt lat="43.43502" lon="6.02047">
        <ele>318.20001220703</ele>
        <time>2017-06-07T13:57:00Z</time>
      </trkpt>
      <trkpt lat="43.43502" lon="6.02047">
        <ele>318.20001220703</ele>
        <time>2017-06-07T13:57:01Z</time>
      </trkpt>
      <trkpt lat="43.43502" lon="6.02047">
        <ele>318.39999389648</ele>
        <time>2017-06-07T13:57:02Z</time>
      </trkpt>
      <trkpt lat="43.43502" lon="6.02047">
        <ele>318.39999389648</ele>
        <time>2017-06-07T13:57:04Z</time>
      </trkpt>
      <trkpt lat="43.43502" lon="6.02047">
        <ele>318.20001220703</ele>
        <time>2017-06-07T13:57:08Z</time>
      </trkpt>
      <trkpt lat="43.43502" lon="6.02047">
        <ele>318.39999389648</ele>
        <time>2017-06-07T13:57:12Z</time>
      </trkpt>
      <trkpt lat="43.43502" lon="6.02048">
        <ele>317</ele>
        <time>2017-06-07T13:57:32Z</time>
      </trkpt>
      <trkpt lat="43.43502" lon="6.02048">
        <ele>317.20001220703</ele>
        <time>2017-06-07T13:57:34Z</time>
      </trkpt>
      <trkpt lat="43.43502" lon="6.02048">
        <ele>318.39999389648</ele>
        <time>2017-06-07T13:57:56Z</time>
      </trkpt>
      <trkpt lat="43.43502" lon="6.02048">
        <ele>316.79998779297</ele>
        <time>2017-06-07T13:58:12Z</time>
      </trkpt>
      <trkpt lat="43.43502" lon="6.02048">
        <ele>316.39999389648</ele>
        <time>2017-06-07T13:58:17Z</time>
      </trkpt>
      <trkpt lat="43.43502" lon="6.02048">
        <ele>316.79998779297</ele>
        <time>2017-06-07T13:58:21Z</time>
      </trkpt>
      <trkpt lat="43.43502" lon="6.02048">
        <ele>317.22857666016</ele>
        <time>2017-06-07T13:58:46Z</time>
      </trkpt>
      <trkpt lat="43.43502" lon="6.02048">
        <ele>317.20001220703</ele>
        <time>2017-06-07T13:58:49Z</time>
      </trkpt>
      <trkpt lat="43.43502" lon="6.02048">
        <ele>317.20001220703</ele>
        <time>2017-06-07T13:58:50Z</time>
      </trkpt>
      <trkpt lat="43.43502" lon="6.02048">
        <ele>317.20001220703</ele>
        <time>2017-06-07T13:58:51Z</time>
      </trkpt>
      <trkpt lat="43.43502" lon="6.02048">
        <ele>317.39999389648</ele>
        <time>2017-06-07T13:58:52Z</time>
      </trkpt>
      <trkpt lat="43.43502" lon="6.02049">
        <ele>317.60000610352</ele>
        <time>2017-06-07T13:58:53Z</time>
      </trkpt>
      <trkpt lat="43.43502" lon="6.02049">
        <ele>317.79998779297</ele>
        <time>2017-06-07T13:58:54Z</time>
      </trkpt>
      <trkpt lat="43.43502" lon="6.02049">
        <ele>318</ele>
        <time>2017-06-07T13:58:55Z</time>
      </trkpt>
      <trkpt lat="43.43501" lon="6.02049">
        <ele>318</ele>
        <time>2017-06-07T13:58:56Z</time>
      </trkpt>
      <trkpt lat="43.435" lon="6.02049">
        <ele>318.26666259766</ele>
        <time>2017-06-07T13:58:58Z</time>
      </trkpt>
      <trkpt lat="43.43499" lon="6.02049">
        <ele>318.53332519531</ele>
        <time>2017-06-07T13:59:00Z</time>
      </trkpt>
      <trkpt lat="43.43498" lon="6.02049">
        <ele>318.79998779297</ele>
        <time>2017-06-07T13:59:02Z</time>
      </trkpt>
      <trkpt lat="43.43497" lon="6.02049">
        <ele>318.79998779297</ele>
        <time>2017-06-07T13:59:03Z</time>
      </trkpt>
      <trkpt lat="43.43497" lon="6.0205">
        <ele>319.06665039062</ele>
        <time>2017-06-07T13:59:04Z</time>
      </trkpt>
      <trkpt lat="43.43497" lon="6.0205">
        <ele>319.33331298828</ele>
        <time>2017-06-07T13:59:05Z</time>
      </trkpt>
      <trkpt lat="43.43496" lon="6.0205">
        <ele>319.59997558594</ele>
        <time>2017-06-07T13:59:06Z</time>
      </trkpt>
      <trkpt lat="43.43496" lon="6.0205">
        <ele>319.86666870117</ele>
        <time>2017-06-07T13:59:07Z</time>
      </trkpt>
      <trkpt lat="43.43495" lon="6.0205">
        <ele>320.39999389648</ele>
        <time>2017-06-07T13:59:09Z</time>
      </trkpt>
      <trkpt lat="43.43494" lon="6.0205">
        <ele>320.60000610352</ele>
        <time>2017-06-07T13:59:11Z</time>
      </trkpt>
      <trkpt lat="43.43493" lon="6.02051">
        <ele>320.79998779297</ele>
        <time>2017-06-07T13:59:14Z</time>
      </trkpt>
      <trkpt lat="43.43491" lon="6.02052">
        <ele>321.2799987793</ele>
        <time>2017-06-07T13:59:17Z</time>
      </trkpt>
      <trkpt lat="43.4349" lon="6.02052">
        <ele>321.76000976562</ele>
        <time>2017-06-07T13:59:19Z</time>
      </trkpt>
      <trkpt lat="43.4349" lon="6.02052">
        <ele>322</ele>
        <time>2017-06-07T13:59:20Z</time>
      </trkpt>
      <trkpt lat="43.43489" lon="6.02052">
        <ele>322</ele>
        <time>2017-06-07T13:59:21Z</time>
      </trkpt>
      <trkpt lat="43.43489" lon="6.02052">
        <ele>322.20001220703</ele>
        <time>2017-06-07T13:59:23Z</time>
      </trkpt>
      <trkpt lat="43.43487" lon="6.02051">
        <ele>322.9384765625</ele>
        <time>2017-06-07T13:59:26Z</time>
      </trkpt>
      <trkpt lat="43.43486" lon="6.02051">
        <ele>323.18463134766</ele>
        <time>2017-06-07T13:59:27Z</time>
      </trkpt>
      <trkpt lat="43.43485" lon="6.0205">
        <ele>323.67694091797</ele>
        <time>2017-06-07T13:59:29Z</time>
      </trkpt>
      <trkpt lat="43.43485" lon="6.0205">
        <ele>323.92306518555</ele>
        <time>2017-06-07T13:59:30Z</time>
      </trkpt>
      <trkpt lat="43.43482" lon="6.0205">
        <ele>325.15383911133</ele>
        <time>2017-06-07T13:59:35Z</time>
      </trkpt>
      <trkpt lat="43.43482" lon="6.0205">
        <ele>325.39999389648</ele>
        <time>2017-06-07T13:59:36Z</time>
      </trkpt>
      <trkpt lat="43.43481" lon="6.0205">
        <ele>325.63998413086</ele>
        <time>2017-06-07T13:59:38Z</time>
      </trkpt>
      <trkpt lat="43.4348" lon="6.0205">
        <ele>325.88000488281</ele>
        <time>2017-06-07T13:59:39Z</time>
      </trkpt>
      <trkpt lat="43.4348" lon="6.0205">
        <ele>326.11999511719</ele>
        <time>2017-06-07T13:59:40Z</time>
      </trkpt>
      <trkpt lat="43.43479" lon="6.0205">
        <ele>326.39999389648</ele>
        <time>2017-06-07T13:59:43Z</time>
      </trkpt>
      <trkpt lat="43.43479" lon="6.0205">
        <ele>326.79998779297</ele>
        <time>2017-06-07T13:59:44Z</time>
      </trkpt>
      <trkpt lat="43.43479" lon="6.0205">
        <ele>326.60000610352</ele>
        <time>2017-06-07T13:59:45Z</time>
      </trkpt>
      <trkpt lat="43.43478" lon="6.0205">
        <ele>327</ele>
        <time>2017-06-07T13:59:46Z</time>
      </trkpt>
      <trkpt lat="43.43477" lon="6.0205">
        <ele>327.29998779297</ele>
        <time>2017-06-07T13:59:49Z</time>
      </trkpt>
      <trkpt lat="43.43475" lon="6.0205">
        <ele>327.75</ele>
        <time>2017-06-07T13:59:52Z</time>
      </trkpt>
      <trkpt lat="43.43474" lon="6.0205">
        <ele>328.05001831055</ele>
        <time>2017-06-07T13:59:54Z</time>
      </trkpt>
      <trkpt lat="43.43473" lon="6.02051">
        <ele>328.20001220703</ele>
        <time>2017-06-07T13:59:56Z</time>
      </trkpt>
      <trkpt lat="43.43473" lon="6.02051">
        <ele>328.73333740234</ele>
        <time>2017-06-07T13:59:58Z</time>
      </trkpt>
      <trkpt lat="43.43471" lon="6.02051">
        <ele>329.22857666016</ele>
        <time>2017-06-07T14:00:01Z</time>
      </trkpt>
      <trkpt lat="43.4347" lon="6.02051">
        <ele>329.45715332031</ele>
        <time>2017-06-07T14:00:02Z</time>
      </trkpt>
      <trkpt lat="43.4347" lon="6.02051">
        <ele>329.68572998047</ele>
        <time>2017-06-07T14:00:03Z</time>
      </trkpt>
      <trkpt lat="43.43469" lon="6.02051">
        <ele>329.91427612305</ele>
        <time>2017-06-07T14:00:04Z</time>
      </trkpt>
      <trkpt lat="43.43469" lon="6.02051">
        <ele>330.1428527832</ele>
        <time>2017-06-07T14:00:05Z</time>
      </trkpt>
      <trkpt lat="43.43468" lon="6.02051">
        <ele>330.37142944336</ele>
        <time>2017-06-07T14:00:06Z</time>
      </trkpt>
      <trkpt lat="43.43468" lon="6.02051">
        <ele>330.60000610352</ele>
        <time>2017-06-07T14:00:07Z</time>
      </trkpt>
      <trkpt lat="43.43468" lon="6.02051">
        <ele>330.60000610352</ele>
        <time>2017-06-07T14:00:08Z</time>
      </trkpt>
      <trkpt lat="43.43468" lon="6.02051">
        <ele>330.79998779297</ele>
        <time>2017-06-07T14:00:10Z</time>
      </trkpt>
      <trkpt lat="43.43468" lon="6.02051">
        <ele>331</ele>
        <time>2017-06-07T14:00:12Z</time>
      </trkpt>
      <trkpt lat="43.43467" lon="6.02052">
        <ele>331</ele>
        <time>2017-06-07T14:00:13Z</time>
      </trkpt>
      <trkpt lat="43.43466" lon="6.02053">
        <ele>331.20001220703</ele>
        <time>2017-06-07T14:00:15Z</time>
      </trkpt>
      <trkpt lat="43.43466" lon="6.02053">
        <ele>331.35000610352</ele>
        <time>2017-06-07T14:00:16Z</time>
      </trkpt>
      <trkpt lat="43.43465" lon="6.02053">
        <ele>331.5</ele>
        <time>2017-06-07T14:00:17Z</time>
      </trkpt>
      <trkpt lat="43.43465" lon="6.02053">
        <ele>331.64999389648</ele>
        <time>2017-06-07T14:00:18Z</time>
      </trkpt>
      <trkpt lat="43.43465" lon="6.02053">
        <ele>331.79998779297</ele>
        <time>2017-06-07T14:00:19Z</time>
      </trkpt>
      <trkpt lat="43.43464" lon="6.02053">
        <ele>331.60000610352</ele>
        <time>2017-06-07T14:00:22Z</time>
      </trkpt>
      <trkpt lat="43.43464" lon="6.02053">
        <ele>331.60000610352</ele>
        <time>2017-06-07T14:00:23Z</time>
      </trkpt>
      <trkpt lat="43.43464" lon="6.02053">
        <ele>331.39999389648</ele>
        <time>2017-06-07T14:00:24Z</time>
      </trkpt>
      <trkpt lat="43.43464" lon="6.02054">
        <ele>331.39999389648</ele>
        <time>2017-06-07T14:00:25Z</time>
      </trkpt>
      <trkpt lat="43.43463" lon="6.02054">
        <ele>331.39999389648</ele>
        <time>2017-06-07T14:00:27Z</time>
      </trkpt>
      <trkpt lat="43.43463" lon="6.02054">
        <ele>331.60000610352</ele>
        <time>2017-06-07T14:00:28Z</time>
      </trkpt>
      <trkpt lat="43.43462" lon="6.02055">
        <ele>332</ele>
        <time>2017-06-07T14:00:30Z</time>
      </trkpt>
      <trkpt lat="43.43461" lon="6.02056">
        <ele>332.20001220703</ele>
        <time>2017-06-07T14:00:31Z</time>
      </trkpt>
      <trkpt lat="43.4346" lon="6.02056">
        <ele>332.39999389648</ele>
        <time>2017-06-07T14:00:32Z</time>
      </trkpt>
      <trkpt lat="43.4346" lon="6.02056">
        <ele>332.60000610352</ele>
        <time>2017-06-07T14:00:33Z</time>
      </trkpt>
      <trkpt lat="43.4346" lon="6.02057">
        <ele>333</ele>
        <time>2017-06-07T14:00:34Z</time>
      </trkpt>
      <trkpt lat="43.43458" lon="6.0206">
        <ele>333.79998779297</ele>
        <time>2017-06-07T14:00:38Z</time>
      </trkpt>
      <trkpt lat="43.43457" lon="6.02061">
        <ele>334.20001220703</ele>
        <time>2017-06-07T14:00:40Z</time>
      </trkpt>
      <trkpt lat="43.43456" lon="6.02062">
        <ele>334.39999389648</ele>
        <time>2017-06-07T14:00:42Z</time>
      </trkpt>
      <trkpt lat="43.43455" lon="6.02063">
        <ele>335</ele>
        <time>2017-06-07T14:00:44Z</time>
      </trkpt>
      <trkpt lat="43.43454" lon="6.02064">
        <ele>335.60000610352</ele>
        <time>2017-06-07T14:00:46Z</time>
      </trkpt>
      <trkpt lat="43.43454" lon="6.02064">
        <ele>335.60000610352</ele>
        <time>2017-06-07T14:00:47Z</time>
      </trkpt>
      <trkpt lat="43.43454" lon="6.02065">
        <ele>335.79998779297</ele>
        <time>2017-06-07T14:00:48Z</time>
      </trkpt>
      <trkpt lat="43.43453" lon="6.02066">
        <ele>335.86666870117</ele>
        <time>2017-06-07T14:00:50Z</time>
      </trkpt>
      <trkpt lat="43.43452" lon="6.02066">
        <ele>335.9333190918</ele>
        <time>2017-06-07T14:00:51Z</time>
      </trkpt>
      <trkpt lat="43.43451" lon="6.02068">
        <ele>336</ele>
        <time>2017-06-07T14:00:53Z</time>
      </trkpt>
      <trkpt lat="43.43451" lon="6.02069">
        <ele>336.13333129883</ele>
        <time>2017-06-07T14:00:55Z</time>
      </trkpt>
      <trkpt lat="43.43449" lon="6.02071">
        <ele>336.5</ele>
        <time>2017-06-07T14:00:58Z</time>
      </trkpt>
      <trkpt lat="43.43448" lon="6.02072">
        <ele>337.10000610352</ele>
        <time>2017-06-07T14:01:00Z</time>
      </trkpt>
      <trkpt lat="43.43448" lon="6.02073">
        <ele>337.39999389648</ele>
        <time>2017-06-07T14:01:01Z</time>
      </trkpt>
      <trkpt lat="43.43447" lon="6.02074">
        <ele>337.39999389648</ele>
        <time>2017-06-07T14:01:02Z</time>
      </trkpt>
      <trkpt lat="43.43446" lon="6.02076">
        <ele>337.60000610352</ele>
        <time>2017-06-07T14:01:04Z</time>
      </trkpt>
      <trkpt lat="43.43446" lon="6.02076">
        <ele>337.79998779297</ele>
        <time>2017-06-07T14:01:05Z</time>
      </trkpt>
      <trkpt lat="43.43446" lon="6.02076">
        <ele>338</ele>
        <time>2017-06-07T14:01:06Z</time>
      </trkpt>
      <trkpt lat="43.43446" lon="6.02076">
        <ele>338</ele>
        <time>2017-06-07T14:01:07Z</time>
      </trkpt>
      <trkpt lat="43.43446" lon="6.02076">
        <ele>338.20001220703</ele>
        <time>2017-06-07T14:01:08Z</time>
      </trkpt>
      <trkpt lat="43.43446" lon="6.02076">
        <ele>338.20001220703</ele>
        <time>2017-06-07T14:01:10Z</time>
      </trkpt>
      <trkpt lat="43.43446" lon="6.02076">
        <ele>337.9333190918</ele>
        <time>2017-06-07T14:01:13Z</time>
      </trkpt>
      <trkpt lat="43.43446" lon="6.02076">
        <ele>337.79998779297</ele>
        <time>2017-06-07T14:01:15Z</time>
      </trkpt>
      <trkpt lat="43.43446" lon="6.02076">
        <ele>337.79998779297</ele>
        <time>2017-06-07T14:01:16Z</time>
      </trkpt>
      <trkpt lat="43.43446" lon="6.02076">
        <ele>337.79998779297</ele>
        <time>2017-06-07T14:01:18Z</time>
      </trkpt>
      <trkpt lat="43.43446" lon="6.02076">
        <ele>337.79998779297</ele>
        <time>2017-06-07T14:01:19Z</time>
      </trkpt>
      <trkpt lat="43.43446" lon="6.02077">
        <ele>338</ele>
        <time>2017-06-07T14:01:20Z</time>
      </trkpt>
      <trkpt lat="43.43444" lon="6.02078">
        <ele>338.20001220703</ele>
        <time>2017-06-07T14:01:22Z</time>
      </trkpt>
      <trkpt lat="43.43444" lon="6.02079">
        <ele>338.39999389648</ele>
        <time>2017-06-07T14:01:23Z</time>
      </trkpt>
      <trkpt lat="43.43444" lon="6.0208">
        <ele>338.60000610352</ele>
        <time>2017-06-07T14:01:24Z</time>
      </trkpt>
      <trkpt lat="43.43441" lon="6.02084">
        <ele>338.93334960938</ele>
        <time>2017-06-07T14:01:30Z</time>
      </trkpt>
      <trkpt lat="43.4344" lon="6.02086">
        <ele>339.20001220703</ele>
        <time>2017-06-07T14:01:33Z</time>
      </trkpt>
      <trkpt lat="43.4344" lon="6.02086">
        <ele>339.20001220703</ele>
        <time>2017-06-07T14:01:34Z</time>
      </trkpt>
      <trkpt lat="43.43439" lon="6.02087">
        <ele>339.30001831055</ele>
        <time>2017-06-07T14:01:35Z</time>
      </trkpt>
      <trkpt lat="43.43439" lon="6.02088">
        <ele>339.39999389648</ele>
        <time>2017-06-07T14:01:36Z</time>
      </trkpt>
      <trkpt lat="43.43439" lon="6.02088">
        <ele>339.5</ele>
        <time>2017-06-07T14:01:37Z</time>
      </trkpt>
      <trkpt lat="43.43439" lon="6.02088">
        <ele>339.69998168945</ele>
        <time>2017-06-07T14:01:39Z</time>
      </trkpt>
      <trkpt lat="43.43439" lon="6.02088">
        <ele>339.79998779297</ele>
        <time>2017-06-07T14:01:40Z</time>
      </trkpt>
      <trkpt lat="43.43439" lon="6.02088">
        <ele>339.79998779297</ele>
        <time>2017-06-07T14:01:41Z</time>
      </trkpt>
      <trkpt lat="43.43439" lon="6.02088">
        <ele>339.84997558594</ele>
        <time>2017-06-07T14:01:43Z</time>
      </trkpt>
      <trkpt lat="43.43439" lon="6.02088">
        <ele>340</ele>
        <time>2017-06-07T14:01:49Z</time>
      </trkpt>
      <trkpt lat="43.43439" lon="6.02088">
        <ele>340.1091003418</ele>
        <time>2017-06-07T14:01:56Z</time>
      </trkpt>
      <trkpt lat="43.43439" lon="6.02088">
        <ele>340</ele>
        <time>2017-06-07T14:02:02Z</time>
      </trkpt>
      <trkpt lat="43.43439" lon="6.02088">
        <ele>339.84997558594</ele>
        <time>2017-06-07T14:02:06Z</time>
      </trkpt>
      <trkpt lat="43.43439" lon="6.02088">
        <ele>339.79998779297</ele>
        <time>2017-06-07T14:02:07Z</time>
      </trkpt>
      <trkpt lat="43.43439" lon="6.02088">
        <ele>340</ele>
        <time>2017-06-07T14:02:08Z</time>
      </trkpt>
      <trkpt lat="43.43438" lon="6.02089">
        <ele>339.79998779297</ele>
        <time>2017-06-07T14:02:09Z</time>
      </trkpt>
      <trkpt lat="43.43438" lon="6.0209">
        <ele>339.79998779297</ele>
        <time>2017-06-07T14:02:10Z</time>
      </trkpt>
      <trkpt lat="43.43438" lon="6.02091">
        <ele>339.70001220703</ele>
        <time>2017-06-07T14:02:11Z</time>
      </trkpt>
      <trkpt lat="43.43438" lon="6.02092">
        <ele>339.60000610352</ele>
        <time>2017-06-07T14:02:12Z</time>
      </trkpt>
      <trkpt lat="43.43438" lon="6.02092">
        <ele>339.60000610352</ele>
        <time>2017-06-07T14:02:13Z</time>
      </trkpt>
      <trkpt lat="43.43438" lon="6.02092">
        <ele>339.39999389648</ele>
        <time>2017-06-07T14:02:14Z</time>
      </trkpt>
      <trkpt lat="43.43438" lon="6.02092">
        <ele>339.39999389648</ele>
        <time>2017-06-07T14:02:15Z</time>
      </trkpt>
      <trkpt lat="43.43438" lon="6.02092">
        <ele>339.60000610352</ele>
        <time>2017-06-07T14:02:17Z</time>
      </trkpt>
      <trkpt lat="43.43438" lon="6.02092">
        <ele>339.60000610352</ele>
        <time>2017-06-07T14:02:18Z</time>
      </trkpt>
      <trkpt lat="43.43437" lon="6.02092">
        <ele>339.79998779297</ele>
        <time>2017-06-07T14:02:20Z</time>
      </trkpt>
      <trkpt lat="43.43437" lon="6.02092">
        <ele>339.79998779297</ele>
        <time>2017-06-07T14:02:22Z</time>
      </trkpt>
      <trkpt lat="43.43437" lon="6.02092">
        <ele>339.60000610352</ele>
        <time>2017-06-07T14:02:23Z</time>
      </trkpt>
      <trkpt lat="43.43437" lon="6.02092">
        <ele>339.60000610352</ele>
        <time>2017-06-07T14:02:24Z</time>
      </trkpt>
      <trkpt lat="43.43437" lon="6.02092">
        <ele>339.60000610352</ele>
        <time>2017-06-07T14:02:25Z</time>
      </trkpt>
      <trkpt lat="43.43437" lon="6.02092">
        <ele>339.79998779297</ele>
        <time>2017-06-07T14:02:27Z</time>
      </trkpt>
      <trkpt lat="43.43437" lon="6.02093">
        <ele>339.79998779297</ele>
        <time>2017-06-07T14:02:28Z</time>
      </trkpt>
      <trkpt lat="43.43437" lon="6.02094">
        <ele>339.89999389648</ele>
        <time>2017-06-07T14:02:29Z</time>
      </trkpt>
      <trkpt lat="43.43436" lon="6.02097">
        <ele>340</ele>
        <time>2017-06-07T14:02:31Z</time>
      </trkpt>
      <trkpt lat="43.43435" lon="6.02098">
        <ele>340.10000610352</ele>
        <time>2017-06-07T14:02:32Z</time>
      </trkpt>
      <trkpt lat="43.43434" lon="6.021">
        <ele>340.20001220703</ele>
        <time>2017-06-07T14:02:33Z</time>
      </trkpt>
      <trkpt lat="43.43433" lon="6.02103">
        <ele>340.39999389648</ele>
        <time>2017-06-07T14:02:35Z</time>
      </trkpt>
      <trkpt lat="43.43433" lon="6.02105">
        <ele>340.79998779297</ele>
        <time>2017-06-07T14:02:37Z</time>
      </trkpt>
      <trkpt lat="43.43432" lon="6.02106">
        <ele>340.79998779297</ele>
        <time>2017-06-07T14:02:38Z</time>
      </trkpt>
      <trkpt lat="43.4343" lon="6.02109">
        <ele>341</ele>
        <time>2017-06-07T14:02:40Z</time>
      </trkpt>
      <trkpt lat="43.4343" lon="6.0211">
        <ele>341.44000244141</ele>
        <time>2017-06-07T14:02:41Z</time>
      </trkpt>
      <trkpt lat="43.4343" lon="6.02112">
        <ele>341.88000488281</ele>
        <time>2017-06-07T14:02:42Z</time>
      </trkpt>
      <trkpt lat="43.43429" lon="6.02113">
        <ele>342.32000732422</ele>
        <time>2017-06-07T14:02:43Z</time>
      </trkpt>
      <trkpt lat="43.43428" lon="6.02119">
        <ele>343.39999389648</ele>
        <time>2017-06-07T14:02:47Z</time>
      </trkpt>
      <trkpt lat="43.43428" lon="6.0212">
        <ele>343.39999389648</ele>
        <time>2017-06-07T14:02:48Z</time>
      </trkpt>
      <trkpt lat="43.43427" lon="6.02122">
        <ele>343.62857055664</ele>
        <time>2017-06-07T14:02:49Z</time>
      </trkpt>
      <trkpt lat="43.43427" lon="6.02124">
        <ele>343.8571472168</ele>
        <time>2017-06-07T14:02:50Z</time>
      </trkpt>
      <trkpt lat="43.43425" lon="6.02131">
        <ele>344.77142333984</ele>
        <time>2017-06-07T14:02:54Z</time>
      </trkpt>
      <trkpt lat="43.43424" lon="6.02132">
        <ele>345</ele>
        <time>2017-06-07T14:02:55Z</time>
      </trkpt>
      <trkpt lat="43.43423" lon="6.02135">
        <ele>345.45715332031</ele>
        <time>2017-06-07T14:02:57Z</time>
      </trkpt>
      <trkpt lat="43.43421" lon="6.02138">
        <ele>345.91427612305</ele>
        <time>2017-06-07T14:02:59Z</time>
      </trkpt>
      <trkpt lat="43.4342" lon="6.02141">
        <ele>346.37142944336</ele>
        <time>2017-06-07T14:03:01Z</time>
      </trkpt>
      <trkpt lat="43.43419" lon="6.02142">
        <ele>346.60000610352</ele>
        <time>2017-06-07T14:03:02Z</time>
      </trkpt>
      <trkpt lat="43.43419" lon="6.02144">
        <ele>346.60000610352</ele>
        <time>2017-06-07T14:03:03Z</time>
      </trkpt>
      <trkpt lat="43.43418" lon="6.02145">
        <ele>346.79998779297</ele>
        <time>2017-06-07T14:03:04Z</time>
      </trkpt>
      <trkpt lat="43.43416" lon="6.02149">
        <ele>347.53332519531</ele>
        <time>2017-06-07T14:03:07Z</time>
      </trkpt>
      <trkpt lat="43.43414" lon="6.02151">
        <ele>348.26666259766</ele>
        <time>2017-06-07T14:03:09Z</time>
      </trkpt>
      <trkpt lat="43.43412" lon="6.02152">
        <ele>349</ele>
        <time>2017-06-07T14:03:11Z</time>
      </trkpt>
      <trkpt lat="43.4341" lon="6.02152">
        <ele>349</ele>
        <time>2017-06-07T14:03:12Z</time>
      </trkpt>
      <trkpt lat="43.43409" lon="6.02151">
        <ele>349.20001220703</ele>
        <time>2017-06-07T14:03:13Z</time>
      </trkpt>
      <trkpt lat="43.43407" lon="6.0215">
        <ele>349.20001220703</ele>
        <time>2017-06-07T14:03:15Z</time>
      </trkpt>
      <trkpt lat="43.43407" lon="6.02149">
        <ele>349</ele>
        <time>2017-06-07T14:03:16Z</time>
      </trkpt>
      <trkpt lat="43.43407" lon="6.02149">
        <ele>348.79998779297</ele>
        <time>2017-06-07T14:03:21Z</time>
      </trkpt>
      <trkpt lat="43.43407" lon="6.02149">
        <ele>349</ele>
        <time>2017-06-07T14:03:40Z</time>
      </trkpt>
      <trkpt lat="43.43407" lon="6.02149">
        <ele>349.20001220703</ele>
        <time>2017-06-07T14:03:50Z</time>
      </trkpt>
      <trkpt lat="43.43407" lon="6.02149">
        <ele>349</ele>
        <time>2017-06-07T14:03:51Z</time>
      </trkpt>
      <trkpt lat="43.43407" lon="6.02149">
        <ele>348.79998779297</ele>
        <time>2017-06-07T14:03:56Z</time>
      </trkpt>
      <trkpt lat="43.43407" lon="6.02149">
        <ele>348.60000610352</ele>
        <time>2017-06-07T14:04:00Z</time>
      </trkpt>
      <trkpt lat="43.43407" lon="6.02149">
        <ele>348.46667480469</ele>
        <time>2017-06-07T14:04:03Z</time>
      </trkpt>
      <trkpt lat="43.43407" lon="6.02149">
        <ele>348.60000610352</ele>
        <time>2017-06-07T14:04:05Z</time>
      </trkpt>
      <trkpt lat="43.43407" lon="6.02149">
        <ele>349</ele>
        <time>2017-06-07T14:04:09Z</time>
      </trkpt>
      <trkpt lat="43.43407" lon="6.02149">
        <ele>349</ele>
        <time>2017-06-07T14:04:21Z</time>
      </trkpt>
      <trkpt lat="43.43407" lon="6.02149">
        <ele>349</ele>
        <time>2017-06-07T14:04:25Z</time>
      </trkpt>
      <trkpt lat="43.43407" lon="6.02149">
        <ele>348.79998779297</ele>
        <time>2017-06-07T14:04:26Z</time>
      </trkpt>
      <trkpt lat="43.43406" lon="6.02149">
        <ele>348.79998779297</ele>
        <time>2017-06-07T14:04:27Z</time>
      </trkpt>
      <trkpt lat="43.43404" lon="6.02151">
        <ele>348.66665649414</ele>
        <time>2017-06-07T14:04:29Z</time>
      </trkpt>
      <trkpt lat="43.43403" lon="6.02152">
        <ele>348.60000610352</ele>
        <time>2017-06-07T14:04:30Z</time>
      </trkpt>
      <trkpt lat="43.43399" lon="6.02157">
        <ele>348.60000610352</ele>
        <time>2017-06-07T14:04:34Z</time>
      </trkpt>
      <trkpt lat="43.43398" lon="6.02158">
        <ele>348.60000610352</ele>
        <time>2017-06-07T14:04:35Z</time>
      </trkpt>
      <trkpt lat="43.43395" lon="6.02163">
        <ele>348.5</ele>
        <time>2017-06-07T14:04:38Z</time>
      </trkpt>
      <trkpt lat="43.43393" lon="6.02165">
        <ele>348.4333190918</ele>
        <time>2017-06-07T14:04:40Z</time>
      </trkpt>
      <trkpt lat="43.43391" lon="6.02166">
        <ele>348.39999389648</ele>
        <time>2017-06-07T14:04:41Z</time>
      </trkpt>
      <trkpt lat="43.4339" lon="6.02167">
        <ele>348.39999389648</ele>
        <time>2017-06-07T14:04:42Z</time>
      </trkpt>
      <trkpt lat="43.43386" lon="6.02171">
        <ele>348.20001220703</ele>
        <time>2017-06-07T14:04:44Z</time>
      </trkpt>
      <trkpt lat="43.43385" lon="6.02173">
        <ele>348.10000610352</ele>
        <time>2017-06-07T14:04:45Z</time>
      </trkpt>
      <trkpt lat="43.43383" lon="6.02175">
        <ele>348</ele>
        <time>2017-06-07T14:04:46Z</time>
      </trkpt>
      <trkpt lat="43.43381" lon="6.02178">
        <ele>348</ele>
        <time>2017-06-07T14:04:47Z</time>
      </trkpt>
      <trkpt lat="43.43379" lon="6.02181">
        <ele>347.79998779297</ele>
        <time>2017-06-07T14:04:48Z</time>
      </trkpt>
      <trkpt lat="43.43377" lon="6.02186">
        <ele>347.79998779297</ele>
        <time>2017-06-07T14:04:49Z</time>
      </trkpt>
      <trkpt lat="43.43375" lon="6.02191">
        <ele>347.38180541992</ele>
        <time>2017-06-07T14:04:50Z</time>
      </trkpt>
      <trkpt lat="43.43373" lon="6.02196">
        <ele>346.96362304688</ele>
        <time>2017-06-07T14:04:51Z</time>
      </trkpt>
      <trkpt lat="43.43371" lon="6.02201">
        <ele>346.54544067383</ele>
        <time>2017-06-07T14:04:52Z</time>
      </trkpt>
      <trkpt lat="43.43366" lon="6.02213">
        <ele>345.70907592773</ele>
        <time>2017-06-07T14:04:54Z</time>
      </trkpt>
      <trkpt lat="43.43364" lon="6.02219">
        <ele>345.29092407227</ele>
        <time>2017-06-07T14:04:55Z</time>
      </trkpt>
      <trkpt lat="43.43361" lon="6.02226">
        <ele>344.87274169922</ele>
        <time>2017-06-07T14:04:56Z</time>
      </trkpt>
      <trkpt lat="43.43353" lon="6.02246">
        <ele>343.61819458008</ele>
        <time>2017-06-07T14:04:59Z</time>
      </trkpt>
      <trkpt lat="43.4335" lon="6.02253">
        <ele>343.20001220703</ele>
        <time>2017-06-07T14:05:00Z</time>
      </trkpt>
      <trkpt lat="43.43348" lon="6.02261">
        <ele>343.20001220703</ele>
        <time>2017-06-07T14:05:01Z</time>
      </trkpt>
      <trkpt lat="43.43345" lon="6.02268">
        <ele>343.10000610352</ele>
        <time>2017-06-07T14:05:02Z</time>
      </trkpt>
      <trkpt lat="43.43343" lon="6.02276">
        <ele>343</ele>
        <time>2017-06-07T14:05:03Z</time>
      </trkpt>
      <trkpt lat="43.4334" lon="6.02282">
        <ele>343</ele>
        <time>2017-06-07T14:05:04Z</time>
      </trkpt>
      <trkpt lat="43.43338" lon="6.02288">
        <ele>343.60000610352</ele>
        <time>2017-06-07T14:05:05Z</time>
      </trkpt>
      <trkpt lat="43.43336" lon="6.02293">
        <ele>343.39999389648</ele>
        <time>2017-06-07T14:05:06Z</time>
      </trkpt>
      <trkpt lat="43.43335" lon="6.02297">
        <ele>343.79998779297</ele>
        <time>2017-06-07T14:05:07Z</time>
      </trkpt>
      <trkpt lat="43.43333" lon="6.023">
        <ele>344.39999389648</ele>
        <time>2017-06-07T14:05:08Z</time>
      </trkpt>
      <trkpt lat="43.43332" lon="6.02304">
        <ele>344.39999389648</ele>
        <time>2017-06-07T14:05:09Z</time>
      </trkpt>
      <trkpt lat="43.43331" lon="6.02308">
        <ele>344.60000610352</ele>
        <time>2017-06-07T14:05:10Z</time>
      </trkpt>
      <trkpt lat="43.43329" lon="6.02312">
        <ele>344.60000610352</ele>
        <time>2017-06-07T14:05:11Z</time>
      </trkpt>
      <trkpt lat="43.43328" lon="6.02316">
        <ele>344.60000610352</ele>
        <time>2017-06-07T14:05:12Z</time>
      </trkpt>
      <trkpt lat="43.43326" lon="6.02319">
        <ele>344.39999389648</ele>
        <time>2017-06-07T14:05:13Z</time>
      </trkpt>
      <trkpt lat="43.43325" lon="6.02323">
        <ele>344.39999389648</ele>
        <time>2017-06-07T14:05:14Z</time>
      </trkpt>
      <trkpt lat="43.43321" lon="6.02334">
        <ele>344.60000610352</ele>
        <time>2017-06-07T14:05:17Z</time>
      </trkpt>
      <trkpt lat="43.43318" lon="6.02341">
        <ele>345.39999389648</ele>
        <time>2017-06-07T14:05:19Z</time>
      </trkpt>
      <trkpt lat="43.43317" lon="6.02344">
        <ele>345.39999389648</ele>
        <time>2017-06-07T14:05:20Z</time>
      </trkpt>
      <trkpt lat="43.43312" lon="6.02358">
        <ele>345.78182983398</ele>
        <time>2017-06-07T14:05:24Z</time>
      </trkpt>
      <trkpt lat="43.43311" lon="6.02362">
        <ele>345.87274169922</ele>
        <time>2017-06-07T14:05:25Z</time>
      </trkpt>
      <trkpt lat="43.43309" lon="6.02365">
        <ele>345.96365356445</ele>
        <time>2017-06-07T14:05:26Z</time>
      </trkpt>
      <trkpt lat="43.43307" lon="6.02372">
        <ele>346.14544677734</ele>
        <time>2017-06-07T14:05:28Z</time>
      </trkpt>
      <trkpt lat="43.43304" lon="6.02383">
        <ele>346.41818237305</ele>
        <time>2017-06-07T14:05:31Z</time>
      </trkpt>
      <trkpt lat="43.43303" lon="6.02386">
        <ele>346.50909423828</ele>
        <time>2017-06-07T14:05:32Z</time>
      </trkpt>
      <trkpt lat="43.433" lon="6.02393">
        <ele>346.60000610352</ele>
        <time>2017-06-07T14:05:34Z</time>
      </trkpt>
      <trkpt lat="43.43296" lon="6.02404">
        <ele>347.20001220703</ele>
        <time>2017-06-07T14:05:37Z</time>
      </trkpt>
      <trkpt lat="43.43292" lon="6.02416">
        <ele>347.20001220703</ele>
        <time>2017-06-07T14:05:40Z</time>
      </trkpt>
      <trkpt lat="43.43288" lon="6.02428">
        <ele>347</ele>
        <time>2017-06-07T14:05:43Z</time>
      </trkpt>
      <trkpt lat="43.43286" lon="6.02432">
        <ele>346.79998779297</ele>
        <time>2017-06-07T14:05:44Z</time>
      </trkpt>
      <trkpt lat="43.43283" lon="6.02441">
        <ele>346.34442138672</ele>
        <time>2017-06-07T14:05:46Z</time>
      </trkpt>
      <trkpt lat="43.43282" lon="6.02445">
        <ele>345.88888549805</ele>
        <time>2017-06-07T14:05:47Z</time>
      </trkpt>
      <trkpt lat="43.4328" lon="6.02449">
        <ele>345.4333190918</ele>
        <time>2017-06-07T14:05:48Z</time>
      </trkpt>
      <trkpt lat="43.43279" lon="6.02453">
        <ele>344.97778320312</ele>
        <time>2017-06-07T14:05:49Z</time>
      </trkpt>
      <trkpt lat="43.43277" lon="6.02457">
        <ele>344.52221679688</ele>
        <time>2017-06-07T14:05:50Z</time>
      </trkpt>
      <trkpt lat="43.43275" lon="6.02462">
        <ele>344.06665039062</ele>
        <time>2017-06-07T14:05:51Z</time>
      </trkpt>
      <trkpt lat="43.43273" lon="6.02467">
        <ele>343.61111450195</ele>
        <time>2017-06-07T14:05:52Z</time>
      </trkpt>
      <trkpt lat="43.4327" lon="6.02474">
        <ele>343.1555480957</ele>
        <time>2017-06-07T14:05:53Z</time>
      </trkpt>
      <trkpt lat="43.43269" lon="6.02481">
        <ele>342.70001220703</ele>
        <time>2017-06-07T14:05:54Z</time>
      </trkpt>
      <trkpt lat="43.43266" lon="6.02489">
        <ele>342.24444580078</ele>
        <time>2017-06-07T14:05:55Z</time>
      </trkpt>
      <trkpt lat="43.43262" lon="6.02497">
        <ele>341.78887939453</ele>
        <time>2017-06-07T14:05:56Z</time>
      </trkpt>
      <trkpt lat="43.43259" lon="6.02506">
        <ele>341.33334350586</ele>
        <time>2017-06-07T14:05:57Z</time>
      </trkpt>
      <trkpt lat="43.43256" lon="6.02515">
        <ele>340.87777709961</ele>
        <time>2017-06-07T14:05:58Z</time>
      </trkpt>
      <trkpt lat="43.43253" lon="6.02523">
        <ele>340.42221069336</ele>
        <time>2017-06-07T14:05:59Z</time>
      </trkpt>
      <trkpt lat="43.4325" lon="6.02532">
        <ele>339.96667480469</ele>
        <time>2017-06-07T14:06:00Z</time>
      </trkpt>
      <trkpt lat="43.43242" lon="6.02555">
        <ele>338.60000610352</ele>
        <time>2017-06-07T14:06:03Z</time>
      </trkpt>
      <trkpt lat="43.43238" lon="6.02562">
        <ele>338.79998779297</ele>
        <time>2017-06-07T14:06:04Z</time>
      </trkpt>
      <trkpt lat="43.43236" lon="6.0257">
        <ele>338.79998779297</ele>
        <time>2017-06-07T14:06:05Z</time>
      </trkpt>
      <trkpt lat="43.43233" lon="6.02577">
        <ele>338.39999389648</ele>
        <time>2017-06-07T14:06:06Z</time>
      </trkpt>
      <trkpt lat="43.43231" lon="6.02584">
        <ele>338.39999389648</ele>
        <time>2017-06-07T14:06:07Z</time>
      </trkpt>
      <trkpt lat="43.43229" lon="6.0259">
        <ele>338.20001220703</ele>
        <time>2017-06-07T14:06:08Z</time>
      </trkpt>
      <trkpt lat="43.43228" lon="6.02596">
        <ele>338.20001220703</ele>
        <time>2017-06-07T14:06:09Z</time>
      </trkpt>
      <trkpt lat="43.43227" lon="6.02601">
        <ele>338.20001220703</ele>
        <time>2017-06-07T14:06:10Z</time>
      </trkpt>
      <trkpt lat="43.43225" lon="6.02605">
        <ele>338.20001220703</ele>
        <time>2017-06-07T14:06:11Z</time>
      </trkpt>
      <trkpt lat="43.43224" lon="6.02608">
        <ele>338.39999389648</ele>
        <time>2017-06-07T14:06:12Z</time>
      </trkpt>
      <trkpt lat="43.43222" lon="6.02612">
        <ele>338.20001220703</ele>
        <time>2017-06-07T14:06:13Z</time>
      </trkpt>
      <trkpt lat="43.43218" lon="6.02621">
        <ele>337.70001220703</ele>
        <time>2017-06-07T14:06:15Z</time>
      </trkpt>
      <trkpt lat="43.43216" lon="6.02626">
        <ele>337.20001220703</ele>
        <time>2017-06-07T14:06:16Z</time>
      </trkpt>
      <trkpt lat="43.43214" lon="6.0263">
        <ele>336.70001220703</ele>
        <time>2017-06-07T14:06:17Z</time>
      </trkpt>
      <trkpt lat="43.43212" lon="6.02634">
        <ele>336.20001220703</ele>
        <time>2017-06-07T14:06:18Z</time>
      </trkpt>
      <trkpt lat="43.4321" lon="6.02638">
        <ele>335.70001220703</ele>
        <time>2017-06-07T14:06:19Z</time>
      </trkpt>
      <trkpt lat="43.43207" lon="6.0264">
        <ele>335.20001220703</ele>
        <time>2017-06-07T14:06:20Z</time>
      </trkpt>
      <trkpt lat="43.43204" lon="6.02643">
        <ele>334.70001220703</ele>
        <time>2017-06-07T14:06:21Z</time>
      </trkpt>
      <trkpt lat="43.43201" lon="6.02646">
        <ele>334.20001220703</ele>
        <time>2017-06-07T14:06:22Z</time>
      </trkpt>
      <trkpt lat="43.43197" lon="6.02649">
        <ele>333.70001220703</ele>
        <time>2017-06-07T14:06:23Z</time>
      </trkpt>
      <trkpt lat="43.43193" lon="6.02653">
        <ele>333.20001220703</ele>
        <time>2017-06-07T14:06:24Z</time>
      </trkpt>
      <trkpt lat="43.4319" lon="6.02657">
        <ele>332.70001220703</ele>
        <time>2017-06-07T14:06:25Z</time>
      </trkpt>
      <trkpt lat="43.43185" lon="6.02661">
        <ele>332.20001220703</ele>
        <time>2017-06-07T14:06:26Z</time>
      </trkpt>
      <trkpt lat="43.43181" lon="6.02664">
        <ele>331.70001220703</ele>
        <time>2017-06-07T14:06:27Z</time>
      </trkpt>
      <trkpt lat="43.43177" lon="6.02668">
        <ele>331.20001220703</ele>
        <time>2017-06-07T14:06:28Z</time>
      </trkpt>
      <trkpt lat="43.43174" lon="6.02672">
        <ele>330.70001220703</ele>
        <time>2017-06-07T14:06:29Z</time>
      </trkpt>
      <trkpt lat="43.43172" lon="6.02676">
        <ele>330.20001220703</ele>
        <time>2017-06-07T14:06:30Z</time>
      </trkpt>
      <trkpt lat="43.43171" lon="6.02678">
        <ele>330.20001220703</ele>
        <time>2017-06-07T14:06:31Z</time>
      </trkpt>
      <trkpt lat="43.43169" lon="6.02681">
        <ele>330.39999389648</ele>
        <time>2017-06-07T14:06:32Z</time>
      </trkpt>
      <trkpt lat="43.43169" lon="6.02683">
        <ele>330.60000610352</ele>
        <time>2017-06-07T14:06:33Z</time>
      </trkpt>
      <trkpt lat="43.43168" lon="6.02685">
        <ele>330.79998779297</ele>
        <time>2017-06-07T14:06:34Z</time>
      </trkpt>
      <trkpt lat="43.43167" lon="6.02686">
        <ele>331</ele>
        <time>2017-06-07T14:06:35Z</time>
      </trkpt>
      <trkpt lat="43.43167" lon="6.02688">
        <ele>332.20001220703</ele>
        <time>2017-06-07T14:06:36Z</time>
      </trkpt>
      <trkpt lat="43.43167" lon="6.0269">
        <ele>332.60000610352</ele>
        <time>2017-06-07T14:06:37Z</time>
      </trkpt>
      <trkpt lat="43.43166" lon="6.02692">
        <ele>333</ele>
        <time>2017-06-07T14:06:38Z</time>
      </trkpt>
      <trkpt lat="43.43166" lon="6.02693">
        <ele>333.39999389648</ele>
        <time>2017-06-07T14:06:39Z</time>
      </trkpt>
      <trkpt lat="43.43166" lon="6.02699">
        <ele>333.79998779297</ele>
        <time>2017-06-07T14:06:42Z</time>
      </trkpt>
      <trkpt lat="43.43164" lon="6.02703">
        <ele>334.2799987793</ele>
        <time>2017-06-07T14:06:45Z</time>
      </trkpt>
      <trkpt lat="43.43163" lon="6.02706">
        <ele>334.76000976562</ele>
        <time>2017-06-07T14:06:47Z</time>
      </trkpt>
      <trkpt lat="43.43163" lon="6.02708">
        <ele>335</ele>
        <time>2017-06-07T14:06:48Z</time>
      </trkpt>
      <trkpt lat="43.43162" lon="6.02711">
        <ele>335.29998779297</ele>
        <time>2017-06-07T14:06:50Z</time>
      </trkpt>
      <trkpt lat="43.43161" lon="6.02713">
        <ele>335.60000610352</ele>
        <time>2017-06-07T14:06:51Z</time>
      </trkpt>
      <trkpt lat="43.43159" lon="6.02721">
        <ele>337.10000610352</ele>
        <time>2017-06-07T14:06:56Z</time>
      </trkpt>
      <trkpt lat="43.43158" lon="6.02724">
        <ele>337.70001220703</ele>
        <time>2017-06-07T14:06:58Z</time>
      </trkpt>
      <trkpt lat="43.43157" lon="6.02735">
        <ele>338.70001220703</ele>
        <time>2017-06-07T14:07:05Z</time>
      </trkpt>
      <trkpt lat="43.43156" lon="6.02738">
        <ele>339.03335571289</ele>
        <time>2017-06-07T14:07:07Z</time>
      </trkpt>
      <trkpt lat="43.43156" lon="6.02741">
        <ele>339.36666870117</ele>
        <time>2017-06-07T14:07:09Z</time>
      </trkpt>
      <trkpt lat="43.43155" lon="6.02744">
        <ele>339.70001220703</ele>
        <time>2017-06-07T14:07:11Z</time>
      </trkpt>
      <trkpt lat="43.43155" lon="6.02746">
        <ele>339.86666870117</ele>
        <time>2017-06-07T14:07:12Z</time>
      </trkpt>
      <trkpt lat="43.43155" lon="6.02747">
        <ele>340.03335571289</ele>
        <time>2017-06-07T14:07:13Z</time>
      </trkpt>
      <trkpt lat="43.43154" lon="6.02751">
        <ele>340.20001220703</ele>
        <time>2017-06-07T14:07:15Z</time>
      </trkpt>
      <trkpt lat="43.43153" lon="6.02752">
        <ele>340.39999389648</ele>
        <time>2017-06-07T14:07:16Z</time>
      </trkpt>
      <trkpt lat="43.43152" lon="6.02756">
        <ele>340.79998779297</ele>
        <time>2017-06-07T14:07:18Z</time>
      </trkpt>
      <trkpt lat="43.4315" lon="6.0276">
        <ele>341</ele>
        <time>2017-06-07T14:07:21Z</time>
      </trkpt>
      <trkpt lat="43.43148" lon="6.02765">
        <ele>341.23999023438</ele>
        <time>2017-06-07T14:07:24Z</time>
      </trkpt>
      <trkpt lat="43.43147" lon="6.02767">
        <ele>341.48001098633</ele>
        <time>2017-06-07T14:07:26Z</time>
      </trkpt>
      <trkpt lat="43.43145" lon="6.02774">
        <ele>341.79998779297</ele>
        <time>2017-06-07T14:07:30Z</time>
      </trkpt>
      <trkpt lat="43.43144" lon="6.02775">
        <ele>342</ele>
        <time>2017-06-07T14:07:31Z</time>
      </trkpt>
      <trkpt lat="43.43143" lon="6.02778">
        <ele>342.39999389648</ele>
        <time>2017-06-07T14:07:33Z</time>
      </trkpt>
      <trkpt lat="43.43142" lon="6.02781">
        <ele>342.59997558594</ele>
        <time>2017-06-07T14:07:35Z</time>
      </trkpt>
      <trkpt lat="43.43142" lon="6.02783">
        <ele>342.79998779297</ele>
        <time>2017-06-07T14:07:36Z</time>
      </trkpt>
      <trkpt lat="43.43141" lon="6.0279">
        <ele>343</ele>
        <time>2017-06-07T14:07:40Z</time>
      </trkpt>
      <trkpt lat="43.4314" lon="6.02793">
        <ele>343.20001220703</ele>
        <time>2017-06-07T14:07:42Z</time>
      </trkpt>
      <trkpt lat="43.43139" lon="6.02795">
        <ele>343.20001220703</ele>
        <time>2017-06-07T14:07:43Z</time>
      </trkpt>
      <trkpt lat="43.43139" lon="6.02797">
        <ele>343.39999389648</ele>
        <time>2017-06-07T14:07:44Z</time>
      </trkpt>
      <trkpt lat="43.43138" lon="6.02799">
        <ele>343.39999389648</ele>
        <time>2017-06-07T14:07:45Z</time>
      </trkpt>
      <trkpt lat="43.43138" lon="6.02801">
        <ele>343.5</ele>
        <time>2017-06-07T14:07:46Z</time>
      </trkpt>
      <trkpt lat="43.43137" lon="6.02803">
        <ele>343.60000610352</ele>
        <time>2017-06-07T14:07:47Z</time>
      </trkpt>
      <trkpt lat="43.43137" lon="6.02804">
        <ele>343.60000610352</ele>
        <time>2017-06-07T14:07:48Z</time>
      </trkpt>
      <trkpt lat="43.43136" lon="6.02806">
        <ele>343.86666870117</ele>
        <time>2017-06-07T14:07:50Z</time>
      </trkpt>
      <trkpt lat="43.43136" lon="6.02807">
        <ele>344</ele>
        <time>2017-06-07T14:07:51Z</time>
      </trkpt>
      <trkpt lat="43.43136" lon="6.02807">
        <ele>344</ele>
        <time>2017-06-07T14:07:52Z</time>
      </trkpt>
      <trkpt lat="43.43135" lon="6.02807">
        <ele>344.20001220703</ele>
        <time>2017-06-07T14:07:53Z</time>
      </trkpt>
      <trkpt lat="43.43135" lon="6.02807">
        <ele>344.20001220703</ele>
        <time>2017-06-07T14:07:55Z</time>
      </trkpt>
      <trkpt lat="43.43135" lon="6.02807">
        <ele>344.39999389648</ele>
        <time>2017-06-07T14:07:57Z</time>
      </trkpt>
      <trkpt lat="43.43135" lon="6.02807">
        <ele>344.39999389648</ele>
        <time>2017-06-07T14:08:01Z</time>
      </trkpt>
      <trkpt lat="43.43135" lon="6.02807">
        <ele>344.20001220703</ele>
        <time>2017-06-07T14:08:04Z</time>
      </trkpt>
      <trkpt lat="43.43135" lon="6.02807">
        <ele>344.39999389648</ele>
        <time>2017-06-07T14:08:06Z</time>
      </trkpt>
      <trkpt lat="43.43135" lon="6.02807">
        <ele>344.55557250977</ele>
        <time>2017-06-07T14:08:15Z</time>
      </trkpt>
      <trkpt lat="43.43135" lon="6.02807">
        <ele>344.46667480469</ele>
        <time>2017-06-07T14:08:19Z</time>
      </trkpt>
      <trkpt lat="43.43135" lon="6.02807">
        <ele>344.39999389648</ele>
        <time>2017-06-07T14:08:22Z</time>
      </trkpt>
      <trkpt lat="43.43135" lon="6.02807">
        <ele>344</ele>
        <time>2017-06-07T14:08:49Z</time>
      </trkpt>
      <trkpt lat="43.43135" lon="6.02807">
        <ele>343.79998779297</ele>
        <time>2017-06-07T14:09:11Z</time>
      </trkpt>
      <trkpt lat="43.43135" lon="6.02807">
        <ele>344</ele>
        <time>2017-06-07T14:09:14Z</time>
      </trkpt>
      <trkpt lat="43.43135" lon="6.02807">
        <ele>344</ele>
        <time>2017-06-07T14:09:15Z</time>
      </trkpt>
      <trkpt lat="43.43135" lon="6.02808">
        <ele>344.20001220703</ele>
        <time>2017-06-07T14:09:16Z</time>
      </trkpt>
      <trkpt lat="43.43135" lon="6.02809">
        <ele>344.20001220703</ele>
        <time>2017-06-07T14:09:17Z</time>
      </trkpt>
      <trkpt lat="43.43135" lon="6.0281">
        <ele>344.20001220703</ele>
        <time>2017-06-07T14:09:18Z</time>
      </trkpt>
      <trkpt lat="43.43135" lon="6.02811">
        <ele>344.20001220703</ele>
        <time>2017-06-07T14:09:19Z</time>
      </trkpt>
      <trkpt lat="43.43135" lon="6.02813">
        <ele>344.20001220703</ele>
        <time>2017-06-07T14:09:20Z</time>
      </trkpt>
      <trkpt lat="43.43135" lon="6.02816">
        <ele>344.20001220703</ele>
        <time>2017-06-07T14:09:21Z</time>
      </trkpt>
      <trkpt lat="43.43135" lon="6.02818">
        <ele>344.20001220703</ele>
        <time>2017-06-07T14:09:22Z</time>
      </trkpt>
      <trkpt lat="43.43135" lon="6.02821">
        <ele>344</ele>
        <time>2017-06-07T14:09:23Z</time>
      </trkpt>
      <trkpt lat="43.43134" lon="6.02823">
        <ele>344</ele>
        <time>2017-06-07T14:09:24Z</time>
      </trkpt>
      <trkpt lat="43.43134" lon="6.02828">
        <ele>344</ele>
        <time>2017-06-07T14:09:26Z</time>
      </trkpt>
      <trkpt lat="43.43135" lon="6.02835">
        <ele>344.39999389648</ele>
        <time>2017-06-07T14:09:29Z</time>
      </trkpt>
      <trkpt lat="43.43136" lon="6.0284">
        <ele>345</ele>
        <time>2017-06-07T14:09:31Z</time>
      </trkpt>
      <trkpt lat="43.43136" lon="6.02844">
        <ele>345.20001220703</ele>
        <time>2017-06-07T14:09:33Z</time>
      </trkpt>
      <trkpt lat="43.43137" lon="6.02852">
        <ele>344.79998779297</ele>
        <time>2017-06-07T14:09:36Z</time>
      </trkpt>
      <trkpt lat="43.43138" lon="6.0286">
        <ele>345</ele>
        <time>2017-06-07T14:09:39Z</time>
      </trkpt>
      <trkpt lat="43.43139" lon="6.02868">
        <ele>345.39999389648</ele>
        <time>2017-06-07T14:09:42Z</time>
      </trkpt>
      <trkpt lat="43.43139" lon="6.02873">
        <ele>345.60000610352</ele>
        <time>2017-06-07T14:09:44Z</time>
      </trkpt>
      <trkpt lat="43.4314" lon="6.02878">
        <ele>345.60000610352</ele>
        <time>2017-06-07T14:09:46Z</time>
      </trkpt>
      <trkpt lat="43.4314" lon="6.02881">
        <ele>345.39999389648</ele>
        <time>2017-06-07T14:09:47Z</time>
      </trkpt>
      <trkpt lat="43.43141" lon="6.02887">
        <ele>345.20001220703</ele>
        <time>2017-06-07T14:09:49Z</time>
      </trkpt>
      <trkpt lat="43.43142" lon="6.02893">
        <ele>345.0666809082</ele>
        <time>2017-06-07T14:09:51Z</time>
      </trkpt>
      <trkpt lat="43.43143" lon="6.029">
        <ele>344.9333190918</ele>
        <time>2017-06-07T14:09:53Z</time>
      </trkpt>
      <trkpt lat="43.43143" lon="6.02904">
        <ele>344.86666870117</ele>
        <time>2017-06-07T14:09:54Z</time>
      </trkpt>
      <trkpt lat="43.43144" lon="6.02908">
        <ele>344.79998779297</ele>
        <time>2017-06-07T14:09:55Z</time>
      </trkpt>
      <trkpt lat="43.43144" lon="6.02912">
        <ele>344.79998779297</ele>
        <time>2017-06-07T14:09:56Z</time>
      </trkpt>
      <trkpt lat="43.43145" lon="6.02928">
        <ele>342.36468505859</ele>
        <time>2017-06-07T14:09:59Z</time>
      </trkpt>
      <trkpt lat="43.43145" lon="6.02934">
        <ele>341.55291748047</ele>
        <time>2017-06-07T14:10:00Z</time>
      </trkpt>
      <trkpt lat="43.43145" lon="6.0294">
        <ele>340.74118041992</ele>
        <time>2017-06-07T14:10:01Z</time>
      </trkpt>
      <trkpt lat="43.43145" lon="6.02945">
        <ele>339.9294128418</ele>
        <time>2017-06-07T14:10:02Z</time>
      </trkpt>
      <trkpt lat="43.43145" lon="6.02951">
        <ele>339.11764526367</ele>
        <time>2017-06-07T14:10:03Z</time>
      </trkpt>
      <trkpt lat="43.43145" lon="6.02956">
        <ele>338.30587768555</ele>
        <time>2017-06-07T14:10:04Z</time>
      </trkpt>
      <trkpt lat="43.43145" lon="6.0296">
        <ele>337.49411010742</ele>
        <time>2017-06-07T14:10:05Z</time>
      </trkpt>
      <trkpt lat="43.43145" lon="6.02965">
        <ele>336.6823425293</ele>
        <time>2017-06-07T14:10:06Z</time>
      </trkpt>
      <trkpt lat="43.43145" lon="6.02969">
        <ele>335.87057495117</ele>
        <time>2017-06-07T14:10:07Z</time>
      </trkpt>
      <trkpt lat="43.43145" lon="6.02973">
        <ele>335.05880737305</ele>
        <time>2017-06-07T14:10:08Z</time>
      </trkpt>
      <trkpt lat="43.43145" lon="6.02978">
        <ele>334.2470703125</ele>
        <time>2017-06-07T14:10:09Z</time>
      </trkpt>
      <trkpt lat="43.43145" lon="6.02983">
        <ele>333.43530273438</ele>
        <time>2017-06-07T14:10:10Z</time>
      </trkpt>
      <trkpt lat="43.43145" lon="6.02988">
        <ele>332.62353515625</ele>
        <time>2017-06-07T14:10:11Z</time>
      </trkpt>
      <trkpt lat="43.43145" lon="6.02994">
        <ele>331.81176757812</ele>
        <time>2017-06-07T14:10:12Z</time>
      </trkpt>
      <trkpt lat="43.43143" lon="6.03007">
        <ele>330.18823242188</ele>
        <time>2017-06-07T14:10:14Z</time>
      </trkpt>
      <trkpt lat="43.43142" lon="6.03021">
        <ele>328.56469726562</ele>
        <time>2017-06-07T14:10:16Z</time>
      </trkpt>
      <trkpt lat="43.43142" lon="6.03029">
        <ele>327.7529296875</ele>
        <time>2017-06-07T14:10:17Z</time>
      </trkpt>
      <trkpt lat="43.43141" lon="6.03037">
        <ele>326.94119262695</ele>
        <time>2017-06-07T14:10:18Z</time>
      </trkpt>
      <trkpt lat="43.4314" lon="6.03046">
        <ele>326.12942504883</ele>
        <time>2017-06-07T14:10:19Z</time>
      </trkpt>
      <trkpt lat="43.4314" lon="6.03056">
        <ele>325.3176574707</ele>
        <time>2017-06-07T14:10:20Z</time>
      </trkpt>
      <trkpt lat="43.43138" lon="6.03067">
        <ele>324.50588989258</ele>
        <time>2017-06-07T14:10:21Z</time>
      </trkpt>
      <trkpt lat="43.43137" lon="6.03079">
        <ele>323.69412231445</ele>
        <time>2017-06-07T14:10:22Z</time>
      </trkpt>
      <trkpt lat="43.43136" lon="6.03091">
        <ele>322.88235473633</ele>
        <time>2017-06-07T14:10:23Z</time>
      </trkpt>
      <trkpt lat="43.43135" lon="6.03102">
        <ele>322.0705871582</ele>
        <time>2017-06-07T14:10:24Z</time>
      </trkpt>
      <trkpt lat="43.43134" lon="6.03113">
        <ele>321.25881958008</ele>
        <time>2017-06-07T14:10:25Z</time>
      </trkpt>
      <trkpt lat="43.43132" lon="6.03133">
        <ele>319.63531494141</ele>
        <time>2017-06-07T14:10:27Z</time>
      </trkpt>
      <trkpt lat="43.43131" lon="6.03143">
        <ele>318.82354736328</ele>
        <time>2017-06-07T14:10:28Z</time>
      </trkpt>
      <trkpt lat="43.4313" lon="6.03153">
        <ele>318.01177978516</ele>
        <time>2017-06-07T14:10:29Z</time>
      </trkpt>
      <trkpt lat="43.43131" lon="6.03163">
        <ele>317.20001220703</ele>
        <time>2017-06-07T14:10:30Z</time>
      </trkpt>
      <trkpt lat="43.43131" lon="6.03172">
        <ele>317.20001220703</ele>
        <time>2017-06-07T14:10:31Z</time>
      </trkpt>
      <trkpt lat="43.43132" lon="6.03179">
        <ele>317.20001220703</ele>
        <time>2017-06-07T14:10:32Z</time>
      </trkpt>
      <trkpt lat="43.43131" lon="6.03183">
        <ele>317.79998779297</ele>
        <time>2017-06-07T14:10:33Z</time>
      </trkpt>
      <trkpt lat="43.43131" lon="6.03186">
        <ele>318.20001220703</ele>
        <time>2017-06-07T14:10:34Z</time>
      </trkpt>
      <trkpt lat="43.43131" lon="6.03188">
        <ele>319</ele>
        <time>2017-06-07T14:10:35Z</time>
      </trkpt>
      <trkpt lat="43.4313" lon="6.0319">
        <ele>319.79998779297</ele>
        <time>2017-06-07T14:10:36Z</time>
      </trkpt>
      <trkpt lat="43.4313" lon="6.03192">
        <ele>320</ele>
        <time>2017-06-07T14:10:37Z</time>
      </trkpt>
      <trkpt lat="43.43131" lon="6.03194">
        <ele>320.60000610352</ele>
        <time>2017-06-07T14:10:38Z</time>
      </trkpt>
      <trkpt lat="43.4313" lon="6.03199">
        <ele>322.39999389648</ele>
        <time>2017-06-07T14:10:40Z</time>
      </trkpt>
      <trkpt lat="43.4313" lon="6.03201">
        <ele>323</ele>
        <time>2017-06-07T14:10:41Z</time>
      </trkpt>
      <trkpt lat="43.4313" lon="6.03205">
        <ele>323.79998779297</ele>
        <time>2017-06-07T14:10:43Z</time>
      </trkpt>
      <trkpt lat="43.4313" lon="6.03207">
        <ele>324.20001220703</ele>
        <time>2017-06-07T14:10:44Z</time>
      </trkpt>
      <trkpt lat="43.4313" lon="6.03209">
        <ele>324.60000610352</ele>
        <time>2017-06-07T14:10:45Z</time>
      </trkpt>
      <trkpt lat="43.4313" lon="6.03214">
        <ele>325</ele>
        <time>2017-06-07T14:10:47Z</time>
      </trkpt>
      <trkpt lat="43.4313" lon="6.03217">
        <ele>325.20001220703</ele>
        <time>2017-06-07T14:10:48Z</time>
      </trkpt>
      <trkpt lat="43.4313" lon="6.0322">
        <ele>325.39999389648</ele>
        <time>2017-06-07T14:10:49Z</time>
      </trkpt>
      <trkpt lat="43.4313" lon="6.03223">
        <ele>325.39999389648</ele>
        <time>2017-06-07T14:10:50Z</time>
      </trkpt>
      <trkpt lat="43.43129" lon="6.03225">
        <ele>325.9333190918</ele>
        <time>2017-06-07T14:10:51Z</time>
      </trkpt>
      <trkpt lat="43.43129" lon="6.03228">
        <ele>326.46667480469</ele>
        <time>2017-06-07T14:10:52Z</time>
      </trkpt>
      <trkpt lat="43.43129" lon="6.03231">
        <ele>327</ele>
        <time>2017-06-07T14:10:53Z</time>
      </trkpt>
      <trkpt lat="43.43128" lon="6.03235">
        <ele>327.20001220703</ele>
        <time>2017-06-07T14:10:55Z</time>
      </trkpt>
      <trkpt lat="43.43127" lon="6.03237">
        <ele>327.39999389648</ele>
        <time>2017-06-07T14:10:56Z</time>
      </trkpt>
      <trkpt lat="43.43127" lon="6.03238">
        <ele>327.39999389648</ele>
        <time>2017-06-07T14:10:57Z</time>
      </trkpt>
      <trkpt lat="43.43127" lon="6.0324">
        <ele>327.46667480469</ele>
        <time>2017-06-07T14:10:58Z</time>
      </trkpt>
      <trkpt lat="43.43127" lon="6.03241">
        <ele>327.53332519531</ele>
        <time>2017-06-07T14:10:59Z</time>
      </trkpt>
      <trkpt lat="43.43127" lon="6.03241">
        <ele>327.60000610352</ele>
        <time>2017-06-07T14:11:00Z</time>
      </trkpt>
      <trkpt lat="43.43127" lon="6.03241">
        <ele>327.60000610352</ele>
        <time>2017-06-07T14:11:01Z</time>
      </trkpt>
      <trkpt lat="43.43127" lon="6.03241">
        <ele>327.60000610352</ele>
        <time>2017-06-07T14:11:02Z</time>
      </trkpt>
      <trkpt lat="43.43127" lon="6.03241">
        <ele>327.60000610352</ele>
        <time>2017-06-07T14:11:03Z</time>
      </trkpt>
      <trkpt lat="43.43127" lon="6.03241">
        <ele>327.39999389648</ele>
        <time>2017-06-07T14:11:08Z</time>
      </trkpt>
      <trkpt lat="43.43127" lon="6.03241">
        <ele>327.26666259766</ele>
        <time>2017-06-07T14:11:12Z</time>
      </trkpt>
      <trkpt lat="43.43127" lon="6.03241">
        <ele>327.60000610352</ele>
        <time>2017-06-07T14:11:30Z</time>
      </trkpt>
      <trkpt lat="43.43127" lon="6.03241">
        <ele>327.60000610352</ele>
        <time>2017-06-07T14:11:34Z</time>
      </trkpt>
      <trkpt lat="43.43127" lon="6.03241">
        <ele>327.60000610352</ele>
        <time>2017-06-07T14:11:35Z</time>
      </trkpt>
      <trkpt lat="43.43127" lon="6.03241">
        <ele>327.79998779297</ele>
        <time>2017-06-07T14:11:37Z</time>
      </trkpt>
      <trkpt lat="43.43127" lon="6.03241">
        <ele>327.79998779297</ele>
        <time>2017-06-07T14:11:41Z</time>
      </trkpt>
      <trkpt lat="43.43127" lon="6.03241">
        <ele>327.39999389648</ele>
        <time>2017-06-07T14:11:57Z</time>
      </trkpt>
      <trkpt lat="43.43127" lon="6.03241">
        <ele>327.60000610352</ele>
        <time>2017-06-07T14:12:26Z</time>
      </trkpt>
      <trkpt lat="43.43127" lon="6.03241">
        <ele>327.86666870117</ele>
        <time>2017-06-07T14:12:28Z</time>
      </trkpt>
      <trkpt lat="43.43127" lon="6.03241">
        <ele>328</ele>
        <time>2017-06-07T14:12:30Z</time>
      </trkpt>
      <trkpt lat="43.43127" lon="6.03241">
        <ele>328</ele>
        <time>2017-06-07T14:12:34Z</time>
      </trkpt>
      <trkpt lat="43.43127" lon="6.03241">
        <ele>327.79998779297</ele>
        <time>2017-06-07T14:12:54Z</time>
      </trkpt>
      <trkpt lat="43.43127" lon="6.03241">
        <ele>328.79998779297</ele>
        <time>2017-06-07T14:13:15Z</time>
      </trkpt>
      <trkpt lat="43.43127" lon="6.03241">
        <ele>329</ele>
        <time>2017-06-07T14:13:17Z</time>
      </trkpt>
      <trkpt lat="43.43127" lon="6.03241">
        <ele>329</ele>
        <time>2017-06-07T14:13:18Z</time>
      </trkpt>
      <trkpt lat="43.43127" lon="6.03242">
        <ele>328.79998779297</ele>
        <time>2017-06-07T14:13:20Z</time>
      </trkpt>
      <trkpt lat="43.43127" lon="6.03243">
        <ele>328.79998779297</ele>
        <time>2017-06-07T14:13:21Z</time>
      </trkpt>
      <trkpt lat="43.43126" lon="6.03245">
        <ele>328.60000610352</ele>
        <time>2017-06-07T14:13:22Z</time>
      </trkpt>
      <trkpt lat="43.43126" lon="6.03247">
        <ele>328.60000610352</ele>
        <time>2017-06-07T14:13:23Z</time>
      </trkpt>
      <trkpt lat="43.43126" lon="6.0325">
        <ele>328.39999389648</ele>
        <time>2017-06-07T14:13:24Z</time>
      </trkpt>
      <trkpt lat="43.43126" lon="6.03252">
        <ele>328.39999389648</ele>
        <time>2017-06-07T14:13:25Z</time>
      </trkpt>
      <trkpt lat="43.43125" lon="6.03261">
        <ele>328.20001220703</ele>
        <time>2017-06-07T14:13:28Z</time>
      </trkpt>
      <trkpt lat="43.43125" lon="6.03264">
        <ele>328.10000610352</ele>
        <time>2017-06-07T14:13:29Z</time>
      </trkpt>
      <trkpt lat="43.43125" lon="6.03267">
        <ele>328</ele>
        <time>2017-06-07T14:13:30Z</time>
      </trkpt>
      <trkpt lat="43.43124" lon="6.03271">
        <ele>328</ele>
        <time>2017-06-07T14:13:31Z</time>
      </trkpt>
      <trkpt lat="43.43124" lon="6.03276">
        <ele>327.73333740234</ele>
        <time>2017-06-07T14:13:32Z</time>
      </trkpt>
      <trkpt lat="43.43124" lon="6.03281">
        <ele>327.46667480469</ele>
        <time>2017-06-07T14:13:33Z</time>
      </trkpt>
      <trkpt lat="43.43124" lon="6.03286">
        <ele>327.20001220703</ele>
        <time>2017-06-07T14:13:34Z</time>
      </trkpt>
      <trkpt lat="43.43123" lon="6.03311">
        <ele>327</ele>
        <time>2017-06-07T14:13:38Z</time>
      </trkpt>
      <trkpt lat="43.43122" lon="6.03318">
        <ele>326.60000610352</ele>
        <time>2017-06-07T14:13:39Z</time>
      </trkpt>
      <trkpt lat="43.43122" lon="6.03326">
        <ele>326.20001220703</ele>
        <time>2017-06-07T14:13:40Z</time>
      </trkpt>
      <trkpt lat="43.43122" lon="6.03335">
        <ele>326.20001220703</ele>
        <time>2017-06-07T14:13:41Z</time>
      </trkpt>
      <trkpt lat="43.43122" lon="6.03343">
        <ele>325.83636474609</ele>
        <time>2017-06-07T14:13:42Z</time>
      </trkpt>
      <trkpt lat="43.43121" lon="6.03352">
        <ele>325.47274780273</ele>
        <time>2017-06-07T14:13:43Z</time>
      </trkpt>
      <trkpt lat="43.4312" lon="6.03361">
        <ele>325.1091003418</ele>
        <time>2017-06-07T14:13:44Z</time>
      </trkpt>
      <trkpt lat="43.43119" lon="6.0337">
        <ele>324.74545288086</ele>
        <time>2017-06-07T14:13:45Z</time>
      </trkpt>
      <trkpt lat="43.43119" lon="6.0338">
        <ele>324.3818359375</ele>
        <time>2017-06-07T14:13:46Z</time>
      </trkpt>
      <trkpt lat="43.43118" lon="6.03389">
        <ele>324.01818847656</ele>
        <time>2017-06-07T14:13:47Z</time>
      </trkpt>
      <trkpt lat="43.43118" lon="6.03399">
        <ele>323.6545715332</ele>
        <time>2017-06-07T14:13:48Z</time>
      </trkpt>
      <trkpt lat="43.43117" lon="6.03409">
        <ele>323.29092407227</ele>
        <time>2017-06-07T14:13:49Z</time>
      </trkpt>
      <trkpt lat="43.43116" lon="6.03419">
        <ele>322.92727661133</ele>
        <time>2017-06-07T14:13:50Z</time>
      </trkpt>
      <trkpt lat="43.43116" lon="6.03429">
        <ele>322.56365966797</ele>
        <time>2017-06-07T14:13:51Z</time>
      </trkpt>
      <trkpt lat="43.43115" lon="6.03438">
        <ele>322.20001220703</ele>
        <time>2017-06-07T14:13:52Z</time>
      </trkpt>
      <trkpt lat="43.43113" lon="6.03457">
        <ele>322</ele>
        <time>2017-06-07T14:13:54Z</time>
      </trkpt>
      <trkpt lat="43.43112" lon="6.03466">
        <ele>322</ele>
        <time>2017-06-07T14:13:55Z</time>
      </trkpt>
      <trkpt lat="43.43111" lon="6.03475">
        <ele>322.20001220703</ele>
        <time>2017-06-07T14:13:56Z</time>
      </trkpt>
      <trkpt lat="43.4311" lon="6.03483">
        <ele>322.39999389648</ele>
        <time>2017-06-07T14:13:57Z</time>
      </trkpt>
      <trkpt lat="43.43109" lon="6.03492">
        <ele>322.20001220703</ele>
        <time>2017-06-07T14:13:58Z</time>
      </trkpt>
      <trkpt lat="43.43108" lon="6.03502">
        <ele>322.20001220703</ele>
        <time>2017-06-07T14:13:59Z</time>
      </trkpt>
      <trkpt lat="43.43107" lon="6.03523">
        <ele>321.16000366211</ele>
        <time>2017-06-07T14:14:01Z</time>
      </trkpt>
      <trkpt lat="43.43106" lon="6.03533">
        <ele>320.64001464844</ele>
        <time>2017-06-07T14:14:02Z</time>
      </trkpt>
      <trkpt lat="43.43106" lon="6.03544">
        <ele>320.11999511719</ele>
        <time>2017-06-07T14:14:03Z</time>
      </trkpt>
      <trkpt lat="43.43105" lon="6.03555">
        <ele>319.60000610352</ele>
        <time>2017-06-07T14:14:04Z</time>
      </trkpt>
      <trkpt lat="43.43104" lon="6.03577">
        <ele>319.1428527832</ele>
        <time>2017-06-07T14:14:06Z</time>
      </trkpt>
      <trkpt lat="43.43102" lon="6.03622">
        <ele>317.31427001953</ele>
        <time>2017-06-07T14:14:10Z</time>
      </trkpt>
      <trkpt lat="43.43101" lon="6.03634">
        <ele>316.8571472168</ele>
        <time>2017-06-07T14:14:11Z</time>
      </trkpt>
      <trkpt lat="43.43099" lon="6.03646">
        <ele>316.39999389648</ele>
        <time>2017-06-07T14:14:12Z</time>
      </trkpt>
      <trkpt lat="43.43098" lon="6.03658">
        <ele>316.39999389648</ele>
        <time>2017-06-07T14:14:13Z</time>
      </trkpt>
      <trkpt lat="43.43098" lon="6.0367">
        <ele>316.29998779297</ele>
        <time>2017-06-07T14:14:14Z</time>
      </trkpt>
      <trkpt lat="43.43097" lon="6.03692">
        <ele>316.20001220703</ele>
        <time>2017-06-07T14:14:16Z</time>
      </trkpt>
      <trkpt lat="43.43097" lon="6.03704">
        <ele>316.20001220703</ele>
        <time>2017-06-07T14:14:17Z</time>
      </trkpt>
      <trkpt lat="43.43097" lon="6.03716">
        <ele>316.39999389648</ele>
        <time>2017-06-07T14:14:18Z</time>
      </trkpt>
      <trkpt lat="43.43096" lon="6.03728">
        <ele>316.60000610352</ele>
        <time>2017-06-07T14:14:19Z</time>
      </trkpt>
      <trkpt lat="43.43096" lon="6.0374">
        <ele>316.39999389648</ele>
        <time>2017-06-07T14:14:20Z</time>
      </trkpt>
      <trkpt lat="43.43095" lon="6.03765">
        <ele>316.20001220703</ele>
        <time>2017-06-07T14:14:22Z</time>
      </trkpt>
      <trkpt lat="43.43095" lon="6.03777">
        <ele>316.20001220703</ele>
        <time>2017-06-07T14:14:23Z</time>
      </trkpt>
      <trkpt lat="43.43094" lon="6.0379">
        <ele>315.93334960938</ele>
        <time>2017-06-07T14:14:24Z</time>
      </trkpt>
      <trkpt lat="43.43093" lon="6.03802">
        <ele>315.66665649414</ele>
        <time>2017-06-07T14:14:25Z</time>
      </trkpt>
      <trkpt lat="43.43091" lon="6.03827">
        <ele>315.60000610352</ele>
        <time>2017-06-07T14:14:27Z</time>
      </trkpt>
      <trkpt lat="43.4309" lon="6.0384">
        <ele>316.20001220703</ele>
        <time>2017-06-07T14:14:28Z</time>
      </trkpt>
      <trkpt lat="43.4309" lon="6.03852">
        <ele>316.39999389648</ele>
        <time>2017-06-07T14:14:29Z</time>
      </trkpt>
      <trkpt lat="43.43089" lon="6.03864">
        <ele>316.60000610352</ele>
        <time>2017-06-07T14:14:30Z</time>
      </trkpt>
      <trkpt lat="43.43088" lon="6.03875">
        <ele>316.60000610352</ele>
        <time>2017-06-07T14:14:31Z</time>
      </trkpt>
      <trkpt lat="43.43087" lon="6.03886">
        <ele>316.39999389648</ele>
        <time>2017-06-07T14:14:32Z</time>
      </trkpt>
      <trkpt lat="43.43087" lon="6.03898">
        <ele>316.20001220703</ele>
        <time>2017-06-07T14:14:33Z</time>
      </trkpt>
      <trkpt lat="43.43086" lon="6.0391">
        <ele>316</ele>
        <time>2017-06-07T14:14:34Z</time>
      </trkpt>
      <trkpt lat="43.43085" lon="6.03922">
        <ele>315.60000610352</ele>
        <time>2017-06-07T14:14:35Z</time>
      </trkpt>
      <trkpt lat="43.43082" lon="6.03935">
        <ele>314.79998779297</ele>
        <time>2017-06-07T14:14:36Z</time>
      </trkpt>
      <trkpt lat="43.4308" lon="6.03947">
        <ele>314.39999389648</ele>
        <time>2017-06-07T14:14:37Z</time>
      </trkpt>
      <trkpt lat="43.43077" lon="6.0396">
        <ele>313.79998779297</ele>
        <time>2017-06-07T14:14:38Z</time>
      </trkpt>
      <trkpt lat="43.43074" lon="6.03973">
        <ele>313.20001220703</ele>
        <time>2017-06-07T14:14:39Z</time>
      </trkpt>
      <trkpt lat="43.43071" lon="6.03986">
        <ele>312.39999389648</ele>
        <time>2017-06-07T14:14:40Z</time>
      </trkpt>
      <trkpt lat="43.43069" lon="6.03998">
        <ele>311.79998779297</ele>
        <time>2017-06-07T14:14:41Z</time>
      </trkpt>
      <trkpt lat="43.43067" lon="6.04008">
        <ele>311.39999389648</ele>
        <time>2017-06-07T14:14:42Z</time>
      </trkpt>
      <trkpt lat="43.43065" lon="6.04017">
        <ele>311</ele>
        <time>2017-06-07T14:14:43Z</time>
      </trkpt>
      <trkpt lat="43.43064" lon="6.04024">
        <ele>310.60000610352</ele>
        <time>2017-06-07T14:14:44Z</time>
      </trkpt>
      <trkpt lat="43.43064" lon="6.04028">
        <ele>310.60000610352</ele>
        <time>2017-06-07T14:14:45Z</time>
      </trkpt>
      <trkpt lat="43.43064" lon="6.0403">
        <ele>310.39999389648</ele>
        <time>2017-06-07T14:14:46Z</time>
      </trkpt>
      <trkpt lat="43.43064" lon="6.0403">
        <ele>310.39999389648</ele>
        <time>2017-06-07T14:14:47Z</time>
      </trkpt>
      <trkpt lat="43.43064" lon="6.0403">
        <ele>310.20001220703</ele>
        <time>2017-06-07T14:14:48Z</time>
      </trkpt>
      <trkpt lat="43.43064" lon="6.0403">
        <ele>310.20001220703</ele>
        <time>2017-06-07T14:14:49Z</time>
      </trkpt>
      <trkpt lat="43.43064" lon="6.0403">
        <ele>310.13333129883</ele>
        <time>2017-06-07T14:14:50Z</time>
      </trkpt>
      <trkpt lat="43.43064" lon="6.0403">
        <ele>310</ele>
        <time>2017-06-07T14:14:52Z</time>
      </trkpt>
      <trkpt lat="43.43064" lon="6.0403">
        <ele>309.94287109375</ele>
        <time>2017-06-07T14:14:54Z</time>
      </trkpt>
      <trkpt lat="43.43064" lon="6.0403">
        <ele>309.65713500977</ele>
        <time>2017-06-07T14:14:59Z</time>
      </trkpt>
      <trkpt lat="43.43064" lon="6.04029">
        <ele>310</ele>
        <time>2017-06-07T14:15:05Z</time>
      </trkpt>
      <trkpt lat="43.43064" lon="6.04029">
        <ele>310.39999389648</ele>
        <time>2017-06-07T14:15:08Z</time>
      </trkpt>
      <trkpt lat="43.43064" lon="6.04029">
        <ele>310</ele>
        <time>2017-06-07T14:15:15Z</time>
      </trkpt>
      <trkpt lat="43.43064" lon="6.04029">
        <ele>310</ele>
        <time>2017-06-07T14:15:31Z</time>
      </trkpt>
      <trkpt lat="43.43064" lon="6.04029">
        <ele>310</ele>
        <time>2017-06-07T14:15:51Z</time>
      </trkpt>
      <trkpt lat="43.43064" lon="6.04029">
        <ele>310.20001220703</ele>
        <time>2017-06-07T14:15:57Z</time>
      </trkpt>
      <trkpt lat="43.43064" lon="6.04029">
        <ele>310.20001220703</ele>
        <time>2017-06-07T14:15:59Z</time>
      </trkpt>
      <trkpt lat="43.43064" lon="6.04029">
        <ele>310.20001220703</ele>
        <time>2017-06-07T14:16:03Z</time>
      </trkpt>
      <trkpt lat="43.43064" lon="6.04029">
        <ele>310.22222900391</ele>
        <time>2017-06-07T14:16:15Z</time>
      </trkpt>
      <trkpt lat="43.43064" lon="6.04029">
        <ele>310.28887939453</ele>
        <time>2017-06-07T14:16:21Z</time>
      </trkpt>
      <trkpt lat="43.43064" lon="6.04029">
        <ele>310.39999389648</ele>
        <time>2017-06-07T14:16:35Z</time>
      </trkpt>
      <trkpt lat="43.43064" lon="6.04029">
        <ele>310</ele>
        <time>2017-06-07T14:16:39Z</time>
      </trkpt>
      <trkpt lat="43.43064" lon="6.04029">
        <ele>309.79998779297</ele>
        <time>2017-06-07T14:16:41Z</time>
      </trkpt>
      <trkpt lat="43.43064" lon="6.0403">
        <ele>310</ele>
        <time>2017-06-07T14:16:42Z</time>
      </trkpt>
      <trkpt lat="43.43064" lon="6.04031">
        <ele>310.20001220703</ele>
        <time>2017-06-07T14:16:43Z</time>
      </trkpt>
      <trkpt lat="43.43063" lon="6.04033">
        <ele>310.39999389648</ele>
        <time>2017-06-07T14:16:44Z</time>
      </trkpt>
      <trkpt lat="43.43063" lon="6.04035">
        <ele>310.39999389648</ele>
        <time>2017-06-07T14:16:45Z</time>
      </trkpt>
      <trkpt lat="43.43062" lon="6.04038">
        <ele>310.79998779297</ele>
        <time>2017-06-07T14:16:46Z</time>
      </trkpt>
      <trkpt lat="43.43061" lon="6.04042">
        <ele>310.60000610352</ele>
        <time>2017-06-07T14:16:47Z</time>
      </trkpt>
      <trkpt lat="43.4306" lon="6.04046">
        <ele>311</ele>
        <time>2017-06-07T14:16:48Z</time>
      </trkpt>
      <trkpt lat="43.43059" lon="6.0405">
        <ele>311</ele>
        <time>2017-06-07T14:16:49Z</time>
      </trkpt>
      <trkpt lat="43.43058" lon="6.04054">
        <ele>311</ele>
        <time>2017-06-07T14:16:50Z</time>
      </trkpt>
      <trkpt lat="43.43056" lon="6.04058">
        <ele>310.79998779297</ele>
        <time>2017-06-07T14:16:51Z</time>
      </trkpt>
      <trkpt lat="43.43055" lon="6.04063">
        <ele>310.60000610352</ele>
        <time>2017-06-07T14:16:52Z</time>
      </trkpt>
      <trkpt lat="43.43052" lon="6.04078">
        <ele>310.39999389648</ele>
        <time>2017-06-07T14:16:55Z</time>
      </trkpt>
      <trkpt lat="43.43048" lon="6.04095">
        <ele>310.20001220703</ele>
        <time>2017-06-07T14:16:58Z</time>
      </trkpt>
      <trkpt lat="43.43047" lon="6.04101">
        <ele>310.20001220703</ele>
        <time>2017-06-07T14:16:59Z</time>
      </trkpt>
      <trkpt lat="43.43046" lon="6.04107">
        <ele>310.10000610352</ele>
        <time>2017-06-07T14:17:00Z</time>
      </trkpt>
      <trkpt lat="43.43045" lon="6.04113">
        <ele>310</ele>
        <time>2017-06-07T14:17:01Z</time>
      </trkpt>
      <trkpt lat="43.43044" lon="6.0412">
        <ele>310</ele>
        <time>2017-06-07T14:17:02Z</time>
      </trkpt>
      <trkpt lat="43.43042" lon="6.04127">
        <ele>309.70001220703</ele>
        <time>2017-06-07T14:17:03Z</time>
      </trkpt>
      <trkpt lat="43.4304" lon="6.04134">
        <ele>309.39999389648</ele>
        <time>2017-06-07T14:17:04Z</time>
      </trkpt>
      <trkpt lat="43.43039" lon="6.04142">
        <ele>309.39999389648</ele>
        <time>2017-06-07T14:17:05Z</time>
      </trkpt>
      <trkpt lat="43.43037" lon="6.04149">
        <ele>309.20001220703</ele>
        <time>2017-06-07T14:17:06Z</time>
      </trkpt>
      <trkpt lat="43.43034" lon="6.04163">
        <ele>309.10000610352</ele>
        <time>2017-06-07T14:17:08Z</time>
      </trkpt>
      <trkpt lat="43.43032" lon="6.04177">
        <ele>309.20001220703</ele>
        <time>2017-06-07T14:17:10Z</time>
      </trkpt>
      <trkpt lat="43.43029" lon="6.04192">
        <ele>309.60000610352</ele>
        <time>2017-06-07T14:17:12Z</time>
      </trkpt>
      <trkpt lat="43.43028" lon="6.04198">
        <ele>309.60000610352</ele>
        <time>2017-06-07T14:17:13Z</time>
      </trkpt>
      <trkpt lat="43.43024" lon="6.04218">
        <ele>310.20001220703</ele>
        <time>2017-06-07T14:17:16Z</time>
      </trkpt>
      <trkpt lat="43.43021" lon="6.0423">
        <ele>310.60000610352</ele>
        <time>2017-06-07T14:17:18Z</time>
      </trkpt>
      <trkpt lat="43.43019" lon="6.04237">
        <ele>310.60000610352</ele>
        <time>2017-06-07T14:17:19Z</time>
      </trkpt>
      <trkpt lat="43.43018" lon="6.04243">
        <ele>310.60000610352</ele>
        <time>2017-06-07T14:17:20Z</time>
      </trkpt>
      <trkpt lat="43.43016" lon="6.0425">
        <ele>310.39999389648</ele>
        <time>2017-06-07T14:17:21Z</time>
      </trkpt>
      <trkpt lat="43.43012" lon="6.0427">
        <ele>310.0666809082</ele>
        <time>2017-06-07T14:17:24Z</time>
      </trkpt>
      <trkpt lat="43.43011" lon="6.04277">
        <ele>309.9333190918</ele>
        <time>2017-06-07T14:17:25Z</time>
      </trkpt>
      <trkpt lat="43.43009" lon="6.04292">
        <ele>310</ele>
        <time>2017-06-07T14:17:27Z</time>
      </trkpt>
      <trkpt lat="43.43008" lon="6.04308">
        <ele>309.60000610352</ele>
        <time>2017-06-07T14:17:29Z</time>
      </trkpt>
      <trkpt lat="43.43007" lon="6.04317">
        <ele>309.39999389648</ele>
        <time>2017-06-07T14:17:30Z</time>
      </trkpt>
      <trkpt lat="43.43006" lon="6.04325">
        <ele>309.20001220703</ele>
        <time>2017-06-07T14:17:31Z</time>
      </trkpt>
      <trkpt lat="43.43005" lon="6.04333">
        <ele>308.79998779297</ele>
        <time>2017-06-07T14:17:32Z</time>
      </trkpt>
      <trkpt lat="43.43004" lon="6.04341">
        <ele>308.39999389648</ele>
        <time>2017-06-07T14:17:33Z</time>
      </trkpt>
      <trkpt lat="43.43003" lon="6.04348">
        <ele>308.39999389648</ele>
        <time>2017-06-07T14:17:34Z</time>
      </trkpt>
      <trkpt lat="43.43003" lon="6.04362">
        <ele>308.39999389648</ele>
        <time>2017-06-07T14:17:36Z</time>
      </trkpt>
      <trkpt lat="43.43003" lon="6.04369">
        <ele>308.39999389648</ele>
        <time>2017-06-07T14:17:37Z</time>
      </trkpt>
      <trkpt lat="43.43003" lon="6.04375">
        <ele>308.39999389648</ele>
        <time>2017-06-07T14:17:38Z</time>
      </trkpt>
      <trkpt lat="43.43" lon="6.04387">
        <ele>309</ele>
        <time>2017-06-07T14:17:40Z</time>
      </trkpt>
      <trkpt lat="43.42997" lon="6.04399">
        <ele>309.39999389648</ele>
        <time>2017-06-07T14:17:42Z</time>
      </trkpt>
      <trkpt lat="43.42996" lon="6.04404">
        <ele>309.70001220703</ele>
        <time>2017-06-07T14:17:43Z</time>
      </trkpt>
      <trkpt lat="43.42994" lon="6.0442">
        <ele>310.60000610352</ele>
        <time>2017-06-07T14:17:46Z</time>
      </trkpt>
      <trkpt lat="43.42994" lon="6.04431">
        <ele>311.20001220703</ele>
        <time>2017-06-07T14:17:48Z</time>
      </trkpt>
      <trkpt lat="43.42993" lon="6.04436">
        <ele>311</ele>
        <time>2017-06-07T14:17:49Z</time>
      </trkpt>
      <trkpt lat="43.42992" lon="6.04441">
        <ele>311</ele>
        <time>2017-06-07T14:17:50Z</time>
      </trkpt>
      <trkpt lat="43.42991" lon="6.04446">
        <ele>311</ele>
        <time>2017-06-07T14:17:51Z</time>
      </trkpt>
      <trkpt lat="43.4299" lon="6.0445">
        <ele>311</ele>
        <time>2017-06-07T14:17:52Z</time>
      </trkpt>
      <trkpt lat="43.42989" lon="6.04454">
        <ele>311</ele>
        <time>2017-06-07T14:17:53Z</time>
      </trkpt>
      <trkpt lat="43.42988" lon="6.04457">
        <ele>311</ele>
        <time>2017-06-07T14:17:54Z</time>
      </trkpt>
      <trkpt lat="43.42986" lon="6.04461">
        <ele>311</ele>
        <time>2017-06-07T14:17:55Z</time>
      </trkpt>
      <trkpt lat="43.42985" lon="6.04466">
        <ele>311.20001220703</ele>
        <time>2017-06-07T14:17:56Z</time>
      </trkpt>
      <trkpt lat="43.42983" lon="6.04472">
        <ele>311.20001220703</ele>
        <time>2017-06-07T14:17:57Z</time>
      </trkpt>
      <trkpt lat="43.42981" lon="6.04478">
        <ele>311.20001220703</ele>
        <time>2017-06-07T14:17:58Z</time>
      </trkpt>
      <trkpt lat="43.4298" lon="6.04485">
        <ele>310.20001220703</ele>
        <time>2017-06-07T14:17:59Z</time>
      </trkpt>
      <trkpt lat="43.42979" lon="6.04492">
        <ele>309.60000610352</ele>
        <time>2017-06-07T14:18:00Z</time>
      </trkpt>
      <trkpt lat="43.42978" lon="6.045">
        <ele>309.20001220703</ele>
        <time>2017-06-07T14:18:01Z</time>
      </trkpt>
      <trkpt lat="43.42977" lon="6.04508">
        <ele>308.79998779297</ele>
        <time>2017-06-07T14:18:02Z</time>
      </trkpt>
      <trkpt lat="43.42977" lon="6.04516">
        <ele>308.20001220703</ele>
        <time>2017-06-07T14:18:03Z</time>
      </trkpt>
      <trkpt lat="43.42977" lon="6.04526">
        <ele>307.39999389648</ele>
        <time>2017-06-07T14:18:04Z</time>
      </trkpt>
      <trkpt lat="43.42977" lon="6.04537">
        <ele>305.20001220703</ele>
        <time>2017-06-07T14:18:05Z</time>
      </trkpt>
      <trkpt lat="43.42977" lon="6.04548">
        <ele>303.39999389648</ele>
        <time>2017-06-07T14:18:06Z</time>
      </trkpt>
      <trkpt lat="43.42978" lon="6.04558">
        <ele>302</ele>
        <time>2017-06-07T14:18:07Z</time>
      </trkpt>
      <trkpt lat="43.42978" lon="6.04567">
        <ele>301.60000610352</ele>
        <time>2017-06-07T14:18:08Z</time>
      </trkpt>
      <trkpt lat="43.42977" lon="6.04575">
        <ele>301.39999389648</ele>
        <time>2017-06-07T14:18:09Z</time>
      </trkpt>
      <trkpt lat="43.42976" lon="6.04581">
        <ele>301.39999389648</ele>
        <time>2017-06-07T14:18:10Z</time>
      </trkpt>
      <trkpt lat="43.42976" lon="6.04586">
        <ele>302.20001220703</ele>
        <time>2017-06-07T14:18:11Z</time>
      </trkpt>
      <trkpt lat="43.42975" lon="6.04591">
        <ele>302.79998779297</ele>
        <time>2017-06-07T14:18:12Z</time>
      </trkpt>
      <trkpt lat="43.42974" lon="6.04596">
        <ele>303.79998779297</ele>
        <time>2017-06-07T14:18:13Z</time>
      </trkpt>
      <trkpt lat="43.42973" lon="6.04601">
        <ele>304.20001220703</ele>
        <time>2017-06-07T14:18:14Z</time>
      </trkpt>
      <trkpt lat="43.42973" lon="6.04607">
        <ele>304.60000610352</ele>
        <time>2017-06-07T14:18:15Z</time>
      </trkpt>
      <trkpt lat="43.42971" lon="6.04622">
        <ele>305</ele>
        <time>2017-06-07T14:18:18Z</time>
      </trkpt>
      <trkpt lat="43.42969" lon="6.04639">
        <ele>305</ele>
        <time>2017-06-07T14:18:21Z</time>
      </trkpt>
      <trkpt lat="43.42967" lon="6.04656">
        <ele>305.26666259766</ele>
        <time>2017-06-07T14:18:24Z</time>
      </trkpt>
      <trkpt lat="43.42965" lon="6.04668">
        <ele>305.39999389648</ele>
        <time>2017-06-07T14:18:26Z</time>
      </trkpt>
      <trkpt lat="43.42965" lon="6.04674">
        <ele>305.39999389648</ele>
        <time>2017-06-07T14:18:27Z</time>
      </trkpt>
      <trkpt lat="43.42964" lon="6.0468">
        <ele>305.5</ele>
        <time>2017-06-07T14:18:28Z</time>
      </trkpt>
      <trkpt lat="43.42964" lon="6.04686">
        <ele>305.60000610352</ele>
        <time>2017-06-07T14:18:29Z</time>
      </trkpt>
      <trkpt lat="43.42961" lon="6.04709">
        <ele>305.79998779297</ele>
        <time>2017-06-07T14:18:33Z</time>
      </trkpt>
      <trkpt lat="43.4296" lon="6.04714">
        <ele>306</ele>
        <time>2017-06-07T14:18:34Z</time>
      </trkpt>
      <trkpt lat="43.4296" lon="6.0472">
        <ele>306.20001220703</ele>
        <time>2017-06-07T14:18:35Z</time>
      </trkpt>
      <trkpt lat="43.42959" lon="6.04725">
        <ele>306.20001220703</ele>
        <time>2017-06-07T14:18:36Z</time>
      </trkpt>
      <trkpt lat="43.42958" lon="6.04731">
        <ele>306.39999389648</ele>
        <time>2017-06-07T14:18:37Z</time>
      </trkpt>
      <trkpt lat="43.42956" lon="6.04749">
        <ele>306.39999389648</ele>
        <time>2017-06-07T14:18:40Z</time>
      </trkpt>
      <trkpt lat="43.42955" lon="6.04755">
        <ele>306.39999389648</ele>
        <time>2017-06-07T14:18:41Z</time>
      </trkpt>
      <trkpt lat="43.42954" lon="6.04768">
        <ele>306.39999389648</ele>
        <time>2017-06-07T14:18:43Z</time>
      </trkpt>
      <trkpt lat="43.42953" lon="6.04775">
        <ele>306.20001220703</ele>
        <time>2017-06-07T14:18:44Z</time>
      </trkpt>
      <trkpt lat="43.42953" lon="6.04789">
        <ele>305.39999389648</ele>
        <time>2017-06-07T14:18:46Z</time>
      </trkpt>
      <trkpt lat="43.42952" lon="6.04796">
        <ele>304.79998779297</ele>
        <time>2017-06-07T14:18:47Z</time>
      </trkpt>
      <trkpt lat="43.42951" lon="6.04804">
        <ele>304.39999389648</ele>
        <time>2017-06-07T14:18:48Z</time>
      </trkpt>
      <trkpt lat="43.4295" lon="6.04812">
        <ele>303.60000610352</ele>
        <time>2017-06-07T14:18:49Z</time>
      </trkpt>
      <trkpt lat="43.42949" lon="6.04819">
        <ele>303</ele>
        <time>2017-06-07T14:18:50Z</time>
      </trkpt>
      <trkpt lat="43.42947" lon="6.04826">
        <ele>302</ele>
        <time>2017-06-07T14:18:51Z</time>
      </trkpt>
      <trkpt lat="43.42946" lon="6.04833">
        <ele>301.60000610352</ele>
        <time>2017-06-07T14:18:52Z</time>
      </trkpt>
      <trkpt lat="43.42945" lon="6.04838">
        <ele>301.39999389648</ele>
        <time>2017-06-07T14:18:53Z</time>
      </trkpt>
      <trkpt lat="43.42944" lon="6.04844">
        <ele>301.39999389648</ele>
        <time>2017-06-07T14:18:54Z</time>
      </trkpt>
      <trkpt lat="43.42942" lon="6.04849">
        <ele>301.39999389648</ele>
        <time>2017-06-07T14:18:55Z</time>
      </trkpt>
      <trkpt lat="43.42939" lon="6.0486">
        <ele>303.20001220703</ele>
        <time>2017-06-07T14:18:58Z</time>
      </trkpt>
      <trkpt lat="43.42937" lon="6.04864">
        <ele>303.60000610352</ele>
        <time>2017-06-07T14:18:59Z</time>
      </trkpt>
      <trkpt lat="43.42936" lon="6.0487">
        <ele>304.39999389648</ele>
        <time>2017-06-07T14:19:01Z</time>
      </trkpt>
      <trkpt lat="43.42936" lon="6.04874">
        <ele>304.39999389648</ele>
        <time>2017-06-07T14:19:02Z</time>
      </trkpt>
      <trkpt lat="43.42935" lon="6.04877">
        <ele>304.71112060547</ele>
        <time>2017-06-07T14:19:03Z</time>
      </trkpt>
      <trkpt lat="43.42934" lon="6.04881">
        <ele>305.33334350586</ele>
        <time>2017-06-07T14:19:05Z</time>
      </trkpt>
      <trkpt lat="43.42934" lon="6.04883">
        <ele>305.64443969727</ele>
        <time>2017-06-07T14:19:06Z</time>
      </trkpt>
      <trkpt lat="43.42934" lon="6.04886">
        <ele>305.95556640625</ele>
        <time>2017-06-07T14:19:07Z</time>
      </trkpt>
      <trkpt lat="43.42934" lon="6.04888">
        <ele>306.26666259766</ele>
        <time>2017-06-07T14:19:08Z</time>
      </trkpt>
      <trkpt lat="43.42934" lon="6.04895">
        <ele>307.20001220703</ele>
        <time>2017-06-07T14:19:11Z</time>
      </trkpt>
      <trkpt lat="43.42934" lon="6.04899">
        <ele>307.51428222656</ele>
        <time>2017-06-07T14:19:13Z</time>
      </trkpt>
      <trkpt lat="43.42934" lon="6.04901">
        <ele>307.82858276367</ele>
        <time>2017-06-07T14:19:14Z</time>
      </trkpt>
      <trkpt lat="43.42933" lon="6.04906">
        <ele>308.45715332031</ele>
        <time>2017-06-07T14:19:16Z</time>
      </trkpt>
      <trkpt lat="43.42933" lon="6.04907">
        <ele>308.77142333984</ele>
        <time>2017-06-07T14:19:17Z</time>
      </trkpt>
      <trkpt lat="43.42933" lon="6.04912">
        <ele>309.39999389648</ele>
        <time>2017-06-07T14:19:19Z</time>
      </trkpt>
      <trkpt lat="43.42933" lon="6.04918">
        <ele>309.60000610352</ele>
        <time>2017-06-07T14:19:22Z</time>
      </trkpt>
      <trkpt lat="43.42933" lon="6.04921">
        <ele>309.70001220703</ele>
        <time>2017-06-07T14:19:23Z</time>
      </trkpt>
      <trkpt lat="43.42933" lon="6.04925">
        <ele>309.79998779297</ele>
        <time>2017-06-07T14:19:25Z</time>
      </trkpt>
      <trkpt lat="43.42933" lon="6.0493">
        <ele>309.9333190918</ele>
        <time>2017-06-07T14:19:27Z</time>
      </trkpt>
      <trkpt lat="43.42933" lon="6.04936">
        <ele>310.13333129883</ele>
        <time>2017-06-07T14:19:30Z</time>
      </trkpt>
      <trkpt lat="43.42933" lon="6.04948">
        <ele>310.79998779297</ele>
        <time>2017-06-07T14:19:36Z</time>
      </trkpt>
      <trkpt lat="43.42932" lon="6.04954">
        <ele>311.13333129883</ele>
        <time>2017-06-07T14:19:40Z</time>
      </trkpt>
      <trkpt lat="43.42932" lon="6.04956">
        <ele>311.26666259766</ele>
        <time>2017-06-07T14:19:41Z</time>
      </trkpt>
      <trkpt lat="43.42932" lon="6.04957">
        <ele>311.39999389648</ele>
        <time>2017-06-07T14:19:42Z</time>
      </trkpt>
      <trkpt lat="43.42932" lon="6.04959">
        <ele>311.39999389648</ele>
        <time>2017-06-07T14:19:43Z</time>
      </trkpt>
      <trkpt lat="43.42932" lon="6.04959">
        <ele>311.54998779297</ele>
        <time>2017-06-07T14:19:44Z</time>
      </trkpt>
      <trkpt lat="43.42932" lon="6.04959">
        <ele>311.70001220703</ele>
        <time>2017-06-07T14:19:45Z</time>
      </trkpt>
      <trkpt lat="43.42932" lon="6.04959">
        <ele>312</ele>
        <time>2017-06-07T14:19:47Z</time>
      </trkpt>
      <trkpt lat="43.42932" lon="6.04959">
        <ele>312</ele>
        <time>2017-06-07T14:19:48Z</time>
      </trkpt>
      <trkpt lat="43.42933" lon="6.04959">
        <ele>312</ele>
        <time>2017-06-07T14:19:49Z</time>
      </trkpt>
      <trkpt lat="43.42933" lon="6.04959">
        <ele>311.70001220703</ele>
        <time>2017-06-07T14:19:53Z</time>
      </trkpt>
      <trkpt lat="43.42933" lon="6.04959">
        <ele>311.30001831055</ele>
        <time>2017-06-07T14:19:58Z</time>
      </trkpt>
      <trkpt lat="43.42933" lon="6.04959">
        <ele>311.79998779297</ele>
        <time>2017-06-07T14:20:07Z</time>
      </trkpt>
      <trkpt lat="43.42933" lon="6.0496">
        <ele>311.60000610352</ele>
        <time>2017-06-07T14:20:10Z</time>
      </trkpt>
      <trkpt lat="43.42933" lon="6.0496">
        <ele>311.39999389648</ele>
        <time>2017-06-07T14:20:11Z</time>
      </trkpt>
      <trkpt lat="43.42932" lon="6.04962">
        <ele>311.39999389648</ele>
        <time>2017-06-07T14:20:12Z</time>
      </trkpt>
      <trkpt lat="43.42932" lon="6.04963">
        <ele>311.39999389648</ele>
        <time>2017-06-07T14:20:13Z</time>
      </trkpt>
      <trkpt lat="43.42931" lon="6.04965">
        <ele>311.39999389648</ele>
        <time>2017-06-07T14:20:14Z</time>
      </trkpt>
      <trkpt lat="43.42931" lon="6.04967">
        <ele>311.39999389648</ele>
        <time>2017-06-07T14:20:15Z</time>
      </trkpt>
      <trkpt lat="43.42931" lon="6.0497">
        <ele>311.39999389648</ele>
        <time>2017-06-07T14:20:16Z</time>
      </trkpt>
      <trkpt lat="43.42931" lon="6.04973">
        <ele>311.39999389648</ele>
        <time>2017-06-07T14:20:17Z</time>
      </trkpt>
      <trkpt lat="43.42929" lon="6.04981">
        <ele>311.39999389648</ele>
        <time>2017-06-07T14:20:20Z</time>
      </trkpt>
      <trkpt lat="43.42929" lon="6.04984">
        <ele>311.39999389648</ele>
        <time>2017-06-07T14:20:21Z</time>
      </trkpt>
      <trkpt lat="43.42928" lon="6.04991">
        <ele>311.60000610352</ele>
        <time>2017-06-07T14:20:23Z</time>
      </trkpt>
      <trkpt lat="43.42928" lon="6.04994">
        <ele>311.60000610352</ele>
        <time>2017-06-07T14:20:24Z</time>
      </trkpt>
      <trkpt lat="43.42926" lon="6.05003">
        <ele>312.20001220703</ele>
        <time>2017-06-07T14:20:27Z</time>
      </trkpt>
      <trkpt lat="43.42926" lon="6.05011">
        <ele>312.42221069336</ele>
        <time>2017-06-07T14:20:30Z</time>
      </trkpt>
      <trkpt lat="43.42925" lon="6.05016">
        <ele>312.46667480469</ele>
        <time>2017-06-07T14:20:32Z</time>
      </trkpt>
      <trkpt lat="43.42925" lon="6.05021">
        <ele>312.51110839844</ele>
        <time>2017-06-07T14:20:34Z</time>
      </trkpt>
      <trkpt lat="43.42924" lon="6.05029">
        <ele>312.57778930664</ele>
        <time>2017-06-07T14:20:37Z</time>
      </trkpt>
      <trkpt lat="43.42924" lon="6.05031">
        <ele>312.60000610352</ele>
        <time>2017-06-07T14:20:38Z</time>
      </trkpt>
      <trkpt lat="43.42924" lon="6.05034">
        <ele>312.60000610352</ele>
        <time>2017-06-07T14:20:39Z</time>
      </trkpt>
      <trkpt lat="43.42923" lon="6.05039">
        <ele>312.83999633789</ele>
        <time>2017-06-07T14:20:41Z</time>
      </trkpt>
      <trkpt lat="43.42923" lon="6.05045">
        <ele>313.08001708984</ele>
        <time>2017-06-07T14:20:43Z</time>
      </trkpt>
      <trkpt lat="43.42922" lon="6.05051">
        <ele>313.20001220703</ele>
        <time>2017-06-07T14:20:45Z</time>
      </trkpt>
      <trkpt lat="43.4292" lon="6.05064">
        <ele>312.79998779297</ele>
        <time>2017-06-07T14:20:49Z</time>
      </trkpt>
      <trkpt lat="43.4292" lon="6.05067">
        <ele>312.79998779297</ele>
        <time>2017-06-07T14:20:50Z</time>
      </trkpt>
      <trkpt lat="43.42919" lon="6.05073">
        <ele>312.79998779297</ele>
        <time>2017-06-07T14:20:52Z</time>
      </trkpt>
      <trkpt lat="43.42918" lon="6.0508">
        <ele>313.20001220703</ele>
        <time>2017-06-07T14:20:54Z</time>
      </trkpt>
      <trkpt lat="43.42917" lon="6.05086">
        <ele>313.29998779297</ele>
        <time>2017-06-07T14:20:56Z</time>
      </trkpt>
      <trkpt lat="43.42917" lon="6.05093">
        <ele>313.39999389648</ele>
        <time>2017-06-07T14:20:58Z</time>
      </trkpt>
      <trkpt lat="43.42916" lon="6.05105">
        <ele>313.60000610352</ele>
        <time>2017-06-07T14:21:02Z</time>
      </trkpt>
      <trkpt lat="43.42915" lon="6.05111">
        <ele>313.70001220703</ele>
        <time>2017-06-07T14:21:04Z</time>
      </trkpt>
      <trkpt lat="43.42915" lon="6.05114">
        <ele>313.80001831055</ele>
        <time>2017-06-07T14:21:05Z</time>
      </trkpt>
      <trkpt lat="43.42914" lon="6.0512">
        <ele>314</ele>
        <time>2017-06-07T14:21:07Z</time>
      </trkpt>
      <trkpt lat="43.42912" lon="6.05128">
        <ele>314.20001220703</ele>
        <time>2017-06-07T14:21:10Z</time>
      </trkpt>
      <trkpt lat="43.42912" lon="6.05131">
        <ele>314.39999389648</ele>
        <time>2017-06-07T14:21:11Z</time>
      </trkpt>
      <trkpt lat="43.42911" lon="6.05136">
        <ele>314.53332519531</ele>
        <time>2017-06-07T14:21:13Z</time>
      </trkpt>
      <trkpt lat="43.42911" lon="6.05141">
        <ele>314.79998779297</ele>
        <time>2017-06-07T14:21:15Z</time>
      </trkpt>
      <trkpt lat="43.4291" lon="6.05147">
        <ele>315</ele>
        <time>2017-06-07T14:21:17Z</time>
      </trkpt>
      <trkpt lat="43.42909" lon="6.05152">
        <ele>315.20001220703</ele>
        <time>2017-06-07T14:21:19Z</time>
      </trkpt>
      <trkpt lat="43.42908" lon="6.05161">
        <ele>315.5</ele>
        <time>2017-06-07T14:21:22Z</time>
      </trkpt>
      <trkpt lat="43.42908" lon="6.05163">
        <ele>315.60000610352</ele>
        <time>2017-06-07T14:21:23Z</time>
      </trkpt>
      <trkpt lat="43.42907" lon="6.05169">
        <ele>315.80001831055</ele>
        <time>2017-06-07T14:21:25Z</time>
      </trkpt>
      <trkpt lat="43.42907" lon="6.05173">
        <ele>316.20001220703</ele>
        <time>2017-06-07T14:21:27Z</time>
      </trkpt>
      <trkpt lat="43.42906" lon="6.05176">
        <ele>316.20001220703</ele>
        <time>2017-06-07T14:21:28Z</time>
      </trkpt>
      <trkpt lat="43.42906" lon="6.05178">
        <ele>316.39999389648</ele>
        <time>2017-06-07T14:21:29Z</time>
      </trkpt>
      <trkpt lat="43.42905" lon="6.05184">
        <ele>316.5</ele>
        <time>2017-06-07T14:21:31Z</time>
      </trkpt>
      <trkpt lat="43.42904" lon="6.05193">
        <ele>316.79998779297</ele>
        <time>2017-06-07T14:21:34Z</time>
      </trkpt>
      <trkpt lat="43.42904" lon="6.05199">
        <ele>316.86666870117</ele>
        <time>2017-06-07T14:21:36Z</time>
      </trkpt>
      <trkpt lat="43.42902" lon="6.05211">
        <ele>317.20001220703</ele>
        <time>2017-06-07T14:21:40Z</time>
      </trkpt>
      <trkpt lat="43.429" lon="6.05224">
        <ele>317</ele>
        <time>2017-06-07T14:21:44Z</time>
      </trkpt>
      <trkpt lat="43.42899" lon="6.05234">
        <ele>317</ele>
        <time>2017-06-07T14:21:47Z</time>
      </trkpt>
      <trkpt lat="43.42896" lon="6.05257">
        <ele>316.79998779297</ele>
        <time>2017-06-07T14:21:54Z</time>
      </trkpt>
      <trkpt lat="43.42895" lon="6.0527">
        <ele>317.39999389648</ele>
        <time>2017-06-07T14:21:58Z</time>
      </trkpt>
      <trkpt lat="43.42894" lon="6.05277">
        <ele>317.60000610352</ele>
        <time>2017-06-07T14:22:00Z</time>
      </trkpt>
      <trkpt lat="43.42893" lon="6.05284">
        <ele>317.86666870117</ele>
        <time>2017-06-07T14:22:02Z</time>
      </trkpt>
      <trkpt lat="43.42893" lon="6.05288">
        <ele>318</ele>
        <time>2017-06-07T14:22:03Z</time>
      </trkpt>
      <trkpt lat="43.42892" lon="6.05295">
        <ele>318.0666809082</ele>
        <time>2017-06-07T14:22:05Z</time>
      </trkpt>
      <trkpt lat="43.42891" lon="6.05303">
        <ele>318.20001220703</ele>
        <time>2017-06-07T14:22:07Z</time>
      </trkpt>
      <trkpt lat="43.42891" lon="6.05308">
        <ele>318.20001220703</ele>
        <time>2017-06-07T14:22:08Z</time>
      </trkpt>
      <trkpt lat="43.4289" lon="6.05316">
        <ele>318</ele>
        <time>2017-06-07T14:22:10Z</time>
      </trkpt>
      <trkpt lat="43.42889" lon="6.05321">
        <ele>317.64443969727</ele>
        <time>2017-06-07T14:22:11Z</time>
      </trkpt>
      <trkpt lat="43.42888" lon="6.05326">
        <ele>317.28887939453</ele>
        <time>2017-06-07T14:22:12Z</time>
      </trkpt>
      <trkpt lat="43.42887" lon="6.05332">
        <ele>316.9333190918</ele>
        <time>2017-06-07T14:22:13Z</time>
      </trkpt>
      <trkpt lat="43.42887" lon="6.05338">
        <ele>316.57775878906</ele>
        <time>2017-06-07T14:22:14Z</time>
      </trkpt>
      <trkpt lat="43.42886" lon="6.05344">
        <ele>316.22222900391</ele>
        <time>2017-06-07T14:22:15Z</time>
      </trkpt>
      <trkpt lat="43.42884" lon="6.0535">
        <ele>315.86666870117</ele>
        <time>2017-06-07T14:22:16Z</time>
      </trkpt>
      <trkpt lat="43.42882" lon="6.05363">
        <ele>315.1555480957</ele>
        <time>2017-06-07T14:22:18Z</time>
      </trkpt>
      <trkpt lat="43.42881" lon="6.0537">
        <ele>314.79998779297</ele>
        <time>2017-06-07T14:22:19Z</time>
      </trkpt>
      <trkpt lat="43.42881" lon="6.05378">
        <ele>314.79998779297</ele>
        <time>2017-06-07T14:22:20Z</time>
      </trkpt>
      <trkpt lat="43.4288" lon="6.05385">
        <ele>314.57141113281</ele>
        <time>2017-06-07T14:22:21Z</time>
      </trkpt>
      <trkpt lat="43.4288" lon="6.05394">
        <ele>314.34286499023</ele>
        <time>2017-06-07T14:22:22Z</time>
      </trkpt>
      <trkpt lat="43.42879" lon="6.05402">
        <ele>314.11428833008</ele>
        <time>2017-06-07T14:22:23Z</time>
      </trkpt>
      <trkpt lat="43.42879" lon="6.0541">
        <ele>313.88571166992</ele>
        <time>2017-06-07T14:22:24Z</time>
      </trkpt>
      <trkpt lat="43.42878" lon="6.05418">
        <ele>313.65713500977</ele>
        <time>2017-06-07T14:22:25Z</time>
      </trkpt>
      <trkpt lat="43.42875" lon="6.05434">
        <ele>313.20001220703</ele>
        <time>2017-06-07T14:22:27Z</time>
      </trkpt>
      <trkpt lat="43.42874" lon="6.05441">
        <ele>313.20001220703</ele>
        <time>2017-06-07T14:22:28Z</time>
      </trkpt>
      <trkpt lat="43.42873" lon="6.05449">
        <ele>313</ele>
        <time>2017-06-07T14:22:29Z</time>
      </trkpt>
      <trkpt lat="43.42872" lon="6.05457">
        <ele>313</ele>
        <time>2017-06-07T14:22:30Z</time>
      </trkpt>
      <trkpt lat="43.4287" lon="6.05472">
        <ele>312.60000610352</ele>
        <time>2017-06-07T14:22:32Z</time>
      </trkpt>
      <trkpt lat="43.4287" lon="6.05479">
        <ele>312.29998779297</ele>
        <time>2017-06-07T14:22:33Z</time>
      </trkpt>
      <trkpt lat="43.42869" lon="6.05486">
        <ele>312</ele>
        <time>2017-06-07T14:22:34Z</time>
      </trkpt>
      <trkpt lat="43.42867" lon="6.05501">
        <ele>311.95999145508</ele>
        <time>2017-06-07T14:22:36Z</time>
      </trkpt>
      <trkpt lat="43.42866" lon="6.05514">
        <ele>311.88000488281</ele>
        <time>2017-06-07T14:22:38Z</time>
      </trkpt>
      <trkpt lat="43.42865" lon="6.0552">
        <ele>311.83999633789</ele>
        <time>2017-06-07T14:22:39Z</time>
      </trkpt>
      <trkpt lat="43.42865" lon="6.05525">
        <ele>311.79998779297</ele>
        <time>2017-06-07T14:22:40Z</time>
      </trkpt>
      <trkpt lat="43.42863" lon="6.05531">
        <ele>311.79998779297</ele>
        <time>2017-06-07T14:22:41Z</time>
      </trkpt>
      <trkpt lat="43.42861" lon="6.05544">
        <ele>311.29998779297</ele>
        <time>2017-06-07T14:22:43Z</time>
      </trkpt>
      <trkpt lat="43.4286" lon="6.0555">
        <ele>311.04998779297</ele>
        <time>2017-06-07T14:22:44Z</time>
      </trkpt>
      <trkpt lat="43.42859" lon="6.05557">
        <ele>310.79998779297</ele>
        <time>2017-06-07T14:22:45Z</time>
      </trkpt>
      <trkpt lat="43.42858" lon="6.05563">
        <ele>310.79998779297</ele>
        <time>2017-06-07T14:22:46Z</time>
      </trkpt>
      <trkpt lat="43.42857" lon="6.05569">
        <ele>310.79998779297</ele>
        <time>2017-06-07T14:22:47Z</time>
      </trkpt>
      <trkpt lat="43.42856" lon="6.05581">
        <ele>311</ele>
        <time>2017-06-07T14:22:49Z</time>
      </trkpt>
      <trkpt lat="43.42855" lon="6.05586">
        <ele>311.20001220703</ele>
        <time>2017-06-07T14:22:50Z</time>
      </trkpt>
      <trkpt lat="43.42855" lon="6.05591">
        <ele>311.39999389648</ele>
        <time>2017-06-07T14:22:51Z</time>
      </trkpt>
      <trkpt lat="43.42854" lon="6.05596">
        <ele>311.60000610352</ele>
        <time>2017-06-07T14:22:52Z</time>
      </trkpt>
      <trkpt lat="43.42854" lon="6.05601">
        <ele>312</ele>
        <time>2017-06-07T14:22:53Z</time>
      </trkpt>
      <trkpt lat="43.42853" lon="6.05606">
        <ele>312.39999389648</ele>
        <time>2017-06-07T14:22:54Z</time>
      </trkpt>
      <trkpt lat="43.42852" lon="6.05617">
        <ele>312.60000610352</ele>
        <time>2017-06-07T14:22:56Z</time>
      </trkpt>
      <trkpt lat="43.42852" lon="6.05623">
        <ele>312.60000610352</ele>
        <time>2017-06-07T14:22:57Z</time>
      </trkpt>
      <trkpt lat="43.42851" lon="6.05628">
        <ele>312.39999389648</ele>
        <time>2017-06-07T14:22:58Z</time>
      </trkpt>
      <trkpt lat="43.4285" lon="6.05634">
        <ele>312.20001220703</ele>
        <time>2017-06-07T14:22:59Z</time>
      </trkpt>
      <trkpt lat="43.4285" lon="6.0564">
        <ele>312</ele>
        <time>2017-06-07T14:23:00Z</time>
      </trkpt>
      <trkpt lat="43.42849" lon="6.05646">
        <ele>312</ele>
        <time>2017-06-07T14:23:01Z</time>
      </trkpt>
      <trkpt lat="43.42847" lon="6.0566">
        <ele>312.60000610352</ele>
        <time>2017-06-07T14:23:04Z</time>
      </trkpt>
      <trkpt lat="43.42847" lon="6.05664">
        <ele>312.79998779297</ele>
        <time>2017-06-07T14:23:05Z</time>
      </trkpt>
      <trkpt lat="43.42846" lon="6.05669">
        <ele>312.79998779297</ele>
        <time>2017-06-07T14:23:06Z</time>
      </trkpt>
      <trkpt lat="43.42846" lon="6.05673">
        <ele>313</ele>
        <time>2017-06-07T14:23:07Z</time>
      </trkpt>
      <trkpt lat="43.42845" lon="6.05682">
        <ele>313.20001220703</ele>
        <time>2017-06-07T14:23:09Z</time>
      </trkpt>
      <trkpt lat="43.42844" lon="6.0569">
        <ele>313.20001220703</ele>
        <time>2017-06-07T14:23:11Z</time>
      </trkpt>
      <trkpt lat="43.42843" lon="6.05699">
        <ele>313</ele>
        <time>2017-06-07T14:23:13Z</time>
      </trkpt>
      <trkpt lat="43.42842" lon="6.05708">
        <ele>312.86666870117</ele>
        <time>2017-06-07T14:23:15Z</time>
      </trkpt>
      <trkpt lat="43.42842" lon="6.05712">
        <ele>312.73333740234</ele>
        <time>2017-06-07T14:23:16Z</time>
      </trkpt>
      <trkpt lat="43.42841" lon="6.05717">
        <ele>312.60000610352</ele>
        <time>2017-06-07T14:23:17Z</time>
      </trkpt>
      <trkpt lat="43.4284" lon="6.05721">
        <ele>312.60000610352</ele>
        <time>2017-06-07T14:23:18Z</time>
      </trkpt>
      <trkpt lat="43.42838" lon="6.05724">
        <ele>312.44000244141</ele>
        <time>2017-06-07T14:23:19Z</time>
      </trkpt>
      <trkpt lat="43.42836" lon="6.05727">
        <ele>312.2799987793</ele>
        <time>2017-06-07T14:23:20Z</time>
      </trkpt>
      <trkpt lat="43.42834" lon="6.05729">
        <ele>312.11999511719</ele>
        <time>2017-06-07T14:23:21Z</time>
      </trkpt>
      <trkpt lat="43.42832" lon="6.0573">
        <ele>311.95999145508</ele>
        <time>2017-06-07T14:23:22Z</time>
      </trkpt>
      <trkpt lat="43.42831" lon="6.05731">
        <ele>311.79998779297</ele>
        <time>2017-06-07T14:23:23Z</time>
      </trkpt>
      <trkpt lat="43.42831" lon="6.05732">
        <ele>312</ele>
        <time>2017-06-07T14:23:24Z</time>
      </trkpt>
      <trkpt lat="43.42831" lon="6.05732">
        <ele>311.79998779297</ele>
        <time>2017-06-07T14:23:25Z</time>
      </trkpt>
      <trkpt lat="43.42831" lon="6.05732">
        <ele>312</ele>
        <time>2017-06-07T14:23:27Z</time>
      </trkpt>
      <trkpt lat="43.42831" lon="6.05732">
        <ele>312.20001220703</ele>
        <time>2017-06-07T14:23:28Z</time>
      </trkpt>
      <trkpt lat="43.42831" lon="6.05732">
        <ele>312.20001220703</ele>
        <time>2017-06-07T14:23:29Z</time>
      </trkpt>
      <trkpt lat="43.42831" lon="6.05732">
        <ele>313</ele>
        <time>2017-06-07T14:23:34Z</time>
      </trkpt>
      <trkpt lat="43.42831" lon="6.05732">
        <ele>313</ele>
        <time>2017-06-07T14:23:41Z</time>
      </trkpt>
      <trkpt lat="43.42831" lon="6.05732">
        <ele>312.39999389648</ele>
        <time>2017-06-07T14:23:52Z</time>
      </trkpt>
      <trkpt lat="43.42831" lon="6.05732">
        <ele>312.39999389648</ele>
        <time>2017-06-07T14:23:54Z</time>
      </trkpt>
      <trkpt lat="43.42831" lon="6.05732">
        <ele>312.39999389648</ele>
        <time>2017-06-07T14:23:57Z</time>
      </trkpt>
      <trkpt lat="43.42831" lon="6.05732">
        <ele>312.20001220703</ele>
        <time>2017-06-07T14:24:22Z</time>
      </trkpt>
      <trkpt lat="43.42831" lon="6.05732">
        <ele>312.79998779297</ele>
        <time>2017-06-07T14:24:24Z</time>
      </trkpt>
      <trkpt lat="43.42831" lon="6.05732">
        <ele>313.39999389648</ele>
        <time>2017-06-07T14:24:27Z</time>
      </trkpt>
      <trkpt lat="43.42831" lon="6.05732">
        <ele>313.79998779297</ele>
        <time>2017-06-07T14:24:30Z</time>
      </trkpt>
      <trkpt lat="43.42831" lon="6.05731">
        <ele>313</ele>
        <time>2017-06-07T14:24:33Z</time>
      </trkpt>
      <trkpt lat="43.42831" lon="6.05731">
        <ele>312.20001220703</ele>
        <time>2017-06-07T14:24:35Z</time>
      </trkpt>
      <trkpt lat="43.42831" lon="6.05731">
        <ele>312.20001220703</ele>
        <time>2017-06-07T14:24:39Z</time>
      </trkpt>
      <trkpt lat="43.42831" lon="6.05731">
        <ele>312.60000610352</ele>
        <time>2017-06-07T14:24:43Z</time>
      </trkpt>
      <trkpt lat="43.42831" lon="6.05731">
        <ele>313</ele>
        <time>2017-06-07T14:24:50Z</time>
      </trkpt>
      <trkpt lat="43.42831" lon="6.05731">
        <ele>312.79998779297</ele>
        <time>2017-06-07T14:24:52Z</time>
      </trkpt>
      <trkpt lat="43.42831" lon="6.05731">
        <ele>312.79998779297</ele>
        <time>2017-06-07T14:24:53Z</time>
      </trkpt>
      <trkpt lat="43.4283" lon="6.05732">
        <ele>312.79998779297</ele>
        <time>2017-06-07T14:24:54Z</time>
      </trkpt>
      <trkpt lat="43.42829" lon="6.05732">
        <ele>312.79998779297</ele>
        <time>2017-06-07T14:24:55Z</time>
      </trkpt>
      <trkpt lat="43.42828" lon="6.05733">
        <ele>312.79998779297</ele>
        <time>2017-06-07T14:24:56Z</time>
      </trkpt>
      <trkpt lat="43.42826" lon="6.05733">
        <ele>312.79998779297</ele>
        <time>2017-06-07T14:24:57Z</time>
      </trkpt>
      <trkpt lat="43.42824" lon="6.05733">
        <ele>313</ele>
        <time>2017-06-07T14:24:58Z</time>
      </trkpt>
      <trkpt lat="43.42822" lon="6.05734">
        <ele>312.79998779297</ele>
        <time>2017-06-07T14:24:59Z</time>
      </trkpt>
      <trkpt lat="43.42819" lon="6.05734">
        <ele>312.79998779297</ele>
        <time>2017-06-07T14:25:00Z</time>
      </trkpt>
      <trkpt lat="43.42816" lon="6.05735">
        <ele>312.79998779297</ele>
        <time>2017-06-07T14:25:01Z</time>
      </trkpt>
      <trkpt lat="43.42813" lon="6.05736">
        <ele>313</ele>
        <time>2017-06-07T14:25:02Z</time>
      </trkpt>
      <trkpt lat="43.42811" lon="6.05738">
        <ele>313</ele>
        <time>2017-06-07T14:25:03Z</time>
      </trkpt>
      <trkpt lat="43.42808" lon="6.0574">
        <ele>312.79998779297</ele>
        <time>2017-06-07T14:25:04Z</time>
      </trkpt>
      <trkpt lat="43.42805" lon="6.05741">
        <ele>313</ele>
        <time>2017-06-07T14:25:05Z</time>
      </trkpt>
      <trkpt lat="43.42802" lon="6.05742">
        <ele>313</ele>
        <time>2017-06-07T14:25:06Z</time>
      </trkpt>
      <trkpt lat="43.428" lon="6.05741">
        <ele>312.79998779297</ele>
        <time>2017-06-07T14:25:07Z</time>
      </trkpt>
      <trkpt lat="43.42798" lon="6.0574">
        <ele>313</ele>
        <time>2017-06-07T14:25:08Z</time>
      </trkpt>
      <trkpt lat="43.42796" lon="6.05739">
        <ele>313</ele>
        <time>2017-06-07T14:25:09Z</time>
      </trkpt>
      <trkpt lat="43.42795" lon="6.05737">
        <ele>313</ele>
        <time>2017-06-07T14:25:10Z</time>
      </trkpt>
      <trkpt lat="43.42793" lon="6.05735">
        <ele>313</ele>
        <time>2017-06-07T14:25:11Z</time>
      </trkpt>
      <trkpt lat="43.42792" lon="6.05734">
        <ele>313</ele>
        <time>2017-06-07T14:25:12Z</time>
      </trkpt>
      <trkpt lat="43.42789" lon="6.05733">
        <ele>312.60000610352</ele>
        <time>2017-06-07T14:25:13Z</time>
      </trkpt>
      <trkpt lat="43.42787" lon="6.05732">
        <ele>312.20001220703</ele>
        <time>2017-06-07T14:25:14Z</time>
      </trkpt>
      <trkpt lat="43.42785" lon="6.05731">
        <ele>312.20001220703</ele>
        <time>2017-06-07T14:25:15Z</time>
      </trkpt>
      <trkpt lat="43.42783" lon="6.05729">
        <ele>311.91430664062</ele>
        <time>2017-06-07T14:25:16Z</time>
      </trkpt>
      <trkpt lat="43.42776" lon="6.05727">
        <ele>311.34286499023</ele>
        <time>2017-06-07T14:25:18Z</time>
      </trkpt>
      <trkpt lat="43.42773" lon="6.05726">
        <ele>311.05715942383</ele>
        <time>2017-06-07T14:25:19Z</time>
      </trkpt>
      <trkpt lat="43.42769" lon="6.05727">
        <ele>310.77145385742</ele>
        <time>2017-06-07T14:25:20Z</time>
      </trkpt>
      <trkpt lat="43.42766" lon="6.05728">
        <ele>310.48571777344</ele>
        <time>2017-06-07T14:25:21Z</time>
      </trkpt>
      <trkpt lat="43.4276" lon="6.05733">
        <ele>310.20001220703</ele>
        <time>2017-06-07T14:25:23Z</time>
      </trkpt>
      <trkpt lat="43.42758" lon="6.05736">
        <ele>310</ele>
        <time>2017-06-07T14:25:24Z</time>
      </trkpt>
      <trkpt lat="43.42755" lon="6.05738">
        <ele>310.20001220703</ele>
        <time>2017-06-07T14:25:25Z</time>
      </trkpt>
      <trkpt lat="43.42751" lon="6.05738">
        <ele>310.20001220703</ele>
        <time>2017-06-07T14:25:26Z</time>
      </trkpt>
      <trkpt lat="43.42748" lon="6.05737">
        <ele>310.26666259766</ele>
        <time>2017-06-07T14:25:27Z</time>
      </trkpt>
      <trkpt lat="43.42745" lon="6.05737">
        <ele>310.33334350586</ele>
        <time>2017-06-07T14:25:28Z</time>
      </trkpt>
      <trkpt lat="43.42741" lon="6.05737">
        <ele>310.39999389648</ele>
        <time>2017-06-07T14:25:29Z</time>
      </trkpt>
      <trkpt lat="43.42737" lon="6.05736">
        <ele>310.20001220703</ele>
        <time>2017-06-07T14:25:30Z</time>
      </trkpt>
      <trkpt lat="43.42733" lon="6.05735">
        <ele>310.20001220703</ele>
        <time>2017-06-07T14:25:31Z</time>
      </trkpt>
      <trkpt lat="43.4273" lon="6.05734">
        <ele>310.10000610352</ele>
        <time>2017-06-07T14:25:32Z</time>
      </trkpt>
      <trkpt lat="43.42726" lon="6.05734">
        <ele>310</ele>
        <time>2017-06-07T14:25:33Z</time>
      </trkpt>
      <trkpt lat="43.42717" lon="6.05733">
        <ele>310</ele>
        <time>2017-06-07T14:25:35Z</time>
      </trkpt>
      <trkpt lat="43.42713" lon="6.05733">
        <ele>310</ele>
        <time>2017-06-07T14:25:36Z</time>
      </trkpt>
      <trkpt lat="43.42709" lon="6.05733">
        <ele>309.9333190918</ele>
        <time>2017-06-07T14:25:37Z</time>
      </trkpt>
      <trkpt lat="43.42705" lon="6.05733">
        <ele>309.86666870117</ele>
        <time>2017-06-07T14:25:38Z</time>
      </trkpt>
      <trkpt lat="43.42702" lon="6.05732">
        <ele>309.79998779297</ele>
        <time>2017-06-07T14:25:39Z</time>
      </trkpt>
      <trkpt lat="43.42699" lon="6.0573">
        <ele>309.79998779297</ele>
        <time>2017-06-07T14:25:40Z</time>
      </trkpt>
      <trkpt lat="43.42698" lon="6.05727">
        <ele>309.5</ele>
        <time>2017-06-07T14:25:41Z</time>
      </trkpt>
      <trkpt lat="43.42698" lon="6.05724">
        <ele>309.20001220703</ele>
        <time>2017-06-07T14:25:42Z</time>
      </trkpt>
      <trkpt lat="43.42698" lon="6.0572">
        <ele>309.20001220703</ele>
        <time>2017-06-07T14:25:43Z</time>
      </trkpt>
      <trkpt lat="43.42699" lon="6.05715">
        <ele>309.10000610352</ele>
        <time>2017-06-07T14:25:44Z</time>
      </trkpt>
      <trkpt lat="43.42702" lon="6.05705">
        <ele>309</ele>
        <time>2017-06-07T14:25:46Z</time>
      </trkpt>
      <trkpt lat="43.42703" lon="6.057">
        <ele>308.49090576172</ele>
        <time>2017-06-07T14:25:47Z</time>
      </trkpt>
      <trkpt lat="43.42704" lon="6.05695">
        <ele>307.98181152344</ele>
        <time>2017-06-07T14:25:48Z</time>
      </trkpt>
      <trkpt lat="43.42705" lon="6.05689">
        <ele>307.47271728516</ele>
        <time>2017-06-07T14:25:49Z</time>
      </trkpt>
      <trkpt lat="43.42707" lon="6.05684">
        <ele>306.96362304688</ele>
        <time>2017-06-07T14:25:50Z</time>
      </trkpt>
      <trkpt lat="43.42709" lon="6.0568">
        <ele>306.45452880859</ele>
        <time>2017-06-07T14:25:51Z</time>
      </trkpt>
      <trkpt lat="43.42713" lon="6.05677">
        <ele>305.94546508789</ele>
        <time>2017-06-07T14:25:52Z</time>
      </trkpt>
      <trkpt lat="43.42716" lon="6.05675">
        <ele>305.43637084961</ele>
        <time>2017-06-07T14:25:53Z</time>
      </trkpt>
      <trkpt lat="43.42718" lon="6.05672">
        <ele>304.92727661133</ele>
        <time>2017-06-07T14:25:54Z</time>
      </trkpt>
      <trkpt lat="43.4272" lon="6.05668">
        <ele>304.41818237305</ele>
        <time>2017-06-07T14:25:55Z</time>
      </trkpt>
      <trkpt lat="43.42723" lon="6.05664">
        <ele>303.90908813477</ele>
        <time>2017-06-07T14:25:56Z</time>
      </trkpt>
      <trkpt lat="43.42727" lon="6.05654">
        <ele>303.39999389648</ele>
        <time>2017-06-07T14:25:58Z</time>
      </trkpt>
      <trkpt lat="43.4273" lon="6.0565">
        <ele>302.86666870117</ele>
        <time>2017-06-07T14:25:59Z</time>
      </trkpt>
      <trkpt lat="43.42733" lon="6.05645">
        <ele>302.33334350586</ele>
        <time>2017-06-07T14:26:00Z</time>
      </trkpt>
      <trkpt lat="43.42736" lon="6.05641">
        <ele>301.79998779297</ele>
        <time>2017-06-07T14:26:01Z</time>
      </trkpt>
      <trkpt lat="43.42739" lon="6.05638">
        <ele>301.26666259766</ele>
        <time>2017-06-07T14:26:02Z</time>
      </trkpt>
      <trkpt lat="43.42743" lon="6.05634">
        <ele>300.73333740234</ele>
        <time>2017-06-07T14:26:03Z</time>
      </trkpt>
      <trkpt lat="43.42746" lon="6.05629">
        <ele>300.20001220703</ele>
        <time>2017-06-07T14:26:04Z</time>
      </trkpt>
      <trkpt lat="43.42748" lon="6.05624">
        <ele>300.20001220703</ele>
        <time>2017-06-07T14:26:05Z</time>
      </trkpt>
      <trkpt lat="43.4275" lon="6.05619">
        <ele>300.20001220703</ele>
        <time>2017-06-07T14:26:06Z</time>
      </trkpt>
      <trkpt lat="43.42753" lon="6.05601">
        <ele>300.39999389648</ele>
        <time>2017-06-07T14:26:09Z</time>
      </trkpt>
      <trkpt lat="43.42752" lon="6.05595">
        <ele>299.79998779297</ele>
        <time>2017-06-07T14:26:10Z</time>
      </trkpt>
      <trkpt lat="43.42751" lon="6.05589">
        <ele>299.20001220703</ele>
        <time>2017-06-07T14:26:11Z</time>
      </trkpt>
      <trkpt lat="43.42749" lon="6.05583">
        <ele>298.60000610352</ele>
        <time>2017-06-07T14:26:12Z</time>
      </trkpt>
      <trkpt lat="43.42741" lon="6.05575">
        <ele>297.60000610352</ele>
        <time>2017-06-07T14:26:14Z</time>
      </trkpt>
      <trkpt lat="43.42738" lon="6.0557">
        <ele>297</ele>
        <time>2017-06-07T14:26:15Z</time>
      </trkpt>
      <trkpt lat="43.42734" lon="6.05557">
        <ele>295.79998779297</ele>
        <time>2017-06-07T14:26:17Z</time>
      </trkpt>
      <trkpt lat="43.4273" lon="6.05543">
        <ele>294</ele>
        <time>2017-06-07T14:26:19Z</time>
      </trkpt>
      <trkpt lat="43.42728" lon="6.05536">
        <ele>293.20001220703</ele>
        <time>2017-06-07T14:26:20Z</time>
      </trkpt>
      <trkpt lat="43.42727" lon="6.05529">
        <ele>292.39999389648</ele>
        <time>2017-06-07T14:26:21Z</time>
      </trkpt>
      <trkpt lat="43.42726" lon="6.05514">
        <ele>292</ele>
        <time>2017-06-07T14:26:23Z</time>
      </trkpt>
      <trkpt lat="43.42723" lon="6.05498">
        <ele>291.20001220703</ele>
        <time>2017-06-07T14:26:25Z</time>
      </trkpt>
      <trkpt lat="43.42722" lon="6.05491">
        <ele>291</ele>
        <time>2017-06-07T14:26:26Z</time>
      </trkpt>
      <trkpt lat="43.42722" lon="6.05483">
        <ele>291.20001220703</ele>
        <time>2017-06-07T14:26:27Z</time>
      </trkpt>
      <trkpt lat="43.42722" lon="6.05475">
        <ele>291.39999389648</ele>
        <time>2017-06-07T14:26:28Z</time>
      </trkpt>
      <trkpt lat="43.42723" lon="6.05467">
        <ele>291.39999389648</ele>
        <time>2017-06-07T14:26:29Z</time>
      </trkpt>
      <trkpt lat="43.42729" lon="6.05455">
        <ele>291.60000610352</ele>
        <time>2017-06-07T14:26:31Z</time>
      </trkpt>
      <trkpt lat="43.42731" lon="6.05449">
        <ele>291.39999389648</ele>
        <time>2017-06-07T14:26:32Z</time>
      </trkpt>
      <trkpt lat="43.42731" lon="6.05443">
        <ele>291</ele>
        <time>2017-06-07T14:26:33Z</time>
      </trkpt>
      <trkpt lat="43.4273" lon="6.05437">
        <ele>290.60000610352</ele>
        <time>2017-06-07T14:26:34Z</time>
      </trkpt>
      <trkpt lat="43.42729" lon="6.0543">
        <ele>290</ele>
        <time>2017-06-07T14:26:35Z</time>
      </trkpt>
      <trkpt lat="43.42727" lon="6.05423">
        <ele>289.20001220703</ele>
        <time>2017-06-07T14:26:36Z</time>
      </trkpt>
      <trkpt lat="43.42725" lon="6.05416">
        <ele>288.39999389648</ele>
        <time>2017-06-07T14:26:37Z</time>
      </trkpt>
      <trkpt lat="43.42723" lon="6.0541">
        <ele>287.39999389648</ele>
        <time>2017-06-07T14:26:38Z</time>
      </trkpt>
      <trkpt lat="43.42722" lon="6.05403">
        <ele>286.79998779297</ele>
        <time>2017-06-07T14:26:39Z</time>
      </trkpt>
      <trkpt lat="43.42719" lon="6.05398">
        <ele>286</ele>
        <time>2017-06-07T14:26:40Z</time>
      </trkpt>
      <trkpt lat="43.42718" lon="6.05393">
        <ele>285.60000610352</ele>
        <time>2017-06-07T14:26:41Z</time>
      </trkpt>
      <trkpt lat="43.42717" lon="6.05388">
        <ele>285.39999389648</ele>
        <time>2017-06-07T14:26:42Z</time>
      </trkpt>
      <trkpt lat="43.42717" lon="6.05385">
        <ele>285.20001220703</ele>
        <time>2017-06-07T14:26:43Z</time>
      </trkpt>
      <trkpt lat="43.42718" lon="6.0538">
        <ele>285.20001220703</ele>
        <time>2017-06-07T14:26:44Z</time>
      </trkpt>
      <trkpt lat="43.42718" lon="6.05376">
        <ele>285.04000854492</ele>
        <time>2017-06-07T14:26:45Z</time>
      </trkpt>
      <trkpt lat="43.42719" lon="6.05365">
        <ele>284.7200012207</ele>
        <time>2017-06-07T14:26:47Z</time>
      </trkpt>
      <trkpt lat="43.42719" lon="6.05359">
        <ele>284.55999755859</ele>
        <time>2017-06-07T14:26:48Z</time>
      </trkpt>
      <trkpt lat="43.42719" lon="6.05353">
        <ele>284.39999389648</ele>
        <time>2017-06-07T14:26:49Z</time>
      </trkpt>
      <trkpt lat="43.42718" lon="6.05347">
        <ele>284.39999389648</ele>
        <time>2017-06-07T14:26:50Z</time>
      </trkpt>
      <trkpt lat="43.42716" lon="6.05343">
        <ele>283.96667480469</ele>
        <time>2017-06-07T14:26:51Z</time>
      </trkpt>
      <trkpt lat="43.42712" lon="6.05341">
        <ele>283.53332519531</ele>
        <time>2017-06-07T14:26:52Z</time>
      </trkpt>
      <trkpt lat="43.42705" lon="6.05342">
        <ele>282.66665649414</ele>
        <time>2017-06-07T14:26:54Z</time>
      </trkpt>
      <trkpt lat="43.42701" lon="6.05343">
        <ele>282.23333740234</ele>
        <time>2017-06-07T14:26:55Z</time>
      </trkpt>
      <trkpt lat="43.42698" lon="6.05343">
        <ele>281.79998779297</ele>
        <time>2017-06-07T14:26:56Z</time>
      </trkpt>
      <trkpt lat="43.42694" lon="6.05343">
        <ele>281.36666870117</ele>
        <time>2017-06-07T14:26:57Z</time>
      </trkpt>
      <trkpt lat="43.4269" lon="6.05342">
        <ele>280.93334960938</ele>
        <time>2017-06-07T14:26:58Z</time>
      </trkpt>
      <trkpt lat="43.42686" lon="6.05341">
        <ele>280.5</ele>
        <time>2017-06-07T14:26:59Z</time>
      </trkpt>
      <trkpt lat="43.42682" lon="6.0534">
        <ele>280.0666809082</ele>
        <time>2017-06-07T14:27:00Z</time>
      </trkpt>
      <trkpt lat="43.42676" lon="6.05334">
        <ele>279.20001220703</ele>
        <time>2017-06-07T14:27:02Z</time>
      </trkpt>
      <trkpt lat="43.4267" lon="6.05326">
        <ele>279.10000610352</ele>
        <time>2017-06-07T14:27:04Z</time>
      </trkpt>
      <trkpt lat="43.42667" lon="6.05321">
        <ele>279</ele>
        <time>2017-06-07T14:27:05Z</time>
      </trkpt>
      <trkpt lat="43.42661" lon="6.05311">
        <ele>278.95001220703</ele>
        <time>2017-06-07T14:27:07Z</time>
      </trkpt>
      <trkpt lat="43.42658" lon="6.05307">
        <ele>278.89999389648</ele>
        <time>2017-06-07T14:27:08Z</time>
      </trkpt>
      <trkpt lat="43.42656" lon="6.05302">
        <ele>278.84997558594</ele>
        <time>2017-06-07T14:27:09Z</time>
      </trkpt>
      <trkpt lat="43.42653" lon="6.05297">
        <ele>278.79998779297</ele>
        <time>2017-06-07T14:27:10Z</time>
      </trkpt>
      <trkpt lat="43.42647" lon="6.05287">
        <ele>278.42221069336</ele>
        <time>2017-06-07T14:27:12Z</time>
      </trkpt>
      <trkpt lat="43.42643" lon="6.05283">
        <ele>278.04443359375</ele>
        <time>2017-06-07T14:27:13Z</time>
      </trkpt>
      <trkpt lat="43.42639" lon="6.0528">
        <ele>277.66665649414</ele>
        <time>2017-06-07T14:27:14Z</time>
      </trkpt>
      <trkpt lat="43.42635" lon="6.05277">
        <ele>277.28887939453</ele>
        <time>2017-06-07T14:27:15Z</time>
      </trkpt>
      <trkpt lat="43.42632" lon="6.05273">
        <ele>276.91110229492</ele>
        <time>2017-06-07T14:27:16Z</time>
      </trkpt>
      <trkpt lat="43.42629" lon="6.05269">
        <ele>276.53332519531</ele>
        <time>2017-06-07T14:27:17Z</time>
      </trkpt>
      <trkpt lat="43.42626" lon="6.05265">
        <ele>276.1555480957</ele>
        <time>2017-06-07T14:27:18Z</time>
      </trkpt>
      <trkpt lat="43.42623" lon="6.05263">
        <ele>275.77777099609</ele>
        <time>2017-06-07T14:27:19Z</time>
      </trkpt>
      <trkpt lat="43.42622" lon="6.05263">
        <ele>275.39999389648</ele>
        <time>2017-06-07T14:27:20Z</time>
      </trkpt>
      <trkpt lat="43.42622" lon="6.05263">
        <ele>275.39999389648</ele>
        <time>2017-06-07T14:27:21Z</time>
      </trkpt>
      <trkpt lat="43.42622" lon="6.05263">
        <ele>275.39999389648</ele>
        <time>2017-06-07T14:27:22Z</time>
      </trkpt>
      <trkpt lat="43.42622" lon="6.05264">
        <ele>275.39999389648</ele>
        <time>2017-06-07T14:27:23Z</time>
      </trkpt>
      <trkpt lat="43.42622" lon="6.05264">
        <ele>275.39999389648</ele>
        <time>2017-06-07T14:27:24Z</time>
      </trkpt>
      <trkpt lat="43.42622" lon="6.05264">
        <ele>275.60000610352</ele>
        <time>2017-06-07T14:27:25Z</time>
      </trkpt>
      <trkpt lat="43.42622" lon="6.05264">
        <ele>275.79998779297</ele>
        <time>2017-06-07T14:27:31Z</time>
      </trkpt>
      <trkpt lat="43.42622" lon="6.05264">
        <ele>276</ele>
        <time>2017-06-07T14:27:33Z</time>
      </trkpt>
      <trkpt lat="43.42622" lon="6.05264">
        <ele>276</ele>
        <time>2017-06-07T14:27:34Z</time>
      </trkpt>
      <trkpt lat="43.42622" lon="6.05264">
        <ele>276</ele>
        <time>2017-06-07T14:27:35Z</time>
      </trkpt>
      <trkpt lat="43.42622" lon="6.05264">
        <ele>275.79998779297</ele>
        <time>2017-06-07T14:27:41Z</time>
      </trkpt>
      <trkpt lat="43.42622" lon="6.05264">
        <ele>275.39999389648</ele>
        <time>2017-06-07T14:27:56Z</time>
      </trkpt>
      <trkpt lat="43.42622" lon="6.05264">
        <ele>275.2799987793</ele>
        <time>2017-06-07T14:27:59Z</time>
      </trkpt>
      <trkpt lat="43.42622" lon="6.05264">
        <ele>275.39999389648</ele>
        <time>2017-06-07T14:28:03Z</time>
      </trkpt>
      <trkpt lat="43.42622" lon="6.05264">
        <ele>275.39999389648</ele>
        <time>2017-06-07T14:28:06Z</time>
      </trkpt>
      <trkpt lat="43.42622" lon="6.05264">
        <ele>275.20001220703</ele>
        <time>2017-06-07T14:28:11Z</time>
      </trkpt>
      <trkpt lat="43.42622" lon="6.05264">
        <ele>274.88000488281</ele>
        <time>2017-06-07T14:28:14Z</time>
      </trkpt>
      <trkpt lat="43.42622" lon="6.05264">
        <ele>274.7200012207</ele>
        <time>2017-06-07T14:28:15Z</time>
      </trkpt>
      <trkpt lat="43.42622" lon="6.05264">
        <ele>274.39999389648</ele>
        <time>2017-06-07T14:28:17Z</time>
      </trkpt>
      <trkpt lat="43.42622" lon="6.05264">
        <ele>274.60000610352</ele>
        <time>2017-06-07T14:28:21Z</time>
      </trkpt>
      <trkpt lat="43.42622" lon="6.05263">
        <ele>275.30667114258</ele>
        <time>2017-06-07T14:28:33Z</time>
      </trkpt>
      <trkpt lat="43.42622" lon="6.05263">
        <ele>275.79998779297</ele>
        <time>2017-06-07T14:28:44Z</time>
      </trkpt>
      <trkpt lat="43.42622" lon="6.05263">
        <ele>275.79998779297</ele>
        <time>2017-06-07T14:28:47Z</time>
      </trkpt>
      <trkpt lat="43.42622" lon="6.05263">
        <ele>275.60000610352</ele>
        <time>2017-06-07T14:28:49Z</time>
      </trkpt>
      <trkpt lat="43.42622" lon="6.05263">
        <ele>275.60000610352</ele>
        <time>2017-06-07T14:28:50Z</time>
      </trkpt>
      <trkpt lat="43.42621" lon="6.05263">
        <ele>275.38000488281</ele>
        <time>2017-06-07T14:28:51Z</time>
      </trkpt>
      <trkpt lat="43.4262" lon="6.05261">
        <ele>275.16000366211</ele>
        <time>2017-06-07T14:28:52Z</time>
      </trkpt>
      <trkpt lat="43.42618" lon="6.0526">
        <ele>274.94000244141</ele>
        <time>2017-06-07T14:28:53Z</time>
      </trkpt>
      <trkpt lat="43.42616" lon="6.05258">
        <ele>274.7200012207</ele>
        <time>2017-06-07T14:28:54Z</time>
      </trkpt>
      <trkpt lat="43.42613" lon="6.05256">
        <ele>274.5</ele>
        <time>2017-06-07T14:28:55Z</time>
      </trkpt>
      <trkpt lat="43.42609" lon="6.05254">
        <ele>274.2799987793</ele>
        <time>2017-06-07T14:28:56Z</time>
      </trkpt>
      <trkpt lat="43.42606" lon="6.05252">
        <ele>274.05999755859</ele>
        <time>2017-06-07T14:28:57Z</time>
      </trkpt>
      <trkpt lat="43.42604" lon="6.05249">
        <ele>273.83999633789</ele>
        <time>2017-06-07T14:28:58Z</time>
      </trkpt>
      <trkpt lat="43.42601" lon="6.05247">
        <ele>273.61999511719</ele>
        <time>2017-06-07T14:28:59Z</time>
      </trkpt>
      <trkpt lat="43.42599" lon="6.05244">
        <ele>273.39999389648</ele>
        <time>2017-06-07T14:29:00Z</time>
      </trkpt>
      <trkpt lat="43.42596" lon="6.05242">
        <ele>273.39999389648</ele>
        <time>2017-06-07T14:29:01Z</time>
      </trkpt>
      <trkpt lat="43.42593" lon="6.0524">
        <ele>273.20001220703</ele>
        <time>2017-06-07T14:29:02Z</time>
      </trkpt>
      <trkpt lat="43.42587" lon="6.05235">
        <ele>273.20001220703</ele>
        <time>2017-06-07T14:29:04Z</time>
      </trkpt>
      <trkpt lat="43.42584" lon="6.05232">
        <ele>273.20001220703</ele>
        <time>2017-06-07T14:29:05Z</time>
      </trkpt>
      <trkpt lat="43.42581" lon="6.0523">
        <ele>273.20001220703</ele>
        <time>2017-06-07T14:29:06Z</time>
      </trkpt>
      <trkpt lat="43.42578" lon="6.05228">
        <ele>273.39999389648</ele>
        <time>2017-06-07T14:29:07Z</time>
      </trkpt>
      <trkpt lat="43.42574" lon="6.05226">
        <ele>273.39999389648</ele>
        <time>2017-06-07T14:29:08Z</time>
      </trkpt>
      <trkpt lat="43.4257" lon="6.05224">
        <ele>273.4333190918</ele>
        <time>2017-06-07T14:29:09Z</time>
      </trkpt>
      <trkpt lat="43.42566" lon="6.05222">
        <ele>273.46667480469</ele>
        <time>2017-06-07T14:29:10Z</time>
      </trkpt>
      <trkpt lat="43.42562" lon="6.05221">
        <ele>273.5</ele>
        <time>2017-06-07T14:29:11Z</time>
      </trkpt>
      <trkpt lat="43.42558" lon="6.0522">
        <ele>273.53332519531</ele>
        <time>2017-06-07T14:29:12Z</time>
      </trkpt>
      <trkpt lat="43.42556" lon="6.05219">
        <ele>273.5666809082</ele>
        <time>2017-06-07T14:29:13Z</time>
      </trkpt>
      <trkpt lat="43.42553" lon="6.05219">
        <ele>273.60000610352</ele>
        <time>2017-06-07T14:29:14Z</time>
      </trkpt>
      <trkpt lat="43.42549" lon="6.0522">
        <ele>273.39999389648</ele>
        <time>2017-06-07T14:29:15Z</time>
      </trkpt>
      <trkpt lat="43.42544" lon="6.05222">
        <ele>273.60000610352</ele>
        <time>2017-06-07T14:29:16Z</time>
      </trkpt>
      <trkpt lat="43.42535" lon="6.05223">
        <ele>273</ele>
        <time>2017-06-07T14:29:18Z</time>
      </trkpt>
      <trkpt lat="43.4253" lon="6.05222">
        <ele>272.60000610352</ele>
        <time>2017-06-07T14:29:19Z</time>
      </trkpt>
      <trkpt lat="43.42525" lon="6.05223">
        <ele>272.20001220703</ele>
        <time>2017-06-07T14:29:20Z</time>
      </trkpt>
      <trkpt lat="43.4252" lon="6.05223">
        <ele>271.79998779297</ele>
        <time>2017-06-07T14:29:21Z</time>
      </trkpt>
      <trkpt lat="43.42515" lon="6.05223">
        <ele>271.39999389648</ele>
        <time>2017-06-07T14:29:22Z</time>
      </trkpt>
      <trkpt lat="43.4251" lon="6.05224">
        <ele>271.39999389648</ele>
        <time>2017-06-07T14:29:23Z</time>
      </trkpt>
      <trkpt lat="43.42505" lon="6.05223">
        <ele>271.26666259766</ele>
        <time>2017-06-07T14:29:24Z</time>
      </trkpt>
      <trkpt lat="43.42501" lon="6.05221">
        <ele>271.13333129883</ele>
        <time>2017-06-07T14:29:25Z</time>
      </trkpt>
      <trkpt lat="43.42491" lon="6.05218">
        <ele>271</ele>
        <time>2017-06-07T14:29:27Z</time>
      </trkpt>
      <trkpt lat="43.42482" lon="6.05214">
        <ele>271.39999389648</ele>
        <time>2017-06-07T14:29:29Z</time>
      </trkpt>
      <trkpt lat="43.42478" lon="6.05213">
        <ele>271.39999389648</ele>
        <time>2017-06-07T14:29:30Z</time>
      </trkpt>
      <trkpt lat="43.42474" lon="6.05212">
        <ele>271.20001220703</ele>
        <time>2017-06-07T14:29:31Z</time>
      </trkpt>
      <trkpt lat="43.42469" lon="6.05211">
        <ele>271.20001220703</ele>
        <time>2017-06-07T14:29:32Z</time>
      </trkpt>
      <trkpt lat="43.42466" lon="6.0521">
        <ele>271.10000610352</ele>
        <time>2017-06-07T14:29:33Z</time>
      </trkpt>
      <trkpt lat="43.42461" lon="6.0521">
        <ele>271</ele>
        <time>2017-06-07T14:29:34Z</time>
      </trkpt>
      <trkpt lat="43.42457" lon="6.0521">
        <ele>271</ele>
        <time>2017-06-07T14:29:35Z</time>
      </trkpt>
      <trkpt lat="43.42451" lon="6.05213">
        <ele>270.34286499023</ele>
        <time>2017-06-07T14:29:36Z</time>
      </trkpt>
      <trkpt lat="43.42445" lon="6.05215">
        <ele>269.68569946289</ele>
        <time>2017-06-07T14:29:37Z</time>
      </trkpt>
      <trkpt lat="43.42439" lon="6.05218">
        <ele>269.02856445312</ele>
        <time>2017-06-07T14:29:38Z</time>
      </trkpt>
      <trkpt lat="43.42433" lon="6.05219">
        <ele>268.37142944336</ele>
        <time>2017-06-07T14:29:39Z</time>
      </trkpt>
      <trkpt lat="43.42426" lon="6.0522">
        <ele>267.71429443359</ele>
        <time>2017-06-07T14:29:40Z</time>
      </trkpt>
      <trkpt lat="43.42421" lon="6.0522">
        <ele>267.05712890625</ele>
        <time>2017-06-07T14:29:41Z</time>
      </trkpt>
      <trkpt lat="43.42416" lon="6.05219">
        <ele>266.39999389648</ele>
        <time>2017-06-07T14:29:42Z</time>
      </trkpt>
      <trkpt lat="43.42412" lon="6.05217">
        <ele>266.39999389648</ele>
        <time>2017-06-07T14:29:43Z</time>
      </trkpt>
      <trkpt lat="43.4241" lon="6.05215">
        <ele>266.60000610352</ele>
        <time>2017-06-07T14:29:44Z</time>
      </trkpt>
      <trkpt lat="43.42409" lon="6.05213">
        <ele>267</ele>
        <time>2017-06-07T14:29:45Z</time>
      </trkpt>
      <trkpt lat="43.42408" lon="6.05212">
        <ele>267.20001220703</ele>
        <time>2017-06-07T14:29:46Z</time>
      </trkpt>
      <trkpt lat="43.42406" lon="6.0521">
        <ele>267.39999389648</ele>
        <time>2017-06-07T14:29:47Z</time>
      </trkpt>
      <trkpt lat="43.42403" lon="6.05203">
        <ele>268</ele>
        <time>2017-06-07T14:29:50Z</time>
      </trkpt>
      <trkpt lat="43.42403" lon="6.05201">
        <ele>268.20001220703</ele>
        <time>2017-06-07T14:29:51Z</time>
      </trkpt>
      <trkpt lat="43.42402" lon="6.05199">
        <ele>268.39999389648</ele>
        <time>2017-06-07T14:29:52Z</time>
      </trkpt>
      <trkpt lat="43.42402" lon="6.05197">
        <ele>268.60000610352</ele>
        <time>2017-06-07T14:29:53Z</time>
      </trkpt>
      <trkpt lat="43.42402" lon="6.05196">
        <ele>269</ele>
        <time>2017-06-07T14:29:54Z</time>
      </trkpt>
      <trkpt lat="43.42402" lon="6.05195">
        <ele>269.39999389648</ele>
        <time>2017-06-07T14:29:55Z</time>
      </trkpt>
      <trkpt lat="43.42402" lon="6.05195">
        <ele>270</ele>
        <time>2017-06-07T14:29:56Z</time>
      </trkpt>
      <trkpt lat="43.42402" lon="6.05195">
        <ele>270.39999389648</ele>
        <time>2017-06-07T14:29:57Z</time>
      </trkpt>
      <trkpt lat="43.42402" lon="6.05194">
        <ele>270.39999389648</ele>
        <time>2017-06-07T14:29:58Z</time>
      </trkpt>
      <trkpt lat="43.42402" lon="6.05194">
        <ele>270.39999389648</ele>
        <time>2017-06-07T14:29:59Z</time>
      </trkpt>
      <trkpt lat="43.42402" lon="6.05194">
        <ele>270.39999389648</ele>
        <time>2017-06-07T14:30:00Z</time>
      </trkpt>
      <trkpt lat="43.42402" lon="6.05194">
        <ele>270.20001220703</ele>
        <time>2017-06-07T14:30:01Z</time>
      </trkpt>
      <trkpt lat="43.42402" lon="6.05194">
        <ele>270.20001220703</ele>
        <time>2017-06-07T14:30:02Z</time>
      </trkpt>
      <trkpt lat="43.42401" lon="6.05193">
        <ele>269.9333190918</ele>
        <time>2017-06-07T14:30:04Z</time>
      </trkpt>
      <trkpt lat="43.42401" lon="6.05192">
        <ele>269.79998779297</ele>
        <time>2017-06-07T14:30:05Z</time>
      </trkpt>
      <trkpt lat="43.42401" lon="6.05192">
        <ele>269.79998779297</ele>
        <time>2017-06-07T14:30:06Z</time>
      </trkpt>
      <trkpt lat="43.424" lon="6.05191">
        <ele>269.79998779297</ele>
        <time>2017-06-07T14:30:08Z</time>
      </trkpt>
      <trkpt lat="43.424" lon="6.05189">
        <ele>270.39999389648</ele>
        <time>2017-06-07T14:30:11Z</time>
      </trkpt>
      <trkpt lat="43.42399" lon="6.05188">
        <ele>270.79998779297</ele>
        <time>2017-06-07T14:30:12Z</time>
      </trkpt>
      <trkpt lat="43.42398" lon="6.05186">
        <ele>271.20001220703</ele>
        <time>2017-06-07T14:30:14Z</time>
      </trkpt>
      <trkpt lat="43.42398" lon="6.05186">
        <ele>271.39999389648</ele>
        <time>2017-06-07T14:30:15Z</time>
      </trkpt>
      <trkpt lat="43.42398" lon="6.05185">
        <ele>271.39999389648</ele>
        <time>2017-06-07T14:30:17Z</time>
      </trkpt>
      <trkpt lat="43.42398" lon="6.05184">
        <ele>271.39999389648</ele>
        <time>2017-06-07T14:30:18Z</time>
      </trkpt>
      <trkpt lat="43.42397" lon="6.05182">
        <ele>271.39999389648</ele>
        <time>2017-06-07T14:30:20Z</time>
      </trkpt>
      <trkpt lat="43.42397" lon="6.05181">
        <ele>271.39999389648</ele>
        <time>2017-06-07T14:30:21Z</time>
      </trkpt>
      <trkpt lat="43.42397" lon="6.0518">
        <ele>271.39999389648</ele>
        <time>2017-06-07T14:30:22Z</time>
      </trkpt>
      <trkpt lat="43.42396" lon="6.05179">
        <ele>271.60000610352</ele>
        <time>2017-06-07T14:30:24Z</time>
      </trkpt>
      <trkpt lat="43.42396" lon="6.05178">
        <ele>271.75</ele>
        <time>2017-06-07T14:30:25Z</time>
      </trkpt>
      <trkpt lat="43.42395" lon="6.05175">
        <ele>272.05001831055</ele>
        <time>2017-06-07T14:30:27Z</time>
      </trkpt>
      <trkpt lat="43.42395" lon="6.05174">
        <ele>272.20001220703</ele>
        <time>2017-06-07T14:30:28Z</time>
      </trkpt>
      <trkpt lat="43.42393" lon="6.05173">
        <ele>272.40002441406</ele>
        <time>2017-06-07T14:30:30Z</time>
      </trkpt>
      <trkpt lat="43.42393" lon="6.05172">
        <ele>272.60000610352</ele>
        <time>2017-06-07T14:30:31Z</time>
      </trkpt>
      <trkpt lat="43.42393" lon="6.05172">
        <ele>272.60000610352</ele>
        <time>2017-06-07T14:30:32Z</time>
      </trkpt>
      <trkpt lat="43.42393" lon="6.05172">
        <ele>272.60000610352</ele>
        <time>2017-06-07T14:30:33Z</time>
      </trkpt>
      <trkpt lat="43.42393" lon="6.05172">
        <ele>272.60000610352</ele>
        <time>2017-06-07T14:30:34Z</time>
      </trkpt>
      <trkpt lat="43.42392" lon="6.05172">
        <ele>272.39999389648</ele>
        <time>2017-06-07T14:30:35Z</time>
      </trkpt>
      <trkpt lat="43.42392" lon="6.05172">
        <ele>272.20001220703</ele>
        <time>2017-06-07T14:30:36Z</time>
      </trkpt>
      <trkpt lat="43.42392" lon="6.05173">
        <ele>272.20001220703</ele>
        <time>2017-06-07T14:30:37Z</time>
      </trkpt>
      <trkpt lat="43.42392" lon="6.05173">
        <ele>272</ele>
        <time>2017-06-07T14:30:38Z</time>
      </trkpt>
      <trkpt lat="43.42392" lon="6.05173">
        <ele>271.79998779297</ele>
        <time>2017-06-07T14:30:41Z</time>
      </trkpt>
      <trkpt lat="43.42392" lon="6.05173">
        <ele>271.73333740234</ele>
        <time>2017-06-07T14:30:42Z</time>
      </trkpt>
      <trkpt lat="43.42392" lon="6.05173">
        <ele>271.60000610352</ele>
        <time>2017-06-07T14:30:44Z</time>
      </trkpt>
      <trkpt lat="43.42391" lon="6.05173">
        <ele>271.60000610352</ele>
        <time>2017-06-07T14:30:45Z</time>
      </trkpt>
      <trkpt lat="43.42389" lon="6.05176">
        <ele>271.46667480469</ele>
        <time>2017-06-07T14:30:47Z</time>
      </trkpt>
      <trkpt lat="43.42387" lon="6.05178">
        <ele>271.39999389648</ele>
        <time>2017-06-07T14:30:48Z</time>
      </trkpt>
      <trkpt lat="43.42385" lon="6.0518">
        <ele>271.39999389648</ele>
        <time>2017-06-07T14:30:49Z</time>
      </trkpt>
      <trkpt lat="43.42383" lon="6.05182">
        <ele>271.04827880859</ele>
        <time>2017-06-07T14:30:50Z</time>
      </trkpt>
      <trkpt lat="43.42381" lon="6.05182">
        <ele>270.69653320312</ele>
        <time>2017-06-07T14:30:51Z</time>
      </trkpt>
      <trkpt lat="43.42377" lon="6.05182">
        <ele>270.34481811523</ele>
        <time>2017-06-07T14:30:52Z</time>
      </trkpt>
      <trkpt lat="43.42375" lon="6.05182">
        <ele>269.99310302734</ele>
        <time>2017-06-07T14:30:53Z</time>
      </trkpt>
      <trkpt lat="43.42373" lon="6.05182">
        <ele>269.64138793945</ele>
        <time>2017-06-07T14:30:54Z</time>
      </trkpt>
      <trkpt lat="43.42368" lon="6.05184">
        <ele>268.93792724609</ele>
        <time>2017-06-07T14:30:56Z</time>
      </trkpt>
      <trkpt lat="43.42362" lon="6.05188">
        <ele>268.23449707031</ele>
        <time>2017-06-07T14:30:58Z</time>
      </trkpt>
      <trkpt lat="43.42361" lon="6.05192">
        <ele>267.88275146484</ele>
        <time>2017-06-07T14:30:59Z</time>
      </trkpt>
      <trkpt lat="43.42358" lon="6.05194">
        <ele>267.53103637695</ele>
        <time>2017-06-07T14:31:00Z</time>
      </trkpt>
      <trkpt lat="43.42355" lon="6.05195">
        <ele>267.17932128906</ele>
        <time>2017-06-07T14:31:01Z</time>
      </trkpt>
      <trkpt lat="43.42353" lon="6.05195">
        <ele>266.82757568359</ele>
        <time>2017-06-07T14:31:02Z</time>
      </trkpt>
      <trkpt lat="43.4235" lon="6.05195">
        <ele>266.4758605957</ele>
        <time>2017-06-07T14:31:03Z</time>
      </trkpt>
      <trkpt lat="43.42347" lon="6.05194">
        <ele>266.12414550781</ele>
        <time>2017-06-07T14:31:04Z</time>
      </trkpt>
      <trkpt lat="43.42344" lon="6.05194">
        <ele>265.77243041992</ele>
        <time>2017-06-07T14:31:05Z</time>
      </trkpt>
      <trkpt lat="43.42341" lon="6.05195">
        <ele>265.42068481445</ele>
        <time>2017-06-07T14:31:06Z</time>
      </trkpt>
      <trkpt lat="43.42333" lon="6.05196">
        <ele>264.71725463867</ele>
        <time>2017-06-07T14:31:08Z</time>
      </trkpt>
      <trkpt lat="43.42329" lon="6.05195">
        <ele>264.3655090332</ele>
        <time>2017-06-07T14:31:09Z</time>
      </trkpt>
      <trkpt lat="43.42325" lon="6.05196">
        <ele>264.01379394531</ele>
        <time>2017-06-07T14:31:10Z</time>
      </trkpt>
      <trkpt lat="43.42321" lon="6.05199">
        <ele>263.66207885742</ele>
        <time>2017-06-07T14:31:11Z</time>
      </trkpt>
      <trkpt lat="43.42316" lon="6.052">
        <ele>263.31036376953</ele>
        <time>2017-06-07T14:31:12Z</time>
      </trkpt>
      <trkpt lat="43.42311" lon="6.05201">
        <ele>262.95861816406</ele>
        <time>2017-06-07T14:31:13Z</time>
      </trkpt>
      <trkpt lat="43.42306" lon="6.052">
        <ele>262.60690307617</ele>
        <time>2017-06-07T14:31:14Z</time>
      </trkpt>
      <trkpt lat="43.42302" lon="6.05198">
        <ele>262.25518798828</ele>
        <time>2017-06-07T14:31:15Z</time>
      </trkpt>
      <trkpt lat="43.42299" lon="6.05195">
        <ele>261.90347290039</ele>
        <time>2017-06-07T14:31:16Z</time>
      </trkpt>
      <trkpt lat="43.42295" lon="6.05193">
        <ele>261.55172729492</ele>
        <time>2017-06-07T14:31:17Z</time>
      </trkpt>
      <trkpt lat="43.42292" lon="6.05191">
        <ele>261.20001220703</ele>
        <time>2017-06-07T14:31:18Z</time>
      </trkpt>
      <trkpt lat="43.4229" lon="6.0519">
        <ele>261.20001220703</ele>
        <time>2017-06-07T14:31:19Z</time>
      </trkpt>
      <trkpt lat="43.42287" lon="6.05189">
        <ele>261</ele>
        <time>2017-06-07T14:31:20Z</time>
      </trkpt>
      <trkpt lat="43.42284" lon="6.0519">
        <ele>261</ele>
        <time>2017-06-07T14:31:21Z</time>
      </trkpt>
      <trkpt lat="43.42282" lon="6.05192">
        <ele>260.79998779297</ele>
        <time>2017-06-07T14:31:22Z</time>
      </trkpt>
      <trkpt lat="43.42279" lon="6.05195">
        <ele>260.79998779297</ele>
        <time>2017-06-07T14:31:23Z</time>
      </trkpt>
      <trkpt lat="43.42276" lon="6.05198">
        <ele>260.56665039062</ele>
        <time>2017-06-07T14:31:24Z</time>
      </trkpt>
      <trkpt lat="43.42273" lon="6.05201">
        <ele>260.33331298828</ele>
        <time>2017-06-07T14:31:25Z</time>
      </trkpt>
      <trkpt lat="43.42269" lon="6.05203">
        <ele>260.09997558594</ele>
        <time>2017-06-07T14:31:26Z</time>
      </trkpt>
      <trkpt lat="43.42264" lon="6.05205">
        <ele>259.86666870117</ele>
        <time>2017-06-07T14:31:27Z</time>
      </trkpt>
      <trkpt lat="43.4226" lon="6.05206">
        <ele>259.63333129883</ele>
        <time>2017-06-07T14:31:28Z</time>
      </trkpt>
      <trkpt lat="43.42255" lon="6.05206">
        <ele>259.39999389648</ele>
        <time>2017-06-07T14:31:29Z</time>
      </trkpt>
      <trkpt lat="43.42252" lon="6.05205">
        <ele>259.39999389648</ele>
        <time>2017-06-07T14:31:30Z</time>
      </trkpt>
      <trkpt lat="43.42249" lon="6.05205">
        <ele>259.19998168945</ele>
        <time>2017-06-07T14:31:31Z</time>
      </trkpt>
      <trkpt lat="43.42246" lon="6.05204">
        <ele>259</ele>
        <time>2017-06-07T14:31:32Z</time>
      </trkpt>
      <trkpt lat="43.42243" lon="6.05203">
        <ele>258.79998779297</ele>
        <time>2017-06-07T14:31:33Z</time>
      </trkpt>
      <trkpt lat="43.42237" lon="6.05199">
        <ele>258.39999389648</ele>
        <time>2017-06-07T14:31:35Z</time>
      </trkpt>
      <trkpt lat="43.42234" lon="6.05197">
        <ele>258.39999389648</ele>
        <time>2017-06-07T14:31:36Z</time>
      </trkpt>
      <trkpt lat="43.42231" lon="6.05194">
        <ele>258.20001220703</ele>
        <time>2017-06-07T14:31:37Z</time>
      </trkpt>
      <trkpt lat="43.4223" lon="6.05191">
        <ele>258.20001220703</ele>
        <time>2017-06-07T14:31:38Z</time>
      </trkpt>
      <trkpt lat="43.42228" lon="6.05189">
        <ele>258.04000854492</ele>
        <time>2017-06-07T14:31:39Z</time>
      </trkpt>
      <trkpt lat="43.42226" lon="6.05188">
        <ele>257.88000488281</ele>
        <time>2017-06-07T14:31:40Z</time>
      </trkpt>
      <trkpt lat="43.42223" lon="6.05187">
        <ele>257.7200012207</ele>
        <time>2017-06-07T14:31:41Z</time>
      </trkpt>
      <trkpt lat="43.42217" lon="6.05184">
        <ele>257.39999389648</ele>
        <time>2017-06-07T14:31:43Z</time>
      </trkpt>
      <trkpt lat="43.42215" lon="6.05182">
        <ele>257.39999389648</ele>
        <time>2017-06-07T14:31:44Z</time>
      </trkpt>
      <trkpt lat="43.42211" lon="6.0518">
        <ele>257.20001220703</ele>
        <time>2017-06-07T14:31:46Z</time>
      </trkpt>
      <trkpt lat="43.42208" lon="6.05178">
        <ele>256.90002441406</ele>
        <time>2017-06-07T14:31:47Z</time>
      </trkpt>
      <trkpt lat="43.42206" lon="6.05177">
        <ele>256.60000610352</ele>
        <time>2017-06-07T14:31:48Z</time>
      </trkpt>
      <trkpt lat="43.42203" lon="6.05175">
        <ele>256.60000610352</ele>
        <time>2017-06-07T14:31:49Z</time>
      </trkpt>
      <trkpt lat="43.42198" lon="6.0517">
        <ele>256.04000854492</ele>
        <time>2017-06-07T14:31:51Z</time>
      </trkpt>
      <trkpt lat="43.42196" lon="6.05169">
        <ele>255.75999450684</ele>
        <time>2017-06-07T14:31:52Z</time>
      </trkpt>
      <trkpt lat="43.42194" lon="6.05167">
        <ele>255.47999572754</ele>
        <time>2017-06-07T14:31:53Z</time>
      </trkpt>
      <trkpt lat="43.42188" lon="6.05165">
        <ele>255.19999694824</ele>
        <time>2017-06-07T14:31:55Z</time>
      </trkpt>
      <trkpt lat="43.42184" lon="6.05165">
        <ele>254.80000305176</ele>
        <time>2017-06-07T14:31:56Z</time>
      </trkpt>
      <trkpt lat="43.42179" lon="6.05165">
        <ele>254.39999389648</ele>
        <time>2017-06-07T14:31:57Z</time>
      </trkpt>
      <trkpt lat="43.42175" lon="6.05164">
        <ele>254</ele>
        <time>2017-06-07T14:31:58Z</time>
      </trkpt>
      <trkpt lat="43.4217" lon="6.05163">
        <ele>253.59999084473</ele>
        <time>2017-06-07T14:31:59Z</time>
      </trkpt>
      <trkpt lat="43.42166" lon="6.05161">
        <ele>253.19999694824</ele>
        <time>2017-06-07T14:32:00Z</time>
      </trkpt>
      <trkpt lat="43.42157" lon="6.05157">
        <ele>252.39999389648</ele>
        <time>2017-06-07T14:32:02Z</time>
      </trkpt>
      <trkpt lat="43.42153" lon="6.05154">
        <ele>252.39999389648</ele>
        <time>2017-06-07T14:32:03Z</time>
      </trkpt>
      <trkpt lat="43.4215" lon="6.05151">
        <ele>252.29998779297</ele>
        <time>2017-06-07T14:32:04Z</time>
      </trkpt>
      <trkpt lat="43.42146" lon="6.05149">
        <ele>252.19999694824</ele>
        <time>2017-06-07T14:32:05Z</time>
      </trkpt>
      <trkpt lat="43.42143" lon="6.05146">
        <ele>252.19999694824</ele>
        <time>2017-06-07T14:32:06Z</time>
      </trkpt>
      <trkpt lat="43.42141" lon="6.05143">
        <ele>252.13999938965</ele>
        <time>2017-06-07T14:32:07Z</time>
      </trkpt>
      <trkpt lat="43.42139" lon="6.05141">
        <ele>252.08000183106</ele>
        <time>2017-06-07T14:32:08Z</time>
      </trkpt>
      <trkpt lat="43.42138" lon="6.05139">
        <ele>252.02000427246</ele>
        <time>2017-06-07T14:32:09Z</time>
      </trkpt>
      <trkpt lat="43.42137" lon="6.05137">
        <ele>251.96000671387</ele>
        <time>2017-06-07T14:32:10Z</time>
      </trkpt>
      <trkpt lat="43.42136" lon="6.05135">
        <ele>251.89999389648</ele>
        <time>2017-06-07T14:32:11Z</time>
      </trkpt>
      <trkpt lat="43.42136" lon="6.05133">
        <ele>251.83999633789</ele>
        <time>2017-06-07T14:32:12Z</time>
      </trkpt>
      <trkpt lat="43.42135" lon="6.05131">
        <ele>251.7799987793</ele>
        <time>2017-06-07T14:32:13Z</time>
      </trkpt>
      <trkpt lat="43.42133" lon="6.05129">
        <ele>251.7200012207</ele>
        <time>2017-06-07T14:32:14Z</time>
      </trkpt>
      <trkpt lat="43.42132" lon="6.05127">
        <ele>251.66000366211</ele>
        <time>2017-06-07T14:32:15Z</time>
      </trkpt>
      <trkpt lat="43.4213" lon="6.05126">
        <ele>251.60000610352</ele>
        <time>2017-06-07T14:32:16Z</time>
      </trkpt>
      <trkpt lat="43.42129" lon="6.05124">
        <ele>251.60000610352</ele>
        <time>2017-06-07T14:32:17Z</time>
      </trkpt>
      <trkpt lat="43.42126" lon="6.05121">
        <ele>251.39999389648</ele>
        <time>2017-06-07T14:32:19Z</time>
      </trkpt>
      <trkpt lat="43.42125" lon="6.0512">
        <ele>251.19999694824</ele>
        <time>2017-06-07T14:32:20Z</time>
      </trkpt>
      <trkpt lat="43.42123" lon="6.05119">
        <ele>251.19999694824</ele>
        <time>2017-06-07T14:32:21Z</time>
      </trkpt>
      <trkpt lat="43.42118" lon="6.05118">
        <ele>250.39999389648</ele>
        <time>2017-06-07T14:32:23Z</time>
      </trkpt>
      <trkpt lat="43.42116" lon="6.05118">
        <ele>250.39999389648</ele>
        <time>2017-06-07T14:32:24Z</time>
      </trkpt>
      <trkpt lat="43.42112" lon="6.05118">
        <ele>250</ele>
        <time>2017-06-07T14:32:26Z</time>
      </trkpt>
      <trkpt lat="43.42106" lon="6.05119">
        <ele>249.80000305176</ele>
        <time>2017-06-07T14:32:28Z</time>
      </trkpt>
      <trkpt lat="43.42103" lon="6.05119">
        <ele>249.60000610352</ele>
        <time>2017-06-07T14:32:29Z</time>
      </trkpt>
      <trkpt lat="43.42096" lon="6.05117">
        <ele>249.39999389648</ele>
        <time>2017-06-07T14:32:31Z</time>
      </trkpt>
      <trkpt lat="43.42093" lon="6.05117">
        <ele>249.39999389648</ele>
        <time>2017-06-07T14:32:32Z</time>
      </trkpt>
      <trkpt lat="43.4209" lon="6.05116">
        <ele>249.19999694824</ele>
        <time>2017-06-07T14:32:33Z</time>
      </trkpt>
      <trkpt lat="43.42086" lon="6.05116">
        <ele>249.19999694824</ele>
        <time>2017-06-07T14:32:34Z</time>
      </trkpt>
      <trkpt lat="43.4208" lon="6.05116">
        <ele>249.11999511719</ele>
        <time>2017-06-07T14:32:36Z</time>
      </trkpt>
      <trkpt lat="43.42073" lon="6.05115">
        <ele>249.03999328613</ele>
        <time>2017-06-07T14:32:38Z</time>
      </trkpt>
      <trkpt lat="43.42064" lon="6.05114">
        <ele>248.80000305176</ele>
        <time>2017-06-07T14:32:41Z</time>
      </trkpt>
      <trkpt lat="43.4206" lon="6.05114">
        <ele>248.80000305176</ele>
        <time>2017-06-07T14:32:42Z</time>
      </trkpt>
      <trkpt lat="43.42056" lon="6.05114">
        <ele>249</ele>
        <time>2017-06-07T14:32:43Z</time>
      </trkpt>
      <trkpt lat="43.42052" lon="6.05115">
        <ele>249</ele>
        <time>2017-06-07T14:32:44Z</time>
      </trkpt>
      <trkpt lat="43.42043" lon="6.05116">
        <ele>248.80000305176</ele>
        <time>2017-06-07T14:32:46Z</time>
      </trkpt>
      <trkpt lat="43.42038" lon="6.05117">
        <ele>248.60000610352</ele>
        <time>2017-06-07T14:32:47Z</time>
      </trkpt>
      <trkpt lat="43.42033" lon="6.05119">
        <ele>248.39999389648</ele>
        <time>2017-06-07T14:32:48Z</time>
      </trkpt>
      <trkpt lat="43.42022" lon="6.05122">
        <ele>248</ele>
        <time>2017-06-07T14:32:50Z</time>
      </trkpt>
      <trkpt lat="43.42017" lon="6.05123">
        <ele>247.80000305176</ele>
        <time>2017-06-07T14:32:51Z</time>
      </trkpt>
      <trkpt lat="43.42012" lon="6.05124">
        <ele>247.80000305176</ele>
        <time>2017-06-07T14:32:52Z</time>
      </trkpt>
      <trkpt lat="43.42002" lon="6.05127">
        <ele>247.03077697754</ele>
        <time>2017-06-07T14:32:54Z</time>
      </trkpt>
      <trkpt lat="43.41998" lon="6.05128">
        <ele>246.64616394043</ele>
        <time>2017-06-07T14:32:55Z</time>
      </trkpt>
      <trkpt lat="43.41993" lon="6.05129">
        <ele>246.26153564453</ele>
        <time>2017-06-07T14:32:56Z</time>
      </trkpt>
      <trkpt lat="43.41988" lon="6.0513">
        <ele>245.87692260742</ele>
        <time>2017-06-07T14:32:57Z</time>
      </trkpt>
      <trkpt lat="43.41982" lon="6.0513">
        <ele>245.49230957031</ele>
        <time>2017-06-07T14:32:58Z</time>
      </trkpt>
      <trkpt lat="43.41977" lon="6.05131">
        <ele>245.1076965332</ele>
        <time>2017-06-07T14:32:59Z</time>
      </trkpt>
      <trkpt lat="43.41971" lon="6.05132">
        <ele>244.72308349609</ele>
        <time>2017-06-07T14:33:00Z</time>
      </trkpt>
      <trkpt lat="43.41965" lon="6.05134">
        <ele>244.33847045898</ele>
        <time>2017-06-07T14:33:01Z</time>
      </trkpt>
      <trkpt lat="43.41959" lon="6.05137">
        <ele>243.95384216309</ele>
        <time>2017-06-07T14:33:02Z</time>
      </trkpt>
      <trkpt lat="43.41953" lon="6.0514">
        <ele>243.56922912598</ele>
        <time>2017-06-07T14:33:03Z</time>
      </trkpt>
      <trkpt lat="43.41948" lon="6.05143">
        <ele>243.18461608887</ele>
        <time>2017-06-07T14:33:04Z</time>
      </trkpt>
      <trkpt lat="43.41944" lon="6.05145">
        <ele>242.80000305176</ele>
        <time>2017-06-07T14:33:05Z</time>
      </trkpt>
      <trkpt lat="43.41941" lon="6.05147">
        <ele>242.80000305176</ele>
        <time>2017-06-07T14:33:06Z</time>
      </trkpt>
      <trkpt lat="43.41939" lon="6.05149">
        <ele>242.60000610352</ele>
        <time>2017-06-07T14:33:07Z</time>
      </trkpt>
      <trkpt lat="43.41937" lon="6.05151">
        <ele>242.60000610352</ele>
        <time>2017-06-07T14:33:08Z</time>
      </trkpt>
      <trkpt lat="43.41935" lon="6.05154">
        <ele>242.80000305176</ele>
        <time>2017-06-07T14:33:09Z</time>
      </trkpt>
      <trkpt lat="43.41935" lon="6.0516">
        <ele>242.89999389648</ele>
        <time>2017-06-07T14:33:11Z</time>
      </trkpt>
      <trkpt lat="43.41936" lon="6.05163">
        <ele>243</ele>
        <time>2017-06-07T14:33:12Z</time>
      </trkpt>
      <trkpt lat="43.41936" lon="6.05165">
        <ele>243.10000610352</ele>
        <time>2017-06-07T14:33:13Z</time>
      </trkpt>
      <trkpt lat="43.41936" lon="6.05167">
        <ele>243.19999694824</ele>
        <time>2017-06-07T14:33:14Z</time>
      </trkpt>
      <trkpt lat="43.41936" lon="6.05168">
        <ele>243.19999694824</ele>
        <time>2017-06-07T14:33:15Z</time>
      </trkpt>
      <trkpt lat="43.41936" lon="6.0517">
        <ele>243.4461517334</ele>
        <time>2017-06-07T14:33:16Z</time>
      </trkpt>
      <trkpt lat="43.41936" lon="6.05176">
        <ele>243.93846130371</ele>
        <time>2017-06-07T14:33:18Z</time>
      </trkpt>
      <trkpt lat="43.41936" lon="6.05179">
        <ele>244.18461608887</ele>
        <time>2017-06-07T14:33:19Z</time>
      </trkpt>
      <trkpt lat="43.41936" lon="6.05183">
        <ele>244.43077087402</ele>
        <time>2017-06-07T14:33:20Z</time>
      </trkpt>
      <trkpt lat="43.41937" lon="6.05186">
        <ele>244.67692565918</ele>
        <time>2017-06-07T14:33:21Z</time>
      </trkpt>
      <trkpt lat="43.41937" lon="6.05189">
        <ele>244.92306518555</ele>
        <time>2017-06-07T14:33:22Z</time>
      </trkpt>
      <trkpt lat="43.41938" lon="6.05198">
        <ele>245.66152954102</ele>
        <time>2017-06-07T14:33:25Z</time>
      </trkpt>
      <trkpt lat="43.41939" lon="6.05205">
        <ele>246.15383911133</ele>
        <time>2017-06-07T14:33:27Z</time>
      </trkpt>
      <trkpt lat="43.41939" lon="6.05208">
        <ele>246.39999389648</ele>
        <time>2017-06-07T14:33:28Z</time>
      </trkpt>
      <trkpt lat="43.4194" lon="6.05211">
        <ele>246.39999389648</ele>
        <time>2017-06-07T14:33:29Z</time>
      </trkpt>
      <trkpt lat="43.4194" lon="6.05214">
        <ele>246.69999694824</ele>
        <time>2017-06-07T14:33:30Z</time>
      </trkpt>
      <trkpt lat="43.4194" lon="6.05217">
        <ele>247</ele>
        <time>2017-06-07T14:33:31Z</time>
      </trkpt>
      <trkpt lat="43.4194" lon="6.0522">
        <ele>247.30000305176</ele>
        <time>2017-06-07T14:33:32Z</time>
      </trkpt>
      <trkpt lat="43.4194" lon="6.05223">
        <ele>247.60000610352</ele>
        <time>2017-06-07T14:33:33Z</time>
      </trkpt>
      <trkpt lat="43.41941" lon="6.05227">
        <ele>247.89999389648</ele>
        <time>2017-06-07T14:33:34Z</time>
      </trkpt>
      <trkpt lat="43.41943" lon="6.05239">
        <ele>248.80000305176</ele>
        <time>2017-06-07T14:33:37Z</time>
      </trkpt>
      <trkpt lat="43.41944" lon="6.05243">
        <ele>248.80000305176</ele>
        <time>2017-06-07T14:33:38Z</time>
      </trkpt>
      <trkpt lat="43.41945" lon="6.05246">
        <ele>248.86666870117</ele>
        <time>2017-06-07T14:33:39Z</time>
      </trkpt>
      <trkpt lat="43.41946" lon="6.05254">
        <ele>249</ele>
        <time>2017-06-07T14:33:41Z</time>
      </trkpt>
      <trkpt lat="43.41947" lon="6.0526">
        <ele>249.39999389648</ele>
        <time>2017-06-07T14:33:43Z</time>
      </trkpt>
      <trkpt lat="43.41948" lon="6.05262">
        <ele>249.39999389648</ele>
        <time>2017-06-07T14:33:44Z</time>
      </trkpt>
      <trkpt lat="43.41949" lon="6.05265">
        <ele>249.60000610352</ele>
        <time>2017-06-07T14:33:45Z</time>
      </trkpt>
      <trkpt lat="43.4195" lon="6.05268">
        <ele>249.60000610352</ele>
        <time>2017-06-07T14:33:46Z</time>
      </trkpt>
      <trkpt lat="43.41951" lon="6.05271">
        <ele>249.80000305176</ele>
        <time>2017-06-07T14:33:47Z</time>
      </trkpt>
      <trkpt lat="43.41952" lon="6.05275">
        <ele>250</ele>
        <time>2017-06-07T14:33:48Z</time>
      </trkpt>
      <trkpt lat="43.41953" lon="6.05278">
        <ele>250.19999694824</ele>
        <time>2017-06-07T14:33:49Z</time>
      </trkpt>
      <trkpt lat="43.41954" lon="6.05284">
        <ele>250.39999389648</ele>
        <time>2017-06-07T14:33:51Z</time>
      </trkpt>
      <trkpt lat="43.41956" lon="6.05288">
        <ele>250.60000610352</ele>
        <time>2017-06-07T14:33:52Z</time>
      </trkpt>
      <trkpt lat="43.41957" lon="6.0529">
        <ele>250.80000305176</ele>
        <time>2017-06-07T14:33:53Z</time>
      </trkpt>
      <trkpt lat="43.41959" lon="6.05294">
        <ele>250.80000305176</ele>
        <time>2017-06-07T14:33:54Z</time>
      </trkpt>
      <trkpt lat="43.4196" lon="6.05298">
        <ele>251.0333404541</ele>
        <time>2017-06-07T14:33:55Z</time>
      </trkpt>
      <trkpt lat="43.41962" lon="6.05305">
        <ele>251.5</ele>
        <time>2017-06-07T14:33:57Z</time>
      </trkpt>
      <trkpt lat="43.41963" lon="6.05308">
        <ele>251.73333740234</ele>
        <time>2017-06-07T14:33:58Z</time>
      </trkpt>
      <trkpt lat="43.41964" lon="6.05312">
        <ele>251.9666595459</ele>
        <time>2017-06-07T14:33:59Z</time>
      </trkpt>
      <trkpt lat="43.41965" lon="6.05315">
        <ele>252.19999694824</ele>
        <time>2017-06-07T14:34:00Z</time>
      </trkpt>
      <trkpt lat="43.41966" lon="6.05321">
        <ele>252.39999389648</ele>
        <time>2017-06-07T14:34:02Z</time>
      </trkpt>
      <trkpt lat="43.41967" lon="6.05325">
        <ele>252.59999084473</ele>
        <time>2017-06-07T14:34:03Z</time>
      </trkpt>
      <trkpt lat="43.41968" lon="6.05329">
        <ele>252.80000305176</ele>
        <time>2017-06-07T14:34:04Z</time>
      </trkpt>
      <trkpt lat="43.41969" lon="6.05332">
        <ele>253</ele>
        <time>2017-06-07T14:34:05Z</time>
      </trkpt>
      <trkpt lat="43.4197" lon="6.05335">
        <ele>253.19999694824</ele>
        <time>2017-06-07T14:34:06Z</time>
      </trkpt>
      <trkpt lat="43.41971" lon="6.05338">
        <ele>253.19999694824</ele>
        <time>2017-06-07T14:34:07Z</time>
      </trkpt>
      <trkpt lat="43.41971" lon="6.05342">
        <ele>253.5</ele>
        <time>2017-06-07T14:34:08Z</time>
      </trkpt>
      <trkpt lat="43.41971" lon="6.05346">
        <ele>253.80000305176</ele>
        <time>2017-06-07T14:34:09Z</time>
      </trkpt>
      <trkpt lat="43.41972" lon="6.05349">
        <ele>253.80000305176</ele>
        <time>2017-06-07T14:34:10Z</time>
      </trkpt>
      <trkpt lat="43.41972" lon="6.05353">
        <ele>254.06666564941</ele>
        <time>2017-06-07T14:34:11Z</time>
      </trkpt>
      <trkpt lat="43.41973" lon="6.05357">
        <ele>254.33334350586</ele>
        <time>2017-06-07T14:34:12Z</time>
      </trkpt>
      <trkpt lat="43.41974" lon="6.05364">
        <ele>254.60000610352</ele>
        <time>2017-06-07T14:34:14Z</time>
      </trkpt>
      <trkpt lat="43.41975" lon="6.05367">
        <ele>254.80000305176</ele>
        <time>2017-06-07T14:34:15Z</time>
      </trkpt>
      <trkpt lat="43.41976" lon="6.05371">
        <ele>254.80000305176</ele>
        <time>2017-06-07T14:34:16Z</time>
      </trkpt>
      <trkpt lat="43.41977" lon="6.05378">
        <ele>255.19999694824</ele>
        <time>2017-06-07T14:34:18Z</time>
      </trkpt>
      <trkpt lat="43.4198" lon="6.05386">
        <ele>255.39999389648</ele>
        <time>2017-06-07T14:34:20Z</time>
      </trkpt>
      <trkpt lat="43.4198" lon="6.0539">
        <ele>255.60000610352</ele>
        <time>2017-06-07T14:34:21Z</time>
      </trkpt>
      <trkpt lat="43.41981" lon="6.05394">
        <ele>255.80000305176</ele>
        <time>2017-06-07T14:34:22Z</time>
      </trkpt>
      <trkpt lat="43.41982" lon="6.05401">
        <ele>256</ele>
        <time>2017-06-07T14:34:24Z</time>
      </trkpt>
      <trkpt lat="43.41986" lon="6.0542">
        <ele>256.53332519531</ele>
        <time>2017-06-07T14:34:29Z</time>
      </trkpt>
      <trkpt lat="43.41986" lon="6.05423">
        <ele>256.66665649414</ele>
        <time>2017-06-07T14:34:30Z</time>
      </trkpt>
      <trkpt lat="43.41988" lon="6.05426">
        <ele>256.79998779297</ele>
        <time>2017-06-07T14:34:31Z</time>
      </trkpt>
      <trkpt lat="43.41989" lon="6.05433">
        <ele>256.79998779297</ele>
        <time>2017-06-07T14:34:33Z</time>
      </trkpt>
      <trkpt lat="43.4199" lon="6.05436">
        <ele>257</ele>
        <time>2017-06-07T14:34:34Z</time>
      </trkpt>
      <trkpt lat="43.41992" lon="6.05442">
        <ele>257.39999389648</ele>
        <time>2017-06-07T14:34:36Z</time>
      </trkpt>
      <trkpt lat="43.41993" lon="6.05446">
        <ele>257.60000610352</ele>
        <time>2017-06-07T14:34:37Z</time>
      </trkpt>
      <trkpt lat="43.41994" lon="6.05453">
        <ele>258</ele>
        <time>2017-06-07T14:34:39Z</time>
      </trkpt>
      <trkpt lat="43.41995" lon="6.05457">
        <ele>258</ele>
        <time>2017-06-07T14:34:40Z</time>
      </trkpt>
      <trkpt lat="43.41996" lon="6.05464">
        <ele>258.26666259766</ele>
        <time>2017-06-07T14:34:42Z</time>
      </trkpt>
      <trkpt lat="43.41997" lon="6.05467">
        <ele>258.39999389648</ele>
        <time>2017-06-07T14:34:43Z</time>
      </trkpt>
      <trkpt lat="43.41999" lon="6.05481">
        <ele>258.79998779297</ele>
        <time>2017-06-07T14:34:47Z</time>
      </trkpt>
      <trkpt lat="43.42" lon="6.05485">
        <ele>258.79998779297</ele>
        <time>2017-06-07T14:34:48Z</time>
      </trkpt>
      <trkpt lat="43.42001" lon="6.05488">
        <ele>258.79998779297</ele>
        <time>2017-06-07T14:34:49Z</time>
      </trkpt>
      <trkpt lat="43.42002" lon="6.05492">
        <ele>258.79998779297</ele>
        <time>2017-06-07T14:34:50Z</time>
      </trkpt>
      <trkpt lat="43.42002" lon="6.05497">
        <ele>258.60000610352</ele>
        <time>2017-06-07T14:34:51Z</time>
      </trkpt>
      <trkpt lat="43.42004" lon="6.05507">
        <ele>258.39999389648</ele>
        <time>2017-06-07T14:34:53Z</time>
      </trkpt>
      <trkpt lat="43.42004" lon="6.05513">
        <ele>258.15789794922</ele>
        <time>2017-06-07T14:34:54Z</time>
      </trkpt>
      <trkpt lat="43.42005" lon="6.05519">
        <ele>257.91577148438</ele>
        <time>2017-06-07T14:34:55Z</time>
      </trkpt>
      <trkpt lat="43.42006" lon="6.05525">
        <ele>257.67367553711</ele>
        <time>2017-06-07T14:34:56Z</time>
      </trkpt>
      <trkpt lat="43.42007" lon="6.05531">
        <ele>257.43157958984</ele>
        <time>2017-06-07T14:34:57Z</time>
      </trkpt>
      <trkpt lat="43.42007" lon="6.05537">
        <ele>257.18948364258</ele>
        <time>2017-06-07T14:34:58Z</time>
      </trkpt>
      <trkpt lat="43.42008" lon="6.05542">
        <ele>256.94735717773</ele>
        <time>2017-06-07T14:34:59Z</time>
      </trkpt>
      <trkpt lat="43.4201" lon="6.05554">
        <ele>256.4631652832</ele>
        <time>2017-06-07T14:35:01Z</time>
      </trkpt>
      <trkpt lat="43.42011" lon="6.0556">
        <ele>256.22103881836</ele>
        <time>2017-06-07T14:35:02Z</time>
      </trkpt>
      <trkpt lat="43.42012" lon="6.05565">
        <ele>255.97894287109</ele>
        <time>2017-06-07T14:35:03Z</time>
      </trkpt>
      <trkpt lat="43.42013" lon="6.05571">
        <ele>255.73684692383</ele>
        <time>2017-06-07T14:35:04Z</time>
      </trkpt>
      <trkpt lat="43.42014" lon="6.05575">
        <ele>255.49473571777</ele>
        <time>2017-06-07T14:35:05Z</time>
      </trkpt>
      <trkpt lat="43.42016" lon="6.05583">
        <ele>255.01052856445</ele>
        <time>2017-06-07T14:35:07Z</time>
      </trkpt>
      <trkpt lat="43.42017" lon="6.05588">
        <ele>254.7684173584</ele>
        <time>2017-06-07T14:35:08Z</time>
      </trkpt>
      <trkpt lat="43.42017" lon="6.05593">
        <ele>254.52632141113</ele>
        <time>2017-06-07T14:35:09Z</time>
      </trkpt>
      <trkpt lat="43.42019" lon="6.05606">
        <ele>253.80000305176</ele>
        <time>2017-06-07T14:35:12Z</time>
      </trkpt>
      <trkpt lat="43.4202" lon="6.0561">
        <ele>253.80000305176</ele>
        <time>2017-06-07T14:35:13Z</time>
      </trkpt>
      <trkpt lat="43.42022" lon="6.05625">
        <ele>252.80000305176</ele>
        <time>2017-06-07T14:35:16Z</time>
      </trkpt>
      <trkpt lat="43.42025" lon="6.05643">
        <ele>251.80000305176</ele>
        <time>2017-06-07T14:35:19Z</time>
      </trkpt>
      <trkpt lat="43.42029" lon="6.05662">
        <ele>250.80000305176</ele>
        <time>2017-06-07T14:35:22Z</time>
      </trkpt>
      <trkpt lat="43.4203" lon="6.05668">
        <ele>250.80000305176</ele>
        <time>2017-06-07T14:35:23Z</time>
      </trkpt>
      <trkpt lat="43.42032" lon="6.05675">
        <ele>250.47999572754</ele>
        <time>2017-06-07T14:35:24Z</time>
      </trkpt>
      <trkpt lat="43.42033" lon="6.05682">
        <ele>250.16000366211</ele>
        <time>2017-06-07T14:35:25Z</time>
      </trkpt>
      <trkpt lat="43.42034" lon="6.05689">
        <ele>249.83999633789</ele>
        <time>2017-06-07T14:35:26Z</time>
      </trkpt>
      <trkpt lat="43.42036" lon="6.05696">
        <ele>249.52000427246</ele>
        <time>2017-06-07T14:35:27Z</time>
      </trkpt>
      <trkpt lat="43.42037" lon="6.05703">
        <ele>249.19999694824</ele>
        <time>2017-06-07T14:35:28Z</time>
      </trkpt>
      <trkpt lat="43.42038" lon="6.0571">
        <ele>249.19999694824</ele>
        <time>2017-06-07T14:35:29Z</time>
      </trkpt>
      <trkpt lat="43.42039" lon="6.05716">
        <ele>249</ele>
        <time>2017-06-07T14:35:30Z</time>
      </trkpt>
      <trkpt lat="43.42041" lon="6.05722">
        <ele>249</ele>
        <time>2017-06-07T14:35:31Z</time>
      </trkpt>
      <trkpt lat="43.42044" lon="6.05739">
        <ele>249.39999389648</ele>
        <time>2017-06-07T14:35:34Z</time>
      </trkpt>
      <trkpt lat="43.42046" lon="6.0575">
        <ele>249.60000610352</ele>
        <time>2017-06-07T14:35:36Z</time>
      </trkpt>
      <trkpt lat="43.42046" lon="6.05755">
        <ele>249.80000305176</ele>
        <time>2017-06-07T14:35:37Z</time>
      </trkpt>
      <trkpt lat="43.42048" lon="6.05765">
        <ele>249.93333435059</ele>
        <time>2017-06-07T14:35:39Z</time>
      </trkpt>
      <trkpt lat="43.4205" lon="6.05774">
        <ele>250.19999694824</ele>
        <time>2017-06-07T14:35:41Z</time>
      </trkpt>
      <trkpt lat="43.42051" lon="6.05779">
        <ele>250.19999694824</ele>
        <time>2017-06-07T14:35:42Z</time>
      </trkpt>
      <trkpt lat="43.42053" lon="6.05789">
        <ele>250</ele>
        <time>2017-06-07T14:35:44Z</time>
      </trkpt>
      <trkpt lat="43.42056" lon="6.05804">
        <ele>250</ele>
        <time>2017-06-07T14:35:47Z</time>
      </trkpt>
      <trkpt lat="43.42057" lon="6.05809">
        <ele>250.19999694824</ele>
        <time>2017-06-07T14:35:48Z</time>
      </trkpt>
      <trkpt lat="43.42059" lon="6.05814">
        <ele>250.19999694824</ele>
        <time>2017-06-07T14:35:49Z</time>
      </trkpt>
      <trkpt lat="43.4206" lon="6.0582">
        <ele>250.48333740234</ele>
        <time>2017-06-07T14:35:50Z</time>
      </trkpt>
      <trkpt lat="43.42061" lon="6.05825">
        <ele>250.76666259766</ele>
        <time>2017-06-07T14:35:51Z</time>
      </trkpt>
      <trkpt lat="43.42062" lon="6.0583">
        <ele>251.05000305176</ele>
        <time>2017-06-07T14:35:52Z</time>
      </trkpt>
      <trkpt lat="43.42064" lon="6.05839">
        <ele>251.61666870117</ele>
        <time>2017-06-07T14:35:54Z</time>
      </trkpt>
      <trkpt lat="43.42065" lon="6.05843">
        <ele>251.89999389648</ele>
        <time>2017-06-07T14:35:55Z</time>
      </trkpt>
      <trkpt lat="43.42065" lon="6.05847">
        <ele>252.18333435059</ele>
        <time>2017-06-07T14:35:56Z</time>
      </trkpt>
      <trkpt lat="43.42066" lon="6.05851">
        <ele>252.46667480469</ele>
        <time>2017-06-07T14:35:57Z</time>
      </trkpt>
      <trkpt lat="43.42067" lon="6.05855">
        <ele>252.75</ele>
        <time>2017-06-07T14:35:58Z</time>
      </trkpt>
      <trkpt lat="43.42068" lon="6.05858">
        <ele>253.0333404541</ele>
        <time>2017-06-07T14:35:59Z</time>
      </trkpt>
      <trkpt lat="43.42072" lon="6.05871">
        <ele>253.60000610352</ele>
        <time>2017-06-07T14:36:02Z</time>
      </trkpt>
      <trkpt lat="43.42073" lon="6.05875">
        <ele>253.60000610352</ele>
        <time>2017-06-07T14:36:03Z</time>
      </trkpt>
      <trkpt lat="43.42074" lon="6.0588">
        <ele>253.60000610352</ele>
        <time>2017-06-07T14:36:04Z</time>
      </trkpt>
      <trkpt lat="43.42075" lon="6.05885">
        <ele>253.39999389648</ele>
        <time>2017-06-07T14:36:05Z</time>
      </trkpt>
      <trkpt lat="43.42076" lon="6.05889">
        <ele>253.39999389648</ele>
        <time>2017-06-07T14:36:06Z</time>
      </trkpt>
      <trkpt lat="43.42077" lon="6.05897">
        <ele>253.60000610352</ele>
        <time>2017-06-07T14:36:08Z</time>
      </trkpt>
      <trkpt lat="43.42078" lon="6.05902">
        <ele>253.76667785644</ele>
        <time>2017-06-07T14:36:09Z</time>
      </trkpt>
      <trkpt lat="43.4208" lon="6.05906">
        <ele>253.93333435059</ele>
        <time>2017-06-07T14:36:10Z</time>
      </trkpt>
      <trkpt lat="43.42082" lon="6.05914">
        <ele>254.26667785644</ele>
        <time>2017-06-07T14:36:12Z</time>
      </trkpt>
      <trkpt lat="43.42083" lon="6.05918">
        <ele>254.43333435059</ele>
        <time>2017-06-07T14:36:13Z</time>
      </trkpt>
      <trkpt lat="43.42086" lon="6.05931">
        <ele>254.70001220703</ele>
        <time>2017-06-07T14:36:16Z</time>
      </trkpt>
      <trkpt lat="43.42089" lon="6.05941">
        <ele>254.80000305176</ele>
        <time>2017-06-07T14:36:18Z</time>
      </trkpt>
      <trkpt lat="43.42091" lon="6.0595">
        <ele>254.60000610352</ele>
        <time>2017-06-07T14:36:20Z</time>
      </trkpt>
      <trkpt lat="43.42093" lon="6.05959">
        <ele>254.39999389648</ele>
        <time>2017-06-07T14:36:22Z</time>
      </trkpt>
      <trkpt lat="43.42095" lon="6.05964">
        <ele>254.39999389648</ele>
        <time>2017-06-07T14:36:23Z</time>
      </trkpt>
      <trkpt lat="43.42096" lon="6.05968">
        <ele>254.34999084473</ele>
        <time>2017-06-07T14:36:24Z</time>
      </trkpt>
      <trkpt lat="43.42097" lon="6.05973">
        <ele>254.29998779297</ele>
        <time>2017-06-07T14:36:25Z</time>
      </trkpt>
      <trkpt lat="43.42098" lon="6.05978">
        <ele>254.25</ele>
        <time>2017-06-07T14:36:26Z</time>
      </trkpt>
      <trkpt lat="43.421" lon="6.05987">
        <ele>254.19999694824</ele>
        <time>2017-06-07T14:36:28Z</time>
      </trkpt>
      <trkpt lat="43.42102" lon="6.05996">
        <ele>254.80000305176</ele>
        <time>2017-06-07T14:36:30Z</time>
      </trkpt>
      <trkpt lat="43.42104" lon="6.06001">
        <ele>255.19999694824</ele>
        <time>2017-06-07T14:36:31Z</time>
      </trkpt>
      <trkpt lat="43.42105" lon="6.06006">
        <ele>255.60000610352</ele>
        <time>2017-06-07T14:36:32Z</time>
      </trkpt>
      <trkpt lat="43.42107" lon="6.06015">
        <ele>256</ele>
        <time>2017-06-07T14:36:34Z</time>
      </trkpt>
      <trkpt lat="43.42108" lon="6.0602">
        <ele>256</ele>
        <time>2017-06-07T14:36:35Z</time>
      </trkpt>
      <trkpt lat="43.42109" lon="6.06025">
        <ele>255.80000305176</ele>
        <time>2017-06-07T14:36:36Z</time>
      </trkpt>
      <trkpt lat="43.4211" lon="6.0603">
        <ele>255.80000305176</ele>
        <time>2017-06-07T14:36:37Z</time>
      </trkpt>
      <trkpt lat="43.42111" lon="6.06036">
        <ele>255.60000610352</ele>
        <time>2017-06-07T14:36:38Z</time>
      </trkpt>
      <trkpt lat="43.42112" lon="6.06042">
        <ele>255.39999389648</ele>
        <time>2017-06-07T14:36:39Z</time>
      </trkpt>
      <trkpt lat="43.42113" lon="6.06048">
        <ele>255.19999694824</ele>
        <time>2017-06-07T14:36:40Z</time>
      </trkpt>
      <trkpt lat="43.42114" lon="6.06054">
        <ele>255.19999694824</ele>
        <time>2017-06-07T14:36:41Z</time>
      </trkpt>
      <trkpt lat="43.42115" lon="6.06061">
        <ele>255</ele>
        <time>2017-06-07T14:36:42Z</time>
      </trkpt>
      <trkpt lat="43.42117" lon="6.06068">
        <ele>254.80000305176</ele>
        <time>2017-06-07T14:36:43Z</time>
      </trkpt>
      <trkpt lat="43.42118" lon="6.06075">
        <ele>254.80000305176</ele>
        <time>2017-06-07T14:36:44Z</time>
      </trkpt>
      <trkpt lat="43.42119" lon="6.06084">
        <ele>254.32000732422</ele>
        <time>2017-06-07T14:36:45Z</time>
      </trkpt>
      <trkpt lat="43.4212" lon="6.06093">
        <ele>253.83999633789</ele>
        <time>2017-06-07T14:36:46Z</time>
      </trkpt>
      <trkpt lat="43.42122" lon="6.06103">
        <ele>253.36000061035</ele>
        <time>2017-06-07T14:36:47Z</time>
      </trkpt>
      <trkpt lat="43.42123" lon="6.06113">
        <ele>252.88000488281</ele>
        <time>2017-06-07T14:36:48Z</time>
      </trkpt>
      <trkpt lat="43.42125" lon="6.06123">
        <ele>252.39999389648</ele>
        <time>2017-06-07T14:36:49Z</time>
      </trkpt>
      <trkpt lat="43.42128" lon="6.06133">
        <ele>251.91999816894</ele>
        <time>2017-06-07T14:36:50Z</time>
      </trkpt>
      <trkpt lat="43.42131" lon="6.06142">
        <ele>251.44000244141</ele>
        <time>2017-06-07T14:36:51Z</time>
      </trkpt>
      <trkpt lat="43.42133" lon="6.0615">
        <ele>250.96000671387</ele>
        <time>2017-06-07T14:36:52Z</time>
      </trkpt>
      <trkpt lat="43.42136" lon="6.06159">
        <ele>250.47999572754</ele>
        <time>2017-06-07T14:36:53Z</time>
      </trkpt>
      <trkpt lat="43.42138" lon="6.06166">
        <ele>250</ele>
        <time>2017-06-07T14:36:54Z</time>
      </trkpt>
      <trkpt lat="43.4214" lon="6.06172">
        <ele>250</ele>
        <time>2017-06-07T14:36:55Z</time>
      </trkpt>
      <trkpt lat="43.42144" lon="6.06183">
        <ele>250.39999389648</ele>
        <time>2017-06-07T14:36:57Z</time>
      </trkpt>
      <trkpt lat="43.42145" lon="6.06187">
        <ele>251</ele>
        <time>2017-06-07T14:36:58Z</time>
      </trkpt>
      <trkpt lat="43.42146" lon="6.06191">
        <ele>251.39999389648</ele>
        <time>2017-06-07T14:36:59Z</time>
      </trkpt>
      <trkpt lat="43.42147" lon="6.06195">
        <ele>251.80000305176</ele>
        <time>2017-06-07T14:37:00Z</time>
      </trkpt>
      <trkpt lat="43.42147" lon="6.06199">
        <ele>252.19999694824</ele>
        <time>2017-06-07T14:37:01Z</time>
      </trkpt>
      <trkpt lat="43.42147" lon="6.06203">
        <ele>252.60000610352</ele>
        <time>2017-06-07T14:37:02Z</time>
      </trkpt>
      <trkpt lat="43.42147" lon="6.06207">
        <ele>252.80000305176</ele>
        <time>2017-06-07T14:37:03Z</time>
      </trkpt>
      <trkpt lat="43.42146" lon="6.0621">
        <ele>253</ele>
        <time>2017-06-07T14:37:04Z</time>
      </trkpt>
      <trkpt lat="43.42144" lon="6.06213">
        <ele>253</ele>
        <time>2017-06-07T14:37:05Z</time>
      </trkpt>
      <trkpt lat="43.42142" lon="6.06215">
        <ele>253</ele>
        <time>2017-06-07T14:37:06Z</time>
      </trkpt>
      <trkpt lat="43.42139" lon="6.06217">
        <ele>252.80000305176</ele>
        <time>2017-06-07T14:37:07Z</time>
      </trkpt>
      <trkpt lat="43.42137" lon="6.06218">
        <ele>252.60000610352</ele>
        <time>2017-06-07T14:37:08Z</time>
      </trkpt>
      <trkpt lat="43.42134" lon="6.06219">
        <ele>252.60000610352</ele>
        <time>2017-06-07T14:37:09Z</time>
      </trkpt>
      <trkpt lat="43.42132" lon="6.0622">
        <ele>252.40000915527</ele>
        <time>2017-06-07T14:37:10Z</time>
      </trkpt>
      <trkpt lat="43.4213" lon="6.06221">
        <ele>252.20001220703</ele>
        <time>2017-06-07T14:37:11Z</time>
      </trkpt>
      <trkpt lat="43.42128" lon="6.06222">
        <ele>252</ele>
        <time>2017-06-07T14:37:12Z</time>
      </trkpt>
      <trkpt lat="43.42126" lon="6.06222">
        <ele>251.80000305176</ele>
        <time>2017-06-07T14:37:13Z</time>
      </trkpt>
      <trkpt lat="43.42125" lon="6.06223">
        <ele>251.80000305176</ele>
        <time>2017-06-07T14:37:14Z</time>
      </trkpt>
      <trkpt lat="43.42125" lon="6.06223">
        <ele>251.60000610352</ele>
        <time>2017-06-07T14:37:15Z</time>
      </trkpt>
      <trkpt lat="43.42125" lon="6.06223">
        <ele>251.52500915527</ele>
        <time>2017-06-07T14:37:17Z</time>
      </trkpt>
      <trkpt lat="43.42125" lon="6.06223">
        <ele>251.45001220703</ele>
        <time>2017-06-07T14:37:18Z</time>
      </trkpt>
      <trkpt lat="43.42125" lon="6.06223">
        <ele>251.375</ele>
        <time>2017-06-07T14:37:19Z</time>
      </trkpt>
      <trkpt lat="43.42125" lon="6.06223">
        <ele>251.30000305176</ele>
        <time>2017-06-07T14:37:20Z</time>
      </trkpt>
      <trkpt lat="43.42125" lon="6.06223">
        <ele>251</ele>
        <time>2017-06-07T14:37:26Z</time>
      </trkpt>
      <trkpt lat="43.42125" lon="6.06223">
        <ele>251.54284667969</ele>
        <time>2017-06-07T14:37:35Z</time>
      </trkpt>
      <trkpt lat="43.42125" lon="6.06223">
        <ele>252.39999389648</ele>
        <time>2017-06-07T14:37:41Z</time>
      </trkpt>
      <trkpt lat="43.42125" lon="6.06223">
        <ele>252.39999389648</ele>
        <time>2017-06-07T14:37:42Z</time>
      </trkpt>
      <trkpt lat="43.42125" lon="6.06223">
        <ele>252.60000610352</ele>
        <time>2017-06-07T14:37:44Z</time>
      </trkpt>
      <trkpt lat="43.42124" lon="6.06224">
        <ele>252.60000610352</ele>
        <time>2017-06-07T14:37:45Z</time>
      </trkpt>
      <trkpt lat="43.42123" lon="6.06224">
        <ele>252.39999389648</ele>
        <time>2017-06-07T14:37:48Z</time>
      </trkpt>
      <trkpt lat="43.42123" lon="6.06224">
        <ele>252.39999389648</ele>
        <time>2017-06-07T14:37:49Z</time>
      </trkpt>
      <trkpt lat="43.42123" lon="6.06224">
        <ele>252.19999694824</ele>
        <time>2017-06-07T14:37:50Z</time>
      </trkpt>
      <trkpt lat="43.42123" lon="6.06224">
        <ele>252.10000610352</ele>
        <time>2017-06-07T14:37:52Z</time>
      </trkpt>
      <trkpt lat="43.42123" lon="6.06224">
        <ele>252</ele>
        <time>2017-06-07T14:37:53Z</time>
      </trkpt>
      <trkpt lat="43.42123" lon="6.06224">
        <ele>252</ele>
        <time>2017-06-07T14:37:54Z</time>
      </trkpt>
      <trkpt lat="43.42123" lon="6.06224">
        <ele>251.89999389648</ele>
        <time>2017-06-07T14:37:55Z</time>
      </trkpt>
      <trkpt lat="43.42123" lon="6.06224">
        <ele>251.80000305176</ele>
        <time>2017-06-07T14:37:57Z</time>
      </trkpt>
      <trkpt lat="43.42123" lon="6.06224">
        <ele>251.70001220703</ele>
        <time>2017-06-07T14:37:59Z</time>
      </trkpt>
      <trkpt lat="43.42123" lon="6.06224">
        <ele>251.65000915527</ele>
        <time>2017-06-07T14:38:00Z</time>
      </trkpt>
      <trkpt lat="43.4212" lon="6.06225">
        <ele>251.5333404541</ele>
        <time>2017-06-07T14:38:04Z</time>
      </trkpt>
      <trkpt lat="43.4212" lon="6.06225">
        <ele>251.5</ele>
        <time>2017-06-07T14:38:05Z</time>
      </trkpt>
      <trkpt lat="43.4212" lon="6.06225">
        <ele>251.4666595459</ele>
        <time>2017-06-07T14:38:06Z</time>
      </trkpt>
      <trkpt lat="43.42119" lon="6.06225">
        <ele>251.43333435059</ele>
        <time>2017-06-07T14:38:07Z</time>
      </trkpt>
      <trkpt lat="43.42117" lon="6.06225">
        <ele>251.39999389648</ele>
        <time>2017-06-07T14:38:08Z</time>
      </trkpt>
      <trkpt lat="43.42115" lon="6.06226">
        <ele>251.39999389648</ele>
        <time>2017-06-07T14:38:09Z</time>
      </trkpt>
      <trkpt lat="43.42111" lon="6.06226">
        <ele>250.67999267578</ele>
        <time>2017-06-07T14:38:10Z</time>
      </trkpt>
      <trkpt lat="43.42107" lon="6.06227">
        <ele>249.95999145508</ele>
        <time>2017-06-07T14:38:11Z</time>
      </trkpt>
      <trkpt lat="43.42103" lon="6.06228">
        <ele>249.23999023438</ele>
        <time>2017-06-07T14:38:12Z</time>
      </trkpt>
      <trkpt lat="43.42098" lon="6.0623">
        <ele>248.51998901367</ele>
        <time>2017-06-07T14:38:13Z</time>
      </trkpt>
      <trkpt lat="43.42093" lon="6.06232">
        <ele>247.79998779297</ele>
        <time>2017-06-07T14:38:14Z</time>
      </trkpt>
      <trkpt lat="43.42088" lon="6.06233">
        <ele>247.07998657227</ele>
        <time>2017-06-07T14:38:15Z</time>
      </trkpt>
      <trkpt lat="43.42083" lon="6.06235">
        <ele>246.36000061035</ele>
        <time>2017-06-07T14:38:16Z</time>
      </trkpt>
      <trkpt lat="43.42078" lon="6.06237">
        <ele>245.63999938965</ele>
        <time>2017-06-07T14:38:17Z</time>
      </trkpt>
      <trkpt lat="43.42074" lon="6.06238">
        <ele>244.91999816894</ele>
        <time>2017-06-07T14:38:18Z</time>
      </trkpt>
      <trkpt lat="43.42069" lon="6.0624">
        <ele>244.19999694824</ele>
        <time>2017-06-07T14:38:19Z</time>
      </trkpt>
      <trkpt lat="43.42065" lon="6.06242">
        <ele>243.47999572754</ele>
        <time>2017-06-07T14:38:20Z</time>
      </trkpt>
      <trkpt lat="43.42059" lon="6.06243">
        <ele>242.75999450684</ele>
        <time>2017-06-07T14:38:21Z</time>
      </trkpt>
      <trkpt lat="43.42047" lon="6.06247">
        <ele>241.31999206543</ele>
        <time>2017-06-07T14:38:23Z</time>
      </trkpt>
      <trkpt lat="43.4204" lon="6.06249">
        <ele>240.59999084473</ele>
        <time>2017-06-07T14:38:24Z</time>
      </trkpt>
      <trkpt lat="43.42033" lon="6.06252">
        <ele>239.87998962402</ele>
        <time>2017-06-07T14:38:25Z</time>
      </trkpt>
      <trkpt lat="43.42025" lon="6.06254">
        <ele>239.15998840332</ele>
        <time>2017-06-07T14:38:26Z</time>
      </trkpt>
      <trkpt lat="43.42017" lon="6.06257">
        <ele>238.43998718262</ele>
        <time>2017-06-07T14:38:27Z</time>
      </trkpt>
      <trkpt lat="43.42009" lon="6.0626">
        <ele>237.7200012207</ele>
        <time>2017-06-07T14:38:28Z</time>
      </trkpt>
      <trkpt lat="43.42" lon="6.06262">
        <ele>237</ele>
        <time>2017-06-07T14:38:29Z</time>
      </trkpt>
      <trkpt lat="43.41992" lon="6.06265">
        <ele>236.2799987793</ele>
        <time>2017-06-07T14:38:30Z</time>
      </trkpt>
      <trkpt lat="43.41984" lon="6.06268">
        <ele>235.55999755859</ele>
        <time>2017-06-07T14:38:31Z</time>
      </trkpt>
      <trkpt lat="43.41975" lon="6.06271">
        <ele>234.83999633789</ele>
        <time>2017-06-07T14:38:32Z</time>
      </trkpt>
      <trkpt lat="43.41967" lon="6.06274">
        <ele>234.11999511719</ele>
        <time>2017-06-07T14:38:33Z</time>
      </trkpt>
      <trkpt lat="43.41945" lon="6.06281">
        <ele>232.8908996582</ele>
        <time>2017-06-07T14:38:36Z</time>
      </trkpt>
      <trkpt lat="43.41938" lon="6.06282">
        <ele>232.38180541992</ele>
        <time>2017-06-07T14:38:37Z</time>
      </trkpt>
      <trkpt lat="43.4193" lon="6.06284">
        <ele>231.87272644043</ele>
        <time>2017-06-07T14:38:38Z</time>
      </trkpt>
      <trkpt lat="43.41924" lon="6.06286">
        <ele>231.36363220215</ele>
        <time>2017-06-07T14:38:39Z</time>
      </trkpt>
      <trkpt lat="43.41908" lon="6.06289">
        <ele>230.34544372559</ele>
        <time>2017-06-07T14:38:41Z</time>
      </trkpt>
      <trkpt lat="43.41892" lon="6.0629">
        <ele>229.32727050781</ele>
        <time>2017-06-07T14:38:43Z</time>
      </trkpt>
      <trkpt lat="43.41883" lon="6.0629">
        <ele>228.81817626953</ele>
        <time>2017-06-07T14:38:44Z</time>
      </trkpt>
      <trkpt lat="43.41874" lon="6.0629">
        <ele>228.30908203125</ele>
        <time>2017-06-07T14:38:45Z</time>
      </trkpt>
      <trkpt lat="43.41865" lon="6.06289">
        <ele>227.79998779297</ele>
        <time>2017-06-07T14:38:46Z</time>
      </trkpt>
      <trkpt lat="43.41856" lon="6.06289">
        <ele>227.29090881348</ele>
        <time>2017-06-07T14:38:47Z</time>
      </trkpt>
      <trkpt lat="43.41846" lon="6.06288">
        <ele>226.78181457519</ele>
        <time>2017-06-07T14:38:48Z</time>
      </trkpt>
      <trkpt lat="43.41837" lon="6.06288">
        <ele>226.27272033691</ele>
        <time>2017-06-07T14:38:49Z</time>
      </trkpt>
      <trkpt lat="43.41829" lon="6.06288">
        <ele>225.76362609863</ele>
        <time>2017-06-07T14:38:50Z</time>
      </trkpt>
      <trkpt lat="43.4182" lon="6.06287">
        <ele>225.25454711914</ele>
        <time>2017-06-07T14:38:51Z</time>
      </trkpt>
      <trkpt lat="43.41813" lon="6.06286">
        <ele>224.74545288086</ele>
        <time>2017-06-07T14:38:52Z</time>
      </trkpt>
      <trkpt lat="43.41805" lon="6.06283">
        <ele>224.23635864258</ele>
        <time>2017-06-07T14:38:53Z</time>
      </trkpt>
      <trkpt lat="43.41798" lon="6.06279">
        <ele>223.7272644043</ele>
        <time>2017-06-07T14:38:54Z</time>
      </trkpt>
      <trkpt lat="43.41792" lon="6.06274">
        <ele>223.21818542481</ele>
        <time>2017-06-07T14:38:55Z</time>
      </trkpt>
      <trkpt lat="43.41786" lon="6.06269">
        <ele>222.70909118652</ele>
        <time>2017-06-07T14:38:56Z</time>
      </trkpt>
      <trkpt lat="43.41773" lon="6.06259">
        <ele>222.19999694824</ele>
        <time>2017-06-07T14:38:58Z</time>
      </trkpt>
      <trkpt lat="43.41766" lon="6.06255">
        <ele>221.82856750488</ele>
        <time>2017-06-07T14:38:59Z</time>
      </trkpt>
      <trkpt lat="43.41758" lon="6.06252">
        <ele>221.45713806152</ele>
        <time>2017-06-07T14:39:00Z</time>
      </trkpt>
      <trkpt lat="43.41744" lon="6.06248">
        <ele>220.71429443359</ele>
        <time>2017-06-07T14:39:02Z</time>
      </trkpt>
      <trkpt lat="43.41736" lon="6.06246">
        <ele>220.34286499023</ele>
        <time>2017-06-07T14:39:03Z</time>
      </trkpt>
      <trkpt lat="43.41729" lon="6.06246">
        <ele>219.97143554688</ele>
        <time>2017-06-07T14:39:04Z</time>
      </trkpt>
      <trkpt lat="43.41721" lon="6.06246">
        <ele>219.60000610352</ele>
        <time>2017-06-07T14:39:05Z</time>
      </trkpt>
      <trkpt lat="43.41705" lon="6.06246">
        <ele>219.5333404541</ele>
        <time>2017-06-07T14:39:07Z</time>
      </trkpt>
      <trkpt lat="43.41698" lon="6.06246">
        <ele>219.4666595459</ele>
        <time>2017-06-07T14:39:08Z</time>
      </trkpt>
      <trkpt lat="43.41691" lon="6.06247">
        <ele>219.39999389648</ele>
        <time>2017-06-07T14:39:09Z</time>
      </trkpt>
      <trkpt lat="43.41677" lon="6.06246">
        <ele>219.19999694824</ele>
        <time>2017-06-07T14:39:11Z</time>
      </trkpt>
      <trkpt lat="43.4167" lon="6.06245">
        <ele>219</ele>
        <time>2017-06-07T14:39:12Z</time>
      </trkpt>
      <trkpt lat="43.41658" lon="6.06241">
        <ele>218.60000610352</ele>
        <time>2017-06-07T14:39:14Z</time>
      </trkpt>
      <trkpt lat="43.41652" lon="6.06239">
        <ele>218.60000610352</ele>
        <time>2017-06-07T14:39:15Z</time>
      </trkpt>
      <trkpt lat="43.41646" lon="6.06237">
        <ele>218.80000305176</ele>
        <time>2017-06-07T14:39:16Z</time>
      </trkpt>
      <trkpt lat="43.4164" lon="6.06234">
        <ele>218.80000305176</ele>
        <time>2017-06-07T14:39:17Z</time>
      </trkpt>
      <trkpt lat="43.41635" lon="6.06232">
        <ele>218.60000610352</ele>
        <time>2017-06-07T14:39:18Z</time>
      </trkpt>
      <trkpt lat="43.41631" lon="6.0623">
        <ele>218.39999389648</ele>
        <time>2017-06-07T14:39:19Z</time>
      </trkpt>
      <trkpt lat="43.41627" lon="6.06229">
        <ele>218.39999389648</ele>
        <time>2017-06-07T14:39:20Z</time>
      </trkpt>
      <trkpt lat="43.41624" lon="6.06228">
        <ele>218.39999389648</ele>
        <time>2017-06-07T14:39:21Z</time>
      </trkpt>
      <trkpt lat="43.41622" lon="6.06228">
        <ele>218.39999389648</ele>
        <time>2017-06-07T14:39:22Z</time>
      </trkpt>
      <trkpt lat="43.41621" lon="6.06229">
        <ele>218.39999389648</ele>
        <time>2017-06-07T14:39:23Z</time>
      </trkpt>
      <trkpt lat="43.41618" lon="6.06229">
        <ele>218.39999389648</ele>
        <time>2017-06-07T14:39:24Z</time>
      </trkpt>
      <trkpt lat="43.41616" lon="6.06229">
        <ele>218.60000610352</ele>
        <time>2017-06-07T14:39:25Z</time>
      </trkpt>
      <trkpt lat="43.41613" lon="6.0623">
        <ele>218.60000610352</ele>
        <time>2017-06-07T14:39:26Z</time>
      </trkpt>
      <trkpt lat="43.41611" lon="6.0623">
        <ele>218.60000610352</ele>
        <time>2017-06-07T14:39:27Z</time>
      </trkpt>
      <trkpt lat="43.41608" lon="6.0623">
        <ele>218.39999389648</ele>
        <time>2017-06-07T14:39:28Z</time>
      </trkpt>
      <trkpt lat="43.41608" lon="6.0623">
        <ele>218.19999694824</ele>
        <time>2017-06-07T14:39:29Z</time>
      </trkpt>
      <trkpt lat="43.41607" lon="6.0623">
        <ele>218</ele>
        <time>2017-06-07T14:39:30Z</time>
      </trkpt>
      <trkpt lat="43.41607" lon="6.0623">
        <ele>217.80000305176</ele>
        <time>2017-06-07T14:39:31Z</time>
      </trkpt>
      <trkpt lat="43.41607" lon="6.0623">
        <ele>217.80000305176</ele>
        <time>2017-06-07T14:39:32Z</time>
      </trkpt>
      <trkpt lat="43.41607" lon="6.0623">
        <ele>217.76000976562</ele>
        <time>2017-06-07T14:39:33Z</time>
      </trkpt>
      <trkpt lat="43.41607" lon="6.0623">
        <ele>217.7200012207</ele>
        <time>2017-06-07T14:39:34Z</time>
      </trkpt>
      <trkpt lat="43.41607" lon="6.0623">
        <ele>217.68000793457</ele>
        <time>2017-06-07T14:39:35Z</time>
      </trkpt>
      <trkpt lat="43.41607" lon="6.0623">
        <ele>217.60000610352</ele>
        <time>2017-06-07T14:39:37Z</time>
      </trkpt>
      <trkpt lat="43.41607" lon="6.0623">
        <ele>217.60000610352</ele>
        <time>2017-06-07T14:39:39Z</time>
      </trkpt>
      <trkpt lat="43.41607" lon="6.06231">
        <ele>217.5333404541</ele>
        <time>2017-06-07T14:39:40Z</time>
      </trkpt>
      <trkpt lat="43.41606" lon="6.06231">
        <ele>217.4666595459</ele>
        <time>2017-06-07T14:39:41Z</time>
      </trkpt>
      <trkpt lat="43.41605" lon="6.06232">
        <ele>217.39999389648</ele>
        <time>2017-06-07T14:39:42Z</time>
      </trkpt>
      <trkpt lat="43.41605" lon="6.06234">
        <ele>217.39999389648</ele>
        <time>2017-06-07T14:39:43Z</time>
      </trkpt>
      <trkpt lat="43.41604" lon="6.06236">
        <ele>217.29998779297</ele>
        <time>2017-06-07T14:39:44Z</time>
      </trkpt>
      <trkpt lat="43.41603" lon="6.06238">
        <ele>217.19999694824</ele>
        <time>2017-06-07T14:39:45Z</time>
      </trkpt>
      <trkpt lat="43.41603" lon="6.06241">
        <ele>217.19999694824</ele>
        <time>2017-06-07T14:39:46Z</time>
      </trkpt>
      <trkpt lat="43.41602" lon="6.06243">
        <ele>217.39999389648</ele>
        <time>2017-06-07T14:39:47Z</time>
      </trkpt>
      <trkpt lat="43.41602" lon="6.06246">
        <ele>217.39999389648</ele>
        <time>2017-06-07T14:39:48Z</time>
      </trkpt>
      <trkpt lat="43.41602" lon="6.06252">
        <ele>217.39999389648</ele>
        <time>2017-06-07T14:39:50Z</time>
      </trkpt>
      <trkpt lat="43.41601" lon="6.06254">
        <ele>217.39999389648</ele>
        <time>2017-06-07T14:39:51Z</time>
      </trkpt>
      <trkpt lat="43.41599" lon="6.06255">
        <ele>217.39999389648</ele>
        <time>2017-06-07T14:39:52Z</time>
      </trkpt>
      <trkpt lat="43.41598" lon="6.06256">
        <ele>217.39999389648</ele>
        <time>2017-06-07T14:39:53Z</time>
      </trkpt>
      <trkpt lat="43.41595" lon="6.06258">
        <ele>217.39999389648</ele>
        <time>2017-06-07T14:39:54Z</time>
      </trkpt>
      <trkpt lat="43.41593" lon="6.0626">
        <ele>217.19999694824</ele>
        <time>2017-06-07T14:39:55Z</time>
      </trkpt>
      <trkpt lat="43.41591" lon="6.06263">
        <ele>217</ele>
        <time>2017-06-07T14:39:56Z</time>
      </trkpt>
      <trkpt lat="43.41588" lon="6.06267">
        <ele>216.80000305176</ele>
        <time>2017-06-07T14:39:57Z</time>
      </trkpt>
      <trkpt lat="43.41587" lon="6.06271">
        <ele>216.80000305176</ele>
        <time>2017-06-07T14:39:58Z</time>
      </trkpt>
      <trkpt lat="43.41587" lon="6.06277">
        <ele>216.60000610352</ele>
        <time>2017-06-07T14:39:59Z</time>
      </trkpt>
      <trkpt lat="43.41586" lon="6.06283">
        <ele>216.39999389648</ele>
        <time>2017-06-07T14:40:00Z</time>
      </trkpt>
      <trkpt lat="43.41586" lon="6.06297">
        <ele>216.19999694824</ele>
        <time>2017-06-07T14:40:02Z</time>
      </trkpt>
      <trkpt lat="43.41585" lon="6.06304">
        <ele>215.84284973144</ele>
        <time>2017-06-07T14:40:03Z</time>
      </trkpt>
      <trkpt lat="43.41583" lon="6.06311">
        <ele>215.48571777344</ele>
        <time>2017-06-07T14:40:04Z</time>
      </trkpt>
      <trkpt lat="43.41576" lon="6.06325">
        <ele>214.77142333984</ele>
        <time>2017-06-07T14:40:06Z</time>
      </trkpt>
      <trkpt lat="43.41572" lon="6.06331">
        <ele>214.41427612305</ele>
        <time>2017-06-07T14:40:07Z</time>
      </trkpt>
      <trkpt lat="43.41567" lon="6.06338">
        <ele>214.05714416504</ele>
        <time>2017-06-07T14:40:08Z</time>
      </trkpt>
      <trkpt lat="43.41563" lon="6.06346">
        <ele>213.69999694824</ele>
        <time>2017-06-07T14:40:09Z</time>
      </trkpt>
      <trkpt lat="43.4156" lon="6.06355">
        <ele>213.34284973144</ele>
        <time>2017-06-07T14:40:10Z</time>
      </trkpt>
      <trkpt lat="43.41557" lon="6.06363">
        <ele>212.98571777344</ele>
        <time>2017-06-07T14:40:11Z</time>
      </trkpt>
      <trkpt lat="43.41554" lon="6.06379">
        <ele>212.27142333984</ele>
        <time>2017-06-07T14:40:13Z</time>
      </trkpt>
      <trkpt lat="43.41553" lon="6.06386">
        <ele>211.91427612305</ele>
        <time>2017-06-07T14:40:14Z</time>
      </trkpt>
      <trkpt lat="43.41552" lon="6.06393">
        <ele>211.55714416504</ele>
        <time>2017-06-07T14:40:15Z</time>
      </trkpt>
      <trkpt lat="43.4155" lon="6.06401">
        <ele>211.19999694824</ele>
        <time>2017-06-07T14:40:16Z</time>
      </trkpt>
      <trkpt lat="43.41549" lon="6.06408">
        <ele>211.19999694824</ele>
        <time>2017-06-07T14:40:17Z</time>
      </trkpt>
      <trkpt lat="43.41547" lon="6.06416">
        <ele>210.93333435059</ele>
        <time>2017-06-07T14:40:18Z</time>
      </trkpt>
      <trkpt lat="43.41546" lon="6.06424">
        <ele>210.66667175293</ele>
        <time>2017-06-07T14:40:19Z</time>
      </trkpt>
      <trkpt lat="43.41545" lon="6.06432">
        <ele>210.39999389648</ele>
        <time>2017-06-07T14:40:20Z</time>
      </trkpt>
      <trkpt lat="43.41544" lon="6.06439">
        <ele>210.13333129883</ele>
        <time>2017-06-07T14:40:21Z</time>
      </trkpt>
      <trkpt lat="43.41544" lon="6.06446">
        <ele>209.86666870117</ele>
        <time>2017-06-07T14:40:22Z</time>
      </trkpt>
      <trkpt lat="43.41544" lon="6.06453">
        <ele>209.60000610352</ele>
        <time>2017-06-07T14:40:23Z</time>
      </trkpt>
      <trkpt lat="43.41545" lon="6.0646">
        <ele>209.33332824707</ele>
        <time>2017-06-07T14:40:24Z</time>
      </trkpt>
      <trkpt lat="43.41545" lon="6.06466">
        <ele>209.06666564941</ele>
        <time>2017-06-07T14:40:25Z</time>
      </trkpt>
      <trkpt lat="43.41545" lon="6.06472">
        <ele>208.80000305176</ele>
        <time>2017-06-07T14:40:26Z</time>
      </trkpt>
      <trkpt lat="43.41544" lon="6.06477">
        <ele>208.80000305176</ele>
        <time>2017-06-07T14:40:27Z</time>
      </trkpt>
      <trkpt lat="43.41543" lon="6.06482">
        <ele>208.60000610352</ele>
        <time>2017-06-07T14:40:28Z</time>
      </trkpt>
      <trkpt lat="43.41541" lon="6.06485">
        <ele>208.39999389648</ele>
        <time>2017-06-07T14:40:29Z</time>
      </trkpt>
      <trkpt lat="43.41538" lon="6.06488">
        <ele>208.19999694824</ele>
        <time>2017-06-07T14:40:30Z</time>
      </trkpt>
      <trkpt lat="43.41536" lon="6.06492">
        <ele>208.19999694824</ele>
        <time>2017-06-07T14:40:31Z</time>
      </trkpt>
      <trkpt lat="43.41534" lon="6.06496">
        <ele>208</ele>
        <time>2017-06-07T14:40:32Z</time>
      </trkpt>
      <trkpt lat="43.41529" lon="6.06505">
        <ele>207.86666870117</ele>
        <time>2017-06-07T14:40:34Z</time>
      </trkpt>
      <trkpt lat="43.41526" lon="6.06515">
        <ele>207.60000610352</ele>
        <time>2017-06-07T14:40:36Z</time>
      </trkpt>
      <trkpt lat="43.41524" lon="6.06521">
        <ele>207.60000610352</ele>
        <time>2017-06-07T14:40:37Z</time>
      </trkpt>
      <trkpt lat="43.4152" lon="6.06546">
        <ele>207.23332214356</ele>
        <time>2017-06-07T14:40:41Z</time>
      </trkpt>
      <trkpt lat="43.41518" lon="6.0656">
        <ele>206.89999389648</ele>
        <time>2017-06-07T14:40:43Z</time>
      </trkpt>
      <trkpt lat="43.41516" lon="6.06567">
        <ele>206.73332214356</ele>
        <time>2017-06-07T14:40:44Z</time>
      </trkpt>
      <trkpt lat="43.41514" lon="6.06581">
        <ele>206.39999389648</ele>
        <time>2017-06-07T14:40:46Z</time>
      </trkpt>
      <trkpt lat="43.41513" lon="6.06589">
        <ele>206.39999389648</ele>
        <time>2017-06-07T14:40:47Z</time>
      </trkpt>
      <trkpt lat="43.41507" lon="6.06626">
        <ele>206.19999694824</ele>
        <time>2017-06-07T14:40:52Z</time>
      </trkpt>
      <trkpt lat="43.41506" lon="6.06634">
        <ele>206.19999694824</ele>
        <time>2017-06-07T14:40:53Z</time>
      </trkpt>
      <trkpt lat="43.41505" lon="6.06642">
        <ele>206.14999389648</ele>
        <time>2017-06-07T14:40:54Z</time>
      </trkpt>
      <trkpt lat="43.41502" lon="6.06657">
        <ele>206.05000305176</ele>
        <time>2017-06-07T14:40:56Z</time>
      </trkpt>
      <trkpt lat="43.415" lon="6.06674">
        <ele>206</ele>
        <time>2017-06-07T14:40:58Z</time>
      </trkpt>
      <trkpt lat="43.41499" lon="6.06683">
        <ele>205.80000305176</ele>
        <time>2017-06-07T14:40:59Z</time>
      </trkpt>
      <trkpt lat="43.41498" lon="6.06692">
        <ele>205.80000305176</ele>
        <time>2017-06-07T14:41:00Z</time>
      </trkpt>
      <trkpt lat="43.41498" lon="6.06709">
        <ele>205.55999755859</ele>
        <time>2017-06-07T14:41:02Z</time>
      </trkpt>
      <trkpt lat="43.41496" lon="6.06736">
        <ele>205.19999694824</ele>
        <time>2017-06-07T14:41:05Z</time>
      </trkpt>
      <trkpt lat="43.41493" lon="6.06764">
        <ele>204.59999084473</ele>
        <time>2017-06-07T14:41:08Z</time>
      </trkpt>
      <trkpt lat="43.41492" lon="6.06773">
        <ele>204.29998779297</ele>
        <time>2017-06-07T14:41:09Z</time>
      </trkpt>
      <trkpt lat="43.4149" lon="6.06783">
        <ele>204</ele>
        <time>2017-06-07T14:41:10Z</time>
      </trkpt>
      <trkpt lat="43.41489" lon="6.06792">
        <ele>203.69999694824</ele>
        <time>2017-06-07T14:41:11Z</time>
      </trkpt>
      <trkpt lat="43.41487" lon="6.06802">
        <ele>203.39999389648</ele>
        <time>2017-06-07T14:41:12Z</time>
      </trkpt>
      <trkpt lat="43.41484" lon="6.06811">
        <ele>203.39999389648</ele>
        <time>2017-06-07T14:41:13Z</time>
      </trkpt>
      <trkpt lat="43.41482" lon="6.06819">
        <ele>203.19999694824</ele>
        <time>2017-06-07T14:41:14Z</time>
      </trkpt>
      <trkpt lat="43.41479" lon="6.06826">
        <ele>203.19999694824</ele>
        <time>2017-06-07T14:41:15Z</time>
      </trkpt>
      <trkpt lat="43.41478" lon="6.06834">
        <ele>203.19999694824</ele>
        <time>2017-06-07T14:41:16Z</time>
      </trkpt>
      <trkpt lat="43.41476" lon="6.0684">
        <ele>203.19999694824</ele>
        <time>2017-06-07T14:41:17Z</time>
      </trkpt>
      <trkpt lat="43.41476" lon="6.06846">
        <ele>203.39999389648</ele>
        <time>2017-06-07T14:41:18Z</time>
      </trkpt>
      <trkpt lat="43.41475" lon="6.0685">
        <ele>203.60000610352</ele>
        <time>2017-06-07T14:41:19Z</time>
      </trkpt>
      <trkpt lat="43.41475" lon="6.06854">
        <ele>203.60000610352</ele>
        <time>2017-06-07T14:41:20Z</time>
      </trkpt>
      <trkpt lat="43.41474" lon="6.06857">
        <ele>203.80000305176</ele>
        <time>2017-06-07T14:41:21Z</time>
      </trkpt>
      <trkpt lat="43.41474" lon="6.06858">
        <ele>203.80000305176</ele>
        <time>2017-06-07T14:41:22Z</time>
      </trkpt>
      <trkpt lat="43.41474" lon="6.06858">
        <ele>203.86666870117</ele>
        <time>2017-06-07T14:41:23Z</time>
      </trkpt>
      <trkpt lat="43.41474" lon="6.06858">
        <ele>203.93333435059</ele>
        <time>2017-06-07T14:41:24Z</time>
      </trkpt>
      <trkpt lat="43.41474" lon="6.06858">
        <ele>204</ele>
        <time>2017-06-07T14:41:25Z</time>
      </trkpt>
      <trkpt lat="43.41474" lon="6.06858">
        <ele>204</ele>
        <time>2017-06-07T14:41:26Z</time>
      </trkpt>
      <trkpt lat="43.41474" lon="6.06858">
        <ele>203.80000305176</ele>
        <time>2017-06-07T14:41:28Z</time>
      </trkpt>
      <trkpt lat="43.41474" lon="6.06858">
        <ele>203.60000610352</ele>
        <time>2017-06-07T14:41:31Z</time>
      </trkpt>
      <trkpt lat="43.41474" lon="6.06858">
        <ele>203.80000305176</ele>
        <time>2017-06-07T14:41:35Z</time>
      </trkpt>
      <trkpt lat="43.41474" lon="6.06858">
        <ele>204</ele>
        <time>2017-06-07T14:41:39Z</time>
      </trkpt>
      <trkpt lat="43.41474" lon="6.06858">
        <ele>204</ele>
        <time>2017-06-07T14:41:40Z</time>
      </trkpt>
      <trkpt lat="43.41474" lon="6.06858">
        <ele>204</ele>
        <time>2017-06-07T14:41:41Z</time>
      </trkpt>
      <trkpt lat="43.41475" lon="6.06858">
        <ele>203.80000305176</ele>
        <time>2017-06-07T14:41:42Z</time>
      </trkpt>
      <trkpt lat="43.41475" lon="6.06859">
        <ele>203.80000305176</ele>
        <time>2017-06-07T14:41:43Z</time>
      </trkpt>
      <trkpt lat="43.41475" lon="6.06861">
        <ele>203.75</ele>
        <time>2017-06-07T14:41:44Z</time>
      </trkpt>
      <trkpt lat="43.41475" lon="6.06864">
        <ele>203.65000915527</ele>
        <time>2017-06-07T14:41:46Z</time>
      </trkpt>
      <trkpt lat="43.41476" lon="6.06866">
        <ele>203.60000610352</ele>
        <time>2017-06-07T14:41:47Z</time>
      </trkpt>
      <trkpt lat="43.41476" lon="6.06871">
        <ele>203.80000305176</ele>
        <time>2017-06-07T14:41:49Z</time>
      </trkpt>
      <trkpt lat="43.41476" lon="6.06874">
        <ele>204</ele>
        <time>2017-06-07T14:41:50Z</time>
      </trkpt>
      <trkpt lat="43.41476" lon="6.06877">
        <ele>204</ele>
        <time>2017-06-07T14:41:51Z</time>
      </trkpt>
      <trkpt lat="43.41475" lon="6.0688">
        <ele>204</ele>
        <time>2017-06-07T14:41:52Z</time>
      </trkpt>
      <trkpt lat="43.41475" lon="6.06883">
        <ele>204</ele>
        <time>2017-06-07T14:41:53Z</time>
      </trkpt>
      <trkpt lat="43.41476" lon="6.06892">
        <ele>203.60000610352</ele>
        <time>2017-06-07T14:41:56Z</time>
      </trkpt>
      <trkpt lat="43.41476" lon="6.06895">
        <ele>203.39999389648</ele>
        <time>2017-06-07T14:41:57Z</time>
      </trkpt>
      <trkpt lat="43.41476" lon="6.06898">
        <ele>203.19999694824</ele>
        <time>2017-06-07T14:41:58Z</time>
      </trkpt>
      <trkpt lat="43.41476" lon="6.06901">
        <ele>203.19999694824</ele>
        <time>2017-06-07T14:41:59Z</time>
      </trkpt>
      <trkpt lat="43.41475" lon="6.06908">
        <ele>203</ele>
        <time>2017-06-07T14:42:01Z</time>
      </trkpt>
      <trkpt lat="43.41473" lon="6.06911">
        <ele>202.80000305176</ele>
        <time>2017-06-07T14:42:02Z</time>
      </trkpt>
      <trkpt lat="43.41472" lon="6.06915">
        <ele>203</ele>
        <time>2017-06-07T14:42:03Z</time>
      </trkpt>
      <trkpt lat="43.4147" lon="6.06919">
        <ele>203.19999694824</ele>
        <time>2017-06-07T14:42:04Z</time>
      </trkpt>
      <trkpt lat="43.4147" lon="6.06922">
        <ele>203.39999389648</ele>
        <time>2017-06-07T14:42:05Z</time>
      </trkpt>
      <trkpt lat="43.4147" lon="6.06925">
        <ele>203.39999389648</ele>
        <time>2017-06-07T14:42:06Z</time>
      </trkpt>
      <trkpt lat="43.4147" lon="6.06928">
        <ele>203.39999389648</ele>
        <time>2017-06-07T14:42:07Z</time>
      </trkpt>
      <trkpt lat="43.41472" lon="6.06931">
        <ele>203.39999389648</ele>
        <time>2017-06-07T14:42:08Z</time>
      </trkpt>
      <trkpt lat="43.41473" lon="6.06935">
        <ele>203.39999389648</ele>
        <time>2017-06-07T14:42:09Z</time>
      </trkpt>
      <trkpt lat="43.41476" lon="6.06938">
        <ele>203.19999694824</ele>
        <time>2017-06-07T14:42:10Z</time>
      </trkpt>
      <trkpt lat="43.41479" lon="6.06941">
        <ele>203.19999694824</ele>
        <time>2017-06-07T14:42:11Z</time>
      </trkpt>
      <trkpt lat="43.41482" lon="6.06943">
        <ele>203.19999694824</ele>
        <time>2017-06-07T14:42:12Z</time>
      </trkpt>
      <trkpt lat="43.41485" lon="6.06946">
        <ele>203.19999694824</ele>
        <time>2017-06-07T14:42:13Z</time>
      </trkpt>
      <trkpt lat="43.41487" lon="6.06949">
        <ele>203.19999694824</ele>
        <time>2017-06-07T14:42:14Z</time>
      </trkpt>
      <trkpt lat="43.41489" lon="6.06952">
        <ele>203.39999389648</ele>
        <time>2017-06-07T14:42:15Z</time>
      </trkpt>
      <trkpt lat="43.41495" lon="6.06958">
        <ele>203.39999389648</ele>
        <time>2017-06-07T14:42:17Z</time>
      </trkpt>
      <trkpt lat="43.41502" lon="6.06965">
        <ele>202.80000305176</ele>
        <time>2017-06-07T14:42:20Z</time>
      </trkpt>
      <trkpt lat="43.41505" lon="6.06967">
        <ele>202.60000610352</ele>
        <time>2017-06-07T14:42:21Z</time>
      </trkpt>
      <trkpt lat="43.41507" lon="6.06969">
        <ele>202.60000610352</ele>
        <time>2017-06-07T14:42:22Z</time>
      </trkpt>
      <trkpt lat="43.41519" lon="6.06971">
        <ele>202.80000305176</ele>
        <time>2017-06-07T14:42:26Z</time>
      </trkpt>
      <trkpt lat="43.41522" lon="6.06972">
        <ele>202.80000305176</ele>
        <time>2017-06-07T14:42:27Z</time>
      </trkpt>
      <trkpt lat="43.41525" lon="6.06974">
        <ele>202.80000305176</ele>
        <time>2017-06-07T14:42:28Z</time>
      </trkpt>
      <trkpt lat="43.41528" lon="6.06976">
        <ele>202.80000305176</ele>
        <time>2017-06-07T14:42:29Z</time>
      </trkpt>
      <trkpt lat="43.4153" lon="6.0698">
        <ele>202.60000610352</ele>
        <time>2017-06-07T14:42:30Z</time>
      </trkpt>
      <trkpt lat="43.41532" lon="6.06983">
        <ele>202.60000610352</ele>
        <time>2017-06-07T14:42:31Z</time>
      </trkpt>
      <trkpt lat="43.41534" lon="6.06987">
        <ele>202.80000305176</ele>
        <time>2017-06-07T14:42:32Z</time>
      </trkpt>
      <trkpt lat="43.41535" lon="6.06991">
        <ele>202.80000305176</ele>
        <time>2017-06-07T14:42:33Z</time>
      </trkpt>
      <trkpt lat="43.41536" lon="6.06996">
        <ele>203</ele>
        <time>2017-06-07T14:42:34Z</time>
      </trkpt>
      <trkpt lat="43.41537" lon="6.07">
        <ele>203.19999694824</ele>
        <time>2017-06-07T14:42:35Z</time>
      </trkpt>
      <trkpt lat="43.41537" lon="6.07016">
        <ele>203.19999694824</ele>
        <time>2017-06-07T14:42:38Z</time>
      </trkpt>
      <trkpt lat="43.41538" lon="6.07021">
        <ele>203.19999694824</ele>
        <time>2017-06-07T14:42:39Z</time>
      </trkpt>
      <trkpt lat="43.41539" lon="6.07032">
        <ele>203</ele>
        <time>2017-06-07T14:42:41Z</time>
      </trkpt>
      <trkpt lat="43.41542" lon="6.07048">
        <ele>202.73333740234</ele>
        <time>2017-06-07T14:42:44Z</time>
      </trkpt>
      <trkpt lat="43.41544" lon="6.07076">
        <ele>202.60000610352</ele>
        <time>2017-06-07T14:42:49Z</time>
      </trkpt>
      <trkpt lat="43.41545" lon="6.07087">
        <ele>202.80000305176</ele>
        <time>2017-06-07T14:42:51Z</time>
      </trkpt>
      <trkpt lat="43.41546" lon="6.07093">
        <ele>203</ele>
        <time>2017-06-07T14:42:52Z</time>
      </trkpt>
      <trkpt lat="43.41546" lon="6.07104">
        <ele>203.10000610352</ele>
        <time>2017-06-07T14:42:54Z</time>
      </trkpt>
      <trkpt lat="43.41547" lon="6.07109">
        <ele>203.19999694824</ele>
        <time>2017-06-07T14:42:55Z</time>
      </trkpt>
      <trkpt lat="43.41549" lon="6.07114">
        <ele>203.19999694824</ele>
        <time>2017-06-07T14:42:56Z</time>
      </trkpt>
      <trkpt lat="43.41551" lon="6.07118">
        <ele>203.19999694824</ele>
        <time>2017-06-07T14:42:57Z</time>
      </trkpt>
      <trkpt lat="43.41554" lon="6.07119">
        <ele>203.19999694824</ele>
        <time>2017-06-07T14:42:58Z</time>
      </trkpt>
      <trkpt lat="43.41557" lon="6.07119">
        <ele>203.19999694824</ele>
        <time>2017-06-07T14:42:59Z</time>
      </trkpt>
      <trkpt lat="43.4156" lon="6.07118">
        <ele>203.19999694824</ele>
        <time>2017-06-07T14:43:00Z</time>
      </trkpt>
      <trkpt lat="43.41563" lon="6.07117">
        <ele>203.19999694824</ele>
        <time>2017-06-07T14:43:01Z</time>
      </trkpt>
      <trkpt lat="43.41565" lon="6.07115">
        <ele>203</ele>
        <time>2017-06-07T14:43:02Z</time>
      </trkpt>
      <trkpt lat="43.41567" lon="6.07114">
        <ele>203</ele>
        <time>2017-06-07T14:43:03Z</time>
      </trkpt>
      <trkpt lat="43.41569" lon="6.0711">
        <ele>203</ele>
        <time>2017-06-07T14:43:05Z</time>
      </trkpt>
      <trkpt lat="43.41569" lon="6.07109">
        <ele>203.19999694824</ele>
        <time>2017-06-07T14:43:06Z</time>
      </trkpt>
      <trkpt lat="43.41569" lon="6.07109">
        <ele>217.60000610352</ele>
        <time>2017-06-07T14:43:07Z</time>
      </trkpt>
    </trkseg>
  </trk>
</gpx>